# Wetter Temperatur Luftdruck Luftfeuchtigkeit Sichtweite Windgeschwindigkeit Windrichtung Zeit
1 Clear 6 1010 63 10000 2.1 20 19:42 17.10.2019
2 Clear 6 1010 63 10000 2.1 20 19:42 17.10.2019
3 Clear 6 1009 63 10000 2.6 200 19:21 17.10.2019
4 Clear 7 1009 61 10000 2.6 20 18:59 17.10.2019
5 Clear 7 1009 61 10000 2.6 20 18:39 17.10.2019
6 Clear 7 1009 45 10000 1.5 250 18:21 17.10.2019
7 Clear 7 1009 45 10000 1.5 250 18:21 17.10.2019
8 Clear 7 1009 61 10000 3.6 50 17:55 17.10.2019
9 Clear 7 1009 61 10000 3.6 50 17:55 17.10.2019
10 Clouds 7 1009 61 10000 3.6 50 17:36 17.10.2019
11 Clouds 7 1009 45 10000 2.6 290 17:18 17.10.2019
12 Clouds 7 1009 61 10000 2.6 80 16:41 17.10.2019
13 Clouds 7 1009 49 10000 2.1 340 16:19 17.10.2019
14 Clouds 7 1008 65 10000 2.1 60 15:59 17.10.2019
15 Clouds 7 1008 65 10000 2.1 60 15:40 17.10.2019
16 Clouds 7 1008 49 10000 1.5 100 15:20 17.10.2019
17 Clouds 7 1008 70 10000 3.1 30 14:58 17.10.2019
18 Clouds 7 1008 70 10000 3.1 30 14:39 17.10.2019
19 Clouds 6 1008 48 10000 1.5 120 14:20 17.10.2019
20 Clouds 5 1007 70 10000 3.6 10 13:41 17.10.2019
21 Clouds 5 1007 70 10000 3.6 10 13:41 17.10.2019
22 Clouds 5 1007 60 10000 1 0 13:21 17.10.2019
23 Clouds 4 1007 70 10000 4.6 30 12:58 17.10.2019
24 Clouds 4 1007 70 10000 4.6 30 12:39 17.10.2019
25 Clouds 4 1007 64 10000 1 0 12:20 17.10.2019
26 Clouds 4 1007 63 10000 4.6 40 11:56 17.10.2019
27 Clouds 4 1007 63 10000 4.6 40 11:38 17.10.2019
28 Clouds 3 1006 60 10000 1 0 11:18 17.10.2019
29 Clouds 4 1006 80 10000 3.1 30 10:42 17.10.2019
30 Clouds 4 1006 60 10000 0.683 11 10:20 17.10.2019
31 Clouds 4 1005 80 10000 1.5 140 09:58 17.10.2019
32 Clouds 5 1005 80 10000 1.5 140 09:39 17.10.2019
33 Clouds 5 1005 52 10000 2.1 80 09:20 17.10.2019
34 Clouds 5 1005 80 10000 2.1 30 08:58 17.10.2019
35 Clouds 5 1005 80 10000 2.1 30 08:38 17.10.2019
36 Clouds 5 1004 56 10000 1.5 90 08:19 17.10.2019
37 Clouds 4 1004 80 10000 3.1 30 07:50 17.10.2019
38 Clouds 5 1003 64 10000 1 0 07:21 17.10.2019
39 Clouds 6 1003 70 10000 2.1 70 06:59 17.10.2019
40 Clouds 5 1003 70 10000 2.1 70 06:39 17.10.2019
41 Clouds 5 1003 70 10000 2.1 70 06:39 17.10.2019
42 Clouds 5 1003 52 10000 1.5 70 06:19 17.10.2019
43 Clouds 5 1003 80 10000 2.6 10 05:46 17.10.2019
44 Clouds 5 1002 56 10000 1.5 130 05:28 17.10.2019
45 Clouds 5 1002 93 10000 2.1 70 04:50 17.10.2019
46 Clouds 5 1002 75 10000 5.1 40 03:50 17.10.2019
47 Clouds 5 1002 87 10000 5.1 30 02:35 17.10.2019
48 Clouds 7 1002 75 10000 5.7 30 00:54 17.10.2019
49 Clouds 7 1002 75 10000 5.7 30 00:36 17.10.2019
50 Clouds 7 1001 71 10000 2.6 70 00:18 17.10.2019
51 Clouds 8 1001 75 10000 3.6 60 23:42 16.10.2019
52 Clouds 8 1000 57 10000 3.1 10 23:20 16.10.2019
53 Clouds 7 1001 81 10000 4.6 30 22:55 16.10.2019
54 Clouds 8 1001 81 10000 4.6 30 22:36 16.10.2019
55 Clouds 8 1000 61 10000 3.1 360 22:18 16.10.2019
56 Clouds 8 1001 70 10000 5.7 30 21:55 16.10.2019
57 Clouds 9 1001 70 10000 5.7 30 21:37 16.10.2019
58 Clouds 9 1000 61 10000 2.1 330 21:18 16.10.2019
59 Clouds 9 1000 76 10000 6.2 30 20:56 16.10.2019
60 Clouds 9 1000 76 10000 6.2 30 20:56 16.10.2019
61 Clouds 9 1000 76 10000 6.2 30 20:38 16.10.2019
62 Clouds 9 1000 50 10000 2.1 320 20:20 16.10.2019
63 Clouds 10 1000 57 10000 3.1 40 19:56 16.10.2019
64 Clouds 10 1000 57 10000 3.1 40 19:38 16.10.2019
65 Clouds 10 999 34 10000 3.1 50 19:19 16.10.2019
66 Clouds 10 999 61 10000 8.2 70 18:39 16.10.2019
67 Clouds 10 999 40 10000 6.7 60 18:19 16.10.2019
68 Clouds 10 999 66 10000 8.2 70 17:56 16.10.2019
69 Clouds 10 999 66 10000 8.2 70 17:38 16.10.2019
70 Clouds 10 999 59 10000 8.2 70 17:20 16.10.2019
71 Clouds 10 999 66 10000 7.2 60 16:58 16.10.2019
72 Clouds 10 999 66 10000 7.2 60 16:40 16.10.2019
73 Clouds 10 998 59 10000 7.2 80 16:20 16.10.2019
74 Clouds 10 999 71 10000 9.3 70 15:56 16.10.2019
75 Clouds 10 999 71 10000 9.3 70 15:37 16.10.2019
76 Clouds 10 998 46 10000 6.7 60 15:18 16.10.2019
77 Clouds 11 998 66 10000 9.3 70 14:56 16.10.2019
78 Clouds 11 998 66 10000 9.3 70 14:38 16.10.2019
79 Clouds 11 998 46 10000 6.7 80 14:18 16.10.2019
80 Clouds 11 997 76 10000 8.2 60 13:56 16.10.2019
81 Clouds 11 997 76 10000 8.2 60 13:37 16.10.2019
82 Clouds 11 997 50 10000 9.3 90 13:18 16.10.2019
83 Clouds 10 997 76 10000 10.3 90 12:41 16.10.2019
84 Clouds 10 997 54 10000 8.2 70 12:18 16.10.2019
85 Clouds 11 996 71 10000 13.9 70 11:43 16.10.2019
86 Clouds 10 996 54 10000 9.8 70 11:18 16.10.2019
87 Clouds 10 995 76 10000 11.3 70 10:40 16.10.2019
88 Clouds 10 995 54 10000 9.3 70 10:22 16.10.2019
89 Drizzle 10 994 76 10000 11.8 80 09:56 16.10.2019
90 Drizzle 10 994 76 10000 11.8 80 09:38 16.10.2019
91 Clouds 10 994 58 10000 10.3 70 09:19 16.10.2019
92 Rain 11 994 76 10000 10.8 80 08:43 16.10.2019
93 Clouds 10 993 54 10000 9.3 70 08:24 16.10.2019
94 Rain 10 993 81 10000 9.3 70 07:55 16.10.2019
95 Rain 10 993 81 10000 9.3 70 07:37 16.10.2019
96 Clouds 10 993 57 10000 7.7 70 07:18 16.10.2019
97 Rain 10 992 87 10000 8.2 70 06:40 16.10.2019
98 Rain 10 992 87 10000 7.2 70 05:55 16.10.2019
99 Rain 9 991 66 10000 7.2 80 03:27 16.10.2019
100 Rain 9 991 93 10000 9.3 70 02:49 16.10.2019
101 Rain 10 990 57 10000 8.7 70 01:20 16.10.2019
102 Rain 10 991 81 10000 10.3 70 00:52 16.10.2019
103 Clouds 10 990 53 10000 10.3 80 00:32 16.10.2019
104 Rain 10 990 81 10000 13.4 70 23:42 15.10.2019
105 Rain 10 990 81 10000 13.4 70 23:42 15.10.2019
106 Rain 10 990 81 10000 13.4 70 23:41 15.10.2019
107 Clouds 9 990 53 10000 11.8 70 23:22 15.10.2019
108 Rain 9 990 81 10000 13.9 70 22:57 15.10.2019
109 Rain 10 990 81 10000 13.9 70 22:38 15.10.2019
110 Rain 10 989 53 10000 10.8 70 22:20 15.10.2019
111 Rain 10 989 76 10000 15.9 70 21:56 15.10.2019
112 Rain 10 989 76 10000 15.9 70 21:56 15.10.2019
113 Rain 10 989 76 10000 15.9 70 21:56 15.10.2019
114 Rain 10 989 76 10000 15.9 70 21:38 15.10.2019
115 Clouds 10 989 50 10000 10.3 70 21:20 15.10.2019
116 Rain 10 989 66 10000 15.4 60 20:57 15.10.2019
117 Rain 10 989 66 10000 15.4 60 20:39 15.10.2019
118 Clouds 10 989 50 10000 9.8 70 20:20 15.10.2019
119 Rain 10 989 66 10000 16.5 70 19:59 15.10.2019
120 Rain 10 989 66 10000 16.5 70 19:40 15.10.2019
121 Rain 10 989 66 10000 16.5 70 19:40 15.10.2019
122 Clouds 10 989 50 10000 11.8 70 19:20 15.10.2019
123 Clouds 10 989 66 10000 15.9 70 18:48 15.10.2019
124 Clouds 10 988 50 10000 11.3 70 18:30 15.10.2019
125 Clouds 10 989 71 10000 13.4 60 17:59 15.10.2019
126 Clouds 10 989 71 10000 13.4 60 17:41 15.10.2019
127 Clouds 10 989 71 10000 13.4 60 17:41 15.10.2019
128 Clouds 10 989 71 10000 13.4 60 17:41 15.10.2019
129 Clouds 10 989 53 10000 10.3 70 17:20 15.10.2019
130 Clouds 10 989 53 10000 10.3 70 17:20 15.10.2019
131 Clouds 10 989 76 10000 10.8 60 16:58 15.10.2019
132 Clouds 10 989 76 10000 10.8 60 16:39 15.10.2019
133 Clouds 10 990 62 10000 11.8 80 16:20 15.10.2019
134 Rain 10 990 87 10000 12.3 70 15:55 15.10.2019
135 Rain 10 990 87 10000 12.3 70 15:55 15.10.2019
136 Rain 10 990 87 10000 12.3 70 15:36 15.10.2019
137 Clouds 10 990 62 10000 12.3 80 15:18 15.10.2019
138 Rain 9 990 87 9000 10.3 70 14:38 15.10.2019
139 Rain 10 990 71 10000 11.3 80 14:20 15.10.2019
140 -273 0 0 0 0 0 13:58 15.10.2019
141 Rain 9 989 76 10000 10.3 90 13:40 15.10.2019
142 Clouds 9 990 66 10000 11.3 80 13:19 15.10.2019
143 Clouds 9 989 76 10000 8.2 90 12:44 15.10.2019
144 Clouds 9 989 76 10000 8.2 90 12:44 15.10.2019
145 Clouds 9 990 66 10000 8.7 80 12:22 15.10.2019
146 Clouds 9 990 66 10000 8.2 70 11:57 15.10.2019
147 Clouds 9 990 66 10000 8.2 70 11:57 15.10.2019
148 Clouds 9 990 66 10000 8.2 70 11:38 15.10.2019
149 Clouds 9 990 66 10000 8.2 70 11:19 15.10.2019
150 Clouds 9 989 76 10000 9.3 90 10:45 15.10.2019
151 Clouds 9 989 61 10000 9.8 90 10:22 15.10.2019
152 Clouds 9 988 76 10000 14.9 100 09:58 15.10.2019
153 Clouds 9 988 76 10000 14.9 100 09:39 15.10.2019
154 Clouds 9 989 57 10000 7.2 100 09:20 15.10.2019
155 -273 0 0 0 0 0 08:57 15.10.2019
156 Rain 9 989 57 10000 7.2 100 08:37 15.10.2019
157 Rain 9 989 57 10000 7.2 100 08:18 15.10.2019
158 Clouds 9 988 81 10000 13.9 110 07:42 15.10.2019
159 Clouds 9 989 57 10000 8.2 100 07:21 15.10.2019
160 -273 0 0 0 0 0 06:54 15.10.2019
161 Drizzle 9 988 61 10000 14.4 120 06:36 15.10.2019
162 Drizzle 9 988 87 10000 15.4 120 05:54 15.10.2019
163 Drizzle 9 988 87 10000 15.4 120 05:35 15.10.2019
164 Clouds 9 988 87 10000 14.4 120 04:40 15.10.2019
165 Drizzle 9 987 81 10000 14.9 110 03:59 15.10.2019
166 Drizzle 8 989 75 6000 13.4 90 03:30 15.10.2019
167 Drizzle 8 987 87 10000 15.4 100 01:51 15.10.2019
168 Drizzle 8 990 75 6000 10.8 100 01:24 15.10.2019
169 Drizzle 8 988 81 10000 17.5 110 00:58 15.10.2019
170 Drizzle 8 990 70 10000 11.3 100 00:24 15.10.2019
171 Rain 8 989 87 9000 13.9 110 23:55 14.10.2019
172 Rain 8 989 87 9000 13.9 110 23:36 14.10.2019
173 Rain 8 990 65 10000 11.3 100 23:18 14.10.2019
174 Rain 8 989 81 10000 14.4 100 22:39 14.10.2019
175 Rain 8 990 65 10000 9.3 90 22:19 14.10.2019
176 Rain 8 990 81 10000 14.4 90 21:57 14.10.2019
177 Rain 8 990 81 10000 14.4 90 21:39 14.10.2019
178 Rain 8 991 61 10000 8.2 80 21:20 14.10.2019
179 Rain 8 990 75 10000 13.9 90 20:56 14.10.2019
180 Rain 8 992 61 10000 8.2 80 20:38 14.10.2019
181 Rain 7 990 75 10000 13.9 90 20:38 14.10.2019
182 Rain 8 992 61 10000 8.2 80 20:18 14.10.2019
183 Rain 8 991 75 10000 13.9 100 19:43 14.10.2019
184 Clouds 8 993 61 10000 8.2 80 19:25 14.10.2019
185 Rain 8 992 75 10000 14.4 100 18:59 14.10.2019
186 Rain 8 992 75 10000 14.4 100 18:40 14.10.2019
187 Rain 8 992 75 10000 14.4 100 18:40 14.10.2019
188 Rain 8 993 61 10000 8.7 90 18:20 14.10.2019
189 Rain 8 993 61 10000 8.7 90 18:20 14.10.2019
190 Rain 8 992 75 10000 11.3 90 17:58 14.10.2019
191 Rain 8 992 75 10000 11.3 90 17:40 14.10.2019
192 Rain 8 994 65 10000 7.7 80 17:22 14.10.2019
193 Rain 8 993 75 10000 12.3 100 16:44 14.10.2019
194 Rain 7 995 70 10000 9.3 90 16:22 14.10.2019
195 Clouds 8 994 75 10000 11.3 100 15:58 14.10.2019
196 Clouds 8 994 75 10000 11.3 100 15:38 14.10.2019
197 Clouds 8 995 61 10000 6.7 90 15:20 14.10.2019
198 Clouds 7 994 75 10000 11.8 90 14:43 14.10.2019
199 Clouds 7 995 52 10000 9.3 90 14:24 14.10.2019
200 Clouds 7 995 70 10000 9.8 80 13:57 14.10.2019
201 Clouds 6 995 70 10000 9.8 80 13:39 14.10.2019
202 -273 0 0 0 0 0 13:20 14.10.2019
203 -273 0 0 0 0 0 12:41 14.10.2019
204 Clouds 5 997 56 10000 7.7 80 12:19 14.10.2019
205 Clouds 5 997 75 10000 10.3 80 11:48 14.10.2019
206 Clouds 5 998 60 10000 6.7 70 11:27 14.10.2019
207 Clouds 5 997 75 10000 8.2 70 10:59 14.10.2019
208 Clouds 4 997 75 10000 8.2 70 10:41 14.10.2019
209 Clear 4 998 60 10000 8.7 80 10:21 14.10.2019
210 Clear 4 998 60 10000 8.7 80 10:21 14.10.2019
211 -273 0 0 0 0 0 09:57 14.10.2019
212 Clear 4 999 60 10000 7.2 80 09:38 14.10.2019
213 Clear 4 999 60 10000 7.2 80 09:19 14.10.2019
214 Clouds 4 998 75 10000 8.2 80 08:46 14.10.2019
215 Clear 4 999 60 10000 4.1 70 08:23 14.10.2019
216 Clouds 4 999 75 10000 9.3 100 07:44 14.10.2019
217 Clear 4 1000 69 10000 4.6 70 07:21 14.10.2019
218 Clouds 4 999 75 10000 8.7 100 06:55 14.10.2019
219 Clouds 4 1001 64 10000 4.1 90 06:27 14.10.2019
220 Clouds 4 1000 86 10000 8.2 110 05:51 14.10.2019
221 Rain 5 1000 81 10000 6.7 110 04:50 14.10.2019
222 Rain 5 1001 93 10000 7.7 140 03:48 14.10.2019
223 Rain 4 1002 65 10000 6.2 100 03:22 14.10.2019
224 Drizzle 5 1002 93 10000 5.1 100 01:46 14.10.2019
225 Clouds 5 1003 60 10000 6.2 90 01:18 14.10.2019
226 Clouds 5 1002 87 10000 5.1 110 00:36 14.10.2019
227 Clouds 5 1004 72 10000 5.7 90 00:18 14.10.2019
228 Clouds 5 1003 87 10000 6.7 120 23:40 13.10.2019
229 Rain 5 1004 70 10000 4.6 90 23:19 13.10.2019
230 Rain 5 1003 93 10000 8.7 130 22:54 13.10.2019
231 Rain 5 1004 70 10000 4.6 80 22:36 13.10.2019
232 Rain 5 1004 70 10000 4.6 80 22:18 13.10.2019
233 Rain 5 1004 70 10000 4.6 80 22:18 13.10.2019
234 Rain 6 1004 93 6000 6.2 130 21:55 13.10.2019
235 Rain 6 1004 93 6000 6.2 130 21:36 13.10.2019
236 Drizzle 6 1004 70 10000 5.7 100 21:18 13.10.2019
237 Drizzle 6 1004 93 10000 5.7 160 20:55 13.10.2019
238 Rain 6 1004 65 10000 5.1 110 20:36 13.10.2019
239 Rain 6 1004 65 10000 5.1 110 20:18 13.10.2019
240 Rain 6 1004 70 10000 6.2 120 19:40 13.10.2019
241 Rain 6 1004 70 10000 6.2 120 19:22 13.10.2019
242 Rain 7 1004 93 7000 4.6 170 18:59 13.10.2019
243 Rain 7 1004 65 10000 5.7 110 18:38 13.10.2019
244 Rain 7 1004 65 10000 5.7 110 18:20 13.10.2019
245 Rain 7 1004 93 10000 7.2 150 17:59 13.10.2019
246 Rain 7 1004 93 10000 7.2 150 17:40 13.10.2019
247 Rain 7 1005 70 10000 5.1 110 17:22 13.10.2019
248 Rain 7 1005 70 10000 5.1 110 17:22 13.10.2019
249 Rain 7 1004 100 5000 7.2 160 16:43 13.10.2019
250 Rain 7 1005 65 10000 6.2 90 16:19 13.10.2019
251 Rain 7 1004 87 10000 9.3 130 15:57 13.10.2019
252 Rain 7 1004 87 10000 9.3 130 15:57 13.10.2019
253 Rain 7 1004 87 10000 9.3 130 15:39 13.10.2019
254 Rain 7 1005 65 10000 6.2 110 15:20 13.10.2019
255 Rain 7 1005 65 10000 6.2 110 15:20 13.10.2019
256 Rain 7 1004 87 10000 9.3 130 14:57 13.10.2019
257 Rain 6 1004 87 10000 9.3 130 14:39 13.10.2019
258 Rain 6 1005 78 10000 7.2 110 14:20 13.10.2019
259 Rain 6 1004 87 10000 9.8 130 13:43 13.10.2019
260 Clouds 6 1005 70 10000 7.7 120 13:24 13.10.2019
261 Drizzle 6 1004 81 10000 8.7 140 12:59 13.10.2019
262 Drizzle 6 1004 81 10000 8.7 140 12:59 13.10.2019
263 Drizzle 6 1004 81 10000 8.7 140 12:40 13.10.2019
264 Drizzle 5 1005 70 10000 7.2 110 12:21 13.10.2019
265 Drizzle 6 1003 81 10000 10.8 140 11:59 13.10.2019
266 Drizzle 5 1003 81 10000 10.8 140 11:40 13.10.2019
267 Clouds 7 1005 70 10000 5.1 90 11:21 13.10.2019
268 Drizzle 5 1003 93 10000 9.8 140 10:59 13.10.2019
269 Drizzle 4 1003 93 10000 9.8 140 10:40 13.10.2019
270 Drizzle 5 1005 75 10000 4.6 80 10:22 13.10.2019
271 Drizzle 5 1005 75 10000 4.6 80 10:22 13.10.2019
272 Rain 5 1003 93 9000 9.3 150 09:40 13.10.2019
273 Rain 5 1004 80 10000 5.1 80 09:21 13.10.2019
274 Rain 5 1003 100 10000 9.3 140 08:57 13.10.2019
275 Rain 5 1004 80 10000 4.6 90 08:37 13.10.2019
276 Rain 5 1004 80 10000 4.6 90 08:18 13.10.2019
277 Rain 5 1003 100 10000 8.7 140 07:45 13.10.2019
278 Rain 5 1003 100 10000 8.7 140 07:45 13.10.2019
279 Clouds 5 1003 100 10000 9.3 140 06:58 13.10.2019
280 Clouds 6 1004 75 10000 4.6 100 06:31 13.10.2019
281 Drizzle 5 1004 75 10000 5.7 110 05:34 13.10.2019
282 Drizzle 5 1004 75 10000 5.7 110 05:34 13.10.2019
283 Clouds 5 1003 100 10000 8.7 130 04:46 13.10.2019
284 Clouds 6 1004 93 10000 7.2 140 03:39 13.10.2019
285 Rain 5 1004 93 7000 9.3 130 02:39 13.10.2019
286 Rain 5 1004 100 10000 6.7 140 01:53 13.10.2019
287 Clouds 5 1004 75 10000 4.6 100 01:26 13.10.2019
288 Clouds 5 1004 93 10000 6.2 120 00:46 13.10.2019
289 Clouds 5 1005 75 10000 3.6 100 00:21 13.10.2019
290 Drizzle 5 1004 93 10000 5.1 130 23:55 12.10.2019
291 Clouds 5 1004 70 10000 4.6 100 23:36 12.10.2019
292 Clouds 6 1004 70 10000 4.6 100 23:18 12.10.2019
293 Clouds 5 1004 93 10000 5.7 120 22:56 12.10.2019
294 Clouds 5 1004 93 10000 5.7 120 22:37 12.10.2019
295 Clouds 5 1004 75 10000 3.6 90 22:19 12.10.2019
296 Clouds 5 1003 93 10000 6.7 120 21:42 12.10.2019
297 Clouds 5 1004 70 10000 4.1 80 21:24 12.10.2019
298 Clouds 6 1003 87 10000 6.2 130 20:58 12.10.2019
299 Clouds 6 1003 87 10000 6.2 130 20:58 12.10.2019
300 Clouds 6 1003 87 10000 6.2 130 20:39 12.10.2019
301 Clouds 6 1003 70 10000 2.6 110 20:20 12.10.2019
302 Clouds 6 1003 61 10000 3.6 140 19:37 12.10.2019
303 Clouds 6 1003 61 10000 3.6 140 19:19 12.10.2019
304 Clouds 6 1003 75 10000 6.2 140 18:56 12.10.2019
305 Clouds 6 1003 75 10000 6.2 140 18:36 12.10.2019
306 Clouds 6 1003 52 10000 3.6 50 18:18 12.10.2019
307 Clouds 6 1003 75 10000 4.6 120 17:42 12.10.2019
308 Clouds 6 1004 52 10000 4.1 70 17:19 12.10.2019
309 Clouds 6 1003 70 10000 5.1 140 16:41 12.10.2019
310 Clouds 6 1003 70 10000 5.1 140 16:41 12.10.2019
311 Clouds 6 1004 52 10000 3.1 60 16:21 12.10.2019
312 Clouds 6 1004 65 10000 3.1 90 15:59 12.10.2019
313 Clouds 6 1004 65 10000 3.1 90 15:39 12.10.2019
314 Clouds 6 1004 52 10000 4.1 80 15:21 12.10.2019
315 Clouds 5 1004 70 10000 1.5 90 14:41 12.10.2019
316 Clouds 5 1004 52 10000 5.1 70 14:22 12.10.2019
317 Clouds 5 1004 52 10000 5.1 70 14:21 12.10.2019
318 Clouds 5 1004 81 10000 1 100 13:53 12.10.2019
319 Clouds 5 1004 81 10000 1 100 13:53 12.10.2019
320 Clouds 5 1004 52 10000 4.6 90 13:33 12.10.2019
321 Clouds 4 1004 75 10000 1 110 12:59 12.10.2019
322 Clouds 4 1004 75 10000 1 110 12:59 12.10.2019
323 Clouds 4 1004 75 10000 1 110 12:38 12.10.2019
324 Clouds 4 1004 55 10000 4.6 70 12:20 12.10.2019
325 Clouds 4 1004 80 10000 2.1 160 11:56 12.10.2019
326 Clouds 4 1004 80 10000 2.1 160 11:38 12.10.2019
327 Clouds 4 1004 55 10000 4.6 70 11:19 12.10.2019
328 Clouds 3 1004 80 10000 2.1 160 10:41 12.10.2019
329 Clouds 3 1004 60 10000 4.6 70 10:23 12.10.2019
330 Clouds 3 1004 80 10000 1.5 140 09:58 12.10.2019
331 Clouds 3 1004 80 10000 1.5 140 09:39 12.10.2019
332 Clouds 3 1004 60 10000 4.6 80 09:21 12.10.2019
333 -273 0 0 0 0 0 08:57 12.10.2019
334 Clouds 4 1004 86 10000 1.5 150 08:57 12.10.2019
335 Clouds 4 1004 86 10000 1.5 150 08:57 12.10.2019
336 Clouds 4 1004 60 10000 5.1 70 08:37 12.10.2019
337 Clouds 4 1004 60 10000 5.1 70 08:18 12.10.2019
338 Clouds 4 1004 65 10000 5.1 80 07:33 12.10.2019
339 Clouds 4 1004 80 10000 0.5 300 06:51 12.10.2019
340 Clouds 4 1004 80 10000 1 300 05:47 12.10.2019
341 Clouds 4 1005 83 10000 3.6 80 05:22 12.10.2019
342 Drizzle 4 1005 75 10000 3.6 80 04:24 12.10.2019
343 Drizzle 5 1005 83 10000 4.1 90 03:30 12.10.2019
344 Clouds 6 1005 81 10000 0.5 20 01:38 12.10.2019
345 Clouds 6 1005 65 10000 5.1 90 01:19 12.10.2019
346 Clear 6 1005 87 10000 2.6 20 00:40 12.10.2019
347 Clear 6 1005 87 10000 3.1 20 23:59 11.10.2019
348 Clear 6 1005 87 10000 3.1 20 23:40 11.10.2019
349 Clouds 6 1005 65 10000 3.97 25.221 23:20 11.10.2019
350 Clear 7 1005 81 10000 4.1 30 22:41 11.10.2019
351 Clear 7 1005 61 10000 2.1 120 22:21 11.10.2019
352 Clear 8 1005 75 10000 4.6 30 21:57 11.10.2019
353 Clear 8 1005 75 10000 4.6 30 21:39 11.10.2019
354 Clear 8 1005 61 10000 1 0 21:20 11.10.2019
355 Clear 8 1005 75 10000 3.6 30 20:44 11.10.2019
356 Clear 8 1005 61 10000 1.5 30 20:26 11.10.2019
357 Clouds 8 1005 75 10000 4.1 30 19:58 11.10.2019
358 Clouds 9 1005 75 10000 4.1 30 19:39 11.10.2019
359 Clear 9 1004 61 10000 2.6 360 19:18 11.10.2019
360 Clouds 10 1005 70 10000 5.1 30 18:58 11.10.2019
361 Clear 9 1004 57 10000 2.6 360 18:38 11.10.2019
362 Clear 9 1004 57 10000 2.6 360 18:19 11.10.2019
363 Clear 9 1004 70 10000 4.6 30 17:58 11.10.2019
364 Clear 9 1004 70 10000 4.6 30 17:38 11.10.2019
365 Clear 10 1004 53 10000 2.6 300 17:19 11.10.2019
366 Clear 9 1004 66 10000 4.6 30 16:56 11.10.2019
367 Clear 9 1004 66 10000 4.6 30 16:37 11.10.2019
368 Clear 9 1004 61 10000 2.1 290 16:19 11.10.2019
369 Clear 9 1004 70 10000 4.6 30 15:41 11.10.2019
370 Clear 9 1004 70 10000 4.6 30 15:41 11.10.2019
371 Clear 9 1004 71 10000 1 0 15:20 11.10.2019
372 Clear 9 1004 76 10000 6.2 50 14:58 11.10.2019
373 Clear 9 1004 76 10000 6.2 50 14:38 11.10.2019
374 Clear 9 1003 57 10000 3.1 10 14:19 11.10.2019
375 Clear 9 1003 57 10000 3.1 10 14:19 11.10.2019
376 Clear 8 1003 75 10000 6.7 40 13:44 11.10.2019
377 Clear 9 1003 71 10000 2.1 60 13:25 11.10.2019
378 Clouds 9 1003 75 10000 6.7 50 12:57 11.10.2019
379 Clouds 9 1003 75 10000 6.7 50 12:38 11.10.2019
380 Clouds 8 1002 75 10000 6.7 50 12:20 11.10.2019
381 Clouds 8 1002 75 10000 7.2 40 11:58 11.10.2019
382 Clouds 8 1002 75 10000 7.2 40 11:38 11.10.2019
383 Clear 7 1001 79 10000 0.5 0 11:20 11.10.2019
384 Clouds 7 1001 75 10000 5.7 50 10:54 11.10.2019
385 Clouds 7 1001 75 10000 5.7 50 10:36 11.10.2019
386 Clear 7 1001 79 10000 0.5 0 10:18 11.10.2019
387 Clouds 8 1000 75 10000 6.2 50 09:41 11.10.2019
388 Clear 8 1000 61 10000 3.1 40 09:21 11.10.2019
389 Clear 8 999 75 10000 4.6 50 08:56 11.10.2019
390 Clear 8 999 75 10000 4.6 50 08:38 11.10.2019
391 Drizzle 8 999 61 10000 1.5 20 08:20 11.10.2019
392 Drizzle 7 999 81 10000 6.2 40 07:52 11.10.2019
393 Rain 7 998 65 10000 1.5 40 07:33 11.10.2019
394 Drizzle 7 998 81 10000 5.7 50 06:50 11.10.2019
395 Drizzle 6 998 70 10000 2.1 10 06:25 11.10.2019
396 Clouds 6 998 81 10000 7.2 40 05:47 11.10.2019
397 Clouds 6 997 65 10000 1 360 05:29 11.10.2019
398 Clouds 6 998 81 10000 7.7 40 04:50 11.10.2019
399 Clouds 6 997 65 10000 6.7 60 03:21 11.10.2019
400 Clouds 6 995 65 10000 7.7 30 01:18 11.10.2019
401 Clear 6 995 70 10000 9.8 30 00:31 11.10.2019
402 Clouds 5 996 81 10000 7.7 40 23:58 10.10.2019
403 Clouds 5 996 81 10000 7.7 40 23:40 10.10.2019
404 Clouds 6 995 70 10000 11.3 20 23:19 10.10.2019
405 Clouds 6 996 75 10000 9.3 40 22:55 10.10.2019
406 Clouds 6 995 82 10000 10.8 20 22:36 10.10.2019
407 Clouds 6 995 82 10000 10.8 20 22:18 10.10.2019
408 Clouds 6 997 75 10000 8.7 30 21:42 10.10.2019
409 Clouds 6 995 79 10000 11.3 20 21:22 10.10.2019
410 Clouds 6 997 75 10000 10.8 20 20:58 10.10.2019
411 Clouds 6 997 75 10000 10.8 20 20:39 10.10.2019
412 Clouds 6 996 73 10000 10.3 10 20:20 10.10.2019
413 Clouds 6 995 84 0 10.73 360 19:57 10.10.2019
414 Clouds 6 995 84 0 10.73 360 19:57 10.10.2019
415 Clouds 6 995 85 0 10.28 5 19:39 10.10.2019
416 Clouds 6 995 85 0 10.28 360 19:19 10.10.2019
417 Rain 7 998 70 10000 11.8 30 18:42 10.10.2019
418 Rain 7 998 70 10000 11.8 30 18:21 10.10.2019
419 Rain 7 998 70 10000 11.8 30 17:59 10.10.2019
420 Rain 7 998 70 10000 11.8 30 17:40 10.10.2019
421 Rain 7 997 65 10000 9.8 40 17:18 10.10.2019
422 Clouds 7 998 75 10000 9.8 30 16:56 10.10.2019
423 Clouds 7 997 68 10000 8.2 40 16:37 10.10.2019
424 Clouds 7 997 68 10000 8.2 40 16:18 10.10.2019
425 Clouds 7 998 70 10000 7.7 30 15:40 10.10.2019
426 Clouds 7 998 70 10000 11.3 10 15:22 10.10.2019
427 Clouds 7 998 70 10000 11.3 10 15:22 10.10.2019
428 Clouds 7 999 65 10000 7.7 30 14:57 10.10.2019
429 Clouds 7 999 65 10000 7.7 30 14:37 10.10.2019
430 Clouds 7 998 70 10000 11.3 30 14:19 10.10.2019
431 Clouds 6 999 75 10000 10.8 40 13:57 10.10.2019
432 Clouds 6 999 75 10000 10.8 40 13:39 10.10.2019
433 Clouds 6 998 60 10000 6.7 30 13:18 10.10.2019
434 Clouds 5 998 70 10000 12.3 30 12:42 10.10.2019
435 Clouds 6 998 85 10000 2.1 160 12:21 10.10.2019
436 Clouds 4 998 75 10000 11.3 40 11:58 10.10.2019
437 Clouds 4 998 75 10000 11.3 40 11:40 10.10.2019
438 Clouds 4 998 74 10000 1.5 270 11:19 10.10.2019
439 Clear 4 998 80 10000 10.8 30 10:47 10.10.2019
440 Clear 3 998 64 10000 2.1 180 10:28 10.10.2019
441 Clear 3 998 64 10000 2.1 180 10:28 10.10.2019
442 Clear 3 998 80 10000 9.3 40 09:59 10.10.2019
443 Clear 3 998 80 10000 9.3 40 09:41 10.10.2019
444 Clear 3 997 74 10000 1 0 09:23 10.10.2019
445 Clear 4 998 75 10000 8.7 30 08:59 10.10.2019
446 Clear 4 998 75 10000 8.7 30 08:40 10.10.2019
447 Clear 3 998 80 10000 8.7 30 08:21 10.10.2019
448 Clear 4 998 80 10000 8.7 30 07:47 10.10.2019
449 Clear 3 998 74 10000 1.5 130 07:26 10.10.2019
450 Clear 3 998 80 10000 8.2 30 06:56 10.10.2019
451 Clear 3 998 80 10000 8.2 30 06:38 10.10.2019
452 Clear 3 998 75 10000 8.7 30 05:50 10.10.2019
453 Clear 3 998 69 10000 1.5 130 05:19 10.10.2019
454 Clear 4 998 69 10000 1.5 90 04:35 10.10.2019
455 Clear 4 998 75 10000 6.2 40 02:42 10.10.2019
456 Clear 6 998 65 10000 1.5 120 01:37 10.10.2019
457 Clear 6 998 65 10000 1.5 120 01:18 10.10.2019
458 Clear 6 998 65 10000 1.5 120 01:18 10.10.2019
459 Clear 5 998 81 10000 7.7 30 00:39 10.10.2019
460 Clear 6 999 81 10000 7.7 40 23:55 09.10.2019
461 Clear 6 998 78 10000 1.5 70 23:36 09.10.2019
462 Clear 5 998 78 10000 1.5 70 23:18 09.10.2019
463 Clear 5 998 78 10000 1.5 70 23:18 09.10.2019
464 Clear 6 998 81 10000 6.7 40 22:41 09.10.2019
465 Clear 6 998 65 10000 6.2 30 22:22 09.10.2019
466 Clear 7 998 75 10000 7.7 30 21:58 09.10.2019
467 Clear 7 998 75 10000 7.7 30 21:39 09.10.2019
468 Clear 7 998 75 10000 7.7 30 21:39 09.10.2019
469 Clear 7 998 75 10000 7.7 30 21:39 09.10.2019
470 Clouds 7 998 61 10000 7.2 30 21:19 09.10.2019
471 Clouds 7 998 75 10000 7.2 30 20:55 09.10.2019
472 Clouds 7 998 75 10000 7.2 30 20:37 09.10.2019
473 Clouds 8 997 57 10000 4.6 20 20:18 09.10.2019
474 Clouds 8 997 57 10000 4.6 20 20:18 09.10.2019
475 Clouds 8 998 70 10000 7.2 30 19:44 09.10.2019
476 Clouds 8 997 57 10000 5.1 20 19:23 09.10.2019
477 Clouds 9 998 70 10000 6.7 40 18:56 09.10.2019
478 Clear 9 997 57 10000 3.1 20 18:37 09.10.2019
479 Clear 9 997 57 10000 3.1 20 18:18 09.10.2019
480 -273 0 0 0 0 0 17:54 09.10.2019
481 Clear 9 998 70 10000 9.8 30 17:36 09.10.2019
482 Clouds 9 997 53 10000 4.1 60 17:18 09.10.2019
483 Clear 9 997 76 10000 9.3 30 16:40 09.10.2019
484 Clouds 9 996 61 10000 4.1 360 16:21 09.10.2019
485 Clouds 9 996 61 10000 4.1 360 16:21 09.10.2019
486 Clear 10 997 76 10000 8.7 30 15:57 09.10.2019
487 Clear 10 997 76 10000 8.7 30 15:57 09.10.2019
488 Clear 9 997 76 10000 8.7 30 15:39 09.10.2019
489 Clouds 10 996 57 10000 4.6 10 15:19 09.10.2019
490 Clear 9 997 81 10000 8.2 30 14:56 09.10.2019
491 Clear 9 997 81 10000 8.2 30 14:37 09.10.2019
492 Clouds 9 996 61 10000 3.6 330 14:18 09.10.2019
493 Clear 9 996 76 10000 8.7 40 13:39 09.10.2019
494 Clear 9 996 76 10000 8.7 40 13:39 09.10.2019
495 Clouds 9 996 66 10000 2.1 360 13:20 09.10.2019
496 Clear 8 996 81 10000 8.7 30 12:57 09.10.2019
497 Clear 8 996 81 10000 8.7 30 12:38 09.10.2019
498 Clouds 8 995 70 10000 4.1 30 12:20 09.10.2019
499 Clear 8 995 87 10000 10.3 40 11:55 09.10.2019
500 Clear 8 995 87 10000 10.3 40 11:55 09.10.2019
501 Clouds 8 994 75 10000 1.5 100 11:36 09.10.2019
502 Clouds 8 994 75 10000 1.5 100 11:18 09.10.2019
503 Clear 7 994 87 10000 6.7 30 10:42 09.10.2019
504 Clouds 7 994 87 10000 1.5 260 10:20 09.10.2019
505 Clear 7 994 87 10000 7.7 40 09:57 09.10.2019
506 Clear 7 994 87 10000 7.7 40 09:38 09.10.2019
507 Clear 7 994 87 10000 7.7 40 09:38 09.10.2019
508 Clear 7 993 86 10000 4.54 33.928 09:18 09.10.2019
509 Clear 8 994 87 10000 7.2 30 08:39 09.10.2019
510 Clear 8 993 87 10000 4.02 32.122 08:21 09.10.2019
511 Clear 8 993 87 10000 4.02 32.122 08:21 09.10.2019
512 Clouds 8 993 93 10000 4.6 30 07:47 09.10.2019
513 Clouds 8 993 93 10000 4.6 30 07:47 09.10.2019
514 Clear 8 992 81 10000 1 0 07:26 09.10.2019
515 Clear 7 992 100 10000 3.6 30 06:59 09.10.2019
516 Clear 8 992 100 10000 3.6 30 06:41 09.10.2019
517 Clouds 8 991 100 10000 2.1 30 05:53 09.10.2019
518 Clear 8 990 87 10000 2.6 310 05:19 09.10.2019
519 Clouds 8 990 100 10000 0.5 280 03:54 09.10.2019
520 Rain 8 989 100 10000 1.5 250 02:42 09.10.2019
521 Rain 9 989 93 10000 2.1 360 01:39 09.10.2019
522 Rain 9 988 81 10000 1 0 01:19 09.10.2019
523 Clouds 10 988 76 10000 1 90 00:56 09.10.2019
524 Clouds 11 988 76 10000 1 90 00:37 09.10.2019
525 Clear 10 987 71 10000 4.07 22.202 00:19 09.10.2019
526 Rain 10 987 81 10000 2.1 90 23:39 08.10.2019
527 Rain 10 986 66 10000 2.1 50 23:18 08.10.2019
528 Rain 11 986 76 10000 2.1 80 22:56 08.10.2019
529 Rain 11 986 76 10000 2.1 80 22:37 08.10.2019
530 Rain 11 985 62 10000 3.1 110 22:18 08.10.2019
531 Rain 10 985 87 10000 2.6 40 21:57 08.10.2019
532 Rain 10 985 87 10000 2.6 40 21:38 08.10.2019
533 Clear 10 984 81 10000 4.96 41.197 21:18 08.10.2019
534 Clear 10 984 87 10000 3.1 10 20:55 08.10.2019
535 Clear 10 984 87 10000 3.1 10 20:37 08.10.2019
536 Clear 10 984 87 10000 3.1 10 20:37 08.10.2019
537 Clouds 11 983 81 10000 4.6 34.394 20:19 08.10.2019
538 Clear 11 983 81 10000 2.6 360 19:56 08.10.2019
539 Clear 11 982 76 10000 1 0 19:36 08.10.2019
540 Clear 12 982 76 10000 1 0 19:18 08.10.2019
541 Clear 12 982 71 10000 2.1 60 18:45 08.10.2019
542 Clear 12 981 71 10000 1.5 230 18:25 08.10.2019
543 Rain 12 981 76 10000 2.6 50 17:58 08.10.2019
544 Rain 12 981 76 10000 2.6 50 17:39 08.10.2019
545 Rain 12 981 76 10000 2.6 50 17:39 08.10.2019
546 Rain 12 981 66 10000 1 0 17:20 08.10.2019
547 Rain 12 981 76 10000 4.1 40 16:56 08.10.2019
548 Rain 12 981 76 10000 4.1 40 16:56 08.10.2019
549 Clear 12 980 71 10000 1.5 260 16:37 08.10.2019
550 Clear 12 980 71 10000 1.5 260 16:19 08.10.2019
551 Clear 12 980 71 10000 4.6 40 15:40 08.10.2019
552 Clear 12 979 71 10000 0.5 240 15:20 08.10.2019
553 Clear 12 979 71 10000 0.5 240 15:20 08.10.2019
554 Clear 11 979 76 10000 4.1 30 14:57 08.10.2019
555 Clear 11 979 76 10000 4.1 30 14:38 08.10.2019
556 Clear 11 979 71 10000 4.46 50.748 14:19 08.10.2019
557 Clear 10 978 81 10000 3.6 40 13:55 08.10.2019
558 Clear 10 978 76 10000 4.46 50.748 13:37 08.10.2019
559 Clear 10 978 81 10000 3.6 40 13:37 08.10.2019
560 Clear 10 978 76 10000 4.7 49.072 13:18 08.10.2019
561 Clear 9 978 87 10000 3.1 30 12:41 08.10.2019
562 Clear 8 977 87 10000 1.5 140 12:20 08.10.2019
563 Clear 8 977 93 10000 3.6 10 11:58 08.10.2019
564 Clear 8 977 93 10000 3.6 10 11:39 08.10.2019
565 Clear 8 976 87 10000 2.1 150 11:21 08.10.2019
566 Clouds 8 977 93 10000 4.1 10 10:54 08.10.2019
567 Clouds 8 977 93 10000 4.1 10 10:54 08.10.2019
568 Clouds 8 977 93 10000 4.1 10 10:36 08.10.2019
569 Clear 8 976 81 10000 4.94 40.766 10:18 08.10.2019
570 Rain 7 976 93 10000 3.6 10 09:40 08.10.2019
571 Drizzle 7 975 87 10000 1 0 09:22 08.10.2019
572 Rain 8 975 87 10000 4.1 20 08:45 08.10.2019
573 Rain 8 975 87 10000 1.5 200 08:25 08.10.2019
574 Rain 9 975 81 10000 5.7 30 07:58 08.10.2019
575 Rain 9 975 81 10000 5.7 30 07:40 08.10.2019
576 Rain 9 974 76 10000 1.5 30 07:19 08.10.2019
577 Rain 8 974 93 10000 4.6 20 06:46 08.10.2019
578 Rain 9 974 81 10000 2.6 10 06:23 08.10.2019
579 Rain 9 974 87 10000 4.6 30 05:43 08.10.2019
580 Rain 9 974 76 10000 2.1 360 05:21 08.10.2019
581 Rain 9 973 66 10000 7.2 10 03:32 08.10.2019
582 Drizzle 9 974 87 10000 8.2 360 02:44 08.10.2019
583 Rain 9 973 66 10000 3.6 340 02:25 08.10.2019
584 Rain 9 973 81 10000 7.7 10 01:42 08.10.2019
585 Drizzle 10 973 87 10000 8.2 20 00:57 08.10.2019
586 Drizzle 10 973 62 10000 6.7 10 00:25 08.10.2019
587 Drizzle 10 973 87 10000 8.2 20 23:58 07.10.2019
588 Rain 10 973 62 10000 7.7 10 23:38 07.10.2019
589 Rain 10 973 62 10000 7.7 10 23:19 07.10.2019
590 Rain 10 974 87 10000 8.2 20 22:55 07.10.2019
591 Rain 10 973 62 10000 6.7 10 22:37 07.10.2019
592 Rain 10 973 62 10000 6.7 10 22:18 07.10.2019
593 Rain 10 973 87 10000 8.7 20 21:54 07.10.2019
594 Rain 10 973 62 10000 5.1 30 21:36 07.10.2019
595 Rain 10 973 62 10000 5.1 30 21:36 07.10.2019
596 Rain 10 973 62 10000 5.1 30 21:18 07.10.2019
597 Rain 10 974 81 10000 9.8 30 20:56 07.10.2019
598 Rain 10 974 81 10000 9.8 30 20:56 07.10.2019
599 Rain 10 973 54 10000 5.7 50 20:37 07.10.2019
600 Rain 10 973 54 10000 5.7 50 20:18 07.10.2019
601 Rain 10 974 76 10000 9.3 30 19:42 07.10.2019
602 Rain 10 974 76 10000 9.3 30 19:42 07.10.2019
603 Rain 11 973 58 10000 6.2 40 19:21 07.10.2019
604 Clear 10 974 76 10000 9.3 20 19:00 07.10.2019
605 Clear 10 974 76 10000 9.3 20 18:41 07.10.2019
606 Clear 10 974 54 10000 6.2 30 18:19 07.10.2019
607 Clear 11 975 76 10000 9.3 30 17:58 07.10.2019
608 Clear 11 975 76 10000 9.3 30 17:40 07.10.2019
609 Rain 12 975 47 10000 6.2 40 17:18 07.10.2019
610 Rain 12 975 76 10000 10.8 30 16:44 07.10.2019
611 Rain 12 976 43 10000 7.7 60 16:26 07.10.2019
612 Clear 12 977 71 10000 10.3 30 15:57 07.10.2019
613 Clear 12 977 71 10000 10.3 30 15:39 07.10.2019
614 Clear 12 977 43 10000 6.7 60 15:21 07.10.2019
615 Clear 11 978 71 10000 8.2 40 14:41 07.10.2019
616 Clear 11 978 46 10000 6.7 50 14:23 07.10.2019
617 Clear 11 979 71 10000 10.3 30 13:45 07.10.2019
618 Clear 10 979 69 10000 6.2 40 13:21 07.10.2019
619 Clear 10 980 76 10000 8.2 30 12:59 07.10.2019
620 Clear 10 980 76 10000 8.2 30 12:40 07.10.2019
621 Clear 10 980 76 10000 8.2 30 12:40 07.10.2019
622 Clear 10 980 76 10000 5.7 60 12:21 07.10.2019
623 Clear 10 980 76 10000 5.7 60 12:21 07.10.2019
624 Clear 10 980 76 10000 5.7 60 12:21 07.10.2019
625 Rain 10 981 71 10000 10.8 30 11:59 07.10.2019
626 Rain 10 981 71 10000 10.8 30 11:59 07.10.2019
627 Rain 10 981 71 10000 10.8 30 11:40 07.10.2019
628 Clear 10 981 76 10000 6.2 60 11:21 07.10.2019
629 Clear 10 982 66 10000 10.8 40 10:58 07.10.2019
630 Clear 10 982 66 10000 10.8 40 10:39 07.10.2019
631 Clear 10 983 53 10000 5.7 40 10:20 07.10.2019
632 Clear 9 984 66 10000 11.3 60 09:40 07.10.2019
633 Clear 9 985 57 10000 7.2 70 09:22 07.10.2019
634 Clear 10 985 76 10000 9.8 50 08:55 07.10.2019
635 Clear 9 985 76 10000 9.8 50 08:37 07.10.2019
636 Clear 9 986 57 10000 9.3 80 08:18 07.10.2019
637 Clear 10 986 76 10000 10.3 60 07:40 07.10.2019
638 Clear 10 987 62 10000 8.2 70 07:20 07.10.2019
639 Clear 10 987 76 10000 8.7 50 06:44 07.10.2019
640 Clear 10 987 62 10000 9.8 80 06:23 07.10.2019
641 Clear 10 988 62 10000 12.9 100 05:30 07.10.2019
642 Clear 10 990 81 10000 6.7 60 04:58 07.10.2019
643 Clear 9 990 62 10000 10.3 80 04:20 07.10.2019
644 Clear 9 991 81 10000 6.2 70 03:44 07.10.2019
645 Clear 9 991 81 10000 6.2 70 03:44 07.10.2019
646 Clear 9 992 66 10000 7.7 70 03:19 07.10.2019
647 Clear 9 994 66 10000 6.2 70 02:20 07.10.2019
648 Clouds 9 994 87 10000 4.1 50 01:47 07.10.2019
649 Clear 9 995 66 10000 6.2 80 01:19 07.10.2019
650 Clouds 9 996 87 10000 5.1 80 00:38 07.10.2019
651 Clear 9 996 66 10000 3.1 90 00:19 07.10.2019
652 Clouds 9 997 87 10000 4.6 70 23:42 06.10.2019
653 Clouds 9 997 87 10000 4.6 70 23:42 06.10.2019
654 Clouds 9 997 87 10000 4.6 70 23:42 06.10.2019
655 Clear 9 997 76 10000 2.1 60 23:21 06.10.2019
656 Clouds 9 997 87 10000 6.2 70 22:59 06.10.2019
657 Clouds 9 997 87 10000 6.2 70 22:41 06.10.2019
658 Clouds 9 998 76 10000 3.1 60 22:21 06.10.2019
659 Clouds 9 998 87 10000 7.7 100 21:57 06.10.2019
660 Clouds 9 998 87 10000 7.7 100 21:37 06.10.2019
661 Clouds 9 1000 76 10000 4.6 100 21:19 06.10.2019
662 Clouds 9 999 87 10000 6.2 110 20:57 06.10.2019
663 Clouds 9 999 87 10000 6.2 110 20:39 06.10.2019
664 Clouds 9 999 87 10000 6.2 110 20:39 06.10.2019
665 Clouds 9 1001 71 10000 5.7 110 20:20 06.10.2019
666 Clouds 10 1000 87 10000 7.7 120 19:57 06.10.2019
667 Clouds 10 1000 87 10000 7.7 120 19:57 06.10.2019
668 Clouds 10 1001 71 10000 7.2 120 19:37 06.10.2019
669 Clouds 10 1001 71 10000 7.2 120 19:19 06.10.2019
670 Clouds 10 1001 71 10000 7.2 120 19:19 06.10.2019
671 Rain 10 1001 87 10000 8.7 120 18:56 06.10.2019
672 Rain 10 1002 71 10000 6.7 120 18:38 06.10.2019
673 Rain 11 1002 71 10000 6.7 120 18:19 06.10.2019
674 Rain 11 1002 87 10000 7.7 120 17:57 06.10.2019
675 Rain 11 1003 71 10000 6.2 130 17:38 06.10.2019
676 Rain 11 1003 71 10000 6.2 130 17:18 06.10.2019
677 Rain 11 1003 81 10000 8.2 120 16:42 06.10.2019
678 Rain 11 1004 71 10000 5.7 130 16:23 06.10.2019
679 Rain 10 1003 87 10000 7.7 140 15:45 06.10.2019
680 Rain 10 1004 81 10000 3.1 140 15:23 06.10.2019
681 Rain 10 1003 87 10000 7.2 140 14:59 06.10.2019
682 Rain 10 1003 87 10000 7.2 140 14:41 06.10.2019
683 Rain 10 1004 81 7000 4.6 150 14:23 06.10.2019
684 Rain 10 1003 93 10000 7.7 150 13:56 06.10.2019
685 Rain 10 1003 93 10000 7.7 150 13:56 06.10.2019
686 Rain 10 1004 76 9000 5.7 120 13:37 06.10.2019
687 Rain 10 1004 76 9000 5.7 120 13:19 06.10.2019
688 Drizzle 10 1003 93 10000 8.2 150 12:56 06.10.2019
689 Drizzle 10 1003 93 10000 8.2 150 12:37 06.10.2019
690 Drizzle 9 1004 76 10000 5.1 110 12:19 06.10.2019
691 Rain 9 1003 100 10000 6.2 140 11:55 06.10.2019
692 Rain 9 1004 81 10000 4.6 110 11:36 06.10.2019
693 Rain 9 1004 81 10000 4.6 110 11:36 06.10.2019
694 Rain 9 1004 81 10000 4.6 110 11:18 06.10.2019
695 Drizzle 9 1003 100 10000 6.2 140 10:42 06.10.2019
696 Drizzle 9 1003 81 10000 4.1 120 10:24 06.10.2019
697 Drizzle 9 1002 93 10000 6.2 140 09:42 06.10.2019
698 Drizzle 9 1003 76 10000 4.6 130 09:21 06.10.2019
699 Drizzle 9 1003 76 10000 4.6 130 09:21 06.10.2019
700 Drizzle 9 1002 93 10000 6.7 150 08:59 06.10.2019
701 Drizzle 9 1002 93 10000 6.7 150 08:40 06.10.2019
702 Drizzle 9 1003 76 10000 5.1 120 08:20 06.10.2019
703 Rain 9 1002 100 10000 7.2 150 07:42 06.10.2019
704 Rain 9 1002 76 10000 5.7 130 07:18 06.10.2019
705 Drizzle 8 1002 81 10000 4.1 110 06:19 06.10.2019
706 Drizzle 9 1001 81 10000 6.7 120 05:28 06.10.2019
707 Clouds 8 1000 87 10000 4.1 90 03:35 06.10.2019
708 Clouds 8 1000 100 10000 6.2 140 02:42 06.10.2019
709 Clouds 8 1000 81 10000 3.6 80 02:19 06.10.2019
710 Clouds 9 999 81 10000 4.1 100 01:38 06.10.2019
711 Clouds 9 999 81 10000 4.1 100 01:20 06.10.2019
712 Mist 9 998 93 9000 4.6 140 00:45 06.10.2019
713 Mist 9 999 81 10000 4.6 110 00:24 06.10.2019
714 Rain 8 998 100 4500 4.6 140 23:44 05.10.2019
715 Rain 8 998 81 10000 5.1 140 23:22 05.10.2019
716 Rain 9 997 100 250 4.1 150 22:58 05.10.2019
717 Rain 9 997 81 10000 1.5 120 22:39 05.10.2019
718 Rain 9 997 81 10000 1.5 120 22:20 05.10.2019
719 Rain 9 997 81 10000 1.5 120 22:20 05.10.2019
720 Rain 9 996 100 4000 3.6 150 21:56 05.10.2019
721 Rain 9 996 81 10000 4.6 110 21:37 05.10.2019
722 Rain 9 996 81 10000 4.6 110 21:18 05.10.2019
723 Rain 9 995 93 10000 4.1 160 20:55 05.10.2019
724 Rain 9 995 93 10000 4.1 160 20:36 05.10.2019
725 Rain 9 995 81 10000 6.7 100 20:18 05.10.2019
726 Rain 9 994 76 10000 7.7 100 19:37 05.10.2019
727 Rain 9 994 76 10000 7.7 100 19:19 05.10.2019
728 Rain 9 994 93 7000 10.3 140 18:55 05.10.2019
729 Rain 9 994 76 10000 9.8 100 18:37 05.10.2019
730 Rain 9 994 76 10000 9.8 100 18:19 05.10.2019
731 Rain 9 993 93 5000 11.3 120 17:43 05.10.2019
732 Rain 9 994 76 10000 9.3 100 17:23 05.10.2019
733 Rain 9 994 93 4000 10.8 130 16:57 05.10.2019
734 Rain 9 994 93 4000 10.8 130 16:39 05.10.2019
735 Rain 9 994 76 9000 9.3 90 16:20 05.10.2019
736 Rain 9 994 76 9000 9.3 90 16:20 05.10.2019
737 Rain 9 994 93 10000 12.3 130 15:56 05.10.2019
738 Rain 9 994 87 5000 9.3 100 15:38 05.10.2019
739 Rain 9 994 87 5000 9.3 100 15:19 05.10.2019
740 Rain 9 994 93 10000 12.3 130 14:43 05.10.2019
741 Rain 9 994 81 6000 7.7 90 14:24 05.10.2019
742 Rain 9 993 93 10000 15.4 120 13:58 05.10.2019
743 Rain 9 993 93 10000 15.4 120 13:40 05.10.2019
744 Rain 9 995 81 3000 8.2 90 13:19 05.10.2019
745 Rain 8 993 87 10000 17 120 12:43 05.10.2019
746 Rain 8 994 81 4000 10.3 90 12:19 05.10.2019
747 Rain 9 993 87 7000 15.9 120 11:43 05.10.2019
748 Rain 9 994 76 7000 11.3 90 11:21 05.10.2019
749 Rain 8 994 87 8000 15.9 120 10:58 05.10.2019
750 Rain 9 994 87 8000 15.9 120 10:39 05.10.2019
751 Rain 9 994 76 7000 10.8 100 10:21 05.10.2019
752 Rain 9 993 87 8000 17 110 09:55 05.10.2019
753 Rain 8 995 76 8000 10.8 100 09:37 05.10.2019
754 Rain 8 995 76 8000 10.8 100 09:18 05.10.2019
755 Rain 8 994 93 5000 17.5 110 08:39 05.10.2019
756 Rain 8 995 76 8000 13.9 100 08:19 05.10.2019
757 Rain 8 994 93 8000 16.5 110 07:52 05.10.2019
758 Rain 8 995 81 6000 13.9 100 07:30 05.10.2019
759 Rain 9 994 93 8000 18 110 06:57 05.10.2019
760 Rain 8 995 70 8000 12.9 100 06:24 05.10.2019
761 Rain 9 995 87 8000 18.5 110 05:39 05.10.2019
762 Rain 9 997 70 8000 11.8 110 03:34 05.10.2019
763 Rain 9 997 87 8000 19 110 02:45 05.10.2019
764 Rain 9 998 57 10000 17 120 01:29 05.10.2019
765 Rain 9 998 81 9000 21.1 110 00:51 05.10.2019
766 Rain 9 998 57 10000 17 120 00:28 05.10.2019
767 Rain 9 999 57 10000 19 110 23:59 04.10.2019
768 Rain 9 999 57 10000 19 110 23:41 04.10.2019
769 Rain 9 999 53 10000 14.9 110 23:23 04.10.2019
770 Rain 9 999 76 10000 20.6 110 22:57 04.10.2019
771 Rain 9 1000 57 10000 12.3 100 22:38 04.10.2019
772 Rain 9 1000 57 10000 12.3 100 22:19 04.10.2019
773 Rain 9 999 70 10000 20.1 110 21:55 04.10.2019
774 Rain 9 999 70 10000 20.1 110 21:36 04.10.2019
775 Rain 9 1000 53 10000 14.9 110 21:18 04.10.2019
776 Rain 9 1000 76 10000 22.6 110 20:41 04.10.2019
777 Rain 9 1002 61 10000 11.8 100 20:23 04.10.2019
778 Clouds 9 1000 70 10000 21.6 120 19:57 04.10.2019
779 Clouds 9 1000 70 10000 21.6 120 19:57 04.10.2019
780 Clouds 9 1000 70 10000 21.6 120 19:39 04.10.2019
781 Clouds 9 1002 57 10000 10.8 120 19:20 04.10.2019
782 Clouds 9 1001 76 10000 22.6 120 18:56 04.10.2019
783 Clouds 9 1001 76 10000 22.6 120 18:37 04.10.2019
784 Clouds 9 1001 62 10000 14.9 110 18:18 04.10.2019
785 Clouds 10 1000 76 10000 19.5 120 17:40 04.10.2019
786 Drizzle 9 1004 62 10000 12.9 110 17:22 04.10.2019
787 Clouds 9 1002 87 10000 20.1 120 16:58 04.10.2019
788 Clouds 9 1002 87 10000 20.1 120 16:39 04.10.2019
789 Clouds 10 1005 53 10000 9.8 100 16:19 04.10.2019
790 Clouds 10 1003 76 10000 16.5 110 15:56 04.10.2019
791 Clouds 9 1003 76 10000 16.5 110 15:38 04.10.2019
792 Clouds 9 1006 53 10000 10.8 110 15:19 04.10.2019
793 Clouds 9 1005 70 10000 15.9 100 14:55 04.10.2019
794 Clouds 9 1005 70 10000 15.9 100 14:37 04.10.2019
795 Clouds 8 1007 57 10000 6.7 90 14:19 04.10.2019
796 Clouds 9 1007 70 10000 15.4 110 13:44 04.10.2019
797 Clouds 9 1007 57 10000 8.2 100 13:22 04.10.2019
798 Clouds 8 1007 66 10000 14.9 110 12:55 04.10.2019
799 Clouds 8 1008 61 10000 7.2 90 12:36 04.10.2019
800 Clouds 8 1008 61 10000 7.2 90 12:18 04.10.2019
801 Clouds 8 1007 75 10000 15.9 110 11:42 04.10.2019
802 Clouds 7 1009 61 10000 7.2 90 11:22 04.10.2019
803 Clouds 7 1008 81 10000 14.9 120 10:55 04.10.2019
804 Clouds 7 1008 81 10000 14.9 120 10:37 04.10.2019
805 Clouds 7 1009 65 10000 8.2 100 10:18 04.10.2019
806 Clouds 7 1008 81 10000 13.9 110 09:41 04.10.2019
807 Clouds 7 1010 65 10000 7.7 110 09:23 04.10.2019
808 Clouds 7 1008 81 10000 12.9 120 08:45 04.10.2019
809 Clouds 7 1009 65 10000 10.3 110 08:26 04.10.2019
810 Clouds 8 1008 81 10000 14.4 120 07:47 04.10.2019
811 Clouds 8 1009 61 10000 8.7 120 07:26 04.10.2019
812 Clouds 8 1008 87 10000 12.9 120 06:58 04.10.2019
813 Clouds 8 1008 87 10000 12.9 120 06:39 04.10.2019
814 Clouds 8 1009 61 10000 7.7 100 06:20 04.10.2019
815 Clouds 8 1009 61 10000 7.7 100 06:20 04.10.2019
816 Rain 7 1009 70 10000 6.7 110 05:20 04.10.2019
817 Drizzle 8 1008 87 9000 13.9 120 04:38 04.10.2019
818 Clouds 8 1009 61 10000 6.2 100 03:18 04.10.2019
819 Clouds 8 1007 81 10000 14.4 120 02:43 04.10.2019
820 Rain 8 1007 87 10000 15.4 120 01:53 04.10.2019
821 Rain 8 1008 66 10000 6.7 110 01:26 04.10.2019
822 Rain 9 1008 70 10000 9.3 120 00:33 04.10.2019
823 Rain 8 1007 87 8000 12.9 120 23:40 03.10.2019
824 Rain 8 1008 75 10000 7.2 110 23:21 03.10.2019
825 Drizzle 8 1007 87 10000 12.9 120 22:58 03.10.2019
826 Drizzle 8 1007 87 10000 12.9 120 22:58 03.10.2019
827 Drizzle 8 1007 87 10000 12.9 120 22:39 03.10.2019
828 Drizzle 8 1008 75 10000 5.7 100 22:21 03.10.2019
829 Drizzle 8 1006 81 10000 13.4 120 21:58 03.10.2019
830 Drizzle 8 1008 70 10000 10.3 120 21:40 03.10.2019
831 Drizzle 8 1008 70 10000 10.3 120 21:20 03.10.2019
832 Rain 8 1006 81 10000 14.4 120 20:58 03.10.2019
833 Rain 8 1006 81 10000 14.4 120 20:39 03.10.2019
834 Rain 8 1007 75 10000 8.2 110 20:20 03.10.2019
835 Rain 8 1006 81 10000 14.4 120 19:56 03.10.2019
836 Rain 8 1006 81 10000 14.4 120 19:38 03.10.2019
837 Rain 8 1007 70 10000 8.7 110 19:19 03.10.2019
838 Rain 9 1005 81 10000 14.9 120 18:56 03.10.2019
839 Rain 9 1005 81 10000 14.9 120 18:37 03.10.2019
840 Rain 9 1007 66 10000 9.8 110 18:18 03.10.2019
841 Rain 9 1005 87 10000 14.9 120 17:42 03.10.2019
842 Rain 9 1007 70 10000 9.8 110 17:21 03.10.2019
843 Drizzle 8 1005 81 10000 15.4 120 16:57 03.10.2019
844 Drizzle 8 1007 75 10000 10.8 110 16:39 03.10.2019
845 Drizzle 8 1007 75 10000 10.8 110 16:20 03.10.2019
846 Drizzle 9 1005 87 10000 18 120 15:44 03.10.2019
847 Drizzle 9 1007 70 10000 11.8 110 15:24 03.10.2019
848 Rain 8 1005 87 10000 19 120 14:58 03.10.2019
849 Rain 8 1007 75 10000 9.3 100 14:37 03.10.2019
850 Rain 8 1007 75 10000 9.3 100 14:18 03.10.2019
851 Rain 8 1005 87 6000 18 110 13:44 03.10.2019
852 Rain 8 1006 70 10000 10.8 110 13:25 03.10.2019
853 Rain 8 1006 70 10000 10.8 110 13:25 03.10.2019
854 Rain 7 1004 87 9000 20.1 120 12:59 03.10.2019
855 Rain 7 1004 87 9000 20.1 120 12:39 03.10.2019
856 Rain 7 1004 87 9000 20.1 120 12:39 03.10.2019
857 Rain 8 1005 75 7000 11.8 110 12:20 03.10.2019
858 Rain 7 1003 87 10000 21.6 120 11:58 03.10.2019
859 Rain 7 1003 87 10000 21.6 120 11:40 03.10.2019
860 Rain 7 1006 75 8000 11.8 100 11:21 03.10.2019
861 Rain 7 1003 87 10000 20.6 120 10:57 03.10.2019
862 Rain 7 1003 87 10000 20.6 120 10:38 03.10.2019
863 Rain 7 1005 75 7000 12.3 110 10:18 03.10.2019
864 Rain 7 1003 87 10000 19.5 120 09:56 03.10.2019
865 Rain 7 1005 75 8000 11.3 100 09:37 03.10.2019
866 Rain 7 1005 75 8000 11.3 100 09:19 03.10.2019
867 Rain 7 1004 87 9000 19.5 110 08:42 03.10.2019
868 Rain 7 1006 70 10000 9.3 90 08:23 03.10.2019
869 Drizzle 7 1004 81 10000 18 110 07:42 03.10.2019
870 Drizzle 7 1007 70 10000 8.7 90 07:20 03.10.2019
871 Rain 7 1005 81 10000 18.5 110 06:53 03.10.2019
872 Rain 7 1007 70 10000 8.2 90 06:27 03.10.2019
873 Drizzle 7 1006 81 10000 17.5 110 05:49 03.10.2019
874 Drizzle 7 1009 61 10000 8.2 90 05:27 03.10.2019
875 Rain 7 1007 87 10000 15.4 110 04:45 03.10.2019
876 -273 0 0 0 0 0 03:54 03.10.2019
877 Drizzle 7 1011 72 10000 8.2 80 03:19 03.10.2019
878 Drizzle 7 1011 72 10000 8.2 80 03:19 03.10.2019
879 Drizzle 7 1012 72 10000 8.2 100 02:27 03.10.2019
880 Rain 6 1011 75 10000 13.9 110 01:40 03.10.2019
881 Rain 6 1013 81 10000 14.9 120 00:53 03.10.2019
882 Clouds 6 1014 60 10000 7.7 90 00:31 03.10.2019
883 Rain 6 1013 93 9000 15.4 110 23:57 02.10.2019
884 Rain 6 1013 93 9000 15.4 110 23:37 02.10.2019
885 Clouds 6 1015 56 10000 7.7 100 23:18 02.10.2019
886 Clouds 6 1014 75 10000 14.9 120 22:42 02.10.2019
887 Clouds 6 1015 52 10000 7.7 100 22:20 02.10.2019
888 Clouds 6 1014 70 10000 12.9 110 21:55 02.10.2019
889 Clouds 6 1016 56 10000 9.8 100 21:37 02.10.2019
890 Clouds 6 1016 56 10000 9.8 100 21:18 02.10.2019
891 Clouds 6 1015 75 10000 12.9 110 20:55 02.10.2019
892 Clouds 6 1015 75 10000 12.9 110 20:55 02.10.2019
893 Clouds 6 1015 75 10000 12.9 110 20:55 02.10.2019
894 Clouds 7 1015 75 10000 12.9 110 20:37 02.10.2019
895 Clouds 7 1017 52 10000 8.7 120 20:19 02.10.2019
896 Clouds 7 1016 81 10000 11.8 110 19:44 02.10.2019
897 Clouds 7 1018 80 10000 7.2 120 19:23 02.10.2019
898 Clouds 8 1016 75 10000 10.8 110 18:59 02.10.2019
899 Clouds 8 1016 75 10000 10.8 110 18:40 02.10.2019
900 Clouds 8 1016 75 10000 10.8 110 18:40 02.10.2019
901 Clouds 8 1018 61 10000 10.8 120 18:21 02.10.2019
902 Rain 8 1017 75 10000 10.8 120 17:58 02.10.2019
903 Rain 8 1019 65 10000 7.7 110 17:39 02.10.2019
904 Rain 8 1019 65 10000 7.7 110 17:20 02.10.2019
905 Rain 8 1018 70 10000 8.7 110 16:57 02.10.2019
906 Rain 8 1018 70 10000 8.7 110 16:37 02.10.2019
907 Rain 8 1020 70 10000 7.7 110 16:19 02.10.2019
908 Rain 7 1019 75 10000 11.8 130 15:55 02.10.2019
909 Rain 7 1020 75 10000 8.7 120 15:37 02.10.2019
910 Rain 7 1020 75 10000 8.7 120 15:18 02.10.2019
911 Rain 7 1019 81 10000 9.8 130 14:43 02.10.2019
912 Rain 7 1020 81 8000 6.2 120 14:23 02.10.2019
913 Drizzle 7 1019 75 10000 8.2 140 13:57 02.10.2019
914 Drizzle 7 1020 87 7000 5.1 110 13:38 02.10.2019
915 Drizzle 7 1020 87 7000 5.1 110 13:19 02.10.2019
916 Drizzle 7 1019 93 6000 6.7 150 12:40 02.10.2019
917 Drizzle 7 1020 81 10000 6.2 100 12:22 02.10.2019
918 Drizzle 6 1019 93 10000 5.1 100 11:58 02.10.2019
919 Drizzle 6 1019 93 10000 5.1 100 11:40 02.10.2019
920 Drizzle 6 1020 75 10000 5.7 90 11:18 02.10.2019
921 Clouds 6 1019 87 10000 4.6 100 10:38 02.10.2019
922 Drizzle 6 1020 75 10000 5.7 100 10:19 02.10.2019
923 Clouds 6 1019 93 10000 4.6 90 09:40 02.10.2019
924 Clouds 6 1020 70 10000 5.1 100 09:20 02.10.2019
925 Clouds 6 1020 87 10000 5.7 100 08:56 02.10.2019
926 Clouds 6 1020 87 10000 5.7 100 08:37 02.10.2019
927 Clouds 6 1020 70 10000 4.1 90 08:19 02.10.2019
928 Clouds 6 1020 93 10000 4.6 110 07:39 02.10.2019
929 Clouds 6 1020 70 10000 5.7 100 07:21 02.10.2019
930 Clouds 6 1020 70 10000 5.7 100 07:21 02.10.2019
931 Clouds 6 1019 87 10000 6.7 130 06:54 02.10.2019
932 Drizzle 6 1020 93 10000 3.1 110 05:56 02.10.2019
933 Drizzle 6 1020 81 8000 5.1 100 05:25 02.10.2019
934 Clouds 6 1020 87 10000 3.1 120 04:56 02.10.2019
935 Rain 6 1020 87 10000 2.6 130 03:53 02.10.2019
936 Rain 7 1021 93 10000 2.1 100 02:47 02.10.2019
937 Drizzle 7 1022 61 10000 1.5 130 02:24 02.10.2019
938 Rain 7 1021 93 10000 1.5 180 01:52 02.10.2019
939 Rain 7 1021 87 10000 3.1 140 00:51 02.10.2019
940 Clouds 7 1021 70 10000 2.1 100 00:29 02.10.2019
941 Rain 7 1021 93 10000 3.6 130 23:46 01.10.2019
942 Drizzle 7 1021 70 10000 2.1 130 23:27 01.10.2019
943 Rain 7 1021 100 8000 2.1 170 22:59 01.10.2019
944 Rain 7 1021 100 8000 2.1 170 22:41 01.10.2019
945 Rain 7 1021 57 10000 2.1 80 22:20 01.10.2019
946 Rain 7 1021 93 10000 1.5 180 21:59 01.10.2019
947 Rain 7 1021 93 10000 1.5 180 21:40 01.10.2019
948 Clouds 8 1021 57 10000 1.5 60 21:22 01.10.2019
949 Clouds 8 1021 57 10000 1.5 60 21:22 01.10.2019
950 Rain 8 1021 87 10000 2.1 150 20:57 01.10.2019
951 Rain 8 1021 87 10000 2.1 150 20:38 01.10.2019
952 Rain 8 1021 61 10000 2.1 50 20:20 01.10.2019
953 Rain 8 1021 87 10000 3.6 170 19:56 01.10.2019
954 Rain 8 1021 87 10000 3.6 170 19:38 01.10.2019
955 Rain 9 1020 61 10000 2.1 30 19:20 01.10.2019
956 Clouds 9 1020 76 10000 2.1 90 18:54 01.10.2019
957 Clouds 9 1020 76 10000 2.1 90 18:36 01.10.2019
958 Clouds 9 1020 61 10000 2.1 20 18:18 01.10.2019
959 Clouds 9 1020 81 10000 2.1 90 17:42 01.10.2019
960 Clouds 9 1020 81 10000 2.1 90 17:42 01.10.2019
961 Clouds 8 1020 61 10000 3.1 10 17:20 01.10.2019
962 Clouds 8 1020 81 10000 1.5 60 16:58 01.10.2019
963 Clouds 8 1020 81 10000 1.5 60 16:40 01.10.2019
964 Clouds 8 1020 61 10000 2.1 360 16:21 01.10.2019
965 Clouds 8 1020 81 10000 1.5 240 15:47 01.10.2019
966 Clouds 8 1020 66 10000 1.5 50 15:24 01.10.2019
967 Clouds 7 1020 76 10000 0.5 250 14:56 01.10.2019
968 Clouds 7 1020 70 10000 1.5 40 14:37 01.10.2019
969 Clouds 7 1020 70 10000 1.5 40 14:19 01.10.2019
970 Clouds 7 1020 87 10000 1.5 170 13:55 01.10.2019
971 -273 0 0 0 0 0 13:55 01.10.2019
972 -273 0 0 0 0 0 13:55 01.10.2019
973 Clouds 7 1020 87 10000 1.5 170 13:54 01.10.2019
974 Clouds 6 1020 87 10000 1.5 170 13:36 01.10.2019
975 Clouds 6 1020 70 10000 2.59 64.296 13:18 01.10.2019
976 Clouds 5 1020 93 10000 2.6 170 12:42 01.10.2019
977 Clouds 5 1020 86 10000 1 120 12:20 01.10.2019
978 Clouds 4 1019 93 10000 3.1 160 11:58 01.10.2019
979 Clouds 4 1019 93 10000 3.1 160 11:38 01.10.2019
980 Clouds 4 1019 93 10000 3.5 61.544 11:19 01.10.2019
981 Clouds 4 1019 93 10000 3.5 61.544 11:19 01.10.2019
982 Clouds 4 1019 87 10000 3.1 160 10:58 01.10.2019
983 Clouds 4 1019 87 10000 3.1 160 10:40 01.10.2019
984 Clouds 4 1019 86 10000 1 100 10:22 01.10.2019
985 Clouds 4 1019 87 10000 3.1 150 09:42 01.10.2019
986 Clouds 4 1019 88 10000 1 90 09:21 01.10.2019
987 Clouds 4 1018 93 10000 3.1 140 08:43 01.10.2019
988 Clouds 4 1018 87 10000 0.5 60 08:25 01.10.2019
989 Clouds 4 1018 93 10000 2.6 130 07:49 01.10.2019
990 Clear 4 1018 86 10000 1.5 100 07:25 01.10.2019
991 Clouds 4 1018 100 10000 3.1 130 06:50 01.10.2019
992 Clear 5 1018 80 10000 2.6 110 06:23 01.10.2019
993 Clouds 4 1018 93 10000 3.1 140 05:46 01.10.2019
994 Clouds 4 1018 93 10000 3.1 140 05:46 01.10.2019
995 Clear 4 1018 80 10000 3.1 100 05:19 01.10.2019
996 Clear 4 1018 80 10000 3.1 90 04:35 01.10.2019
997 Clear 4 1018 75 10000 4.1 90 03:25 01.10.2019
998 Clear 4 1018 75 10000 1 0 02:18 01.10.2019
999 Clear 4 1018 80 10000 0.5 0 01:28 01.10.2019
1000 Clouds 4 1018 87 10000 3.1 130 00:40 01.10.2019
1001 Clear 4 1018 80 10000 2.1 110 00:22 01.10.2019
1002 Clouds 4 1017 87 10000 2.6 120 23:41 30.09.2019
1003 Clouds 4 1017 87 10000 2.6 120 23:41 30.09.2019
1004 Clear 4 1018 75 10000 1.5 210 23:22 30.09.2019
1005 Clouds 5 1017 87 10000 3.6 140 22:46 30.09.2019
1006 Clear 5 1017 75 10000 1.5 130 22:27 30.09.2019
1007 Clouds 6 1017 87 10000 3.1 150 21:58 30.09.2019
1008 Clouds 6 1017 87 10000 3.1 150 21:40 30.09.2019
1009 Clear 6 1017 75 10000 1 200 21:20 30.09.2019
1010 Clouds 7 1017 93 10000 3.1 170 20:58 30.09.2019
1011 Clouds 7 1017 93 10000 3.1 170 20:39 30.09.2019
1012 Clear 8 1016 70 10000 1 260 20:21 30.09.2019
1013 Clouds 9 1016 81 10000 2.6 160 19:58 30.09.2019
1014 Clouds 9 1016 81 10000 2.6 160 19:40 30.09.2019
1015 Clear 9 1016 66 10000 1 0 19:20 30.09.2019
1016 Clouds 9 1016 71 10000 2.1 150 18:58 30.09.2019
1017 Clouds 10 1016 71 10000 2.1 150 18:40 30.09.2019
1018 Clear 10 1016 66 10000 2.1 300 18:20 30.09.2019
1019 Clouds 10 1016 71 10000 1 50 17:55 30.09.2019
1020 Clouds 10 1016 71 10000 1 50 17:37 30.09.2019
1021 Clear 9 1017 70 10000 2.6 290 17:18 30.09.2019
1022 Smoke 8 1017 70 10000 2.6 290 16:42 30.09.2019
1023 Clear 8 1017 70 10000 2.1 290 16:20 30.09.2019
1024 Clear 8 1017 70 10000 2.1 290 16:20 30.09.2019
1025 Clouds 8 1017 87 10000 2.6 70 15:59 30.09.2019
1026 Clouds 9 1017 87 10000 2.6 70 15:39 30.09.2019
1027 Clouds 9 1017 87 10000 2.6 70 15:39 30.09.2019
1028 Clear 8 1017 70 10000 2.1 250 15:19 30.09.2019
1029 Clouds 7 1017 87 10000 2.6 50 14:58 30.09.2019
1030 Clear 7 1017 75 10000 1 0 14:38 30.09.2019
1031 Clear 7 1017 75 10000 1 0 14:19 30.09.2019
1032 Clouds 7 1017 87 10000 2.6 30 13:59 30.09.2019
1033 Clouds 6 1017 87 10000 2.6 30 13:41 30.09.2019
1034 Clouds 6 1017 81 10000 2.1 90 13:21 30.09.2019
1035 -273 0 0 0 0 0 12:54 30.09.2019
1036 Clouds 6 1017 87 10000 4.6 360 12:36 30.09.2019
1037 Clouds 5 1017 87 10000 2.1 100 12:18 30.09.2019
1038 Clouds 5 1017 87 10000 3.1 350 11:41 30.09.2019
1039 Clouds 5 1017 87 10000 3.33 47.215 11:21 30.09.2019
1040 Clouds 3 1017 93 10000 3.1 360 10:57 30.09.2019
1041 Clouds 3 1017 93 10000 3.1 360 10:37 30.09.2019
1042 Clouds 4 1017 93 10000 1.5 360 10:18 30.09.2019
1043 Clouds 4 1017 93 10000 1.5 360 10:18 30.09.2019
1044 Clouds 4 1017 86 10000 4.6 340 09:55 30.09.2019
1045 Clouds 3 1017 86 10000 3.33 47.215 09:36 30.09.2019
1046 Clouds 3 1017 86 10000 3.43 50.364 09:18 30.09.2019
1047 Clouds 3 1017 100 10000 4.1 340 08:45 30.09.2019
1048 Clouds 3 1017 93 10000 1 0 08:27 30.09.2019
1049 Clear 3 1017 100 10000 2.6 280 07:40 30.09.2019
1050 Clouds 3 1017 86 10000 2.1 140 07:19 30.09.2019
1051 Clear 3 1017 93 10000 2.1 300 06:47 30.09.2019
1052 Clouds 3 1017 86 10000 1.5 130 06:27 30.09.2019
1053 Clear 3 1018 86 10000 1.5 300 05:41 30.09.2019
1054 Clouds 4 1018 93 10000 1 300 02:54 30.09.2019
1055 Clear 4 1018 86 10000 2.1 140 02:36 30.09.2019
1056 Clear 4 1018 86 10000 2.1 130 01:31 30.09.2019
1057 Clouds 4 1018 87 10000 1 200 00:38 30.09.2019
1058 Clear 5 1018 80 10000 1.5 150 00:19 30.09.2019
1059 Clouds 5 1017 87 10000 1.5 150 23:43 29.09.2019
1060 Clear 5 1017 75 10000 1.5 150 23:21 29.09.2019
1061 Clear 5 1017 75 10000 1.5 150 23:21 29.09.2019
1062 Clouds 6 1017 87 10000 0.5 0 22:55 29.09.2019
1063 Clear 6 1017 70 10000 1 260 22:36 29.09.2019
1064 Clear 6 1017 70 10000 1 260 22:18 29.09.2019
1065 Clouds 7 1017 87 10000 0.5 350 21:56 29.09.2019
1066 Clouds 7 1017 87 10000 0.5 350 21:36 29.09.2019
1067 Clear 7 1017 70 10000 2.1 280 21:18 29.09.2019
1068 Clouds 8 1017 81 10000 1.5 170 20:43 29.09.2019
1069 Clear 9 1016 61 10000 2.6 290 20:20 29.09.2019
1070 Clouds 9 1016 81 10000 2.1 180 19:58 29.09.2019
1071 Clear 9 1016 57 10000 2.1 290 19:37 29.09.2019
1072 Clear 10 1016 57 10000 2.1 290 19:19 29.09.2019
1073 Clear 10 1016 57 10000 2.1 290 19:19 29.09.2019
1074 Clouds 10 1016 81 10000 0.5 0 18:55 29.09.2019
1075 Clouds 10 1016 81 10000 0.5 0 18:37 29.09.2019
1076 Clear 10 1016 61 10000 4.1 290 18:19 29.09.2019
1077 Clouds 10 1016 81 10000 2.1 150 17:55 29.09.2019
1078 Clouds 10 1016 81 10000 2.1 150 17:55 29.09.2019
1079 Clear 10 1016 66 10000 3.1 270 17:37 29.09.2019
1080 Clear 10 1016 66 10000 3.1 270 17:19 29.09.2019
1081 Clouds 10 1016 71 10000 2.1 160 16:57 29.09.2019
1082 Clouds 10 1016 71 10000 2.1 160 16:39 29.09.2019
1083 Clear 10 1016 57 10000 3.1 250 16:18 29.09.2019
1084 Clouds 10 1016 66 10000 1.5 140 15:41 29.09.2019
1085 Clouds 10 1016 66 10000 1.5 140 15:41 29.09.2019
1086 Clear 10 1016 53 10000 2.1 230 15:19 29.09.2019
1087 Clouds 9 1016 66 10000 2.1 200 14:59 29.09.2019
1088 Clouds 9 1016 66 10000 2.1 200 14:39 29.09.2019
1089 Clear 9 1016 53 10000 2.6 190 14:20 29.09.2019
1090 Clouds 8 1016 70 10000 1 160 13:57 29.09.2019
1091 Clouds 8 1016 70 10000 1 160 13:39 29.09.2019
1092 Clear 8 1015 77 10000 3.1 90 13:19 29.09.2019
1093 Clear 8 1015 77 10000 3.1 90 13:19 29.09.2019
1094 Clear 7 1015 81 10000 0.5 0 12:57 29.09.2019
1095 Clear 7 1015 81 10000 0.5 0 12:39 29.09.2019
1096 Clear 7 1015 81 10000 0.5 0 12:39 29.09.2019
1097 Clear 6 1015 65 10000 1.5 30 12:21 29.09.2019
1098 Clear 5 1015 87 10000 0.5 130 11:55 29.09.2019
1099 Clear 4 1015 89 10000 1.5 150 11:37 29.09.2019
1100 Clear 4 1015 89 10000 1.5 150 11:18 29.09.2019
1101 Clear 4 1015 87 10000 1.5 80 10:55 29.09.2019
1102 Clear 3 1014 89 10000 3.99 52.616 10:36 29.09.2019
1103 Clear 3 1014 89 10000 3.99 52.616 10:18 29.09.2019
1104 Clear 3 1014 93 10000 2.1 60 09:42 29.09.2019
1105 Clear 3 1014 90 10000 1 0 09:20 29.09.2019
1106 Clear 4 1014 86 10000 2.6 70 08:55 29.09.2019
1107 Clear 3 1014 80 10000 2.1 60 08:37 29.09.2019
1108 Clear 3 1014 80 10000 2.1 60 08:18 29.09.2019
1109 Clear 4 1014 87 10000 1 60 07:41 29.09.2019
1110 Clear 5 1014 75 10000 1 0 07:22 29.09.2019
1111 Clear 4 1013 86 10000 1.5 300 06:41 29.09.2019
1112 Clear 4 1014 87 10000 1.5 130 04:56 29.09.2019
1113 Clear 5 1014 91 10000 2.1 110 04:25 29.09.2019
1114 Clear 5 1014 81 10000 3.1 60 03:49 29.09.2019
1115 Clear 6 1014 88 10000 2.6 70 02:28 29.09.2019
1116 Clear 6 1014 81 10000 3.6 40 01:51 29.09.2019
1117 Clear 6 1013 88 10000 3.6 90 01:29 29.09.2019
1118 Clear 6 1013 88 10000 3.6 90 01:29 29.09.2019
1119 Clear 7 1013 93 10000 5.1 20 00:42 29.09.2019
1120 Clear 7 1013 61 10000 2.1 40 00:19 29.09.2019
1121 Clear 7 1013 87 10000 2.6 50 23:40 28.09.2019
1122 Clear 7 1013 61 10000 2.6 90 23:21 28.09.2019
1123 Clear 8 1013 87 10000 4.6 40 22:56 28.09.2019
1124 Clear 8 1013 87 10000 4.6 40 22:37 28.09.2019
1125 Clear 8 1013 61 10000 2.6 70 22:19 28.09.2019
1126 Clear 8 1013 81 10000 6.2 40 21:55 28.09.2019
1127 Clear 9 1013 81 10000 6.2 40 21:36 28.09.2019
1128 Clear 9 1012 66 10000 4.1 20 21:18 28.09.2019
1129 Clear 10 1012 87 10000 6.2 30 20:55 28.09.2019
1130 Clear 11 1012 54 10000 2.6 10 20:36 28.09.2019
1131 Clear 11 1012 54 10000 2.6 10 20:18 28.09.2019
1132 Clear 12 1012 76 10000 7.2 30 19:54 28.09.2019
1133 Clear 12 1011 54 10000 5.1 10 19:36 28.09.2019
1134 Clear 12 1011 54 10000 5.1 10 19:18 28.09.2019
1135 Clear 12 1012 76 10000 6.2 20 18:41 28.09.2019
1136 Clear 12 1011 50 10000 4.1 10 18:21 28.09.2019
1137 Clear 12 1011 71 10000 5.7 50 17:59 28.09.2019
1138 Clear 12 1011 71 10000 5.7 50 17:40 28.09.2019
1139 Clear 12 1011 54 10000 2.6 340 17:21 28.09.2019
1140 Clear 12 1012 71 10000 6.2 40 16:49 28.09.2019
1141 Clear 12 1011 54 10000 3.1 340 16:29 28.09.2019
1142 Clear 11 1012 71 10000 3.6 40 15:59 28.09.2019
1143 Clear 11 1012 71 10000 3.6 40 15:39 28.09.2019
1144 Clear 11 1011 57 10000 1.5 0 15:21 28.09.2019
1145 Clear 11 1011 71 10000 3.6 30 14:55 28.09.2019
1146 Clear 11 1011 71 10000 3.6 30 14:36 28.09.2019
1147 Clear 10 1011 53 10000 4.1 50 14:18 28.09.2019
1148 Clear 10 1011 76 10000 2.6 50 13:43 28.09.2019
1149 Clear 9 1011 57 10000 1 0 13:20 28.09.2019
1150 Clear 8 1011 76 10000 4.1 40 12:57 28.09.2019
1151 Clear 8 1011 76 10000 4.1 40 12:37 28.09.2019
1152 Clear 8 1010 65 10000 1.5 80 12:18 28.09.2019
1153 Clear 6 1010 81 10000 5.1 30 11:41 28.09.2019
1154 Clear 6 1010 70 10000 1.5 130 11:20 28.09.2019
1155 Clear 6 1010 70 10000 1.5 130 11:20 28.09.2019
1156 Clear 5 1010 87 10000 4.1 50 10:56 28.09.2019
1157 Clear 5 1010 80 10000 3.1 110 10:38 28.09.2019
1158 Clear 4 1010 80 10000 3.1 110 10:18 28.09.2019
1159 Clear 4 1010 87 10000 6.2 40 09:41 28.09.2019
1160 Clear 4 1009 80 10000 2.1 110 09:22 28.09.2019
1161 Clear 5 1009 87 10000 6.2 40 08:48 28.09.2019
1162 Clear 5 1009 75 10000 2.1 120 08:29 28.09.2019
1163 Clear 5 1009 81 10000 6.2 30 07:59 28.09.2019
1164 Clear 5 1009 81 10000 6.2 30 07:41 28.09.2019
1165 Clear 5 1009 80 10000 1.5 110 07:19 28.09.2019
1166 Clear 5 1009 87 10000 5.7 30 06:45 28.09.2019
1167 Clear 5 1009 75 10000 2.1 0 06:25 28.09.2019
1168 Clear 6 1009 87 10000 6.7 30 05:41 28.09.2019
1169 Clear 5 1009 80 10000 3.1 120 05:19 28.09.2019
1170 Clear 5 1009 80 10000 1 180 04:36 28.09.2019
1171 Clouds 5 1009 93 10000 4.1 30 03:45 28.09.2019
1172 Clear 5 1009 75 10000 1.5 160 03:20 28.09.2019
1173 Clear 7 1009 81 10000 6.7 10 02:42 28.09.2019
1174 Clear 6 1009 70 10000 0.5 0 02:23 28.09.2019
1175 Clear 6 1009 81 10000 7.7 40 01:45 28.09.2019
1176 Clear 7 1008 70 10000 3.6 160 01:24 28.09.2019
1177 Clear 7 1008 87 10000 6.2 50 00:49 28.09.2019
1178 Clouds 7 1008 70 10000 3.1 250 00:30 28.09.2019
1179 Clear 7 1008 87 10000 7.2 30 23:41 27.09.2019
1180 Clouds 8 1007 70 10000 2.6 150 23:22 27.09.2019
1181 Clear 8 1008 81 10000 8.7 30 22:58 27.09.2019
1182 Clear 9 1008 81 10000 8.7 30 22:40 27.09.2019
1183 Clouds 9 1007 66 10000 1.5 170 22:18 27.09.2019
1184 Clear 10 1008 87 10000 8.2 30 21:55 27.09.2019
1185 Clouds 10 1007 58 10000 2.6 90 21:36 27.09.2019
1186 Clouds 10 1007 58 10000 2.6 90 21:18 27.09.2019
1187 Clear 11 1007 87 10000 7.7 20 20:41 27.09.2019
1188 Clouds 11 1006 54 10000 4.1 20 20:20 27.09.2019
1189 Clear 11 1007 87 10000 11.3 20 19:59 27.09.2019
1190 Clear 11 1007 87 10000 11.3 20 19:41 27.09.2019
1191 Clouds 12 1006 58 10000 7.2 10 19:23 27.09.2019
1192 Clear 13 1008 76 10000 10.3 20 18:55 27.09.2019
1193 Clouds 12 1006 58 10000 8.7 360 18:37 27.09.2019
1194 Clouds 12 1006 58 10000 8.7 360 18:19 27.09.2019
1195 Clear 13 1007 81 10000 8.7 10 17:40 27.09.2019
1196 Clouds 13 1006 51 10000 8.2 20 17:22 27.09.2019
1197 Clear 13 1008 76 10000 8.2 20 16:59 27.09.2019
1198 Clear 13 1008 76 10000 8.2 20 16:41 27.09.2019
1199 Clouds 13 1007 54 10000 2.6 360 16:19 27.09.2019
1200 Clouds 13 1008 76 10000 4.6 10 15:55 27.09.2019
1201 Clouds 13 1008 76 10000 4.6 10 15:37 27.09.2019
1202 Clouds 13 1008 62 10000 1.5 330 15:19 27.09.2019
1203 Clouds 13 1008 81 10000 3.1 40 14:55 27.09.2019
1204 Clouds 13 1008 67 10000 1 0 14:37 27.09.2019
1205 Clouds 13 1008 67 10000 1 0 14:18 27.09.2019
1206 Clouds 12 1008 87 10000 3.6 350 13:42 27.09.2019
1207 Clear 12 1007 76 10000 2.1 290 13:22 27.09.2019
1208 Clouds 12 1008 93 10000 2.6 10 12:57 27.09.2019
1209 Clouds 12 1008 93 10000 2.6 10 12:38 27.09.2019
1210 Clear 12 1007 66 10000 2.1 320 12:20 27.09.2019
1211 Rain 13 1007 62 10000 3.1 80 11:39 27.09.2019
1212 Rain 13 1007 62 10000 3.1 80 11:21 27.09.2019
1213 Clouds 13 1007 76 10000 2.1 50 10:57 27.09.2019
1214 Clouds 12 1007 76 10000 2.1 50 10:39 27.09.2019
1215 Clouds 12 1006 58 10000 3.6 70 10:20 27.09.2019
1216 Clouds 12 1006 76 10000 2.1 70 09:42 27.09.2019
1217 Clouds 12 1006 62 10000 2.6 70 09:22 27.09.2019
1218 Clouds 13 1005 76 10000 2.6 60 08:58 27.09.2019
1219 Clouds 13 1005 76 10000 2.6 60 08:39 27.09.2019
1220 Clear 13 1005 58 10000 2.6 70 08:20 27.09.2019
1221 Clouds 12 1005 81 10000 2.6 60 07:46 27.09.2019
1222 Rain 12 1004 71 10000 2.1 290 07:23 27.09.2019
1223 Rain 12 1004 93 10000 2.1 30 06:43 27.09.2019
1224 Rain 12 1004 71 10000 5.21 37.842 06:24 27.09.2019
1225 Clear 12 1003 87 10000 1 60 05:51 27.09.2019
1226 Clear 12 1003 66 10000 1.5 30 05:32 27.09.2019
1227 Clear 12 1003 93 10000 2.6 40 03:56 27.09.2019
1228 Clouds 12 1002 87 10000 3.1 40 02:59 27.09.2019
1229 Rain 12 1001 87 10000 1 0 01:52 27.09.2019
1230 Rain 12 1001 62 10000 3.1 40 01:28 27.09.2019
1231 Rain 13 1000 54 10000 4.6 100 00:22 27.09.2019
1232 Rain 14 1000 87 10000 2.1 40 23:56 26.09.2019
1233 Rain 14 999 58 10000 3.1 80 23:38 26.09.2019
1234 Rain 14 999 58 10000 3.1 80 23:18 26.09.2019
1235 Rain 14 999 87 10000 2.6 60 22:56 26.09.2019
1236 Rain 14 999 87 10000 2.6 60 22:56 26.09.2019
1237 Rain 14 999 59 10000 4.1 70 22:38 26.09.2019
1238 Rain 14 999 59 10000 4.1 70 22:18 26.09.2019
1239 Rain 14 999 87 10000 1.5 40 21:55 26.09.2019
1240 Rain 14 998 67 10000 1.5 350 21:37 26.09.2019
1241 Rain 14 998 67 10000 1.5 350 21:37 26.09.2019
1242 Rain 14 998 67 10000 1.5 350 21:18 26.09.2019
1243 Clouds 14 998 87 10000 1.5 330 20:57 26.09.2019
1244 Clouds 14 998 87 10000 1.5 330 20:39 26.09.2019
1245 Clouds 14 997 67 10000 2.1 350 20:21 26.09.2019
1246 Rain 15 997 82 10000 0.5 0 19:41 26.09.2019
1247 Rain 15 996 63 10000 1 0 19:20 26.09.2019
1248 Rain 16 997 76 10000 2.1 60 18:59 26.09.2019
1249 Rain 15 997 76 10000 2.1 60 18:40 26.09.2019
1250 Rain 15 996 48 10000 5.1 90 18:22 26.09.2019
1251 Rain 15 996 48 10000 5.1 90 18:22 26.09.2019
1252 Rain 14 996 82 10000 2.6 50 17:58 26.09.2019
1253 Rain 15 996 51 10000 3.1 10 17:37 26.09.2019
1254 Rain 15 996 51 10000 3.1 10 17:37 26.09.2019
1255 Rain 15 996 51 10000 3.1 10 17:18 26.09.2019
1256 -273 0 0 0 0 0 16:54 26.09.2019
1257 Clear 16 995 55 10000 2.6 330 16:36 26.09.2019
1258 Clear 16 995 55 10000 2.6 330 16:18 26.09.2019
1259 Clear 16 995 72 10000 3.6 20 15:40 26.09.2019
1260 Clear 15 995 55 10000 2.6 350 15:22 26.09.2019
1261 Clear 15 995 55 10000 2.6 350 15:22 26.09.2019
1262 Clouds 15 995 76 10000 4.1 30 14:58 26.09.2019
1263 Clouds 15 995 76 10000 4.1 30 14:39 26.09.2019
1264 Clear 15 995 55 10000 2.1 60 14:21 26.09.2019
1265 Clouds 14 995 82 10000 3.6 20 13:55 26.09.2019
1266 Clear 14 995 55 10000 2.6 20 13:37 26.09.2019
1267 Clear 14 995 55 10000 2.6 20 13:18 26.09.2019
1268 Clouds 14 995 82 10000 4.1 20 12:41 26.09.2019
1269 Clear 14 994 58 10000 1.5 40 12:22 26.09.2019
1270 Clouds 13 994 82 10000 3.1 40 11:57 26.09.2019
1271 Clouds 13 994 82 10000 3.1 40 11:38 26.09.2019
1272 Clouds 12 994 62 10000 2.6 40 11:19 26.09.2019
1273 Clouds 11 994 81 10000 3.6 60 10:42 26.09.2019
1274 Clouds 11 994 76 10000 1.5 80 10:23 26.09.2019
1275 Clouds 11 993 93 10000 3.1 30 09:58 26.09.2019
1276 Clouds 11 993 93 10000 3.1 30 09:39 26.09.2019
1277 Clouds 11 993 66 10000 2.6 10 09:19 26.09.2019
1278 Clouds 11 993 81 10000 4.6 80 08:51 26.09.2019
1279 Clouds 12 993 87 10000 5.7 60 08:31 26.09.2019
1280 Clouds 13 993 87 10000 5.7 60 07:47 26.09.2019
1281 Rain 12 993 67 10000 4.6 90 07:22 26.09.2019
1282 Rain 12 993 87 10000 5.1 70 06:53 26.09.2019
1283 Rain 12 992 71 10000 3.6 70 06:28 26.09.2019
1284 Rain 12 993 87 10000 4.1 80 05:59 26.09.2019
1285 Rain 12 992 71 10000 3.1 80 05:29 26.09.2019
1286 Drizzle 13 992 87 10000 4.1 40 03:51 26.09.2019
1287 Rain 13 993 71 10000 1 0 02:25 26.09.2019
1288 Rain 12 993 93 10000 4.6 10 01:48 26.09.2019
1289 Clear 12 992 76 10000 1.5 10 01:22 26.09.2019
1290 Clouds 12 993 93 10000 4.6 20 00:45 26.09.2019
1291 Clouds 12 993 76 10000 1 0 00:25 26.09.2019
1292 Clouds 12 993 87 10000 5.7 30 23:43 25.09.2019
1293 Clear 13 993 62 10000 4.1 70 23:23 25.09.2019
1294 Clouds 12 993 87 10000 3.6 60 22:55 25.09.2019
1295 Clear 12 993 71 10000 4.1 80 22:37 25.09.2019
1296 Clear 12 993 71 10000 4.1 80 22:18 25.09.2019
1297 Clouds 12 993 87 10000 4.1 80 21:56 25.09.2019
1298 Clouds 12 993 76 10000 3.06 59.265 21:37 25.09.2019
1299 Clouds 12 993 76 10000 3.46 51.736 21:18 25.09.2019
1300 Clouds 12 992 87 10000 5.1 110 20:56 25.09.2019
1301 Clouds 13 992 87 10000 5.1 110 20:37 25.09.2019
1302 Clouds 13 992 76 10000 4.6 130 20:18 25.09.2019
1303 Rain 13 992 82 10000 6.2 100 19:40 25.09.2019
1304 Rain 13 992 82 10000 6.2 100 19:40 25.09.2019
1305 Rain 13 992 82 10000 6.2 100 19:40 25.09.2019
1306 Rain 13 993 71 10000 4.6 120 19:21 25.09.2019
1307 Rain 14 992 87 10000 7.2 110 18:57 25.09.2019
1308 Rain 14 992 59 10000 7.7 90 18:38 25.09.2019
1309 Rain 14 992 59 10000 7.7 90 18:20 25.09.2019
1310 -273 0 0 0 0 0 17:54 25.09.2019
1311 Clouds 14 992 59 10000 5.7 80 17:36 25.09.2019
1312 Clouds 14 992 59 10000 5.7 80 17:18 25.09.2019
1313 Clouds 14 992 87 10000 5.1 100 16:42 25.09.2019
1314 Clouds 14 992 62 10000 4.6 90 16:23 25.09.2019
1315 Rain 14 993 93 10000 5.7 90 15:57 25.09.2019
1316 Rain 14 993 62 10000 6.2 120 15:39 25.09.2019
1317 Rain 14 993 62 10000 6.2 120 15:20 25.09.2019
1318 Rain 14 993 62 10000 6.2 120 15:20 25.09.2019
1319 Rain 14 992 93 10000 8.2 110 14:43 25.09.2019
1320 Rain 14 992 62 10000 5.1 110 14:25 25.09.2019
1321 Rain 13 992 93 10000 7.2 120 13:58 25.09.2019
1322 Rain 13 992 93 10000 7.2 120 13:40 25.09.2019
1323 Rain 13 992 67 10000 6.2 110 13:20 25.09.2019
1324 Rain 12 992 100 10000 8.2 120 12:58 25.09.2019
1325 Rain 12 992 71 10000 7.2 110 12:38 25.09.2019
1326 Rain 12 992 71 10000 7.2 110 12:20 25.09.2019
1327 Rain 12 992 93 10000 7.7 110 11:41 25.09.2019
1328 Rain 12 992 71 10000 5.7 100 11:21 25.09.2019
1329 Rain 11 992 93 10000 6.2 100 10:56 25.09.2019
1330 Rain 11 992 93 10000 6.2 100 10:38 25.09.2019
1331 Rain 11 992 71 10000 6.7 90 10:19 25.09.2019
1332 Clouds 11 992 87 10000 4.1 70 09:43 25.09.2019
1333 Clouds 11 992 71 10000 7.2 80 09:23 25.09.2019
1334 Clouds 11 992 87 10000 5.1 90 08:59 25.09.2019
1335 Clouds 11 992 87 10000 5.1 90 08:41 25.09.2019
1336 Clouds 11 992 71 10000 7.2 90 08:20 25.09.2019
1337 Clouds 11 992 87 10000 3.6 80 07:42 25.09.2019
1338 Clouds 11 992 71 10000 4.1 90 07:23 25.09.2019
1339 Clouds 11 992 93 10000 3.6 90 06:58 25.09.2019
1340 Rain 11 993 71 10000 6.2 80 06:37 25.09.2019
1341 Rain 11 993 93 10000 4.6 100 05:52 25.09.2019
1342 Rain 11 993 76 10000 4.1 100 05:26 25.09.2019
1343 Rain 11 993 87 10000 6.7 110 04:45 25.09.2019
1344 Clouds 11 995 93 10000 5.1 120 01:44 25.09.2019
1345 Rain 11 995 93 10000 5.7 110 00:42 25.09.2019
1346 Rain 11 996 76 10000 3.1 80 00:23 25.09.2019
1347 Drizzle 11 995 100 8000 5.7 110 23:54 24.09.2019
1348 Drizzle 11 996 76 10000 3.1 110 23:36 24.09.2019
1349 Drizzle 11 996 76 10000 3.1 110 23:18 24.09.2019
1350 Drizzle 11 996 100 8000 5.7 110 22:38 24.09.2019
1351 Drizzle 11 996 100 8000 5.7 110 22:38 24.09.2019
1352 Drizzle 11 996 81 10000 4.1 110 22:20 24.09.2019
1353 Rain 11 996 100 10000 6.7 120 21:56 24.09.2019
1354 Rain 11 996 100 10000 6.7 120 21:37 24.09.2019
1355 Rain 11 996 100 10000 6.7 120 21:37 24.09.2019
1356 Rain 12 996 81 10000 6.7 120 21:19 24.09.2019
1357 Drizzle 12 996 100 10000 7.2 120 20:57 24.09.2019
1358 Drizzle 12 996 71 10000 8.2 120 20:38 24.09.2019
1359 Drizzle 12 996 71 10000 8.2 120 20:20 24.09.2019
1360 Rain 12 996 100 10000 9.3 130 19:43 24.09.2019
1361 Rain 12 997 81 10000 7.2 130 19:21 24.09.2019
1362 Drizzle 12 996 100 3000 7.2 130 18:59 24.09.2019
1363 Drizzle 12 996 100 3000 7.2 130 18:40 24.09.2019
1364 Rain 12 997 76 10000 7.2 120 18:22 24.09.2019
1365 Rain 12 997 76 10000 7.2 120 18:22 24.09.2019
1366 Clouds 12 996 100 10000 7.7 140 17:58 24.09.2019
1367 Clouds 12 996 100 10000 7.7 140 17:58 24.09.2019
1368 Clouds 12 996 100 10000 7.7 140 17:38 24.09.2019
1369 Clouds 12 997 76 10000 5.7 150 17:20 24.09.2019
1370 Clouds 12 996 100 10000 9.3 150 16:57 24.09.2019
1371 Clouds 12 996 100 10000 9.3 150 16:39 24.09.2019
1372 Clouds 12 997 71 10000 7.2 150 16:18 24.09.2019
1373 Clouds 12 997 71 10000 7.2 150 16:18 24.09.2019
1374 Clouds 12 996 100 10000 10.3 140 15:41 24.09.2019
1375 Drizzle 12 997 76 10000 7.7 140 15:23 24.09.2019
1376 Drizzle 11 996 100 10000 11.8 140 14:44 24.09.2019
1377 Drizzle 12 997 81 10000 9.3 140 14:20 24.09.2019
1378 Drizzle 12 996 100 7000 10.3 130 13:56 24.09.2019
1379 Drizzle 12 996 100 7000 10.3 130 13:56 24.09.2019
1380 Drizzle 12 997 81 10000 8.2 120 13:38 24.09.2019
1381 Drizzle 11 997 81 10000 8.2 120 13:20 24.09.2019
1382 Drizzle 11 996 100 3100 8.7 120 12:40 24.09.2019
1383 Drizzle 11 996 87 10000 6.7 110 12:21 24.09.2019
1384 Drizzle 10 996 100 800 4.6 70 11:55 24.09.2019
1385 Drizzle 10 996 100 800 4.6 70 11:55 24.09.2019
1386 Drizzle 10 996 87 10000 6.2 100 11:37 24.09.2019
1387 Drizzle 10 996 87 10000 6.2 100 11:18 24.09.2019
1388 Fog 10 996 100 2400 3.6 40 10:39 24.09.2019
1389 Fog 10 996 93 10000 2.6 30 10:21 24.09.2019
1390 Rain 10 996 100 5000 3.6 40 09:55 24.09.2019
1391 Rain 10 996 93 8000 1 30 09:37 24.09.2019
1392 Rain 10 996 93 8000 1 30 09:18 24.09.2019
1393 Rain 10 996 100 3000 2.6 50 08:41 24.09.2019
1394 Rain 9 997 87 2000 2.1 350 08:23 24.09.2019
1395 Drizzle 10 997 100 4000 2.6 90 07:58 24.09.2019
1396 Drizzle 9 997 100 4000 2.6 90 07:39 24.09.2019
1397 Drizzle 10 997 87 6000 2.6 340 07:21 24.09.2019
1398 Rain 10 997 87 7000 1 0 06:38 24.09.2019
1399 Rain 10 997 87 7000 1 0 06:19 24.09.2019
1400 Rain 10 997 87 8000 1.5 320 05:22 24.09.2019
1401 Drizzle 10 998 100 10000 4.6 140 03:46 24.09.2019
1402 Drizzle 10 998 93 4000 0.5 0 03:25 24.09.2019
1403 Drizzle 10 998 100 10000 3.6 120 02:44 24.09.2019
1404 Rain 10 998 100 10000 3.6 110 01:42 24.09.2019
1405 Rain 10 999 100 10000 3.1 130 00:42 24.09.2019
1406 Rain 10 999 93 7000 1.59 37.318 00:23 24.09.2019
1407 Rain 11 999 93 10000 4.1 140 23:43 23.09.2019
1408 Rain 10 999 87 5000 0.5 0 23:23 23.09.2019
1409 Rain 10 999 100 7000 2.6 60 22:56 23.09.2019
1410 Rain 10 999 100 7000 2.6 60 22:37 23.09.2019
1411 Rain 10 999 87 4000 1 0 22:37 23.09.2019
1412 Rain 10 999 87 4000 1 0 22:18 23.09.2019
1413 Rain 10 999 100 10000 4.1 10 21:54 23.09.2019
1414 Rain 11 999 100 10000 4.1 10 21:36 23.09.2019
1415 Rain 11 1000 87 2500 1.5 220 21:18 23.09.2019
1416 Rain 11 1000 100 6000 3.6 350 20:40 23.09.2019
1417 Rain 11 999 87 10000 3.1 330 20:19 23.09.2019
1418 Rain 11 1000 100 9000 3.6 360 19:55 23.09.2019
1419 Rain 11 1000 100 9000 3.6 360 19:55 23.09.2019
1420 Rain 11 1000 81 2500 4.6 330 19:37 23.09.2019
1421 Rain 11 1000 81 2500 4.6 330 19:19 23.09.2019
1422 Rain 11 1000 81 2500 4.6 330 19:19 23.09.2019
1423 Rain 12 1000 93 10000 3.1 360 18:42 23.09.2019
1424 Rain 12 1000 93 10000 3.1 360 18:42 23.09.2019
1425 Rain 12 1000 76 7000 2.6 340 18:21 23.09.2019
1426 Rain 13 1000 87 10000 1 200 17:59 23.09.2019
1427 Rain 13 1001 62 10000 2.6 350 17:39 23.09.2019
1428 Rain 13 1001 62 10000 2.6 350 17:20 23.09.2019
1429 Clouds 13 1001 87 10000 2.6 120 16:58 23.09.2019
1430 Clouds 13 1001 58 10000 2.6 70 16:37 23.09.2019
1431 Clouds 13 1001 58 10000 2.6 70 16:19 23.09.2019
1432 Clouds 13 1001 81 10000 6.2 110 15:57 23.09.2019
1433 Clouds 13 1001 81 10000 6.2 110 15:38 23.09.2019
1434 Clouds 12 1002 62 10000 3.6 110 15:19 23.09.2019
1435 Clouds 12 1002 62 10000 3.6 110 15:19 23.09.2019
1436 Clouds 12 1002 81 10000 5.7 120 14:40 23.09.2019
1437 Clouds 12 1002 81 10000 5.7 120 14:40 23.09.2019
1438 Clouds 12 1002 81 10000 5.7 120 14:40 23.09.2019
1439 Clouds 11 1002 66 10000 5.1 120 14:21 23.09.2019
1440 Clouds 11 1002 93 10000 5.7 120 13:59 23.09.2019
1441 Clouds 11 1002 93 10000 5.7 120 13:39 23.09.2019
1442 Rain 11 1002 71 10000 4.1 110 13:19 23.09.2019
1443 Drizzle 11 1002 100 8000 8.2 130 12:56 23.09.2019
1444 Drizzle 11 1002 100 8000 8.2 130 12:37 23.09.2019
1445 Rain 11 1002 71 10000 8.7 120 12:19 23.09.2019
1446 Rain 10 1001 100 9000 8.7 130 11:44 23.09.2019
1447 Drizzle 10 1002 76 10000 5.7 120 11:26 23.09.2019
1448 Drizzle 10 1001 100 2000 7.2 130 10:57 23.09.2019
1449 Drizzle 10 1001 100 2000 7.2 130 10:39 23.09.2019
1450 Drizzle 10 1001 81 10000 3.1 90 10:20 23.09.2019
1451 Clouds 10 1000 100 10000 7.2 140 09:40 23.09.2019
1452 Clouds 10 1000 81 10000 4.6 100 09:21 23.09.2019
1453 Clouds 10 999 100 10000 7.7 140 08:57 23.09.2019
1454 Clouds 10 999 100 10000 7.7 140 08:38 23.09.2019
1455 Clouds 10 1000 76 10000 5.7 120 08:18 23.09.2019
1456 Clouds 10 1000 76 10000 5.7 120 08:18 23.09.2019
1457 Drizzle 10 999 76 10000 7.7 120 07:33 23.09.2019
1458 Drizzle 10 998 100 8000 9.3 130 06:52 23.09.2019
1459 Clouds 10 999 81 10000 5.1 120 06:19 23.09.2019
1460 Clouds 10 998 81 10000 8.2 140 05:23 23.09.2019
1461 Drizzle 10 997 93 6000 9.3 140 04:56 23.09.2019
1462 Drizzle 11 997 93 4000 10.3 130 03:56 23.09.2019
1463 Clouds 11 997 71 10000 8.7 130 01:25 23.09.2019
1464 Clouds 11 996 71 10000 3.6 100 00:24 23.09.2019
1465 Clouds 11 995 93 10000 8.7 110 23:58 22.09.2019
1466 Clouds 11 995 93 10000 8.7 110 23:58 22.09.2019
1467 Clouds 11 995 93 10000 8.7 110 23:39 22.09.2019
1468 Clouds 11 995 71 10000 3.6 110 23:21 22.09.2019
1469 Rain 11 994 93 10000 9.3 110 22:54 22.09.2019
1470 Rain 11 994 93 10000 9.3 110 22:36 22.09.2019
1471 Rain 11 995 71 10000 3.6 100 22:18 22.09.2019
1472 Rain 12 994 93 10000 9.3 120 21:42 22.09.2019
1473 Rain 12 994 71 10000 4.6 110 21:20 22.09.2019
1474 Clouds 12 994 93 10000 8.2 110 20:44 22.09.2019
1475 Clouds 12 994 76 10000 5.7 100 20:26 22.09.2019
1476 Clouds 12 994 87 10000 10.3 110 19:57 22.09.2019
1477 Clouds 12 994 76 10000 8.2 110 19:39 22.09.2019
1478 Clouds 12 994 87 10000 10.3 110 19:39 22.09.2019
1479 Clouds 12 994 76 10000 8.2 110 19:20 22.09.2019
1480 Rain 12 994 93 10000 8.7 110 18:57 22.09.2019
1481 Rain 12 994 93 10000 8.7 110 18:37 22.09.2019
1482 Rain 12 994 82 10000 9.3 120 18:18 22.09.2019
1483 Drizzle 13 993 93 7000 11.3 110 17:45 22.09.2019
1484 Clouds 13 994 76 10000 8.7 120 17:26 22.09.2019
1485 Rain 12 994 93 10000 10.8 110 16:56 22.09.2019
1486 Rain 12 994 93 10000 10.8 110 16:56 22.09.2019
1487 Rain 12 994 93 10000 10.8 110 16:38 22.09.2019
1488 Rain 12 994 82 9000 6.7 110 16:19 22.09.2019
1489 Rain 13 994 93 4000 9.8 110 15:43 22.09.2019
1490 Rain 14 994 72 6500 4.6 110 15:25 22.09.2019
1491 Rain 14 994 93 3100 9.3 110 14:55 22.09.2019
1492 Rain 14 994 93 3100 9.3 110 14:37 22.09.2019
1493 Rain 14 994 67 10000 6.2 110 14:18 22.09.2019
1494 Rain 14 994 93 7000 9.3 120 13:42 22.09.2019
1495 Rain 14 994 67 9500 8.2 90 13:24 22.09.2019
1496 Rain 13 994 93 8000 12.3 130 12:57 22.09.2019
1497 Rain 13 994 93 8000 12.3 130 12:57 22.09.2019
1498 Rain 13 994 93 8000 12.3 130 12:39 22.09.2019
1499 Rain 13 995 71 10000 8.2 90 12:19 22.09.2019
1500 Clouds 12 995 93 10000 8.2 110 11:55 22.09.2019
1501 Drizzle 12 995 76 10000 8.2 90 11:36 22.09.2019
1502 Drizzle 12 995 76 10000 8.2 90 11:18 22.09.2019
1503 Rain 13 995 93 5000 7.2 100 10:42 22.09.2019
1504 Rain 12 995 67 10000 9.3 90 10:20 22.09.2019
1505 Rain 12 995 67 10000 9.3 90 10:20 22.09.2019
1506 Drizzle 13 995 93 5000 6.7 110 09:43 22.09.2019
1507 Clouds 13 995 67 10000 8.7 90 09:22 22.09.2019
1508 Clouds 13 995 82 10000 6.7 100 08:58 22.09.2019
1509 Clouds 13 995 82 10000 6.7 100 08:40 22.09.2019
1510 Drizzle 13 995 87 10000 9.8 110 08:22 22.09.2019
1511 Drizzle 13 995 87 10000 9.8 110 07:44 22.09.2019
1512 Drizzle 13 995 87 10000 9.8 110 07:44 22.09.2019
1513 Drizzle 12 995 71 10000 6.7 90 07:26 22.09.2019
1514 Drizzle 13 995 93 5000 11.8 120 06:58 22.09.2019
1515 Drizzle 13 996 67 10000 6.2 110 06:34 22.09.2019
1516 Drizzle 12 996 93 5000 9.8 110 04:41 22.09.2019
1517 Rain 13 996 76 10000 10.3 120 02:45 22.09.2019
1518 Clouds 13 997 62 10000 4.1 90 02:24 22.09.2019
1519 Clouds 13 996 76 10000 6.7 100 01:43 22.09.2019
1520 Clouds 12 997 81 10000 5.1 90 00:53 22.09.2019
1521 Clouds 12 997 66 10000 4.6 110 00:32 22.09.2019
1522 Clouds 12 997 87 10000 6.7 100 23:54 21.09.2019
1523 Clouds 12 997 87 10000 6.7 100 23:36 21.09.2019
1524 Clouds 13 998 87 10000 5.7 100 22:47 21.09.2019
1525 Clouds 12 998 76 10000 1.5 70 22:26 21.09.2019
1526 Clouds 13 998 81 10000 7.2 120 21:59 21.09.2019
1527 Clouds 13 998 81 10000 7.2 120 21:59 21.09.2019
1528 Clouds 13 998 81 10000 7.2 120 21:41 21.09.2019
1529 Rain 13 998 71 10000 4.6 90 21:19 21.09.2019
1530 Rain 13 998 87 10000 6.7 100 20:56 21.09.2019
1531 Rain 13 998 71 10000 2.6 110 20:37 21.09.2019
1532 Rain 13 998 71 10000 2.6 110 20:18 21.09.2019
1533 Rain 13 998 87 10000 7.7 120 19:45 21.09.2019
1534 Rain 13 998 87 10000 7.7 120 19:45 21.09.2019
1535 Rain 13 999 71 10000 5.1 120 19:21 21.09.2019
1536 Rain 14 998 87 10000 6.7 120 18:41 21.09.2019
1537 Clouds 14 999 67 10000 7.2 110 18:22 21.09.2019
1538 Drizzle 14 999 87 10000 7.7 110 17:43 21.09.2019
1539 Clouds 13 999 76 10000 3.6 70 17:24 21.09.2019
1540 Drizzle 13 999 93 10000 8.2 130 16:58 21.09.2019
1541 Drizzle 13 999 93 10000 8.2 130 16:39 21.09.2019
1542 Drizzle 13 1000 76 10000 9.3 120 16:20 21.09.2019
1543 Clouds 13 1000 100 10000 11.3 120 15:45 21.09.2019
1544 Clouds 13 1000 100 10000 11.3 120 15:45 21.09.2019
1545 Drizzle 13 1000 76 10000 8.2 130 15:23 21.09.2019
1546 Clouds 13 1000 93 10000 12.3 120 14:50 21.09.2019
1547 Clouds 13 1001 81 10000 7.2 130 14:31 21.09.2019
1548 Rain 12 1000 93 10000 11.8 130 13:55 21.09.2019
1549 Rain 12 1001 81 10000 5.1 60 13:37 21.09.2019
1550 Rain 12 1001 81 10000 5.1 60 13:18 21.09.2019
1551 Drizzle 12 1000 93 8000 13.9 130 12:55 21.09.2019
1552 Drizzle 12 1000 93 8000 13.9 130 12:36 21.09.2019
1553 Drizzle 12 1001 76 10000 7.2 90 12:18 21.09.2019
1554 Drizzle 12 1000 93 7000 13.9 130 11:42 21.09.2019
1555 Drizzle 12 1001 81 10000 8.2 110 11:23 21.09.2019
1556 Drizzle 11 1000 93 6000 13.9 130 10:45 21.09.2019
1557 Drizzle 11 1000 87 8500 9.3 110 10:25 21.09.2019
1558 Drizzle 11 999 93 3000 12.9 130 09:59 21.09.2019
1559 Drizzle 11 999 93 3000 12.9 130 09:39 21.09.2019
1560 Drizzle 11 1000 87 9000 11.3 120 09:20 21.09.2019
1561 Drizzle 11 998 100 2000 12.3 130 08:52 21.09.2019
1562 Drizzle 11 999 81 9000 9.3 110 08:28 21.09.2019
1563 Drizzle 11 999 100 3000 11.8 130 07:42 21.09.2019
1564 Drizzle 11 999 81 8000 9.8 110 07:24 21.09.2019
1565 Drizzle 11 998 100 4000 11.8 130 06:58 21.09.2019
1566 Drizzle 12 999 81 7000 10.8 120 06:33 21.09.2019
1567 Drizzle 12 999 81 9000 9.3 110 05:36 21.09.2019
1568 Drizzle 12 999 81 9000 9.3 110 05:36 21.09.2019
1569 Drizzle 11 999 81 8000 10.3 110 04:37 21.09.2019
1570 Drizzle 11 999 81 6000 8.7 100 03:22 21.09.2019
1571 Drizzle 11 999 81 7000 9.8 100 02:21 21.09.2019
1572 Drizzle 11 999 81 7000 9.8 100 02:21 21.09.2019
1573 Drizzle 11 998 93 3000 12.3 110 01:46 21.09.2019
1574 Drizzle 11 999 93 2000 12.3 110 00:52 21.09.2019
1575 Drizzle 11 1000 81 10000 9.8 110 00:20 21.09.2019
1576 Drizzle 11 999 93 4000 11.8 120 23:48 20.09.2019
1577 Drizzle 11 1000 81 10000 7.7 110 23:28 20.09.2019
1578 Drizzle 11 999 93 4000 11.3 120 22:43 20.09.2019
1579 Drizzle 11 1001 81 7000 7.7 120 22:24 20.09.2019
1580 Drizzle 11 1000 93 8000 10.8 120 21:57 20.09.2019
1581 Drizzle 11 1000 93 8000 10.8 120 21:39 20.09.2019
1582 Drizzle 11 1001 81 8000 6.7 110 21:20 20.09.2019
1583 Rain 11 1000 100 8000 11.3 130 20:58 20.09.2019
1584 Rain 11 1000 81 10000 4.1 100 20:38 20.09.2019
1585 Rain 11 1000 81 10000 4.1 100 20:19 20.09.2019
1586 Drizzle 11 1000 100 8000 11.8 130 19:45 20.09.2019
1587 Rain 11 1001 76 10000 6.7 110 19:27 20.09.2019
1588 Drizzle 11 1000 100 6000 11.8 140 18:58 20.09.2019
1589 Drizzle 11 1000 100 6000 11.8 140 18:38 20.09.2019
1590 Drizzle 12 1002 81 6000 7.2 130 18:18 20.09.2019
1591 Drizzle 12 1000 100 1600 10.3 140 17:47 20.09.2019
1592 Drizzle 12 1001 76 10000 6.2 130 17:27 20.09.2019
1593 Drizzle 11 1000 100 2500 9.3 140 16:57 20.09.2019
1594 Drizzle 11 1000 100 2500 9.3 140 16:37 20.09.2019
1595 Drizzle 11 1001 87 10000 5.1 110 16:18 20.09.2019
1596 Drizzle 11 1000 100 1500 9.8 150 15:41 20.09.2019
1597 Drizzle 11 1000 100 1500 9.8 150 15:41 20.09.2019
1598 Drizzle 11 1001 81 10000 6.7 130 15:22 20.09.2019
1599 Rain 11 1000 100 1500 8.7 150 14:44 20.09.2019
1600 Drizzle 11 1001 87 10000 5.7 160 14:20 20.09.2019
1601 Drizzle 11 1000 100 3100 9.8 160 14:00 20.09.2019
1602 Drizzle 11 1001 93 8000 7.2 160 13:40 20.09.2019
1603 Drizzle 11 1001 93 8000 7.2 160 13:21 20.09.2019
1604 Drizzle 11 1000 100 5000 9.3 160 12:41 20.09.2019
1605 Drizzle 11 1001 87 10000 6.2 170 12:22 20.09.2019
1606 Rain 11 1000 100 6000 8.7 150 11:52 20.09.2019
1607 Rain 11 1001 87 10000 3.6 140 11:27 20.09.2019
1608 Drizzle 11 1000 100 7000 8.2 150 10:59 20.09.2019
1609 Drizzle 11 1000 100 7000 8.2 150 10:41 20.09.2019
1610 Drizzle 11 1001 87 10000 4.1 100 10:22 20.09.2019
1611 Drizzle 11 1000 100 10000 7.7 150 09:38 20.09.2019
1612 Drizzle 11 1001 93 9000 5.1 160 09:19 20.09.2019
1613 Rain 11 1000 100 1600 7.7 160 08:48 20.09.2019
1614 Rain 11 1001 93 9000 5.1 170 08:29 20.09.2019
1615 Rain 11 1000 100 2000 8.2 170 07:59 20.09.2019
1616 Rain 11 1000 100 2000 8.2 170 07:40 20.09.2019
1617 Rain 11 1001 87 9000 5.1 170 07:22 20.09.2019
1618 Rain 11 1000 100 10000 8.2 170 06:42 20.09.2019
1619 Rain 11 1001 87 10000 3.6 150 06:18 20.09.2019
1620 Drizzle 11 1002 87 9000 5.1 170 04:32 20.09.2019
1621 Drizzle 11 1002 93 10000 6.2 170 03:29 20.09.2019
1622 Drizzle 11 1002 87 7000 7.2 170 02:22 20.09.2019
1623 Drizzle 11 1001 100 350 10.3 180 01:43 20.09.2019
1624 Drizzle 11 1001 100 350 10.3 180 01:43 20.09.2019
1625 Drizzle 11 1001 100 800 10.3 170 00:43 20.09.2019
1626 Drizzle 11 1001 100 2000 10.3 170 23:50 19.09.2019
1627 Drizzle 11 1001 100 2000 10.3 170 23:50 19.09.2019
1628 Drizzle 11 1002 93 4800 8.7 170 23:29 19.09.2019
1629 Drizzle 11 1001 100 600 11.3 170 22:59 19.09.2019
1630 Drizzle 11 1001 100 600 11.3 170 22:40 19.09.2019
1631 Drizzle 11 1002 87 3800 8.2 170 22:22 19.09.2019
1632 Drizzle 11 1001 100 500 10.3 170 21:57 19.09.2019
1633 Drizzle 11 1001 100 500 10.3 170 21:39 19.09.2019
1634 Drizzle 11 1001 100 500 10.3 170 21:39 19.09.2019
1635 Drizzle 11 1002 87 5000 8.2 170 21:19 19.09.2019
1636 Drizzle 11 1001 100 2500 8.7 170 20:57 19.09.2019
1637 Drizzle 11 1001 100 2500 8.7 170 20:57 19.09.2019
1638 Drizzle 11 1001 100 2500 8.7 170 20:38 19.09.2019
1639 Drizzle 11 1002 87 9000 8.2 170 20:19 19.09.2019
1640 Rain 11 1002 87 6000 7.7 170 19:54 19.09.2019
1641 Rain 11 1002 87 6000 7.7 170 19:36 19.09.2019
1642 Rain 11 1002 87 6000 7.7 170 19:18 19.09.2019
1643 Drizzle 11 1001 100 600 11.8 170 18:41 19.09.2019
1644 Drizzle 11 1003 87 7000 9.8 170 18:22 19.09.2019
1645 Drizzle 11 1002 100 1500 11.8 170 17:43 19.09.2019
1646 Drizzle 11 1003 87 10000 11.3 170 17:24 19.09.2019
1647 Drizzle 12 1002 100 2500 12.3 170 16:59 19.09.2019
1648 Drizzle 12 1002 100 2500 12.3 170 16:59 19.09.2019
1649 Drizzle 12 1002 100 2500 12.3 170 16:40 19.09.2019
1650 Drizzle 12 1002 100 2500 12.3 170 16:40 19.09.2019
1651 Drizzle 12 1003 82 9000 10.8 170 16:20 19.09.2019
1652 Drizzle 11 1002 100 4000 12.9 170 15:41 19.09.2019
1653 Drizzle 12 1004 87 8000 10.3 170 15:22 19.09.2019
1654 Drizzle 12 1003 100 7000 12.3 180 14:58 19.09.2019
1655 Drizzle 12 1003 100 7000 12.3 180 14:39 19.09.2019
1656 Drizzle 11 1004 87 7000 9.3 170 14:20 19.09.2019
1657 Rain 11 1003 100 3000 12.3 170 13:40 19.09.2019
1658 Rain 11 1005 87 4000 9.3 170 13:22 19.09.2019
1659 Rain 11 1004 100 3000 11.8 180 12:59 19.09.2019
1660 Rain 11 1004 100 3000 11.8 180 12:36 19.09.2019
1661 Rain 11 1005 87 3500 9.3 180 12:18 19.09.2019
1662 Rain 11 1004 100 2000 10.8 180 11:41 19.09.2019
1663 Rain 11 1005 87 5000 8.7 170 11:22 19.09.2019
1664 Rain 11 1004 100 3000 10.8 180 10:58 19.09.2019
1665 Rain 11 1004 100 3000 10.8 180 10:58 19.09.2019
1666 Rain 11 1004 100 3000 10.8 180 10:39 19.09.2019
1667 Rain 11 1005 87 4000 7.2 170 10:21 19.09.2019
1668 Drizzle 11 1004 100 3000 9.8 180 09:56 19.09.2019
1669 Drizzle 11 1004 100 3000 9.8 180 09:38 19.09.2019
1670 Drizzle 11 1005 87 4200 8.2 180 09:19 19.09.2019
1671 Rain 10 1004 100 3000 10.8 180 08:49 19.09.2019
1672 Drizzle 10 1005 100 2000 11.3 180 08:23 19.09.2019
1673 Drizzle 10 1005 100 2000 11.3 180 07:43 19.09.2019
1674 Drizzle 11 1006 87 8000 8.2 170 07:22 19.09.2019
1675 Drizzle 11 1005 100 500 10.8 180 06:51 19.09.2019
1676 Drizzle 11 1006 87 6000 7.7 180 06:32 19.09.2019
1677 Drizzle 11 1005 100 800 10.8 180 05:53 19.09.2019
1678 Drizzle 10 1007 87 10000 7.7 180 05:34 19.09.2019
1679 Drizzle 10 1006 100 2000 9.8 180 03:55 19.09.2019
1680 Drizzle 10 1008 87 6000 4.6 150 03:19 19.09.2019
1681 Drizzle 10 1008 81 9000 6.7 130 01:34 19.09.2019
1682 Rain 10 1007 100 3000 10.8 150 00:53 19.09.2019
1683 Rain 10 1009 81 10000 9.8 130 00:26 19.09.2019
1684 Drizzle 10 1008 100 4000 13.4 150 23:44 18.09.2019
1685 Drizzle 10 1008 100 4000 13.4 150 23:44 18.09.2019
1686 Drizzle 10 1009 76 10000 6.2 120 23:23 18.09.2019
1687 Drizzle 10 1008 100 2000 11.8 140 22:57 18.09.2019
1688 Drizzle 9 1008 100 2000 11.8 140 22:37 18.09.2019
1689 Drizzle 9 1010 76 10000 8.2 120 22:19 18.09.2019
1690 Rain 10 1008 100 3000 12.3 140 21:57 18.09.2019
1691 Rain 10 1010 76 10000 6.2 110 21:38 18.09.2019
1692 Rain 10 1010 76 10000 6.2 110 21:18 18.09.2019
1693 Rain 9 1009 93 4000 12.9 140 20:56 18.09.2019
1694 Rain 9 1009 93 4000 12.9 140 20:38 18.09.2019
1695 Rain 9 1011 81 10000 7.7 100 20:20 18.09.2019
1696 Rain 9 1010 93 5000 13.4 140 19:55 18.09.2019
1697 Rain 9 1011 81 9000 9.3 100 19:37 18.09.2019
1698 Rain 9 1011 81 9000 9.3 100 19:18 18.09.2019
1699 Rain 9 1010 93 4000 14.9 140 18:54 18.09.2019
1700 Rain 9 1010 93 4000 14.9 140 18:54 18.09.2019
1701 Rain 9 1011 76 10000 9.8 100 18:36 18.09.2019
1702 Rain 9 1011 76 10000 9.8 100 18:18 18.09.2019
1703 Rain 8 1010 100 7000 14.9 140 17:41 18.09.2019
1704 Rain 8 1012 76 10000 9.3 90 17:19 18.09.2019
1705 Rain 8 1010 93 7000 18 130 16:59 18.09.2019
1706 Rain 8 1010 93 7000 18 130 16:41 18.09.2019
1707 Rain 8 1013 81 8000 9.3 90 16:22 18.09.2019
1708 Rain 8 1011 87 10000 17 130 15:56 18.09.2019
1709 Rain 7 1011 87 10000 17 130 15:38 18.09.2019
1710 Rain 8 1013 87 4000 10.3 90 15:20 18.09.2019
1711 Rain 7 1012 93 10000 11.8 110 14:58 18.09.2019
1712 Rain 7 1012 93 10000 11.8 110 14:39 18.09.2019
1713 Rain 7 1013 81 10000 10.3 90 14:21 18.09.2019
1714 Rain 7 1014 87 10000 11.3 100 13:58 18.09.2019
1715 Rain 6 1014 75 5000 9.8 90 13:37 18.09.2019
1716 Rain 6 1014 75 5000 9.8 90 13:18 18.09.2019
1717 Rain 6 1015 93 5000 8.7 90 12:42 18.09.2019
1718 Rain 6 1016 81 4000 8.7 80 12:22 18.09.2019
1719 Rain 6 1016 93 4000 9.3 70 11:40 18.09.2019
1720 Rain 6 1016 93 4000 9.3 70 11:40 18.09.2019
1721 Rain 5 1017 81 7000 5.1 70 11:20 18.09.2019
1722 Rain 5 1017 93 8000 9.8 70 10:58 18.09.2019
1723 Rain 5 1017 93 8000 9.8 70 10:39 18.09.2019
1724 Rain 5 1019 81 5000 7.2 80 10:20 18.09.2019
1725 Rain 5 1019 81 5000 5.7 80 09:55 18.09.2019
1726 Rain 5 1019 81 8000 4.6 90 09:37 18.09.2019
1727 Rain 5 1019 81 8000 4.6 90 09:18 18.09.2019
1728 Rain 5 1019 86 10000 9.8 80 08:41 18.09.2019
1729 Rain 5 1020 81 9000 3.6 90 08:21 18.09.2019
1730 Rain 6 1020 87 10000 9.3 100 07:45 18.09.2019
1731 Rain 5 1021 81 10000 3.6 90 07:23 18.09.2019
1732 Rain 6 1020 87 8000 9.3 110 06:54 18.09.2019
1733 Rain 6 1021 75 10000 5.7 80 06:26 18.09.2019
1734 Rain 7 1020 87 10000 6.7 110 05:39 18.09.2019
1735 Clouds 7 1022 81 10000 4.6 110 03:49 18.09.2019
1736 Clouds 6 1022 87 10000 4.1 80 02:41 18.09.2019
1737 Clouds 7 1023 70 10000 3.6 90 01:50 18.09.2019
1738 Clouds 7 1023 65 10000 4.1 100 00:57 18.09.2019
1739 Clear 7 1024 65 10000 4.1 90 00:34 18.09.2019
1740 Clear 7 1023 75 10000 3.1 90 23:59 17.09.2019
1741 Clear 7 1023 75 10000 3.1 90 23:40 17.09.2019
1742 Clouds 7 1024 61 10000 3.1 90 23:21 17.09.2019
1743 Clouds 8 1023 81 10000 2.6 110 22:42 17.09.2019
1744 Clouds 8 1023 61 10000 2.1 100 22:23 17.09.2019
1745 Clouds 9 1023 75 10000 1.5 110 21:54 17.09.2019
1746 Clouds 9 1023 75 10000 1.5 110 21:36 17.09.2019
1747 Clouds 9 1023 57 10000 3.6 100 21:18 17.09.2019
1748 Clouds 9 1023 57 10000 3.6 100 21:18 17.09.2019
1749 Clouds 9 1023 75 10000 2.6 60 20:57 17.09.2019
1750 Clouds 9 1023 75 10000 2.6 60 20:39 17.09.2019
1751 Clouds 9 1023 53 10000 3.1 110 20:20 17.09.2019
1752 Clouds 9 1023 70 10000 3.1 50 19:57 17.09.2019
1753 Clouds 9 1023 70 10000 3.1 50 19:38 17.09.2019
1754 Clouds 9 1023 66 10000 3.1 90 19:18 17.09.2019
1755 Clouds 10 1024 66 10000 3.1 50 18:54 17.09.2019
1756 Clouds 9 1024 66 10000 3.1 50 18:36 17.09.2019
1757 Clouds 9 1023 53 10000 4.1 10 18:18 17.09.2019
1758 Clouds 9 1024 61 10000 2.6 50 17:44 17.09.2019
1759 Clouds 9 1024 53 10000 3.6 50 17:19 17.09.2019
1760 Clouds 10 1024 70 10000 2.6 70 16:54 17.09.2019
1761 Clouds 9 1024 53 10000 4.6 20 16:36 17.09.2019
1762 Clouds 9 1024 53 10000 4.6 20 16:18 17.09.2019
1763 Clouds 9 1024 57 10000 1 120 15:39 17.09.2019
1764 Clouds 8 1024 57 10000 3.1 10 15:19 17.09.2019
1765 Clouds 8 1023 65 10000 1.5 170 14:56 17.09.2019
1766 Clouds 8 1023 65 10000 1.5 170 14:37 17.09.2019
1767 Clouds 8 1024 67 10000 3.1 50 14:19 17.09.2019
1768 Clouds 7 1023 70 10000 2.6 150 13:43 17.09.2019
1769 Clouds 7 1023 61 10000 2.6 90 13:25 17.09.2019
1770 Clouds 7 1023 70 10000 0.5 0 12:59 17.09.2019
1771 Clouds 6 1023 70 10000 0.5 0 12:38 17.09.2019
1772 Clouds 6 1023 70 10000 0.5 0 12:38 17.09.2019
1773 Clear 6 1023 70 10000 2.1 120 12:19 17.09.2019
1774 Clouds 5 1023 81 10000 3.1 310 11:43 17.09.2019
1775 Clear 4 1023 75 10000 1.5 100 11:25 17.09.2019
1776 Clouds 4 1023 87 10000 3.6 330 10:56 17.09.2019
1777 Clouds 4 1023 80 10000 1 0 10:38 17.09.2019
1778 Clouds 3 1023 80 10000 1 0 10:20 17.09.2019
1779 Clouds 3 1023 86 10000 3.6 320 09:42 17.09.2019
1780 Clouds 3 1022 86 10000 2.1 130 09:23 17.09.2019
1781 Clouds 2 1022 86 10000 4.6 320 08:51 17.09.2019
1782 Clouds 3 1022 86 10000 3.6 330 08:33 17.09.2019
1783 Clouds 3 1022 86 10000 3.6 330 08:33 17.09.2019
1784 Clouds 3 1022 86 10000 3.6 330 07:59 17.09.2019
1785 Clouds 3 1022 86 10000 3.6 330 07:41 17.09.2019
1786 Clouds 3 1022 80 10000 1 120 07:23 17.09.2019
1787 Clouds 4 1022 80 10000 3.6 330 06:47 17.09.2019
1788 Clouds 3 1021 81 10000 0.5 0 06:23 17.09.2019
1789 Clouds 3 1022 80 10000 3.6 320 05:50 17.09.2019
1790 Clouds 4 1021 75 10000 3.1 330 04:32 17.09.2019
1791 Clouds 5 1021 80 10000 3.6 320 02:59 17.09.2019
1792 Clouds 5 1021 80 10000 3.6 320 02:39 17.09.2019
1793 Clouds 5 1021 80 10000 3.6 320 02:39 17.09.2019
1794 Clouds 5 1020 81 10000 1.5 220 01:34 17.09.2019
1795 Clouds 5 1020 81 10000 4.6 300 00:43 17.09.2019
1796 Rain 7 1020 81 10000 5.1 310 23:41 16.09.2019
1797 Rain 7 1019 65 10000 2.1 300 23:19 16.09.2019
1798 Rain 7 1019 65 10000 2.1 300 23:19 16.09.2019
1799 Clouds 7 1019 81 10000 6.7 290 22:57 16.09.2019
1800 Clouds 8 1019 81 10000 6.7 290 22:39 16.09.2019
1801 Clouds 7 1018 70 10000 2.6 320 22:21 16.09.2019
1802 Clouds 8 1018 81 10000 5.7 300 21:55 16.09.2019
1803 Clouds 8 1017 70 10000 4.1 300 21:37 16.09.2019
1804 Clouds 8 1017 70 10000 4.1 300 21:18 16.09.2019
1805 Clouds 8 1017 87 10000 7.2 290 20:40 16.09.2019
1806 Clouds 8 1017 66 10000 4.6 280 20:22 16.09.2019
1807 Rain 8 1016 87 10000 8.7 280 19:57 16.09.2019
1808 Rain 8 1016 87 10000 8.7 280 19:39 16.09.2019
1809 Rain 9 1016 70 10000 6.7 270 19:19 16.09.2019
1810 Clouds 9 1016 75 10000 7.7 280 18:48 16.09.2019
1811 Clouds 9 1015 70 10000 8.2 290 18:30 16.09.2019
1812 Clouds 8 1015 81 10000 9.8 280 17:59 16.09.2019
1813 Clouds 8 1015 81 10000 9.8 280 17:41 16.09.2019
1814 Clouds 7 1014 70 10000 6.7 280 17:22 16.09.2019
1815 Rain 8 1015 87 10000 9.8 280 16:55 16.09.2019
1816 Rain 8 1014 75 10000 7.7 270 16:37 16.09.2019
1817 Rain 7 1014 75 10000 7.7 270 16:18 16.09.2019
1818 Clouds 7 1014 75 10000 11.3 290 15:55 16.09.2019
1819 Clouds 7 1014 75 10000 11.3 290 15:55 16.09.2019
1820 Clouds 7 1014 75 10000 11.3 290 15:37 16.09.2019
1821 Clouds 7 1014 75 10000 11.3 290 15:37 16.09.2019
1822 Clouds 7 1014 75 10000 11.3 290 15:37 16.09.2019
1823 Clouds 8 1013 70 10000 10.3 280 15:18 16.09.2019
1824 Rain 7 1013 81 10000 11.3 280 14:43 16.09.2019
1825 Rain 7 1012 75 10000 9.8 270 14:23 16.09.2019
1826 Rain 7 1012 70 10000 12.3 280 13:57 16.09.2019
1827 Rain 6 1012 70 10000 12.3 280 13:38 16.09.2019
1828 Rain 7 1011 70 10000 9.8 270 13:20 16.09.2019
1829 Rain 6 1011 70 10000 12.9 270 12:43 16.09.2019
1830 Rain 6 1010 70 10000 9.8 270 12:24 16.09.2019
1831 Rain 6 1010 70 10000 13.4 270 11:55 16.09.2019
1832 Rain 6 1010 70 10000 13.4 270 11:37 16.09.2019
1833 Rain 6 1010 70 10000 9.8 280 11:19 16.09.2019
1834 Rain 5 1009 70 10000 10.8 270 10:38 16.09.2019
1835 Rain 5 1009 70 10000 10.8 270 10:19 16.09.2019
1836 Rain 5 1009 70 10000 10.8 270 10:19 16.09.2019
1837 Rain 5 1009 70 10000 12.3 270 09:57 16.09.2019
1838 Rain 5 1009 70 10000 12.3 270 09:38 16.09.2019
1839 Rain 5 1008 70 10000 10.3 260 09:19 16.09.2019
1840 Rain 5 1008 75 10000 12.9 260 08:44 16.09.2019
1841 Rain 5 1007 71 10000 10.3 260 08:25 16.09.2019
1842 Clouds 5 1007 60 10000 12.3 270 07:56 16.09.2019
1843 Clouds 5 1007 56 10000 9.3 260 07:37 16.09.2019
1844 Clouds 5 1007 56 10000 9.3 260 07:18 16.09.2019
1845 Clouds 5 1007 60 10000 12.3 270 06:43 16.09.2019
1846 Clouds 5 1006 52 10000 9.8 260 06:25 16.09.2019
1847 Clouds 5 1006 65 10000 12.3 280 05:44 16.09.2019
1848 Clouds 5 1006 56 10000 9.3 260 05:25 16.09.2019
1849 Rain 4 1005 66 10000 6.7 250 03:52 16.09.2019
1850 Rain 4 1005 66 10000 6.7 250 03:52 16.09.2019
1851 Clouds 6 1005 60 10000 11.3 250 01:57 16.09.2019
1852 Clouds 6 1005 56 10000 12.3 250 00:40 16.09.2019
1853 Clouds 5 1005 52 10000 10.3 270 00:22 16.09.2019
1854 Clouds 5 1005 56 10000 11.8 260 23:41 15.09.2019
1855 Clouds 5 1005 52 10000 10.3 270 23:21 15.09.2019
1856 Rain 5 1004 60 10000 13.4 270 22:43 15.09.2019
1857 Rain 5 1004 52 10000 10.8 260 22:23 15.09.2019
1858 Rain 5 1003 65 10000 13.9 260 21:59 15.09.2019
1859 Rain 5 1003 65 10000 13.9 260 21:40 15.09.2019
1860 Rain 6 1003 56 10000 12.3 250 21:22 15.09.2019
1861 Rain 6 1002 60 10000 13.4 260 20:59 15.09.2019
1862 Rain 6 1002 60 10000 13.4 260 20:59 15.09.2019
1863 Rain 6 1002 60 10000 13.4 260 20:41 15.09.2019
1864 Rain 6 1002 65 10000 12.3 250 20:23 15.09.2019
1865 Rain 6 1002 81 10000 13.9 250 19:46 15.09.2019
1866 Rain 7 1001 65 10000 12.3 240 19:26 15.09.2019
1867 Rain 7 1001 75 10000 13.9 260 18:55 15.09.2019
1868 Rain 7 1001 75 10000 13.9 260 18:36 15.09.2019
1869 Rain 8 1001 61 10000 12.3 250 18:18 15.09.2019
1870 Rain 7 1000 70 10000 14.4 250 17:41 15.09.2019
1871 Rain 8 1000 75 9000 10.8 230 17:21 15.09.2019
1872 Rain 8 1000 75 9000 10.8 230 17:21 15.09.2019
1873 Rain 8 999 81 10000 13.4 240 16:55 15.09.2019
1874 Rain 8 999 66 10000 10.8 200 16:36 15.09.2019
1875 Rain 9 999 66 10000 10.8 200 16:18 15.09.2019
1876 Rain 9 999 66 10000 10.8 200 16:18 15.09.2019
1877 Rain 7 999 87 10000 13.4 210 15:41 15.09.2019
1878 Rain 8 1000 70 10000 7.7 190 15:21 15.09.2019
1879 Rain 8 1000 70 10000 7.7 190 15:21 15.09.2019
1880 Rain 8 999 71 10000 10.3 200 14:58 15.09.2019
1881 Rain 7 999 71 10000 10.3 200 14:40 15.09.2019
1882 Rain 7 1001 76 10000 6.7 190 14:21 15.09.2019
1883 Rain 5 1000 87 10000 9.8 210 13:47 15.09.2019
1884 Rain 6 1002 86 10000 5.7 80 13:25 15.09.2019
1885 Rain 5 1001 87 10000 8.7 200 12:58 15.09.2019
1886 Rain 5 1001 87 10000 8.7 200 12:39 15.09.2019
1887 Rain 4 1003 80 8000 8.7 100 12:19 15.09.2019
1888 Rain 4 1003 80 3200 8.2 100 11:42 15.09.2019
1889 Rain 4 1004 93 10000 8.2 90 11:23 15.09.2019
1890 Rain 4 1003 93 10000 8.2 180 10:59 15.09.2019
1891 Rain 4 1003 93 10000 8.2 180 10:40 15.09.2019
1892 Rain 4 1005 65 10000 5.7 110 10:21 15.09.2019
1893 Rain 3 1004 87 10000 8.2 150 09:43 15.09.2019
1894 Rain 3 1006 64 10000 4.1 100 09:21 15.09.2019
1895 Rain 2 1005 80 10000 5.7 140 08:59 15.09.2019
1896 Rain 2 1005 80 10000 5.7 140 08:59 15.09.2019
1897 Rain 1 1005 80 10000 5.7 140 08:40 15.09.2019
1898 Clouds 2 1006 74 10000 5.1 130 08:19 15.09.2019
1899 Clouds 2 1006 74 10000 5.1 130 07:46 15.09.2019
1900 Clouds 1 1007 74 10000 4.1 130 06:45 15.09.2019
1901 Clouds 1 1008 69 10000 3.1 140 06:27 15.09.2019
1902 Clouds 4 1008 56 10000 5.7 310 03:20 15.09.2019
1903 Clouds 5 1008 60 10000 7.7 300 02:20 15.09.2019
1904 Clouds 5 1008 79 10000 6.2 300 01:37 15.09.2019
1905 Clouds 6 1007 78 10000 7.2 300 00:57 15.09.2019
1906 Clouds 6 1007 78 10000 7.2 300 00:57 15.09.2019
1907 Clouds 6 1007 78 10000 7.2 300 00:37 15.09.2019
1908 Clouds 6 1006 60 10000 9.8 310 00:19 15.09.2019
1909 Clouds 6 1006 65 10000 8.7 310 23:56 14.09.2019
1910 Clouds 6 1004 56 10000 11.8 310 23:38 14.09.2019
1911 Clouds 6 1004 56 10000 11.8 310 23:19 14.09.2019
1912 Clouds 6 1005 65 10000 12.9 310 22:57 14.09.2019
1913 Clouds 6 1005 65 10000 12.9 310 22:57 14.09.2019
1914 Clouds 6 1005 65 10000 12.9 310 22:38 14.09.2019
1915 Clouds 6 1002 60 10000 14.4 310 22:18 14.09.2019
1916 Clouds 7 1003 72 10000 13.9 310 21:40 14.09.2019
1917 Clouds 6 1000 65 10000 13.9 310 21:21 14.09.2019
1918 Rain 6 1002 70 10000 15.4 310 20:59 14.09.2019
1919 Rain 6 998 70 10000 11.8 320 20:40 14.09.2019
1920 Rain 6 998 70 10000 11.8 320 20:22 14.09.2019
1921 Rain 7 999 75 10000 15.9 310 19:51 14.09.2019
1922 Rain 7 995 75 8000 13.9 310 19:23 14.09.2019
1923 Rain 7 996 75 10000 18 310 18:58 14.09.2019
1924 Rain 7 996 75 10000 18 310 18:39 14.09.2019
1925 Rain 7 992 75 3700 14.4 310 18:20 14.09.2019
1926 Rain 7 994 81 10000 18 310 17:55 14.09.2019
1927 Rain 7 990 75 7000 13.9 310 17:37 14.09.2019
1928 Rain 7 990 75 7000 13.9 310 17:18 14.09.2019
1929 Rain 7 990 81 10000 14.9 310 16:42 14.09.2019
1930 Rain 7 987 75 8000 12.9 320 16:21 14.09.2019
1931 Rain 7 988 81 10000 15.9 320 15:42 14.09.2019
1932 Rain 7 985 81 7000 10.3 320 15:23 14.09.2019
1933 Rain 7 986 87 10000 13.9 330 14:58 14.09.2019
1934 Rain 7 986 87 10000 13.9 330 14:39 14.09.2019
1935 Rain 7 982 81 8000 8.2 340 14:18 14.09.2019
1936 Rain 8 981 75 6000 10.3 340 13:47 14.09.2019
1937 Rain 8 981 75 6000 10.3 340 13:47 14.09.2019
1938 Rain 8 981 75 6000 10.3 340 13:47 14.09.2019
1939 Rain 8 980 76 10000 7.2 350 13:22 14.09.2019
1940 Drizzle 9 982 93 3000 12.9 350 12:47 14.09.2019
1941 Drizzle 9 978 66 10000 4.1 10 12:25 14.09.2019
1942 Drizzle 9 979 93 7000 11.8 10 11:42 14.09.2019
1943 Clouds 9 978 71 10000 6.7 80 11:21 14.09.2019
1944 Rain 9 979 87 10000 9.3 30 10:57 14.09.2019
1945 Rain 9 979 87 10000 9.3 30 10:36 14.09.2019
1946 Rain 9 979 87 10000 9.3 30 10:36 14.09.2019
1947 Rain 9 979 87 10000 9.3 30 10:36 14.09.2019
1948 Rain 9 978 66 10000 10.3 80 10:18 14.09.2019
1949 Rain 9 979 87 10000 9.3 40 09:56 14.09.2019
1950 Rain 9 979 87 10000 9.3 40 09:37 14.09.2019
1951 Rain 8 979 76 10000 9.3 80 09:18 14.09.2019
1952 Rain 8 980 87 10000 10.8 60 08:41 14.09.2019
1953 Rain 8 981 70 10000 9.3 80 08:23 14.09.2019
1954 Rain 8 982 87 10000 10.8 60 07:44 14.09.2019
1955 Rain 8 984 75 10000 9.8 70 07:26 14.09.2019
1956 Rain 8 985 93 10000 8.7 70 06:38 14.09.2019
1957 Rain 7 988 93 10000 9.8 100 05:55 14.09.2019
1958 Rain 7 991 93 10000 9.8 100 04:44 14.09.2019
1959 Rain 6 998 75 10000 6.7 100 03:33 14.09.2019
1960 Drizzle 7 998 93 10000 5.7 100 02:51 14.09.2019
1961 Rain 7 1000 87 10000 5.1 110 01:46 14.09.2019
1962 Rain 7 1003 70 10000 4.1 100 01:21 14.09.2019
1963 Rain 7 1003 81 10000 4.1 130 00:56 14.09.2019
1964 Rain 7 1003 81 10000 4.1 130 00:37 14.09.2019
1965 Clouds 7 1005 65 10000 4.1 100 00:18 14.09.2019
1966 Clouds 7 1006 65 10000 3.1 90 23:38 13.09.2019
1967 Clouds 7 1006 65 10000 3.1 90 23:19 13.09.2019
1968 Clouds 7 1006 75 10000 2.6 150 22:56 13.09.2019
1969 Clouds 7 1006 75 10000 2.6 150 22:37 13.09.2019
1970 Clouds 7 1008 61 10000 2.6 160 22:19 13.09.2019
1971 Clouds 9 1007 70 10000 3.1 190 21:41 13.09.2019
1972 Clouds 8 1008 57 10000 4.6 210 21:20 13.09.2019
1973 Clouds 8 1008 61 10000 5.1 220 20:58 13.09.2019
1974 Clouds 9 1008 61 10000 5.1 220 20:39 13.09.2019
1975 Clouds 9 1009 68 10000 6.7 230 20:20 13.09.2019
1976 Clouds 9 1008 57 10000 6.7 230 19:56 13.09.2019
1977 Clouds 9 1008 57 10000 6.7 230 19:37 13.09.2019
1978 Clouds 9 1009 68 10000 7.2 240 19:19 13.09.2019
1979 Clouds 9 1008 57 10000 8.2 240 18:55 13.09.2019
1980 Clouds 9 1008 57 10000 8.2 240 18:36 13.09.2019
1981 Clouds 10 1009 72 10000 8.2 230 18:18 13.09.2019
1982 Clouds 9 1009 57 10000 9.3 240 17:38 13.09.2019
1983 Clouds 10 1009 72 10000 8.7 240 17:19 13.09.2019
1984 Clouds 10 1009 57 10000 11.3 250 16:41 13.09.2019
1985 Clouds 9 1009 72 10000 10.3 230 16:21 13.09.2019
1986 Clouds 9 1008 57 10000 12.9 240 15:47 13.09.2019
1987 Clouds 9 1009 72 10000 10.8 240 15:28 13.09.2019
1988 Clouds 9 1008 57 10000 13.9 240 14:59 13.09.2019
1989 Clouds 9 1008 57 10000 13.9 240 14:41 13.09.2019
1990 Clouds 9 1008 57 10000 13.9 240 14:41 13.09.2019
1991 Clouds 9 1008 78 10000 11.8 230 14:22 13.09.2019
1992 Clouds 9 1008 78 10000 11.8 230 14:22 13.09.2019
1993 Clouds 9 1007 57 10000 12.9 240 13:54 13.09.2019
1994 Clouds 9 1007 78 10000 12.3 230 13:36 13.09.2019
1995 Clouds 9 1007 79 10000 12.3 230 13:18 13.09.2019
1996 Clouds 9 1007 61 10000 13.4 240 12:41 13.09.2019
1997 Clouds 8 1007 57 10000 10.8 220 12:22 13.09.2019
1998 Clouds 8 1006 65 10000 12.9 240 11:55 13.09.2019
1999 Clouds 8 1006 65 10000 12.9 240 11:55 13.09.2019
2000 Clouds 8 1006 61 10000 8.7 210 11:19 13.09.2019
2001 Clouds 7 1006 65 10000 11.8 240 10:40 13.09.2019
2002 Rain 6 1006 70 10000 7.2 210 10:19 13.09.2019
2003 Rain 6 1005 61 10000 11.8 240 09:46 13.09.2019
2004 Rain 6 1006 75 10000 8.7 220 09:25 13.09.2019
2005 Rain 5 1005 70 10000 11.3 230 08:59 13.09.2019
2006 Rain 6 1005 68 10000 11.3 230 08:40 13.09.2019
2007 Rain 5 1005 75 10000 6.7 190 08:21 13.09.2019
2008 Clouds 5 1005 70 10000 8.7 240 07:52 13.09.2019
2009 Clouds 5 1005 70 10000 6.7 200 07:34 13.09.2019
2010 Clouds 5 1004 65 10000 8.7 230 06:48 13.09.2019
2011 Clouds 7 1004 65 10000 9.8 230 05:49 13.09.2019
2012 Rain 6 1004 81 10000 9.3 230 04:59 13.09.2019
2013 Rain 6 1004 87 6000 8.7 250 03:40 13.09.2019
2014 Rain 6 1004 75 10000 7.2 260 02:21 13.09.2019
2015 Rain 6 1003 81 10000 7.7 250 01:59 13.09.2019
2016 Rain 6 1003 81 10000 4.6 200 01:34 13.09.2019
2017 Clouds 6 1002 81 10000 5.7 250 00:58 13.09.2019
2018 Clouds 6 1003 81 10000 5.1 200 00:23 13.09.2019
2019 Rain 6 1002 81 10000 6.2 250 23:39 12.09.2019
2020 Rain 6 1002 75 10000 5.1 170 23:20 12.09.2019
2021 Rain 6 1002 75 10000 5.1 170 23:20 12.09.2019
2022 Rain 7 1002 75 10000 6.7 230 22:42 12.09.2019
2023 Rain 7 1002 70 10000 7.7 210 22:24 12.09.2019
2024 Clouds 8 1001 75 10000 6.7 220 21:57 12.09.2019
2025 Clouds 8 1001 75 10000 6.7 220 21:38 12.09.2019
2026 Clouds 8 1002 70 10000 6.2 200 21:20 12.09.2019
2027 Clouds 8 1001 76 10000 7.7 220 20:57 12.09.2019
2028 Clouds 8 1001 76 10000 7.7 220 20:39 12.09.2019
2029 Clouds 9 1001 66 10000 4.6 230 20:20 12.09.2019
2030 Rain 9 1001 76 10000 6.7 220 19:56 12.09.2019
2031 Rain 9 1001 66 10000 7.2 210 19:36 12.09.2019
2032 Rain 9 1001 66 10000 7.2 210 19:18 12.09.2019
2033 Rain 9 1001 87 10000 8.7 210 18:38 12.09.2019
2034 Rain 9 1001 65 5000 7.2 220 18:20 12.09.2019
2035 Rain 10 1001 71 10000 8.7 220 17:59 12.09.2019
2036 Rain 10 1001 71 10000 8.7 220 17:39 12.09.2019
2037 Rain 10 1001 66 10000 5.1 210 17:19 12.09.2019
2038 Rain 9 1000 71 10000 7.2 230 16:42 12.09.2019
2039 Rain 9 1001 66 10000 5.1 260 16:22 12.09.2019
2040 Rain 9 1000 66 10000 8.2 220 15:58 12.09.2019
2041 Rain 9 1000 66 10000 8.2 220 15:38 12.09.2019
2042 Rain 9 1001 70 10000 4.6 190 15:20 12.09.2019
2043 Rain 8 1000 81 10000 6.2 230 14:44 12.09.2019
2044 Rain 8 1000 75 10000 6.7 200 14:21 12.09.2019
2045 Rain 8 1000 76 10000 7.2 220 13:42 12.09.2019
2046 Rain 8 1000 76 10000 7.2 220 13:42 12.09.2019
2047 Rain 8 1000 66 10000 5.7 170 13:23 12.09.2019
2048 Rain 8 1000 76 10000 4.1 200 12:57 12.09.2019
2049 Rain 8 1000 76 10000 4.1 200 12:38 12.09.2019
2050 Rain 8 1000 70 10000 4.1 160 12:18 12.09.2019
2051 Rain 7 1000 87 10000 3.1 140 11:54 12.09.2019
2052 Rain 6 1000 75 10000 3.6 110 11:36 12.09.2019
2053 Rain 6 1000 75 10000 3.6 110 11:18 12.09.2019
2054 Clouds 6 999 87 10000 4.1 150 10:42 12.09.2019
2055 Clouds 6 999 87 10000 4.1 150 10:42 12.09.2019
2056 Clouds 6 999 87 10000 4.1 150 10:42 12.09.2019
2057 Clouds 5 1000 81 10000 3.1 100 10:23 12.09.2019
2058 Rain 5 999 87 10000 3.6 140 09:44 12.09.2019
2059 Rain 5 999 81 10000 2.1 140 09:20 12.09.2019
2060 Clouds 5 999 93 10000 2.6 130 08:57 12.09.2019
2061 Clouds 5 999 93 10000 2.6 130 08:38 12.09.2019
2062 Clouds 5 999 75 10000 2.1 130 08:20 12.09.2019
2063 Clouds 3 999 92 0 2.24 138 07:38 12.09.2019
2064 Clouds 3 999 90 0 2.24 142 07:18 12.09.2019
2065 Clouds 4 999 86 0 0.89 202 06:49 12.09.2019
2066 Clouds 4 999 86 0 0.89 202 06:49 12.09.2019
2067 Clouds 6 999 70 10000 3.6 180 06:19 12.09.2019
2068 Clouds 6 999 70 10000 3.6 180 05:48 12.09.2019
2069 Clouds 6 999 70 10000 3.6 180 05:27 12.09.2019
2070 Clouds 6 999 65 10000 3.6 250 04:31 12.09.2019
2071 Clouds 6 999 65 10000 3.6 250 04:31 12.09.2019
2072 Clouds 6 999 81 10000 4.1 250 01:48 12.09.2019
2073 Clouds 7 998 65 10000 6.2 260 01:30 12.09.2019
2074 Rain 7 998 70 10000 5.7 250 00:51 12.09.2019
2075 Rain 7 998 70 10000 6.7 260 00:31 12.09.2019
2076 Rain 7 998 81 10000 5.7 270 23:57 11.09.2019
2077 Rain 7 998 81 10000 5.7 270 23:37 11.09.2019
2078 Rain 7 998 70 10000 7.7 270 23:19 11.09.2019
2079 Rain 7 998 87 10000 7.2 270 22:55 11.09.2019
2080 Rain 7 997 81 10000 7.7 260 22:37 11.09.2019
2081 Rain 7 997 81 10000 7.7 260 22:18 11.09.2019
2082 Rain 7 997 81 10000 7.7 260 22:18 11.09.2019
2083 Clouds 7 997 81 10000 8.7 270 21:41 11.09.2019
2084 Rain 8 997 75 10000 9.3 270 21:23 11.09.2019
2085 Rain 8 997 75 10000 9.3 270 20:57 11.09.2019
2086 Rain 8 996 81 10000 8.7 270 20:38 11.09.2019
2087 Rain 8 996 81 10000 8.7 270 20:19 11.09.2019
2088 Clouds 8 997 81 10000 9.8 280 19:57 11.09.2019
2089 Clouds 8 997 81 10000 9.8 280 19:39 11.09.2019
2090 Clouds 8 997 81 10000 9.8 280 19:39 11.09.2019
2091 Clouds 8 997 81 10000 9.8 280 19:39 11.09.2019
2092 Clouds 8 996 76 10000 9.3 280 19:19 11.09.2019
2093 Rain 9 996 81 10000 10.3 290 18:56 11.09.2019
2094 Rain 9 996 81 10000 10.3 290 18:37 11.09.2019
2095 Rain 9 995 81 10000 9.8 280 18:19 11.09.2019
2096 Rain 9 995 81 10000 10.8 280 17:41 11.09.2019
2097 Rain 9 994 87 2500 9.3 280 17:22 11.09.2019
2098 Rain 9 995 93 7000 11.8 290 16:59 11.09.2019
2099 Rain 9 995 93 7000 11.8 290 16:40 11.09.2019
2100 Rain 9 994 81 5000 4.1 300 16:21 11.09.2019
2101 Rain 10 994 81 3500 3.6 280 15:47 11.09.2019
2102 Rain 10 993 81 10000 3.6 270 15:24 11.09.2019
2103 Rain 9 994 93 10000 10.3 290 14:59 11.09.2019
2104 Rain 9 994 93 10000 10.3 290 14:40 11.09.2019
2105 Rain 9 993 76 10000 2.6 290 14:20 11.09.2019
2106 Drizzle 9 993 93 10000 9.3 280 13:59 11.09.2019
2107 Drizzle 9 993 93 10000 9.3 280 13:37 11.09.2019
2108 Drizzle 9 992 87 10000 3.6 320 13:19 11.09.2019
2109 Rain 9 993 87 10000 7.7 300 12:42 11.09.2019
2110 Rain 9 992 81 10000 5.1 300 12:22 11.09.2019
2111 Drizzle 9 992 81 10000 6.7 330 11:58 11.09.2019
2112 Drizzle 9 992 81 10000 6.7 330 11:38 11.09.2019
2113 Drizzle 9 991 81 9000 5.1 320 11:20 11.09.2019
2114 -273 0 0 0 0 0 10:55 11.09.2019
2115 -273 0 0 0 0 0 10:55 11.09.2019
2116 Rain 9 990 81 10000 5.1 330 10:36 11.09.2019
2117 Rain 9 990 81 10000 5.1 330 10:18 11.09.2019
2118 Rain 9 991 93 10000 5.1 310 09:37 11.09.2019
2119 Rain 8 990 81 10000 5.7 310 09:19 11.09.2019
2120 Clouds 9 990 93 10000 4.6 340 08:42 11.09.2019
2121 Clouds 9 989 81 10000 3.1 340 08:21 11.09.2019
2122 Clouds 8 989 93 10000 4.1 340 07:57 11.09.2019
2123 Clouds 8 989 93 10000 4.1 340 07:38 11.09.2019
2124 Clouds 8 988 81 10000 3.6 330 07:20 11.09.2019
2125 Clouds 8 988 93 10000 4.6 340 06:40 11.09.2019
2126 Rain 8 987 96 0 4.92 337 06:21 11.09.2019
2127 Drizzle 8 986 87 10000 0.5 0 05:34 11.09.2019
2128 Drizzle 8 986 87 10000 0.5 0 04:52 11.09.2019
2129 Rain 8 986 93 10000 4.1 360 03:59 11.09.2019
2130 Clouds 8 985 87 10000 2.3 1.397 03:26 11.09.2019
2131 Clouds 8 985 87 10000 1 180 02:31 11.09.2019
2132 Clouds 8 984 87 10000 3.24 21.275 01:32 11.09.2019
2133 Clouds 9 984 87 10000 1.5 40 00:37 11.09.2019
2134 Clouds 9 984 87 10000 1.5 40 00:19 11.09.2019
2135 Rain 8 984 93 10000 1 40 23:40 10.09.2019
2136 Rain 9 984 87 10000 3.6 70 23:21 10.09.2019
2137 Rain 9 983 93 10000 1.5 90 22:55 10.09.2019
2138 Rain 9 983 93 10000 1.5 90 22:37 10.09.2019
2139 Rain 9 983 87 10000 3.6 70 22:18 10.09.2019
2140 Rain 9 983 87 10000 3.6 70 22:18 10.09.2019
2141 Rain 10 983 93 10000 1 160 21:54 10.09.2019
2142 Rain 10 983 93 10000 1 160 21:36 10.09.2019
2143 Rain 10 983 81 10000 4.1 60 21:18 10.09.2019
2144 Rain 10 983 81 10000 4.1 60 21:18 10.09.2019
2145 Rain 10 983 93 7000 3.1 190 20:54 10.09.2019
2146 Rain 10 983 93 7000 3.1 190 20:54 10.09.2019
2147 Rain 10 983 76 10000 2.6 180 20:36 10.09.2019
2148 Rain 10 983 76 10000 2.6 180 20:18 10.09.2019
2149 Rain 10 983 100 10000 1 120 19:55 10.09.2019
2150 Rain 10 983 100 10000 1 120 19:36 10.09.2019
2151 Rain 10 983 76 10000 6.2 100 19:18 10.09.2019
2152 Rain 10 983 76 10000 6.2 100 19:18 10.09.2019
2153 Drizzle 10 983 93 10000 5.1 130 18:42 10.09.2019
2154 Clouds 10 983 71 10000 9.3 90 18:22 10.09.2019
2155 Rain 10 983 81 10000 7.2 80 17:57 10.09.2019
2156 Rain 10 983 81 10000 7.2 80 17:39 10.09.2019
2157 Rain 10 984 71 10000 9.8 90 17:19 10.09.2019
2158 Rain 10 985 87 10000 10.8 60 16:57 10.09.2019
2159 Rain 10 985 76 10000 8.7 80 16:37 10.09.2019
2160 Rain 10 985 76 10000 8.7 80 16:19 10.09.2019
2161 Rain 9 986 87 10000 10.3 60 15:43 10.09.2019
2162 Rain 9 986 76 10000 9.3 80 15:23 10.09.2019
2163 Rain 9 987 87 7000 9.8 60 14:57 10.09.2019
2164 Rain 9 987 87 7000 9.8 60 14:39 10.09.2019
2165 Rain 9 987 66 10000 8.7 80 14:20 10.09.2019
2166 Rain 9 988 87 10000 10.8 60 13:47 10.09.2019
2167 Rain 9 990 81 10000 10.3 70 13:23 10.09.2019
2168 Rain 9 990 81 10000 10.3 70 12:53 10.09.2019
2169 Rain 9 991 70 10000 6.2 70 12:28 10.09.2019
2170 Rain 9 991 81 10000 8.7 70 11:59 10.09.2019
2171 Rain 8 993 76 10000 6.2 80 11:40 10.09.2019
2172 Rain 8 993 76 10000 6.2 80 11:22 10.09.2019
2173 Rain 8 993 93 10000 7.7 90 10:54 10.09.2019
2174 Rain 9 994 76 10000 5.1 90 10:36 10.09.2019
2175 Rain 9 994 76 10000 5.1 90 10:18 10.09.2019
2176 Clouds 8 995 76 10000 7.2 100 09:43 10.09.2019
2177 Clouds 8 995 76 10000 7.2 100 09:20 10.09.2019
2178 Drizzle 8 995 93 10000 4.6 100 08:48 10.09.2019
2179 Drizzle 8 997 81 10000 4.1 90 08:29 10.09.2019
2180 Drizzle 8 997 81 10000 4.1 90 08:29 10.09.2019
2181 Rain 8 996 87 10000 5.1 100 07:59 10.09.2019
2182 Rain 8 998 76 10000 3.6 80 07:41 10.09.2019
2183 Rain 8 998 76 10000 3.6 80 07:41 10.09.2019
2184 Rain 8 998 76 10000 3.6 80 07:23 10.09.2019
2185 Drizzle 8 999 76 10000 3.6 100 06:42 10.09.2019
2186 Drizzle 8 999 76 10000 3.6 100 06:21 10.09.2019
2187 Drizzle 8 1001 81 5000 3.1 100 04:24 10.09.2019
2188 Clouds 8 1002 76 10000 3.6 110 02:40 10.09.2019
2189 Clouds 8 1002 76 10000 3.6 110 02:21 10.09.2019
2190 Clouds 8 1002 76 10000 3.6 110 02:21 10.09.2019
2191 Clouds 8 1002 93 10000 3.6 130 01:50 10.09.2019
2192 Drizzle 8 1003 81 10000 2.6 100 01:23 10.09.2019
2193 Clouds 8 1003 100 10000 2.6 130 00:42 10.09.2019
2194 Clouds 8 1004 76 10000 2.1 100 00:22 10.09.2019
2195 Clouds 8 1003 93 10000 2.6 150 23:40 09.09.2019
2196 Clouds 7 1004 76 10000 2.6 110 23:19 09.09.2019
2197 Clouds 8 1004 87 10000 3.1 140 22:55 09.09.2019
2198 Clouds 8 1004 87 10000 3.1 140 22:55 09.09.2019
2199 Clouds 8 1004 87 10000 3.1 140 22:55 09.09.2019
2200 Clouds 9 1004 71 10000 2.6 90 22:36 09.09.2019
2201 Clouds 9 1004 71 10000 2.6 90 22:36 09.09.2019
2202 Clouds 9 1004 71 10000 2.6 90 22:18 09.09.2019
2203 Clouds 10 1004 93 10000 2.6 150 21:55 09.09.2019
2204 Rain 10 1004 71 10000 2.6 80 21:37 09.09.2019
2205 Rain 10 1004 71 10000 2.6 80 21:18 09.09.2019
2206 Rain 11 1004 87 10000 3.6 150 20:55 09.09.2019
2207 Rain 11 1004 66 10000 2.1 40 20:36 09.09.2019
2208 Rain 11 1004 66 10000 2.1 40 20:18 09.09.2019
2209 Rain 11 1004 76 10000 4.1 80 19:55 09.09.2019
2210 Rain 11 1005 71 10000 1 0 19:37 09.09.2019
2211 Rain 11 1005 71 10000 1 0 19:19 09.09.2019
2212 Rain 11 1005 71 10000 3.1 170 18:55 09.09.2019
2213 Rain 12 1005 66 10000 1 0 18:36 09.09.2019
2214 Rain 12 1005 66 10000 1 0 18:18 09.09.2019
2215 Rain 11 1005 71 10000 4.1 160 17:56 09.09.2019
2216 Rain 11 1005 71 10000 4.6 110 17:37 09.09.2019
2217 Rain 11 1005 71 10000 4.6 110 17:19 09.09.2019
2218 Rain 11 1005 58 10000 1.5 320 16:40 09.09.2019
2219 Rain 12 1005 58 10000 1.5 320 16:21 09.09.2019
2220 Rain 11 1005 81 10000 2.6 60 15:56 09.09.2019
2221 Rain 11 1005 62 10000 1 0 15:38 09.09.2019
2222 Rain 11 1005 62 10000 1 0 15:20 09.09.2019
2223 Rain 11 1005 81 10000 1.5 50 14:57 09.09.2019
2224 Rain 11 1005 62 10000 1.5 320 14:39 09.09.2019
2225 Rain 11 1005 62 10000 1.5 320 14:20 09.09.2019
2226 Rain 10 1005 87 10000 2.1 150 13:45 09.09.2019
2227 Rain 10 1005 71 10000 1.5 110 13:22 09.09.2019
2228 Rain 10 1005 71 10000 1.5 110 13:22 09.09.2019
2229 Clouds 10 1005 81 10000 2.1 130 12:59 09.09.2019
2230 Clouds 10 1005 81 10000 2.1 130 12:59 09.09.2019
2231 Clouds 9 1005 71 10000 1 0 12:41 09.09.2019
2232 Clouds 9 1005 71 10000 1 0 12:21 09.09.2019
2233 Clouds 9 1004 87 10000 3.1 140 11:57 09.09.2019
2234 Clouds 9 1004 81 10000 1 100 11:39 09.09.2019
2235 Clouds 9 1004 81 10000 1 100 11:18 09.09.2019
2236 Clouds 7 1004 93 10000 2.1 150 10:42 09.09.2019
2237 Clouds 7 1004 87 10000 2.1 110 10:23 09.09.2019
2238 Clouds 7 1004 87 10000 2.1 190 09:58 09.09.2019
2239 Clouds 7 1004 87 10000 3.1 120 09:39 09.09.2019
2240 Clouds 7 1004 87 10000 3.1 120 09:21 09.09.2019
2241 Clouds 7 1003 100 10000 2.6 160 08:39 09.09.2019
2242 Rain 7 1003 100 10000 2.6 160 08:21 09.09.2019
2243 Rain 7 1003 100 10000 2.6 160 07:58 09.09.2019
2244 Rain 7 1003 87 10000 2.6 120 07:39 09.09.2019
2245 Rain 7 1003 87 10000 2.6 120 07:20 09.09.2019
2246 Rain 7 1002 100 10000 1.5 120 06:46 09.09.2019
2247 Rain 7 1002 81 10000 3.1 90 05:37 09.09.2019
2248 Clouds 7 1001 93 10000 2.6 130 02:59 09.09.2019
2249 Clouds 7 1001 81 10000 2.1 100 02:41 09.09.2019
2250 Clouds 7 1000 87 10000 2.1 120 01:22 09.09.2019
2251 Clouds 7 1000 81 10000 2.1 120 00:24 09.09.2019
2252 Clouds 7 999 93 10000 2.6 140 23:47 08.09.2019
2253 Clouds 8 999 81 10000 2.6 150 23:29 08.09.2019
2254 Clouds 8 999 93 10000 3.1 170 22:59 08.09.2019
2255 Clouds 9 999 76 10000 4.6 220 22:39 08.09.2019
2256 Clouds 9 999 76 10000 4.6 220 22:21 08.09.2019
2257 Rain 10 999 81 10000 3.6 200 21:58 08.09.2019
2258 Rain 10 998 71 10000 5.7 200 21:39 08.09.2019
2259 Rain 10 998 71 10000 5.7 200 21:21 08.09.2019
2260 Clouds 10 998 66 10000 5.1 210 20:41 08.09.2019
2261 Clouds 10 998 66 10000 5.1 210 20:22 08.09.2019
2262 Clouds 11 997 76 10000 6.2 210 19:59 08.09.2019
2263 Clouds 11 997 62 10000 5.1 230 19:39 08.09.2019
2264 Clouds 11 997 62 10000 5.1 230 19:21 08.09.2019
2265 Clouds 11 997 76 10000 5.7 210 18:58 08.09.2019
2266 Clouds 11 997 66 10000 3.6 230 18:39 08.09.2019
2267 Clouds 11 997 66 10000 3.6 230 18:19 08.09.2019
2268 Clouds 12 996 71 10000 5.7 220 17:58 08.09.2019
2269 Clouds 11 996 71 10000 4.1 250 17:37 08.09.2019
2270 Clouds 12 996 71 10000 4.1 250 17:18 08.09.2019
2271 Rain 11 996 76 10000 6.2 210 16:56 08.09.2019
2272 Rain 11 996 76 10000 3.6 240 16:37 08.09.2019
2273 Rain 11 996 76 10000 3.6 240 16:19 08.09.2019
2274 Drizzle 11 996 81 2500 5.7 240 15:42 08.09.2019
2275 Drizzle 11 996 81 2500 5.7 240 15:22 08.09.2019
2276 Rain 11 996 81 10000 5.7 230 14:59 08.09.2019
2277 Rain 11 996 71 10000 4.6 200 14:39 08.09.2019
2278 Rain 11 996 71 10000 4.6 200 14:21 08.09.2019
2279 Drizzle 11 995 87 10000 7.2 230 13:57 08.09.2019
2280 Drizzle 11 996 76 10000 5.1 180 13:39 08.09.2019
2281 Drizzle 10 996 76 10000 5.1 180 13:21 08.09.2019
2282 Rain 10 995 87 10000 7.7 200 12:55 08.09.2019
2283 Rain 11 996 81 10000 5.7 180 12:37 08.09.2019
2284 Rain 11 996 81 10000 5.7 180 12:18 08.09.2019
2285 Drizzle 10 995 87 10000 6.7 190 11:56 08.09.2019
2286 Drizzle 10 996 81 10000 4.1 160 11:37 08.09.2019
2287 Drizzle 10 996 81 10000 4.1 160 11:18 08.09.2019
2288 Rain 9 995 100 10000 5.7 180 10:42 08.09.2019
2289 Rain 9 996 76 10000 3.6 140 10:23 08.09.2019
2290 Drizzle 9 995 93 10000 5.1 170 09:56 08.09.2019
2291 Clouds 9 996 81 10000 3.1 140 09:37 08.09.2019
2292 Clouds 9 996 81 10000 3.1 140 09:19 08.09.2019
2293 Clouds 8 996 81 10000 4.1 150 08:39 08.09.2019
2294 Clouds 8 996 81 10000 4.1 150 08:19 08.09.2019
2295 Clouds 8 995 87 10000 6.7 170 07:43 08.09.2019
2296 Clouds 8 996 81 10000 5.1 150 07:21 08.09.2019
2297 Drizzle 8 996 93 10000 5.1 170 06:57 08.09.2019
2298 Drizzle 9 996 81 4100 4.1 180 06:38 08.09.2019
2299 Clouds 9 997 76 10000 4.1 150 05:40 08.09.2019
2300 Clouds 9 996 93 10000 6.2 170 04:59 08.09.2019
2301 Clouds 8 998 76 10000 3.6 150 03:23 08.09.2019
2302 Clouds 9 997 93 10000 4.1 170 02:48 08.09.2019
2303 Clouds 9 997 87 10000 4.6 200 01:54 08.09.2019
2304 Clouds 10 998 87 10000 2.6 180 01:27 08.09.2019
2305 Clouds 10 998 87 10000 6.2 200 00:49 08.09.2019
2306 Clouds 10 998 87 10000 3.6 190 00:30 08.09.2019
2307 Rain 10 997 93 10000 4.6 210 23:57 07.09.2019
2308 Rain 10 998 93 9000 6.2 220 23:37 07.09.2019
2309 Rain 10 998 93 9000 6.2 220 23:18 07.09.2019
2310 Drizzle 11 998 87 3000 4.6 200 22:43 07.09.2019
2311 Rain 11 998 93 9000 6.7 190 22:25 07.09.2019
2312 Drizzle 11 998 100 7000 6.2 220 21:56 07.09.2019
2313 Drizzle 11 998 87 9000 5.7 200 21:38 07.09.2019
2314 Drizzle 11 998 87 9000 5.7 200 21:20 07.09.2019
2315 Rain 11 998 87 10000 7.2 200 20:40 07.09.2019
2316 Rain 12 998 87 10000 7.2 200 20:21 07.09.2019
2317 Rain 12 998 100 900 7.2 200 19:57 07.09.2019
2318 Rain 12 999 87 10000 5.7 190 19:38 07.09.2019
2319 Rain 12 999 87 10000 5.7 190 19:19 07.09.2019
2320 Rain 12 998 100 1000 8.2 200 18:58 07.09.2019
2321 Rain 12 998 100 1000 8.2 200 18:58 07.09.2019
2322 Rain 12 998 87 10000 5.7 190 18:39 07.09.2019
2323 Rain 12 998 87 10000 5.7 190 18:20 07.09.2019
2324 Rain 12 998 100 1400 9.8 200 17:59 07.09.2019
2325 Rain 12 998 87 9000 6.2 170 17:39 07.09.2019
2326 Rain 12 998 87 9000 6.2 170 17:18 07.09.2019
2327 Rain 12 998 100 5000 9.3 190 16:56 07.09.2019
2328 Rain 12 999 82 10000 7.7 170 16:38 07.09.2019
2329 Rain 12 999 82 10000 7.7 170 16:18 07.09.2019
2330 Rain 12 998 100 1500 10.8 180 15:44 07.09.2019
2331 Rain 12 1000 82 10000 7.2 170 15:25 07.09.2019
2332 Rain 12 999 100 1500 10.8 180 14:56 07.09.2019
2333 Rain 12 1000 87 10000 8.2 180 14:36 07.09.2019
2334 Rain 12 1000 87 10000 8.2 180 14:18 07.09.2019
2335 Drizzle 12 999 100 2000 12.3 180 13:55 07.09.2019
2336 Drizzle 12 999 100 2000 12.3 180 13:55 07.09.2019
2337 Drizzle 12 1001 82 10000 9.8 170 13:37 07.09.2019
2338 Drizzle 12 1001 82 10000 9.8 170 13:18 07.09.2019
2339 Drizzle 12 1001 82 10000 9.8 170 13:18 07.09.2019
2340 Rain 12 1001 82 10000 11.3 150 12:42 07.09.2019
2341 Rain 12 1001 82 10000 11.3 150 12:23 07.09.2019
2342 Rain 11 1002 81 10000 13.9 140 11:41 07.09.2019
2343 Rain 11 1002 81 10000 13.9 140 11:22 07.09.2019
2344 Rain 11 1001 100 1800 11.3 160 10:58 07.09.2019
2345 Rain 11 1003 81 8000 10.8 160 10:37 07.09.2019
2346 Rain 11 1003 81 8000 10.8 160 10:19 07.09.2019
2347 Rain 11 1002 93 4000 13.9 140 09:43 07.09.2019
2348 Rain 10 1004 81 2700 12.3 130 09:23 07.09.2019
2349 Rain 10 1004 76 6000 13.4 120 08:57 07.09.2019
2350 Rain 10 1006 71 10000 10.8 130 08:36 07.09.2019
2351 Rain 10 1006 71 10000 10.8 130 08:18 07.09.2019
2352 Rain 10 1008 76 10000 11.3 120 07:43 07.09.2019
2353 Rain 10 1008 76 10000 11.3 120 07:22 07.09.2019
2354 Rain 9 1006 100 2000 14.4 140 06:43 07.09.2019
2355 Rain 10 1011 71 10000 9.3 130 05:41 07.09.2019
2356 Rain 10 1011 71 10000 9.3 130 05:41 07.09.2019
2357 Drizzle 10 1012 76 10000 8.2 140 04:26 07.09.2019
2358 Drizzle 10 1011 87 10000 11.8 150 03:41 07.09.2019
2359 Drizzle 10 1014 81 10000 6.7 140 02:22 07.09.2019
2360 Clouds 9 1015 87 10000 2.1 170 01:33 07.09.2019
2361 Drizzle 10 1014 100 9000 8.2 160 00:55 07.09.2019
2362 Clouds 10 1015 76 10000 2.1 170 00:36 07.09.2019
2363 Clouds 10 1015 76 10000 2.1 170 00:18 07.09.2019
2364 Clouds 10 1015 76 10000 4.1 160 23:38 06.09.2019
2365 Clouds 10 1015 76 10000 4.1 160 23:38 06.09.2019
2366 Clouds 10 1015 76 10000 4.1 160 23:20 06.09.2019
2367 Clouds 10 1015 93 10000 5.7 170 22:57 06.09.2019
2368 Rain 10 1015 76 10000 4.1 140 22:37 06.09.2019
2369 Rain 10 1015 76 10000 4.1 140 22:18 06.09.2019
2370 Clouds 10 1015 100 10000 5.7 170 21:56 06.09.2019
2371 Clouds 11 1015 76 10000 5.1 160 21:37 06.09.2019
2372 Clouds 11 1015 76 10000 5.1 160 21:19 06.09.2019
2373 Drizzle 11 1015 100 10000 5.7 160 20:54 06.09.2019
2374 Drizzle 11 1015 71 10000 5.1 180 20:36 06.09.2019
2375 Drizzle 11 1015 71 10000 5.1 180 20:18 06.09.2019
2376 Clouds 11 1015 87 10000 5.7 150 19:41 06.09.2019
2377 Clouds 12 1015 87 10000 5.1 190 19:23 06.09.2019
2378 Clouds 12 1015 87 10000 5.1 190 18:56 06.09.2019
2379 Clouds 13 1015 71 10000 4.6 180 18:38 06.09.2019
2380 Clouds 13 1015 71 10000 4.6 180 18:19 06.09.2019
2381 Clouds 13 1015 71 10000 4.6 210 17:40 06.09.2019
2382 Clouds 13 1015 71 10000 4.6 210 17:21 06.09.2019
2383 Clouds 12 1015 76 10000 4.6 220 16:58 06.09.2019
2384 Clouds 12 1015 76 10000 2.1 260 16:38 06.09.2019
2385 Clouds 12 1015 76 10000 2.1 260 16:18 06.09.2019
2386 Drizzle 12 1015 81 10000 4.6 220 15:41 06.09.2019
2387 Drizzle 12 1015 81 10000 4.6 220 15:41 06.09.2019
2388 Drizzle 11 1015 87 10000 2.1 250 15:22 06.09.2019
2389 Clouds 11 1014 81 10000 4.6 230 14:47 06.09.2019
2390 Clouds 12 1014 81 10000 3.6 250 14:20 06.09.2019
2391 Drizzle 11 1014 81 10000 5.7 220 13:44 06.09.2019
2392 Drizzle 11 1014 87 10000 3.6 250 13:24 06.09.2019
2393 Clouds 11 1013 93 10000 4.1 220 12:59 06.09.2019
2394 Clouds 11 1013 93 10000 4.1 220 12:59 06.09.2019
2395 Clouds 11 1013 81 10000 1.5 200 12:37 06.09.2019
2396 Clouds 11 1013 81 10000 1.5 200 12:18 06.09.2019
2397 Clouds 10 1013 87 10000 1 0 11:41 06.09.2019
2398 Clouds 10 1013 87 10000 1 0 11:23 06.09.2019
2399 Drizzle 10 1012 93 10000 4.6 170 10:57 06.09.2019
2400 Drizzle 9 1012 93 10000 1 200 10:39 06.09.2019
2401 Drizzle 9 1012 93 10000 1 200 10:19 06.09.2019
2402 Clouds 9 1012 93 10000 2.1 180 09:40 06.09.2019
2403 Clouds 9 1012 93 10000 2.1 180 09:20 06.09.2019
2404 Clouds 9 1011 100 10000 3.1 180 08:57 06.09.2019
2405 Clouds 9 1011 93 10000 2.1 130 08:38 06.09.2019
2406 Clouds 9 1011 93 10000 2.1 130 08:20 06.09.2019
2407 Clouds 9 1010 100 10000 2.1 170 07:45 06.09.2019
2408 Clouds 9 1010 87 10000 2.6 190 07:26 06.09.2019
2409 Clouds 9 1010 100 10000 1.5 160 06:56 06.09.2019
2410 Drizzle 9 1009 100 10000 1.04 189.162 05:58 06.09.2019
2411 Drizzle 9 1009 87 8000 1.5 300 05:29 06.09.2019
2412 Clouds 9 1009 87 10000 2.1 190 04:42 06.09.2019
2413 Clouds 9 1008 100 10000 1.5 280 03:45 06.09.2019
2414 Clouds 9 1007 100 10000 1.5 300 01:53 06.09.2019
2415 Drizzle 9 1005 81 10000 2.1 240 00:40 06.09.2019
2416 Clouds 10 1005 93 10000 0.5 190 23:44 05.09.2019
2417 Clouds 10 1004 81 10000 0.86 257.025 23:25 05.09.2019
2418 Clouds 10 1004 81 10000 0.86 257.025 23:25 05.09.2019
2419 Clouds 10 1004 100 10000 1.5 330 22:58 05.09.2019
2420 Clouds 10 1004 100 10000 1.5 330 22:40 05.09.2019
2421 Clouds 10 1003 76 10000 1 0 22:22 05.09.2019
2422 Clouds 11 1003 87 10000 1 20 21:56 05.09.2019
2423 Clouds 11 1003 76 10000 1 0 21:37 05.09.2019
2424 Clouds 11 1003 76 10000 1 0 21:19 05.09.2019
2425 Rain 12 1002 93 10000 3.6 110 20:56 05.09.2019
2426 Rain 11 1002 76 10000 2.1 100 20:37 05.09.2019
2427 Rain 11 1002 76 10000 2.1 100 20:19 05.09.2019
2428 Rain 12 1002 93 10000 2.6 80 19:42 05.09.2019
2429 Rain 12 1001 71 10000 3.1 100 19:24 05.09.2019
2430 Rain 11 1001 100 10000 2.6 20 18:58 05.09.2019
2431 Rain 11 1001 76 10000 2.6 140 18:40 05.09.2019
2432 Rain 11 1001 76 10000 2.6 140 18:20 05.09.2019
2433 Rain 11 1001 100 10000 1 40 17:56 05.09.2019
2434 Rain 11 1001 76 10000 5.7 110 17:37 05.09.2019
2435 Rain 11 1001 76 10000 5.7 110 17:19 05.09.2019
2436 Rain 11 1001 81 10000 5.7 100 16:41 05.09.2019
2437 Rain 11 1001 81 10000 5.7 100 16:20 05.09.2019
2438 Rain 11 1000 87 10000 1.5 210 15:58 05.09.2019
2439 Rain 11 1001 81 10000 5.7 100 15:39 05.09.2019
2440 Rain 11 1001 81 10000 5.7 100 15:19 05.09.2019
2441 Rain 11 1001 81 10000 5.7 100 15:19 05.09.2019
2442 Rain 10 1000 100 10000 4.6 230 14:43 05.09.2019
2443 Rain 10 1001 81 10000 5.7 100 14:23 05.09.2019
2444 Rain 10 1000 100 7000 8.7 130 13:59 05.09.2019
2445 Rain 10 1001 81 10000 4.1 110 13:39 05.09.2019
2446 Rain 10 1001 81 10000 4.1 110 13:18 05.09.2019
2447 Drizzle 10 1002 87 10000 5.1 100 12:42 05.09.2019
2448 Drizzle 10 1002 87 10000 5.1 100 12:23 05.09.2019
2449 Drizzle 10 1002 87 10000 5.1 100 11:45 05.09.2019
2450 Drizzle 10 1002 87 10000 5.1 100 11:20 05.09.2019
2451 Rain 9 1002 100 10000 6.2 140 10:59 05.09.2019
2452 Rain 9 1003 87 10000 4.6 90 10:37 05.09.2019
2453 Rain 9 1003 87 10000 4.6 90 10:37 05.09.2019
2454 Rain 9 1003 87 10000 4.6 90 10:19 05.09.2019
2455 -273 0 0 0 0 0 09:41 05.09.2019
2456 Drizzle 9 1004 87 7000 5.1 100 09:22 05.09.2019
2457 Rain 9 1004 100 10000 5.1 150 08:57 05.09.2019
2458 Rain 9 1005 76 10000 5.1 100 08:39 05.09.2019
2459 Rain 9 1005 76 10000 5.1 100 08:21 05.09.2019
2460 Drizzle 9 1007 81 10000 3.6 110 07:44 05.09.2019
2461 Drizzle 9 1007 81 10000 3.6 110 07:25 05.09.2019
2462 Rain 9 1006 100 10000 6.2 150 06:48 05.09.2019
2463 Clouds 9 1008 81 10000 2.6 110 06:28 05.09.2019
2464 Clouds 9 1007 93 10000 5.1 140 05:47 05.09.2019
2465 Clouds 9 1009 87 10000 3.6 140 05:28 05.09.2019
2466 Rain 9 1009 100 10000 5.1 160 04:41 05.09.2019
2467 Rain 9 1010 93 9000 4.1 200 04:18 05.09.2019
2468 Rain 10 1011 100 8000 5.1 210 02:59 05.09.2019
2469 Rain 10 1011 100 8000 5.1 210 02:59 05.09.2019
2470 Rain 10 1012 87 10000 4.6 210 02:38 05.09.2019
2471 Rain 10 1012 87 10000 4.6 210 02:18 05.09.2019
2472 Rain 10 1013 100 5000 7.2 230 00:58 05.09.2019
2473 Rain 10 1013 87 10000 2.1 150 00:40 05.09.2019
2474 Rain 10 1013 87 10000 2.1 150 00:19 05.09.2019
2475 Mist 10 1014 87 10000 2.1 180 23:41 04.09.2019
2476 Mist 10 1014 87 10000 2.1 180 23:41 04.09.2019
2477 Mist 10 1014 87 10000 2.1 180 23:22 04.09.2019
2478 Drizzle 10 1014 100 8000 4.1 210 22:49 04.09.2019
2479 Drizzle 10 1015 87 10000 2.1 120 22:21 04.09.2019
2480 Drizzle 9 1014 100 10000 3.1 210 21:58 04.09.2019
2481 Drizzle 10 1015 87 1500 1 0 21:38 04.09.2019
2482 Drizzle 10 1015 87 1500 1 0 21:19 04.09.2019
2483 Drizzle 10 1015 100 10000 3.6 220 20:55 04.09.2019
2484 Drizzle 10 1015 81 3500 1.5 220 20:37 04.09.2019
2485 Drizzle 10 1015 81 3500 1.5 220 20:18 04.09.2019
2486 Drizzle 10 1015 81 3500 1.5 220 20:18 04.09.2019
2487 Rain 10 1015 100 5000 3.6 220 19:43 04.09.2019
2488 Rain 10 1016 81 10000 1.5 300 19:23 04.09.2019
2489 Rain 10 1016 93 7000 4.1 220 18:55 04.09.2019
2490 Rain 10 1016 81 10000 1.5 300 18:36 04.09.2019
2491 Rain 10 1016 81 10000 1.5 300 18:18 04.09.2019
2492 Rain 10 1016 93 10000 3.6 230 17:41 04.09.2019
2493 Rain 10 1016 81 10000 3.1 270 17:23 04.09.2019
2494 Rain 10 1016 93 10000 4.6 230 16:57 04.09.2019
2495 Rain 10 1017 81 10000 4.1 240 16:38 04.09.2019
2496 Rain 10 1017 81 10000 4.1 240 16:20 04.09.2019
2497 Rain 10 1017 81 4000 2.6 270 15:43 04.09.2019
2498 Rain 10 1017 81 4000 2.6 270 15:22 04.09.2019
2499 Rain 10 1017 81 3000 4.1 250 14:59 04.09.2019
2500 Rain 10 1017 87 10000 2.1 250 14:39 04.09.2019
2501 Rain 10 1017 87 10000 2.1 250 14:21 04.09.2019
2502 Rain 9 1017 87 2000 3.6 280 14:00 04.09.2019
2503 Rain 10 1017 76 10000 3.1 270 13:39 04.09.2019
2504 Rain 10 1017 76 10000 3.1 270 13:21 04.09.2019
2505 Drizzle 9 1017 100 4000 7.2 250 12:45 04.09.2019
2506 Drizzle 9 1017 81 10000 4.1 260 12:26 04.09.2019
2507 Drizzle 9 1017 81 10000 4.1 260 12:26 04.09.2019
2508 Rain 9 1017 87 10000 5.1 250 11:58 04.09.2019
2509 Rain 9 1017 81 10000 4.1 240 11:40 04.09.2019
2510 Rain 9 1017 81 10000 4.1 240 11:21 04.09.2019
2511 Rain 8 1017 93 10000 6.2 250 10:57 04.09.2019
2512 Rain 8 1017 87 10000 5.1 220 10:38 04.09.2019
2513 Rain 8 1017 87 10000 5.1 220 10:20 04.09.2019
2514 Rain 8 1017 93 10000 5.7 250 09:45 04.09.2019
2515 Rain 7 1017 81 5000 3.6 190 09:21 04.09.2019
2516 Rain 7 1017 75 10000 3.1 170 08:43 04.09.2019
2517 Rain 7 1017 75 10000 3.1 170 08:24 04.09.2019
2518 Clouds 7 1017 87 10000 5.1 220 08:00 04.09.2019
2519 Clouds 7 1017 81 10000 3.6 190 07:40 04.09.2019
2520 Clouds 6 1017 81 10000 3.6 190 07:22 04.09.2019
2521 Clouds 7 1018 71 10000 3.6 260 06:39 04.09.2019
2522 Clouds 6 1018 87 10000 2.6 280 04:56 04.09.2019
2523 Clouds 5 1017 70 10000 5.1 290 04:24 04.09.2019
2524 Clear 6 1017 70 10000 2.6 310 03:39 04.09.2019
2525 Clear 7 1016 70 10000 2.6 320 01:21 04.09.2019
2526 Clear 7 1016 70 10000 2.6 320 01:21 04.09.2019
2527 Clear 8 1016 75 10000 4.6 340 00:46 04.09.2019
2528 Clear 7 1016 61 10000 3.1 330 00:27 04.09.2019
2529 Clear 8 1016 75 10000 4.1 320 23:53 03.09.2019
2530 Clear 8 1015 57 10000 4.1 320 23:27 03.09.2019
2531 Clear 10 1015 76 10000 4.6 320 22:57 03.09.2019
2532 Clear 10 1014 57 10000 5.7 320 22:39 03.09.2019
2533 Clear 10 1014 57 10000 5.7 320 22:21 03.09.2019
2534 Clear 11 1015 71 10000 5.1 320 21:55 03.09.2019
2535 Clouds 10 1014 57 10000 7.2 320 21:36 03.09.2019
2536 Clouds 11 1014 57 10000 7.2 320 21:18 03.09.2019
2537 Clouds 11 1013 54 10000 6.2 320 20:42 03.09.2019
2538 Clouds 12 1013 54 10000 6.2 320 20:24 03.09.2019
2539 Clouds 12 1013 54 10000 6.2 320 20:24 03.09.2019
2540 Clouds 12 1013 54 10000 6.2 320 20:24 03.09.2019
2541 Clear 12 1013 57 10000 7.2 330 19:55 03.09.2019
2542 Clouds 12 1012 50 10000 6.2 320 19:37 03.09.2019
2543 Clouds 12 1012 50 10000 6.2 320 19:18 03.09.2019
2544 Clear 12 1013 50 10000 7.7 350 18:44 03.09.2019
2545 Clouds 13 1012 47 10000 5.1 320 18:26 03.09.2019
2546 Clear 12 1013 57 10000 6.7 360 17:58 03.09.2019
2547 Clear 12 1012 47 10000 3.1 290 17:39 03.09.2019
2548 Clear 12 1012 47 10000 3.1 290 17:19 03.09.2019
2549 Clear 12 1012 47 10000 3.1 290 17:19 03.09.2019
2550 Clear 11 1012 62 10000 6.2 10 16:56 03.09.2019
2551 Clear 11 1012 40 10000 3.6 340 16:37 03.09.2019
2552 Clear 11 1012 40 10000 3.6 340 16:19 03.09.2019
2553 Clear 10 1012 61 10000 7.2 20 15:40 03.09.2019
2554 Clear 10 1012 53 10000 2.6 330 15:21 03.09.2019
2555 Clear 10 1012 57 10000 5.1 20 14:58 03.09.2019
2556 Clear 10 1011 53 10000 3.6 270 14:40 03.09.2019
2557 Clear 10 1011 53 10000 3.6 270 14:20 03.09.2019
2558 Clear 10 1011 53 10000 3.6 270 14:20 03.09.2019
2559 Clear 9 1011 66 10000 3.6 20 13:56 03.09.2019
2560 Clear 9 1011 66 10000 3.6 20 13:56 03.09.2019
2561 Clear 9 1011 57 10000 1.5 290 13:37 03.09.2019
2562 Clear 9 1011 57 10000 1.5 290 13:19 03.09.2019
2563 Clear 9 1011 57 10000 1.5 290 13:19 03.09.2019
2564 Clear 9 1011 66 10000 4.1 40 12:49 03.09.2019
2565 Clear 8 1011 52 10000 3.03 30.431 12:30 03.09.2019
2566 Clear 7 1011 70 10000 3.6 30 11:59 03.09.2019
2567 Clear 7 1011 67 10000 1.5 130 11:39 03.09.2019
2568 Clear 7 1011 67 10000 1.5 130 11:20 03.09.2019
2569 Clear 5 1010 70 10000 2.1 60 10:55 03.09.2019
2570 Clear 5 1010 67 10000 3.3 35.501 10:37 03.09.2019
2571 Clear 5 1010 67 10000 3.3 35.501 10:18 03.09.2019
2572 Clear 4 1010 81 10000 2.6 20 09:42 03.09.2019
2573 Clear 3 1010 74 10000 3.56 42.668 09:24 03.09.2019
2574 Clear 3 1010 86 10000 2.6 40 08:41 03.09.2019
2575 Clear 3 1010 81 10000 3.56 42.668 08:23 03.09.2019
2576 Clear 3 1009 87 10000 2.1 60 07:58 03.09.2019
2577 Clear 3 1009 81 10000 2.6 50 07:39 03.09.2019
2578 Clear 3 1009 81 10000 2.6 50 07:21 03.09.2019
2579 Clear 3 1009 86 10000 3.1 50 06:43 03.09.2019
2580 Clear 3 1010 80 10000 2.6 30 05:36 03.09.2019
2581 Clear 4 1010 65 10000 1 0 03:34 03.09.2019
2582 Clear 4 1010 81 10000 3.6 30 02:43 03.09.2019
2583 Clear 4 1010 79 10000 2.6 110 02:23 03.09.2019
2584 Clear 5 1010 75 10000 4.1 30 01:47 03.09.2019
2585 Clear 5 1010 80 10000 3.1 120 01:27 03.09.2019
2586 Clear 6 1010 80 10000 2.6 120 00:40 03.09.2019
2587 Clear 7 1010 65 10000 6.7 20 23:59 02.09.2019
2588 Clear 8 1010 72 10000 1 0 23:39 02.09.2019
2589 Clear 8 1010 72 10000 1 0 23:39 02.09.2019
2590 Clear 8 1010 72 10000 1 0 23:20 02.09.2019
2591 Clear 10 1010 70 10000 6.7 20 22:56 02.09.2019
2592 Clear 10 1010 70 10000 6.7 20 22:56 02.09.2019
2593 Clear 10 1010 50 10000 3.1 10 22:37 02.09.2019
2594 Clear 10 1010 50 10000 3.1 10 22:19 02.09.2019
2595 Clouds 10 1010 70 10000 6.7 20 21:56 02.09.2019
2596 Clear 10 1010 50 10000 6.2 360 21:38 02.09.2019
2597 Clear 11 1010 50 10000 6.2 360 21:19 02.09.2019
2598 Clouds 11 1011 66 10000 7.7 20 20:54 02.09.2019
2599 Clouds 11 1011 66 10000 7.7 20 20:54 02.09.2019
2600 Clouds 12 1010 46 10000 8.2 360 20:36 02.09.2019
2601 Clouds 12 1010 46 10000 8.2 360 20:18 02.09.2019
2602 Clear 12 1011 62 10000 7.2 20 19:54 02.09.2019
2603 Clouds 12 1010 46 10000 6.7 360 19:36 02.09.2019
2604 Clouds 12 1010 46 10000 6.7 360 19:18 02.09.2019
2605 Clouds 12 1010 46 10000 7.2 10 18:38 02.09.2019
2606 Clouds 12 1010 46 10000 7.2 10 18:38 02.09.2019
2607 Clouds 12 1010 46 10000 7.2 10 18:19 02.09.2019
2608 Clear 12 1011 62 10000 6.2 20 17:56 02.09.2019
2609 Clouds 12 1010 55 10000 2.6 10 17:37 02.09.2019
2610 Clouds 12 1010 55 10000 2.6 10 17:19 02.09.2019
2611 Clear 11 1010 55 10000 2.1 340 16:41 02.09.2019
2612 Clear 11 1010 55 10000 2.1 340 16:21 02.09.2019
2613 Clear 11 1010 55 10000 2.1 340 16:21 02.09.2019
2614 Clear 10 1011 61 10000 5.1 30 15:55 02.09.2019
2615 Clear 10 1010 53 10000 3.6 310 15:37 02.09.2019
2616 Clear 10 1010 53 10000 3.6 310 15:18 02.09.2019
2617 Clear 9 1011 70 10000 2.6 70 14:55 02.09.2019
2618 Clear 9 1011 57 10000 3.1 330 14:36 02.09.2019
2619 Clear 9 1011 57 10000 3.1 330 14:18 02.09.2019
2620 Clouds 8 1010 70 10000 3.6 30 13:42 02.09.2019
2621 Clear 8 1010 57 10000 1.5 250 13:24 02.09.2019
2622 Clouds 8 1010 70 10000 4.6 20 12:47 02.09.2019
2623 Clear 8 1010 72 10000 2.1 140 12:27 02.09.2019
2624 Clear 7 1010 59 10000 2.1 140 12:27 02.09.2019
2625 Clouds 7 1011 81 10000 7.2 10 11:59 02.09.2019
2626 Clear 7 1010 65 10000 0.5 0 11:40 02.09.2019
2627 Clouds 7 1011 81 10000 7.2 10 11:40 02.09.2019
2628 Clear 7 1010 65 10000 0.5 0 11:22 02.09.2019
2629 Clear 6 1010 81 10000 6.2 20 10:58 02.09.2019
2630 Clear 5 1010 72 10000 1.5 160 10:39 02.09.2019
2631 Clear 5 1010 72 10000 1.5 160 10:21 02.09.2019
2632 Clear 4 1010 81 10000 4.1 10 09:58 02.09.2019
2633 Clear 3 1010 71 10000 0.5 0 09:38 02.09.2019
2634 Clear 3 1010 81 10000 0.5 0 09:19 02.09.2019
2635 Clear 3 1010 81 10000 0.5 0 09:19 02.09.2019
2636 Clear 2 1009 81 10000 3.1 140 08:39 02.09.2019
2637 Clear 2 1009 81 10000 3.1 140 08:21 02.09.2019
2638 Clear 2 1010 86 10000 2.6 20 07:54 02.09.2019
2639 Clear 3 1009 81 10000 2.1 220 07:36 02.09.2019
2640 Clear 3 1009 81 10000 2.1 220 07:18 02.09.2019
2641 Clear 4 1009 81 10000 1.5 150 06:39 02.09.2019
2642 Clouds 5 1009 81 10000 4.1 30 05:53 02.09.2019
2643 Clear 5 1009 75 10000 1 0 05:22 02.09.2019
2644 Clouds 5 1010 87 10000 3.6 20 04:47 02.09.2019
2645 Rain 7 1009 75 10000 4.1 340 01:59 02.09.2019
2646 Rain 7 1009 75 10000 3.6 340 00:58 02.09.2019
2647 Clouds 8 1009 66 10000 2.6 340 00:36 02.09.2019
2648 Clouds 7 1009 66 10000 2.6 340 00:18 02.09.2019
2649 Clouds 8 1009 66 10000 2.6 330 23:39 01.09.2019
2650 Clouds 8 1009 66 10000 2.6 330 23:19 01.09.2019
2651 Clouds 9 1009 75 10000 3.1 330 22:56 01.09.2019
2652 Clouds 9 1009 61 10000 4.1 300 22:38 01.09.2019
2653 Clouds 9 1009 61 10000 4.1 300 22:18 01.09.2019
2654 Clouds 9 1009 70 10000 3.6 320 21:42 01.09.2019
2655 Clouds 9 1009 66 10000 4.6 300 21:23 01.09.2019
2656 Clouds 9 1009 76 10000 5.1 310 20:58 01.09.2019
2657 Clouds 9 1009 66 10000 5.7 290 20:39 01.09.2019
2658 Clouds 9 1009 66 10000 5.7 290 20:19 01.09.2019
2659 Clouds 10 1009 71 10000 5.7 320 19:59 01.09.2019
2660 Clouds 10 1009 71 10000 5.7 320 19:59 01.09.2019
2661 Clouds 10 1009 61 10000 5.7 290 19:40 01.09.2019
2662 Clouds 10 1009 61 10000 5.7 290 19:21 01.09.2019
2663 Clouds 11 1009 66 10000 4.6 320 18:45 01.09.2019
2664 Clouds 11 1009 61 10000 6.2 290 18:27 01.09.2019
2665 Clouds 11 1010 66 10000 4.6 300 17:59 01.09.2019
2666 Clouds 10 1009 57 10000 6.2 290 17:39 01.09.2019
2667 Clouds 10 1009 57 10000 6.2 290 17:39 01.09.2019
2668 Clouds 10 1009 57 10000 6.2 290 17:20 01.09.2019
2669 Clouds 10 1010 61 10000 3.6 340 16:41 01.09.2019
2670 Clouds 10 1010 61 10000 3.6 340 16:41 01.09.2019
2671 Clouds 10 1009 53 10000 3.1 350 16:21 01.09.2019
2672 Clouds 9 1010 61 10000 3.6 10 15:59 01.09.2019
2673 Clear 9 1009 57 10000 3.1 340 15:41 01.09.2019
2674 Clear 9 1009 57 10000 3.1 340 15:22 01.09.2019
2675 Clear 9 1010 66 10000 5.1 20 14:44 01.09.2019
2676 Clear 9 1010 57 10000 3.1 350 14:26 01.09.2019
2677 Clear 9 1010 66 10000 5.1 30 13:59 01.09.2019
2678 Clear 9 1010 49 10000 4.6 350 13:40 01.09.2019
2679 Clear 9 1010 49 10000 4.6 350 13:22 01.09.2019
2680 Clear 8 1010 70 10000 5.1 20 12:44 01.09.2019
2681 Clear 8 1010 54 10000 4.6 350 12:26 01.09.2019
2682 Clear 8 1010 64 10000 4.6 350 12:26 01.09.2019
2683 Clear 8 1010 70 10000 5.1 20 11:58 01.09.2019
2684 Clear 8 1010 61 10000 4.1 350 11:38 01.09.2019
2685 Clear 8 1010 61 10000 4.1 350 11:19 01.09.2019
2686 Clear 6 1010 70 10000 5.1 30 10:45 01.09.2019
2687 Clear 6 1010 80 10000 2.63 41.623 10:23 01.09.2019
2688 Clear 4 1010 81 10000 3.6 10 09:48 01.09.2019
2689 Clear 4 1010 93 10000 1.5 170 09:26 01.09.2019
2690 Clouds 4 1010 80 10000 4.1 20 08:58 01.09.2019
2691 Clear 5 1009 93 10000 1.5 100 08:39 01.09.2019
2692 Clear 5 1009 93 10000 1.5 100 08:20 01.09.2019
2693 Clouds 5 1010 75 10000 5.7 20 07:41 01.09.2019
2694 Clear 5 1009 93 10000 1.5 120 07:21 01.09.2019
2695 Clear 5 1009 93 10000 1.5 170 06:39 01.09.2019
2696 Clouds 6 1010 87 10000 4.1 10 05:59 01.09.2019
2697 Clouds 6 1010 87 10000 4.1 10 05:59 01.09.2019
2698 Clouds 6 1010 87 10000 4.1 10 05:59 01.09.2019
2699 Clouds 6 1009 81 10000 3.1 20 04:43 01.09.2019
2700 Clouds 7 1009 75 10000 4.6 30 03:50 01.09.2019
2701 Clouds 7 1009 70 10000 1 0 03:32 01.09.2019
2702 Clouds 8 1009 75 10000 3.1 10 02:40 01.09.2019
2703 Clouds 8 1009 75 10000 3.1 10 02:19 01.09.2019
2704 Rain 8 1009 75 10000 3.1 350 01:30 01.09.2019
2705 Rain 8 1009 81 10000 4.1 20 00:59 01.09.2019
2706 Rain 8 1009 81 10000 4.1 20 00:40 01.09.2019
2707 Rain 8 1009 75 10000 1.5 70 00:20 01.09.2019
2708 Rain 8 1009 81 10000 5.1 30 23:43 31.08.2019
2709 Rain 8 1009 76 10000 3.6 20 23:21 31.08.2019
2710 Rain 8 1009 93 10000 3.6 360 22:55 31.08.2019
2711 Rain 9 1009 76 10000 3.1 10 22:37 31.08.2019
2712 Rain 9 1009 76 10000 3.1 10 22:19 31.08.2019
2713 Rain 9 1009 81 10000 4.6 30 21:44 31.08.2019
2714 Rain 9 1008 70 10000 1.5 60 21:23 31.08.2019
2715 Rain 9 1008 81 10000 5.1 30 20:59 31.08.2019
2716 Rain 9 1008 76 10000 3.1 360 20:41 31.08.2019
2717 Rain 9 1008 76 10000 3.1 360 20:41 31.08.2019
2718 Rain 9 1008 76 10000 3.1 360 20:23 31.08.2019
2719 Rain 9 1008 76 10000 3.1 360 20:23 31.08.2019
2720 Rain 9 1008 71 10000 5.1 30 19:43 31.08.2019
2721 Rain 9 1008 76 10000 4.1 350 19:22 31.08.2019
2722 Rain 9 1008 76 10000 4.1 350 19:22 31.08.2019
2723 Rain 9 1008 71 10000 5.7 20 18:56 31.08.2019
2724 Rain 9 1008 70 10000 4.1 350 18:37 31.08.2019
2725 Rain 9 1008 70 10000 4.1 350 18:37 31.08.2019
2726 Rain 9 1008 70 10000 4.1 350 18:19 31.08.2019
2727 Rain 9 1008 76 10000 5.1 20 17:55 31.08.2019
2728 Rain 9 1008 70 10000 4.1 340 17:36 31.08.2019
2729 Rain 9 1008 70 10000 4.1 340 17:18 31.08.2019
2730 Rain 9 1008 81 10000 5.1 20 16:54 31.08.2019
2731 Clouds 9 1008 66 10000 4.1 330 16:36 31.08.2019
2732 Clouds 9 1008 66 10000 4.1 330 16:18 31.08.2019
2733 Rain 9 1008 81 10000 4.1 40 15:41 31.08.2019
2734 Rain 9 1008 70 10000 4.6 330 15:18 31.08.2019
2735 Rain 9 1008 70 10000 2.6 340 14:44 31.08.2019
2736 Rain 9 1008 70 10000 2.6 340 14:26 31.08.2019
2737 Rain 9 1008 81 10000 4.1 30 13:59 31.08.2019
2738 Rain 9 1007 70 10000 2.1 290 13:38 31.08.2019
2739 Rain 9 1007 70 10000 2.1 290 13:19 31.08.2019
2740 Clouds 9 1008 81 10000 3.6 20 12:56 31.08.2019
2741 Rain 8 1007 70 10000 1 0 12:38 31.08.2019
2742 Rain 8 1007 70 10000 1 0 12:18 31.08.2019
2743 Rain 8 1007 87 10000 4.1 20 11:44 31.08.2019
2744 Rain 8 1007 70 10000 4.33 26.051 11:26 31.08.2019
2745 Rain 7 1008 87 10000 7.2 10 10:57 31.08.2019
2746 Rain 7 1007 75 10000 2.6 100 10:39 31.08.2019
2747 Rain 7 1007 75 10000 2.6 100 10:18 31.08.2019
2748 Rain 7 1007 75 10000 1.5 130 09:40 31.08.2019
2749 Rain 7 1007 75 10000 1.5 130 09:40 31.08.2019
2750 Rain 7 1007 75 10000 1.5 130 09:22 31.08.2019
2751 Drizzle 7 1007 81 10000 6.2 30 08:58 31.08.2019
2752 Drizzle 6 1007 75 10000 1 130 08:39 31.08.2019
2753 Drizzle 6 1007 75 10000 1 130 08:20 31.08.2019
2754 Drizzle 6 1007 75 10000 2.1 110 07:39 31.08.2019
2755 Drizzle 6 1007 75 10000 2.1 110 07:18 31.08.2019
2756 Clouds 7 1007 75 10000 2.1 150 06:27 31.08.2019
2757 Clouds 7 1007 81 10000 4.6 10 05:55 31.08.2019
2758 Clouds 7 1007 75 10000 1.5 170 05:29 31.08.2019
2759 Clouds 7 1007 75 10000 1 160 04:29 31.08.2019
2760 Clouds 7 1007 81 10000 6.7 10 03:42 31.08.2019
2761 Clouds 7 1006 70 10000 1 0 02:23 31.08.2019
2762 Clouds 7 1007 81 10000 6.7 10 01:49 31.08.2019
2763 Clouds 7 1006 75 10000 2.1 130 01:31 31.08.2019
2764 Clouds 7 1007 81 10000 7.7 20 00:47 31.08.2019
2765 Clouds 7 1007 81 10000 7.7 20 00:47 31.08.2019
2766 Clouds 7 1006 70 10000 4.1 360 00:27 31.08.2019
2767 Clouds 7 1006 70 10000 4.1 360 00:27 31.08.2019
2768 Clouds 8 1007 81 10000 6.7 10 23:51 30.08.2019
2769 Clouds 8 1006 66 10000 5.1 360 23:20 30.08.2019
2770 Clouds 8 1006 66 10000 5.1 360 23:20 30.08.2019
2771 Clouds 8 1007 81 10000 7.2 20 22:59 30.08.2019
2772 Clouds 8 1006 66 10000 7.2 360 22:39 30.08.2019
2773 Clouds 8 1006 66 10000 7.2 360 22:21 30.08.2019
2774 Clouds 9 1007 76 10000 8.7 360 21:57 30.08.2019
2775 Clouds 9 1005 61 10000 7.7 10 21:37 30.08.2019
2776 Clouds 9 1005 61 10000 7.7 10 21:37 30.08.2019
2777 Clouds 9 1005 61 10000 7.7 10 21:18 30.08.2019
2778 Clouds 9 1006 76 10000 9.3 10 20:57 30.08.2019
2779 Clouds 9 1005 61 10000 7.7 10 20:38 30.08.2019
2780 Clouds 9 1005 61 10000 7.7 10 20:20 30.08.2019
2781 Clouds 10 1006 76 10000 9.3 10 19:56 30.08.2019
2782 Clouds 10 1005 57 10000 8.2 20 19:38 30.08.2019
2783 Clouds 10 1005 57 10000 8.2 20 19:18 30.08.2019
2784 Clouds 10 1006 76 10000 9.3 10 18:45 30.08.2019
2785 Clouds 10 1005 62 10000 8.2 10 18:24 30.08.2019
2786 Clouds 10 1006 81 10000 10.3 360 17:57 30.08.2019
2787 Clouds 10 1005 62 10000 7.7 10 17:39 30.08.2019
2788 Clouds 10 1005 62 10000 7.7 10 17:19 30.08.2019
2789 Clouds 10 1006 76 10000 9.8 10 16:57 30.08.2019
2790 Clouds 10 1004 62 10000 7.7 10 16:39 30.08.2019
2791 Clouds 10 1004 62 10000 7.7 10 16:20 30.08.2019
2792 Clouds 11 1004 62 10000 7.7 10 15:42 30.08.2019
2793 Clouds 11 1004 62 10000 7.7 10 15:21 30.08.2019
2794 Clouds 10 1005 71 10000 9.8 20 14:45 30.08.2019
2795 Clouds 10 1004 71 10000 7.7 10 14:26 30.08.2019
2796 Clouds 9 1005 76 10000 10.8 20 13:57 30.08.2019
2797 Clouds 9 1004 61 10000 4.6 10 13:39 30.08.2019
2798 Clouds 9 1004 61 10000 4.6 10 13:39 30.08.2019
2799 Clouds 9 1004 61 10000 4.6 10 13:21 30.08.2019
2800 Clouds 8 1005 81 10000 9.8 20 12:45 30.08.2019
2801 Clouds 8 1004 70 10000 1 0 12:26 30.08.2019
2802 Clouds 7 1005 87 10000 10.3 20 11:58 30.08.2019
2803 Clouds 7 1004 75 10000 1.5 150 11:39 30.08.2019
2804 Clouds 7 1004 75 10000 1.5 150 11:21 30.08.2019
2805 Clear 7 1003 81 10000 1 0 10:39 30.08.2019
2806 Clear 7 1003 81 10000 1 0 10:20 30.08.2019
2807 Clouds 6 1004 81 10000 10.3 20 09:56 30.08.2019
2808 Clouds 6 1002 86 10000 2.6 190 09:36 30.08.2019
2809 Clouds 6 1002 86 10000 2.6 190 09:18 30.08.2019
2810 Clouds 6 1003 81 10000 9.8 20 08:44 30.08.2019
2811 Clouds 6 1002 81 10000 1 0 08:24 30.08.2019
2812 Clouds 6 1003 87 10000 9.8 20 07:47 30.08.2019
2813 Clouds 6 1002 86 10000 1 150 07:27 30.08.2019
2814 Clouds 7 1003 81 10000 10.3 20 06:58 30.08.2019
2815 Clouds 6 1002 81 10000 1 170 06:40 30.08.2019
2816 Clouds 7 1002 81 10000 1 170 06:20 30.08.2019
2817 Clouds 7 1001 81 10000 1.5 180 05:32 30.08.2019
2818 Clouds 7 1002 87 10000 9.3 30 03:57 30.08.2019
2819 Clouds 7 1002 87 10000 9.3 30 03:57 30.08.2019
2820 Clouds 7 1002 87 10000 9.3 30 03:57 30.08.2019
2821 Drizzle 7 1001 81 10000 2.6 150 03:37 30.08.2019
2822 Rain 7 1001 81 10000 1.5 230 02:42 30.08.2019
2823 Drizzle 9 1001 87 10000 8.2 30 01:51 30.08.2019
2824 Rain 9 1001 87 10000 8.7 30 00:56 30.08.2019
2825 Rain 8 1000 76 10000 1.5 10 00:23 30.08.2019
2826 Rain 8 1001 87 10000 9.3 40 23:48 29.08.2019
2827 Rain 8 1000 76 10000 3.6 10 23:23 29.08.2019
2828 Clouds 10 1000 81 10000 8.7 40 22:58 29.08.2019
2829 Clouds 9 999 66 10000 5.1 20 22:38 29.08.2019
2830 Clouds 9 999 66 10000 5.1 20 22:20 29.08.2019
2831 Clouds 10 999 66 10000 3.6 20 21:42 29.08.2019
2832 Clouds 10 999 66 10000 3.6 20 21:42 29.08.2019
2833 Clouds 10 999 66 10000 3.6 20 21:22 29.08.2019
2834 Clouds 10 1000 76 10000 9.8 30 20:59 29.08.2019
2835 Clouds 10 1000 76 10000 9.8 30 20:59 29.08.2019
2836 Clouds 10 999 66 10000 6.7 10 20:41 29.08.2019
2837 Clouds 10 999 66 10000 6.7 10 20:19 29.08.2019
2838 Clouds 10 1000 76 10000 9.3 30 19:57 29.08.2019
2839 Clouds 11 999 66 10000 6.2 20 19:38 29.08.2019
2840 Clouds 10 999 66 10000 6.2 20 19:20 29.08.2019
2841 Clouds 11 999 66 10000 6.7 10 18:41 29.08.2019
2842 Clouds 11 999 66 10000 6.7 10 18:20 29.08.2019
2843 Clouds 11 999 76 10000 8.2 30 17:56 29.08.2019
2844 Clouds 11 999 76 10000 8.2 30 17:56 29.08.2019
2845 Clouds 12 998 62 10000 7.2 10 17:37 29.08.2019
2846 Clouds 12 998 62 10000 7.2 10 17:19 29.08.2019
2847 Clouds 12 998 58 10000 5.1 20 16:43 29.08.2019
2848 Clouds 12 998 58 10000 5.1 20 16:24 29.08.2019
2849 Rain 11 999 76 10000 8.7 30 15:58 29.08.2019
2850 Rain 11 998 66 10000 4.6 10 15:38 29.08.2019
2851 Rain 11 998 66 10000 4.6 10 15:19 29.08.2019
2852 Clouds 11 998 76 10000 8.7 30 14:49 29.08.2019
2853 Clouds 11 998 66 10000 5.7 360 14:22 29.08.2019
2854 Clear 11 998 81 10000 8.2 30 13:58 29.08.2019
2855 Clouds 11 998 66 10000 6.2 10 13:39 29.08.2019
2856 Clouds 11 998 66 10000 6.2 10 13:20 29.08.2019
2857 Clouds 10 998 76 10000 8.7 30 12:59 29.08.2019
2858 Clouds 10 997 66 10000 4.6 20 12:39 29.08.2019
2859 Clouds 10 997 66 10000 4.6 20 12:21 29.08.2019
2860 Clouds 10 998 81 10000 8.7 30 11:58 29.08.2019
2861 Clouds 10 997 71 10000 3.6 20 11:38 29.08.2019
2862 Clouds 10 997 71 10000 3.6 20 11:19 29.08.2019
2863 Clouds 9 997 87 10000 7.2 40 10:44 29.08.2019
2864 Clouds 9 997 76 10000 3.6 10 10:25 29.08.2019
2865 Clear 9 997 81 10000 6.2 40 09:54 29.08.2019
2866 Clouds 9 997 76 10000 1.5 360 09:36 29.08.2019
2867 Clouds 9 997 76 10000 1.5 360 09:18 29.08.2019
2868 Clouds 8 997 93 10000 6.7 30 08:40 29.08.2019
2869 Clouds 9 996 76 10000 2.1 30 08:22 29.08.2019
2870 Clouds 9 997 93 10000 4.6 30 07:50 29.08.2019
2871 Rain 9 996 81 10000 2.1 30 07:27 29.08.2019
2872 Clouds 9 996 93 10000 4.1 40 06:48 29.08.2019
2873 Clouds 9 996 81 10000 3.6 10 06:30 29.08.2019
2874 Rain 9 997 93 10000 4.1 30 05:43 29.08.2019
2875 Rain 9 997 100 10000 4.6 40 04:51 29.08.2019
2876 Rain 9 997 81 10000 3.1 40 04:29 29.08.2019
2877 Drizzle 9 997 76 10000 3.6 50 03:35 29.08.2019
2878 Rain 9 997 93 10000 1.5 80 01:50 29.08.2019
2879 Rain 9 996 76 10000 1.5 70 01:30 29.08.2019
2880 Rain 9 996 87 10000 1.5 100 00:45 29.08.2019
2881 Rain 9 996 76 10000 2.6 80 00:21 29.08.2019
2882 Rain 9 996 76 10000 2.6 80 00:21 29.08.2019
2883 Rain 10 996 87 10000 2.1 80 23:44 28.08.2019
2884 Rain 10 996 71 10000 3.6 80 23:25 28.08.2019
2885 Rain 10 996 93 10000 3.1 60 22:59 28.08.2019
2886 Rain 10 996 76 10000 1 0 22:39 28.08.2019
2887 Rain 10 996 76 10000 1 0 22:39 28.08.2019
2888 Rain 10 996 76 10000 1 0 22:19 28.08.2019
2889 Rain 10 996 93 10000 1.5 60 21:59 28.08.2019
2890 Rain 10 996 76 10000 2.6 20 21:39 28.08.2019
2891 Rain 10 996 76 10000 2.6 20 21:39 28.08.2019
2892 Rain 10 996 76 10000 2.6 20 21:21 28.08.2019
2893 Rain 11 996 93 10000 3.6 40 20:45 28.08.2019
2894 Clouds 11 996 76 10000 3.1 60 20:27 28.08.2019
2895 Rain 11 996 93 10000 4.1 20 19:59 28.08.2019
2896 Rain 11 996 76 10000 3.6 20 19:40 28.08.2019
2897 Rain 11 996 76 10000 3.6 20 19:21 28.08.2019
2898 Rain 10 996 81 10000 3.6 30 18:42 28.08.2019
2899 Rain 10 996 81 10000 3.6 30 18:22 28.08.2019
2900 Rain 11 997 87 10000 5.1 30 17:59 28.08.2019
2901 Rain 11 996 76 10000 4.6 10 17:37 28.08.2019
2902 Rain 11 996 76 10000 4.6 10 17:19 28.08.2019
2903 Drizzle 10 997 100 10000 5.7 30 16:43 28.08.2019
2904 Drizzle 11 997 81 10000 5.1 10 16:19 28.08.2019
2905 Rain 10 997 93 10000 5.1 20 15:58 28.08.2019
2906 Rain 10 997 81 10000 3.6 10 15:37 28.08.2019
2907 Rain 9 997 81 10000 3.6 10 15:19 28.08.2019
2908 Rain 10 997 93 10000 5.7 30 14:56 28.08.2019
2909 Rain 9 997 81 10000 3.6 40 14:37 28.08.2019
2910 Rain 10 997 81 10000 3.6 40 14:19 28.08.2019
2911 Rain 10 997 93 10000 7.2 30 13:56 28.08.2019
2912 Rain 10 997 81 10000 3.1 40 13:37 28.08.2019
2913 Rain 10 997 81 10000 3.1 40 13:18 28.08.2019
2914 Rain 10 998 76 10000 3.6 30 12:41 28.08.2019
2915 Rain 9 998 76 10000 3.6 30 12:23 28.08.2019
2916 Rain 9 998 76 10000 3.6 30 12:23 28.08.2019
2917 Drizzle 9 998 93 10000 4.6 60 11:54 28.08.2019
2918 Drizzle 9 998 81 10000 4.1 70 11:36 28.08.2019
2919 Drizzle 10 998 81 10000 4.1 70 11:18 28.08.2019
2920 Drizzle 9 998 81 4000 5.1 80 10:41 28.08.2019
2921 Drizzle 9 998 81 4000 5.1 80 10:21 28.08.2019
2922 Drizzle 9 998 93 10000 4.6 70 09:58 28.08.2019
2923 Drizzle 9 998 81 10000 2.6 50 09:40 28.08.2019
2924 Drizzle 9 998 81 10000 2.6 50 09:18 28.08.2019
2925 Rain 8 998 81 10000 3.1 50 08:39 28.08.2019
2926 Rain 8 998 81 10000 3.1 50 08:20 28.08.2019
2927 Clouds 9 998 81 10000 4.1 70 07:41 28.08.2019
2928 Clouds 9 998 81 10000 4.1 70 07:22 28.08.2019
2929 Clouds 9 998 87 10000 5.1 80 06:51 28.08.2019
2930 Clouds 9 998 76 10000 3.6 90 06:32 28.08.2019
2931 Clouds 9 998 87 10000 4.6 90 05:42 28.08.2019
2932 Clouds 9 998 93 10000 3.6 130 02:50 28.08.2019
2933 Clouds 9 998 76 10000 2.6 160 01:32 28.08.2019
2934 Clouds 9 997 93 10000 3.6 150 00:59 28.08.2019
2935 Clouds 9 997 76 10000 2.6 140 00:40 28.08.2019
2936 Clouds 9 997 100 10000 3.1 160 23:59 27.08.2019
2937 Clouds 9 997 81 10000 3.6 140 23:39 27.08.2019
2938 Clouds 9 997 81 10000 3.6 140 23:21 27.08.2019
2939 Rain 10 996 93 10000 4.1 190 22:54 27.08.2019
2940 Rain 10 996 76 10000 4.1 160 22:36 27.08.2019
2941 Rain 10 996 76 10000 4.1 160 22:18 27.08.2019
2942 Rain 10 995 93 10000 4.6 220 21:54 27.08.2019
2943 Clouds 10 995 76 10000 4.6 160 21:36 27.08.2019
2944 Clouds 11 995 76 10000 4.6 160 21:18 27.08.2019
2945 Rain 11 995 93 10000 4.1 220 20:41 27.08.2019
2946 Rain 11 995 76 10000 6.2 180 20:21 27.08.2019
2947 Rain 12 994 87 10000 3.6 220 19:57 27.08.2019
2948 Rain 11 994 76 10000 6.2 180 19:39 27.08.2019
2949 Rain 11 994 76 10000 6.2 180 19:20 27.08.2019
2950 Drizzle 12 993 93 10000 5.7 190 18:42 27.08.2019
2951 Clouds 12 993 76 10000 6.7 190 18:19 27.08.2019
2952 Clouds 12 993 93 10000 5.7 190 17:56 27.08.2019
2953 Clouds 12 993 76 10000 5.7 190 17:38 27.08.2019
2954 Clouds 12 993 76 10000 5.7 190 17:19 27.08.2019
2955 Rain 12 992 87 10000 6.2 200 16:47 27.08.2019
2956 Rain 11 993 76 10000 5.7 190 16:28 27.08.2019
2957 Rain 11 992 93 10000 6.7 200 15:57 27.08.2019
2958 Rain 11 992 76 10000 6.2 170 15:39 27.08.2019
2959 Rain 11 992 76 10000 6.2 170 15:20 27.08.2019
2960 Rain 11 991 100 10000 7.2 210 14:54 27.08.2019
2961 Rain 11 991 81 10000 6.7 170 14:36 27.08.2019
2962 Rain 11 991 81 10000 6.7 170 14:18 27.08.2019
2963 Rain 11 991 87 10000 5.7 200 13:41 27.08.2019
2964 Rain 11 991 87 10000 5.7 200 13:20 27.08.2019
2965 Drizzle 11 990 87 10000 5.7 210 12:42 27.08.2019
2966 Drizzle 11 990 87 10000 5.7 210 12:21 27.08.2019
2967 Drizzle 11 989 87 6000 4.6 180 11:57 27.08.2019
2968 Clouds 11 989 87 10000 3.1 150 11:37 27.08.2019
2969 Clouds 11 989 87 10000 3.1 150 11:19 27.08.2019
2970 Rain 10 988 87 6000 3.6 160 10:41 27.08.2019
2971 Rain 10 988 87 6000 3.6 160 10:20 27.08.2019
2972 Clouds 10 987 93 10000 4.1 190 09:56 27.08.2019
2973 Clouds 10 987 81 10000 3.1 110 09:37 27.08.2019
2974 Clouds 10 987 81 10000 3.1 110 09:19 27.08.2019
2975 Rain 9 986 100 10000 6.2 220 08:45 27.08.2019
2976 Rain 9 987 81 10000 5.7 120 08:24 27.08.2019
2977 Rain 10 985 100 5000 8.2 150 07:55 27.08.2019
2978 Rain 10 986 81 10000 5.1 130 07:36 27.08.2019
2979 Rain 10 986 81 10000 5.1 130 07:36 27.08.2019
2980 Rain 10 986 81 10000 5.1 130 07:18 27.08.2019
2981 Rain 10 985 100 6000 6.7 140 06:44 27.08.2019
2982 Rain 10 987 81 10000 5.1 130 06:19 27.08.2019
2983 Rain 9 987 81 10000 6.7 140 05:26 27.08.2019
2984 Rain 9 985 93 10000 9.8 160 03:43 27.08.2019
2985 Rain 10 985 93 10000 9.8 160 02:40 27.08.2019
2986 Rain 10 985 100 10000 10.8 170 01:46 27.08.2019
2987 Rain 10 987 87 8000 8.2 160 01:24 27.08.2019
2988 Rain 10 985 100 4000 11.8 170 00:49 27.08.2019
2989 Rain 10 986 87 8000 9.3 170 00:28 27.08.2019
2990 Rain 10 986 87 4000 7.7 170 23:40 26.08.2019
2991 Rain 10 986 87 4000 7.7 170 23:22 26.08.2019
2992 Rain 10 984 100 3500 9.3 180 22:58 26.08.2019
2993 Rain 10 985 87 4000 10.8 180 22:36 26.08.2019
2994 Rain 10 985 87 4000 10.8 180 22:18 26.08.2019
2995 Rain 11 984 87 2200 7.7 190 21:39 26.08.2019
2996 Rain 11 984 87 2200 7.7 190 21:21 26.08.2019
2997 Drizzle 11 983 100 10000 7.7 180 20:58 26.08.2019
2998 Drizzle 11 983 87 10000 5.7 180 20:39 26.08.2019
2999 Drizzle 11 983 87 10000 5.7 180 20:19 26.08.2019
3000 Drizzle 12 982 93 9000 7.2 200 19:56 26.08.2019
3001 Drizzle 12 982 87 9000 5.1 210 19:38 26.08.2019
3002 Drizzle 12 982 87 9000 5.1 210 19:18 26.08.2019
3003 Rain 13 982 82 4000 3.6 200 18:39 26.08.2019
3004 Rain 13 982 82 4000 3.6 200 18:20 26.08.2019
3005 Rain 13 982 82 4000 3.6 200 18:20 26.08.2019
3006 Rain 12 981 87 10000 8.7 200 17:59 26.08.2019
3007 Rain 12 981 81 10000 5.7 180 17:40 26.08.2019
3008 Rain 13 981 81 10000 5.7 180 17:19 26.08.2019
3009 Drizzle 12 981 93 10000 9.8 180 16:56 26.08.2019
3010 Drizzle 12 981 71 10000 9.8 180 16:38 26.08.2019
3011 Drizzle 13 981 71 10000 9.8 180 16:18 26.08.2019
3012 Drizzle 12 980 81 3200 8.2 190 15:42 26.08.2019
3013 Drizzle 12 980 81 3200 8.2 190 15:22 26.08.2019
3014 Drizzle 12 979 100 10000 10.3 210 14:56 26.08.2019
3015 Rain 12 979 82 10000 8.2 190 14:37 26.08.2019
3016 Rain 12 979 82 10000 8.2 190 14:18 26.08.2019
3017 Drizzle 12 978 76 10000 6.7 180 13:41 26.08.2019
3018 Drizzle 12 978 76 10000 6.7 180 13:21 26.08.2019
3019 Rain 12 977 100 10000 6.7 180 12:46 26.08.2019
3020 Rain 12 977 81 10000 5.7 180 12:28 26.08.2019
3021 Rain 12 976 93 10000 6.2 180 11:59 26.08.2019
3022 Rain 11 977 81 10000 4.6 140 11:38 26.08.2019
3023 Rain 11 977 81 10000 4.6 140 11:19 26.08.2019
3024 Drizzle 11 976 100 10000 6.2 150 10:55 26.08.2019
3025 Drizzle 11 977 81 10000 7.2 110 10:36 26.08.2019
3026 Drizzle 11 977 81 10000 7.2 110 10:18 26.08.2019
3027 Rain 11 977 81 8000 7.2 110 09:41 26.08.2019
3028 Rain 11 977 81 8000 7.2 110 09:23 26.08.2019
3029 Rain 10 976 93 10000 8.7 130 08:56 26.08.2019
3030 Rain 10 977 81 10000 5.1 100 08:37 26.08.2019
3031 Rain 10 977 81 10000 5.1 100 08:19 26.08.2019
3032 Rain 10 978 76 10000 5.7 120 07:42 26.08.2019
3033 Rain 10 978 76 10000 5.7 120 07:23 26.08.2019
3034 Rain 10 977 93 10000 10.3 130 06:49 26.08.2019
3035 Rain 10 979 81 10000 7.2 130 06:25 26.08.2019
3036 Rain 10 978 93 10000 10.8 130 05:51 26.08.2019
3037 Rain 11 981 76 10000 5.1 130 04:31 26.08.2019
3038 Rain 11 981 76 10000 5.1 150 03:30 26.08.2019
3039 Rain 11 982 87 6000 7.2 90 01:40 26.08.2019
3040 Rain 11 982 87 6000 7.2 90 01:21 26.08.2019
3041 Rain 11 982 81 9000 8.7 90 00:42 26.08.2019
3042 Rain 11 982 81 9000 8.7 90 00:23 26.08.2019
3043 Rain 11 982 93 4000 10.8 120 23:43 25.08.2019
3044 Rain 11 982 93 4000 10.8 120 23:43 25.08.2019
3045 Rain 11 983 81 10000 9.8 100 23:19 25.08.2019
3046 Rain 10 983 100 5000 12.3 110 22:57 25.08.2019
3047 Rain 11 983 100 5000 12.3 110 22:57 25.08.2019
3048 Rain 11 985 76 5000 11.3 90 22:39 25.08.2019
3049 Rain 11 985 76 5000 11.3 90 22:20 25.08.2019
3050 Rain 11 984 100 5000 14.9 110 21:57 25.08.2019
3051 Rain 10 986 81 6000 11.3 90 21:38 25.08.2019
3052 Rain 10 986 81 6000 11.3 90 21:18 25.08.2019
3053 Rain 11 987 81 7000 13.9 100 20:40 25.08.2019
3054 Rain 11 987 81 7000 13.9 100 20:20 25.08.2019
3055 Rain 11 986 93 9000 17 120 19:58 25.08.2019
3056 Rain 11 989 76 6000 13.9 110 19:39 25.08.2019
3057 Rain 11 989 76 6000 13.9 110 19:20 25.08.2019
3058 Rain 11 988 93 8000 15.9 110 18:58 25.08.2019
3059 Rain 11 991 81 2500 11.3 110 18:39 25.08.2019
3060 Rain 11 991 81 2500 11.3 110 18:21 25.08.2019
3061 Rain 11 991 93 6000 15.4 110 17:46 25.08.2019
3062 Rain 10 993 81 2500 10.8 90 17:25 25.08.2019
3063 Rain 10 993 93 5000 15.4 110 16:59 25.08.2019
3064 Rain 10 995 81 5000 11.8 100 16:37 25.08.2019
3065 Rain 10 995 81 5000 11.8 100 16:18 25.08.2019
3066 Rain 10 994 93 6000 14.9 110 15:43 25.08.2019
3067 Rain 10 997 76 10000 11.3 110 15:25 25.08.2019
3068 Rain 10 996 76 10000 13.9 110 14:54 25.08.2019
3069 Rain 10 999 81 10000 8.2 110 14:36 25.08.2019
3070 Rain 10 999 81 10000 8.2 110 14:18 25.08.2019
3071 Drizzle 10 1001 66 10000 9.3 120 13:42 25.08.2019
3072 Drizzle 10 1001 66 10000 9.3 120 13:20 25.08.2019
3073 Rain 10 1000 87 7000 10.3 120 12:54 25.08.2019
3074 Rain 10 1002 66 10000 6.2 110 12:36 25.08.2019
3075 Rain 10 1002 66 10000 6.2 110 12:18 25.08.2019
3076 Rain 10 1003 66 10000 7.2 120 11:41 25.08.2019
3077 Rain 10 1003 66 10000 7.2 120 11:22 25.08.2019
3078 Clouds 10 1003 81 10000 7.7 120 10:59 25.08.2019
3079 Clouds 10 1004 71 10000 3.6 100 10:40 25.08.2019
3080 Clouds 9 1004 71 10000 3.6 100 10:20 25.08.2019
3081 Clouds 9 1004 81 10000 5.7 110 09:56 25.08.2019
3082 Clouds 9 1005 76 10000 2.6 90 09:37 25.08.2019
3083 Clouds 9 1005 76 10000 2.6 90 09:19 25.08.2019
3084 Clouds 9 1006 76 10000 3.1 110 08:42 25.08.2019
3085 Clouds 9 1006 76 10000 3.1 110 08:21 25.08.2019
3086 Clouds 8 1007 87 10000 2.6 110 07:35 25.08.2019
3087 Clouds 9 1007 81 10000 3.6 140 06:51 25.08.2019
3088 Clouds 9 1008 81 10000 3.1 150 05:47 25.08.2019
3089 Clouds 9 1010 76 10000 2.6 200 04:35 25.08.2019
3090 Clouds 9 1010 81 10000 5.1 230 03:31 25.08.2019
3091 Clouds 10 1011 87 10000 3.6 200 02:39 25.08.2019
3092 Clouds 9 1011 81 10000 1 270 01:24 25.08.2019
3093 Clouds 10 1011 76 10000 1.5 300 00:40 25.08.2019
3094 Clouds 10 1011 76 10000 1.5 300 00:20 25.08.2019
3095 Clouds 11 1011 93 10000 3.1 280 23:51 24.08.2019
3096 Clouds 11 1011 81 10000 2.6 270 23:22 24.08.2019
3097 Clouds 12 1011 87 10000 4.6 270 22:55 24.08.2019
3098 Clouds 12 1011 76 10000 3.1 270 22:37 24.08.2019
3099 Clouds 12 1011 76 10000 3.1 270 22:19 24.08.2019
3100 Clouds 12 1011 81 10000 3.1 290 21:55 24.08.2019
3101 Clouds 12 1011 76 10000 3.1 270 21:37 24.08.2019
3102 Clouds 13 1011 76 10000 3.1 270 21:18 24.08.2019
3103 Clouds 12 1011 81 10000 4.1 280 20:54 24.08.2019
3104 Clouds 13 1011 76 10000 4.1 280 20:36 24.08.2019
3105 Clouds 13 1011 76 10000 4.1 280 20:18 24.08.2019
3106 Clouds 13 1011 71 10000 4.6 300 19:41 24.08.2019
3107 Clouds 13 1011 71 10000 4.6 300 19:22 24.08.2019
3108 Clouds 14 1012 76 10000 3.6 290 18:59 24.08.2019
3109 Clouds 14 1012 71 10000 4.1 290 18:39 24.08.2019
3110 Clouds 14 1012 71 10000 4.1 290 18:20 24.08.2019
3111 Clouds 13 1012 82 10000 4.1 290 17:44 24.08.2019
3112 Clouds 13 1012 71 10000 4.6 280 17:24 24.08.2019
3113 Clouds 13 1012 76 10000 2.6 290 16:48 24.08.2019
3114 Clouds 13 1012 71 10000 3.6 280 16:21 24.08.2019
3115 Clouds 12 1012 81 10000 3.1 270 15:59 24.08.2019
3116 Clouds 12 1012 81 10000 3.1 270 15:59 24.08.2019
3117 Clouds 13 1012 76 10000 3.6 280 15:40 24.08.2019
3118 Clouds 13 1012 76 10000 3.6 280 15:22 24.08.2019
3119 Clouds 12 1012 71 10000 2.1 290 14:43 24.08.2019
3120 Clouds 12 1012 76 10000 4.1 280 14:22 24.08.2019
3121 Clouds 12 1012 76 10000 2.6 260 13:57 24.08.2019
3122 Clouds 12 1012 81 10000 3.1 270 13:39 24.08.2019
3123 Clouds 12 1012 81 10000 3.1 270 13:21 24.08.2019
3124 Clouds 12 1012 81 10000 3.1 250 12:55 24.08.2019
3125 Clouds 12 1012 81 10000 3.1 250 12:37 24.08.2019
3126 Clouds 11 1012 81 10000 3.1 250 12:19 24.08.2019
3127 Drizzle 11 1012 87 10000 2.6 250 11:43 24.08.2019
3128 Drizzle 11 1012 81 10000 1.5 230 11:22 24.08.2019
3129 Clouds 11 1012 87 10000 2.1 210 10:52 24.08.2019
3130 Clouds 11 1012 81 10000 1.5 250 10:24 24.08.2019
3131 Clouds 10 1012 87 10000 1.5 160 09:45 24.08.2019
3132 Clouds 10 1012 87 10000 0.77 276.176 09:22 24.08.2019
3133 Clouds 10 1012 87 10000 1.5 140 08:59 24.08.2019
3134 Clouds 10 1012 87 10000 0.77 276.176 08:40 24.08.2019
3135 Clouds 10 1012 87 10000 0.77 276.176 08:22 24.08.2019
3136 Rain 10 1012 87 10000 1.5 110 07:49 24.08.2019
3137 Rain 10 1012 81 10000 0.5 0 07:27 24.08.2019
3138 Rain 10 1012 81 10000 0.5 0 07:27 24.08.2019
3139 Clouds 10 1012 81 10000 1.5 50 06:30 24.08.2019
3140 Clouds 10 1012 76 10000 1 0 05:42 24.08.2019
3141 Clear 10 1012 81 10000 1.5 110 04:51 24.08.2019
3142 Clouds 10 1012 81 10000 1.5 80 03:37 24.08.2019
3143 Drizzle 11 1012 76 10000 1 0 02:27 24.08.2019
3144 Clouds 11 1011 66 10000 2.6 190 01:38 24.08.2019
3145 Clouds 11 1011 66 10000 2.6 190 01:18 24.08.2019
3146 Clouds 11 1011 87 10000 2.6 140 00:41 24.08.2019
3147 Clouds 11 1011 71 10000 1.5 240 00:18 24.08.2019
3148 Rain 11 1011 87 10000 2.6 140 23:42 23.08.2019
3149 Rain 11 1011 71 10000 0.36 161.615 23:19 23.08.2019
3150 Clouds 12 1010 81 10000 3.1 150 22:43 23.08.2019
3151 Clouds 12 1011 71 10000 0.5 0 22:24 23.08.2019
3152 Drizzle 12 1010 81 10000 4.1 150 21:54 23.08.2019
3153 Drizzle 12 1010 62 10000 3.6 150 21:36 23.08.2019
3154 Drizzle 12 1010 62 10000 3.6 150 21:18 23.08.2019
3155 Rain 13 1010 58 10000 6.2 160 20:40 23.08.2019
3156 Rain 13 1010 58 10000 6.2 160 20:22 23.08.2019
3157 Clouds 14 1009 58 10000 5.7 160 19:45 23.08.2019
3158 Clouds 14 1009 58 10000 5.7 160 19:19 23.08.2019
3159 Clouds 14 1009 62 10000 4.1 160 18:49 23.08.2019
3160 Clouds 14 1009 48 10000 4.6 180 18:31 23.08.2019
3161 Clouds 14 1010 71 10000 5.1 160 17:59 23.08.2019
3162 Clouds 14 1010 58 10000 3.6 150 17:40 23.08.2019
3163 Clouds 14 1010 58 10000 3.6 150 17:21 23.08.2019
3164 Clouds 15 1009 67 10000 6.7 160 16:48 23.08.2019
3165 Clouds 14 1010 54 10000 5.7 160 16:29 23.08.2019
3166 Clouds 14 1010 66 10000 6.7 140 15:58 23.08.2019
3167 Clouds 14 1010 62 10000 6.7 140 15:38 23.08.2019
3168 Clouds 14 1010 62 10000 6.7 140 15:20 23.08.2019
3169 Rain 13 1010 67 10000 4.6 130 14:43 23.08.2019
3170 Rain 13 1010 67 10000 4.6 130 14:21 23.08.2019
3171 Clouds 13 1010 76 10000 7.2 130 13:59 23.08.2019
3172 Clouds 13 1010 71 10000 5.1 150 13:41 23.08.2019
3173 Clouds 13 1010 71 10000 5.1 150 13:22 23.08.2019
3174 Rain 12 1010 81 10000 6.7 150 12:58 23.08.2019
3175 Rain 12 1010 76 10000 3.1 130 12:40 23.08.2019
3176 Rain 12 1010 76 10000 3.1 130 12:21 23.08.2019
3177 Drizzle 11 1009 81 10000 5.7 140 11:57 23.08.2019
3178 Drizzle 11 1010 87 10000 3.1 80 11:38 23.08.2019
3179 Drizzle 11 1010 87 10000 3.1 80 11:38 23.08.2019
3180 Drizzle 11 1010 87 10000 3.1 80 11:19 23.08.2019
3181 Drizzle 11 1009 93 10000 2.6 150 10:54 23.08.2019
3182 Drizzle 11 1009 87 10000 2.6 90 10:36 23.08.2019
3183 Drizzle 11 1009 87 10000 2.6 90 10:18 23.08.2019
3184 Drizzle 10 1009 100 7000 2.1 90 09:43 23.08.2019
3185 Drizzle 10 1009 100 7000 2.1 90 09:43 23.08.2019
3186 Drizzle 10 1009 81 10000 2.6 120 09:20 23.08.2019
3187 Rain 10 1009 81 10000 2.6 80 08:45 23.08.2019
3188 Rain 10 1009 81 10000 2.6 80 08:20 23.08.2019
3189 Clouds 10 1009 93 10000 2.1 120 07:56 23.08.2019
3190 Clouds 10 1009 87 10000 1.5 100 07:38 23.08.2019
3191 Clouds 10 1009 87 10000 1.5 100 07:20 23.08.2019
3192 Clouds 10 1009 87 10000 2.1 120 06:41 23.08.2019
3193 Clouds 10 1009 87 10000 2.1 120 06:22 23.08.2019
3194 Drizzle 10 1009 87 10000 2.1 110 05:44 23.08.2019
3195 Drizzle 10 1009 87 10000 2.6 120 05:24 23.08.2019
3196 Drizzle 11 1009 87 10000 1.5 80 03:42 23.08.2019
3197 Drizzle 11 1009 87 10000 1 130 02:38 23.08.2019
3198 Drizzle 11 1009 87 10000 1 130 02:20 23.08.2019
3199 Rain 11 1008 93 10000 1 180 00:57 23.08.2019
3200 Rain 11 1008 76 10000 1.03 165.183 00:37 23.08.2019
3201 Rain 11 1008 76 10000 2.22 195.47 00:18 23.08.2019
3202 Clear 11 1008 81 10000 2.22 195.47 23:40 22.08.2019
3203 Clear 12 1008 81 10000 2.22 195.47 23:21 22.08.2019
3204 Clouds 12 1007 81 10000 1.5 270 22:42 22.08.2019
3205 Clouds 12 1007 81 10000 1.5 270 22:24 22.08.2019
3206 Clouds 12 1007 87 10000 3.6 240 21:58 22.08.2019
3207 Clouds 13 1007 81 10000 2.1 290 21:40 22.08.2019
3208 Clouds 13 1007 81 10000 2.1 290 21:22 22.08.2019
3209 Clouds 14 1007 82 10000 3.6 260 20:58 22.08.2019
3210 Clouds 14 1007 71 10000 2.6 300 20:39 22.08.2019
3211 Clouds 14 1007 71 10000 2.6 300 20:20 22.08.2019
3212 Clouds 14 1006 82 10000 3.6 260 19:57 22.08.2019
3213 Clouds 14 1006 71 10000 2.6 290 19:38 22.08.2019
3214 Clouds 14 1006 71 10000 2.6 290 19:20 22.08.2019
3215 Clouds 14 1006 76 10000 4.1 250 18:57 22.08.2019
3216 Clouds 14 1006 66 10000 2.6 280 18:39 22.08.2019
3217 Clouds 15 1006 66 10000 2.6 280 18:19 22.08.2019
3218 Clouds 15 1006 71 10000 3.6 260 17:54 22.08.2019
3219 Clouds 16 1006 58 10000 3.6 260 17:36 22.08.2019
3220 Clouds 15 1006 58 10000 3.6 260 17:18 22.08.2019
3221 Clouds 15 1006 62 10000 3.1 270 16:56 22.08.2019
3222 Clouds 16 1006 54 10000 4.1 290 16:37 22.08.2019
3223 Clouds 16 1006 54 10000 4.1 290 16:18 22.08.2019
3224 Clouds 16 1006 54 10000 4.1 290 16:18 22.08.2019
3225 Clouds 16 1006 54 10000 4.1 290 16:18 22.08.2019
3226 Clouds 15 1006 67 10000 1.5 0 15:41 22.08.2019
3227 Clouds 15 1006 54 10000 4.6 290 15:41 22.08.2019
3228 Clouds 15 1006 54 10000 4.6 290 15:41 22.08.2019
3229 Clouds 15 1006 54 10000 4.6 290 15:41 22.08.2019
3230 Clouds 15 1006 54 10000 4.6 290 15:22 22.08.2019
3231 Clouds 15 1006 54 10000 4.6 290 15:21 22.08.2019
3232 Clouds 15 1006 67 10000 2.6 260 14:57 22.08.2019
3233 Clouds 15 1005 54 10000 4.1 280 14:39 22.08.2019
3234 Clouds 15 1005 54 10000 4.1 280 14:19 22.08.2019
3235 Clear 15 1005 76 10000 3.1 240 13:56 22.08.2019
3236 Clouds 14 1005 54 10000 3.1 330 13:38 22.08.2019
3237 Clouds 14 1005 54 10000 3.1 330 13:18 22.08.2019
3238 Clear 14 1005 54 10000 3.1 340 12:40 22.08.2019
3239 Clear 14 1005 54 10000 3.1 340 12:22 22.08.2019
3240 Clear 14 1005 71 10000 1.5 260 11:58 22.08.2019
3241 Clear 13 1005 50 10000 1 0 11:39 22.08.2019
3242 Clear 13 1005 50 10000 1 0 11:19 22.08.2019
3243 Clear 12 1005 76 10000 1 260 10:57 22.08.2019
3244 Clear 12 1004 54 10000 3.6 90 10:37 22.08.2019
3245 Clear 12 1004 54 10000 3.6 90 10:19 22.08.2019
3246 Clear 10 1004 87 10000 1.5 90 09:54 22.08.2019
3247 Clear 10 1004 57 10000 4.6 90 09:36 22.08.2019
3248 Clear 10 1004 57 10000 4.6 90 09:18 22.08.2019
3249 Clear 9 1004 61 10000 3.6 100 08:41 22.08.2019
3250 Clear 9 1004 61 10000 3.6 100 08:21 22.08.2019
3251 Clear 10 1004 81 10000 1 160 07:56 22.08.2019
3252 Clear 10 1004 57 10000 4.1 100 07:38 22.08.2019
3253 Clear 10 1004 57 10000 4.1 100 07:18 22.08.2019
3254 Clear 11 1003 81 10000 2.1 50 06:45 22.08.2019
3255 Clear 10 1003 54 10000 3.6 100 06:21 22.08.2019
3256 Clear 10 1003 57 10000 5.1 100 05:29 22.08.2019
3257 Clear 10 1003 62 10000 3.1 50 03:26 22.08.2019
3258 Clear 11 1003 62 10000 3.1 60 02:36 22.08.2019
3259 Clear 11 1003 76 10000 1.5 150 01:36 22.08.2019
3260 Clear 12 1003 81 10000 3.69 47.449 00:57 22.08.2019
3261 Clear 12 1002 71 10000 2.1 150 00:38 22.08.2019
3262 Clear 12 1002 71 10000 2.1 150 00:20 22.08.2019
3263 Clear 12 1002 76 10000 2.1 180 23:41 21.08.2019
3264 Clear 13 1002 76 10000 2.1 180 23:23 21.08.2019
3265 Clear 13 1002 71 10000 2.6 340 22:58 21.08.2019
3266 Clouds 13 1002 71 10000 2.1 280 22:39 21.08.2019
3267 Clouds 14 1002 71 10000 2.1 280 22:20 21.08.2019
3268 Clear 14 1002 67 10000 3.1 330 21:56 21.08.2019
3269 Clouds 14 1002 62 10000 3.1 290 21:37 21.08.2019
3270 Clouds 14 1002 62 10000 3.1 290 21:19 21.08.2019
3271 Rain 16 1002 71 10000 5.1 10 20:56 21.08.2019
3272 Rain 16 1002 45 10000 2.6 330 20:37 21.08.2019
3273 Rain 16 1002 45 10000 2.6 330 20:19 21.08.2019
3274 Rain 16 1002 45 10000 3.6 90 19:42 21.08.2019
3275 Rain 16 1002 45 10000 3.6 90 19:24 21.08.2019
3276 Rain 16 1002 67 10000 3.6 40 18:57 21.08.2019
3277 Rain 15 1002 48 10000 2.6 20 18:38 21.08.2019
3278 Rain 15 1002 48 10000 2.6 20 18:20 21.08.2019
3279 Clouds 16 1002 42 10000 3.6 60 17:45 21.08.2019
3280 Clouds 16 1002 42 10000 3.6 60 17:22 21.08.2019
3281 Clouds 15 1003 71 10000 5.1 20 16:58 21.08.2019
3282 Rain 15 1003 44 10000 5.7 80 16:39 21.08.2019
3283 Rain 15 1003 44 10000 5.7 80 16:20 21.08.2019
3284 Rain 14 1003 81 10000 5.1 40 15:57 21.08.2019
3285 Rain 14 1003 47 10000 6.2 80 15:38 21.08.2019
3286 Rain 14 1003 47 10000 6.2 80 15:19 21.08.2019
3287 Rain 13 1003 87 10000 6.2 60 14:56 21.08.2019
3288 Rain 13 1003 62 10000 5.1 80 14:38 21.08.2019
3289 Rain 13 1003 62 10000 5.1 80 14:19 21.08.2019
3290 Rain 13 1003 58 10000 8.2 70 13:43 21.08.2019
3291 Rain 14 1003 58 10000 8.2 70 13:20 21.08.2019
3292 Rain 14 1003 81 10000 5.1 60 12:58 21.08.2019
3293 Rain 13 1003 50 10000 11.3 80 12:40 21.08.2019
3294 Rain 13 1003 50 10000 11.3 80 12:20 21.08.2019
3295 Rain 13 1003 71 10000 8.7 80 11:54 21.08.2019
3296 Clear 13 1003 50 10000 8.2 80 11:36 21.08.2019
3297 Clear 13 1003 50 10000 8.2 80 11:18 21.08.2019
3298 Clear 13 1003 50 10000 8.2 80 11:18 21.08.2019
3299 Clouds 13 1003 71 10000 9.8 70 10:55 21.08.2019
3300 Clear 12 1003 54 10000 9.3 70 10:37 21.08.2019
3301 Clear 12 1003 54 10000 9.3 70 10:18 21.08.2019
3302 Clear 12 1003 54 10000 8.7 80 09:41 21.08.2019
3303 Clear 12 1003 54 10000 8.7 80 09:23 21.08.2019
3304 Clouds 11 1003 76 10000 9.3 70 08:56 21.08.2019
3305 Clouds 11 1003 58 10000 8.2 80 08:37 21.08.2019
3306 Clouds 11 1003 58 10000 8.2 80 08:19 21.08.2019
3307 Rain 11 1003 58 10000 7.7 80 07:39 21.08.2019
3308 Rain 11 1003 58 10000 7.7 80 07:20 21.08.2019
3309 Rain 11 1003 76 10000 9.8 60 06:46 21.08.2019
3310 Rain 11 1003 58 10000 9.3 80 06:20 21.08.2019
3311 Clouds 11 1004 54 10000 8.7 80 05:38 21.08.2019
3312 Clouds 11 1004 54 10000 8.7 80 05:18 21.08.2019
3313 Clouds 11 1005 58 10000 5.7 70 03:23 21.08.2019
3314 Clear 10 1006 62 10000 5.1 90 01:42 21.08.2019
3315 Clouds 11 1005 76 10000 11.3 110 00:43 21.08.2019
3316 Clear 11 1006 66 10000 5.1 110 00:23 21.08.2019
3317 Rain 11 1005 76 10000 10.8 120 23:56 20.08.2019
3318 Rain 11 1006 62 10000 4.6 110 23:38 20.08.2019
3319 Rain 11 1006 62 10000 4.6 110 23:18 20.08.2019
3320 Rain 11 1005 87 10000 10.3 110 22:55 20.08.2019
3321 Rain 12 1006 58 8000 5.7 120 22:36 20.08.2019
3322 Rain 12 1006 58 8000 5.7 120 22:18 20.08.2019
3323 Rain 12 1005 81 10000 10.3 120 21:56 20.08.2019
3324 Rain 12 1006 58 10000 8.7 120 21:37 20.08.2019
3325 Rain 13 1006 58 10000 8.7 120 21:18 20.08.2019
3326 Rain 12 1007 66 10000 7.7 130 20:42 20.08.2019
3327 Rain 12 1007 66 10000 7.7 130 20:42 20.08.2019
3328 Rain 12 1007 66 10000 7.7 130 20:42 20.08.2019
3329 Rain 13 1007 66 10000 7.7 130 20:24 20.08.2019
3330 Rain 13 1006 76 10000 9.8 120 19:54 20.08.2019
3331 Rain 12 1007 62 10000 6.2 110 19:36 20.08.2019
3332 Rain 12 1007 62 10000 6.2 110 19:36 20.08.2019
3333 Rain 12 1007 62 10000 6.2 110 19:18 20.08.2019
3334 Rain 13 1006 71 10000 10.3 120 18:54 20.08.2019
3335 Rain 13 1006 71 10000 10.3 120 18:54 20.08.2019
3336 Rain 13 1007 71 10000 7.2 120 18:36 20.08.2019
3337 Rain 12 1007 71 10000 7.2 120 18:18 20.08.2019
3338 Rain 13 1007 58 10000 6.7 110 17:39 20.08.2019
3339 Rain 13 1007 58 10000 6.7 110 17:20 20.08.2019
3340 Rain 12 1007 81 10000 8.2 100 16:48 20.08.2019
3341 Rain 13 1008 54 10000 6.7 110 16:28 20.08.2019
3342 Rain 12 1007 76 10000 8.7 120 15:59 20.08.2019
3343 Rain 12 1007 76 10000 8.7 120 15:41 20.08.2019
3344 Rain 12 1008 58 10000 6.2 120 15:18 20.08.2019
3345 Clouds 12 1008 76 10000 10.3 110 14:55 20.08.2019
3346 Clouds 12 1008 58 10000 6.2 100 14:37 20.08.2019
3347 Clouds 12 1008 58 10000 6.2 100 14:37 20.08.2019
3348 Clouds 12 1008 58 10000 6.2 100 14:18 20.08.2019
3349 Clouds 12 1008 58 10000 6.2 100 14:18 20.08.2019
3350 Clouds 11 1007 71 10000 12.9 130 13:54 20.08.2019
3351 Clouds 11 1008 57 10000 7.2 110 13:36 20.08.2019
3352 Clouds 11 1008 57 10000 7.2 110 13:18 20.08.2019
3353 Clouds 10 1008 53 10000 4.6 90 12:44 20.08.2019
3354 Clouds 10 1008 53 10000 4.6 90 12:23 20.08.2019
3355 Clouds 10 1008 71 10000 7.2 100 11:55 20.08.2019
3356 Clear 10 1008 53 10000 5.7 90 11:37 20.08.2019
3357 Clear 10 1008 53 10000 5.7 90 11:18 20.08.2019
3358 Clouds 9 1008 76 10000 5.1 100 10:55 20.08.2019
3359 Rain 9 1008 57 10000 5.1 90 10:37 20.08.2019
3360 Rain 9 1008 57 10000 5.1 90 10:18 20.08.2019
3361 Clouds 8 1008 61 10000 4.6 90 09:40 20.08.2019
3362 Clouds 8 1008 61 10000 4.6 90 09:22 20.08.2019
3363 Clouds 7 1008 81 10000 3.6 80 08:42 20.08.2019
3364 Clouds 8 1008 65 10000 3.6 80 08:24 20.08.2019
3365 Clouds 7 1008 76 10000 4.1 90 07:58 20.08.2019
3366 Clear 7 1008 70 10000 3.1 100 07:39 20.08.2019
3367 Clear 7 1008 70 10000 3.1 100 07:21 20.08.2019
3368 Clouds 7 1008 87 10000 3.1 80 06:47 20.08.2019
3369 Rain 7 1008 70 10000 3.6 90 06:21 20.08.2019
3370 Rain 8 1008 93 10000 3.6 120 05:48 20.08.2019
3371 Clouds 8 1008 81 10000 3.1 110 04:45 20.08.2019
3372 Clear 8 1009 66 10000 3.6 100 03:26 20.08.2019
3373 Clear 8 1009 66 10000 4.6 90 02:24 20.08.2019
3374 Clear 7 1008 66 10000 4.6 90 01:22 20.08.2019
3375 Clear 7 1008 76 10000 5.7 130 00:45 20.08.2019
3376 Clear 8 1008 57 10000 3.6 110 00:26 20.08.2019
3377 Clear 10 1007 71 10000 2.1 120 23:52 19.08.2019
3378 Clear 10 1007 71 10000 2.1 120 23:52 19.08.2019
3379 Clear 10 1007 43 10000 3.1 120 23:19 19.08.2019
3380 Clear 11 1007 76 10000 2.1 10 22:59 19.08.2019
3381 Clear 12 1007 44 10000 5.7 150 22:41 19.08.2019
3382 Clear 12 1007 44 10000 5.7 150 22:21 19.08.2019
3383 Clear 12 1007 44 10000 5.7 150 22:21 19.08.2019
3384 Clear 13 1007 71 10000 4.6 360 21:58 19.08.2019
3385 Clear 13 1007 38 10000 2.6 350 21:39 19.08.2019
3386 Clear 13 1007 38 10000 2.6 350 21:20 19.08.2019
3387 Clear 13 1007 66 10000 5.7 360 20:58 19.08.2019
3388 Clear 14 1006 41 10000 5.1 340 20:38 19.08.2019
3389 Clear 14 1006 41 10000 5.1 340 20:19 19.08.2019
3390 Clear 14 1007 54 10000 4.6 350 19:55 19.08.2019
3391 Clear 14 1007 54 10000 4.6 350 19:55 19.08.2019
3392 Clear 14 1007 54 10000 4.6 350 19:55 19.08.2019
3393 Clear 15 1007 41 10000 4.6 330 19:37 19.08.2019
3394 Clear 13 1007 41 10000 4.6 330 19:18 19.08.2019
3395 Clear 13 1007 41 10000 4.6 330 19:18 19.08.2019
3396 Clear 13 1007 41 10000 4.6 330 19:18 19.08.2019
3397 Clear 12 1007 55 10000 5.7 330 18:44 19.08.2019
3398 Clear 12 1007 50 10000 5.7 330 18:26 19.08.2019
3399 Clear 13 1008 54 10000 5.7 20 17:58 19.08.2019
3400 Clear 13 1007 50 10000 5.7 350 17:40 19.08.2019
3401 Clear 13 1007 50 10000 5.7 350 17:19 19.08.2019
3402 Clouds 13 1008 50 10000 3.1 40 16:58 19.08.2019
3403 Clear 13 1007 50 10000 4.1 350 16:37 19.08.2019
3404 Clear 13 1007 50 10000 4.1 350 16:18 19.08.2019
3405 Clouds 12 1008 53 10000 5.1 40 15:45 19.08.2019
3406 Clear 12 1008 43 10000 3.6 330 15:20 19.08.2019
3407 Clouds 11 1007 57 10000 5.7 20 14:58 19.08.2019
3408 Clear 11 1008 56 10000 3.1 270 14:38 19.08.2019
3409 Clear 11 1008 56 10000 3.1 270 14:20 19.08.2019
3410 Clouds 10 1007 57 10000 5.7 30 13:57 19.08.2019
3411 Clear 10 1007 57 10000 2.6 290 13:37 19.08.2019
3412 Clear 10 1007 57 10000 2.6 290 13:19 19.08.2019
3413 Clear 9 1007 70 10000 5.7 30 12:43 19.08.2019
3414 Clear 9 1007 67 10000 1.5 350 12:24 19.08.2019
3415 Clear 8 1007 70 10000 7.2 30 11:57 19.08.2019
3416 Clear 7 1007 67 10000 1.5 110 11:37 19.08.2019
3417 Clear 7 1007 67 10000 1.5 110 11:18 19.08.2019
3418 Clear 6 1007 67 10000 2.6 120 10:40 19.08.2019
3419 Clear 6 1007 67 10000 2.6 120 10:19 19.08.2019
3420 Clear 6 1007 67 10000 2.6 120 10:19 19.08.2019
3421 Clouds 5 1007 75 10000 7.7 40 09:57 19.08.2019
3422 Clear 4 1007 67 10000 2.1 120 09:39 19.08.2019
3423 Clear 4 1007 67 10000 2.1 120 09:39 19.08.2019
3424 Clear 4 1007 89 10000 2.1 120 09:21 19.08.2019
3425 Clouds 4 1007 75 10000 5.7 20 08:46 19.08.2019
3426 Clear 3 1007 89 10000 0.5 0 08:25 19.08.2019
3427 Clouds 4 1007 75 10000 4.6 30 07:59 19.08.2019
3428 Clear 4 1006 75 10000 2.6 120 07:40 19.08.2019
3429 Clear 4 1006 75 10000 2.6 120 07:21 19.08.2019
3430 Clear 4 1006 75 10000 1.5 160 06:40 19.08.2019
3431 Clouds 4 1006 87 10000 5.7 20 05:54 19.08.2019
3432 Clear 6 1006 65 10000 1.5 120 04:35 19.08.2019
3433 Clear 8 1006 81 10000 6.2 20 03:59 19.08.2019
3434 Clear 7 1006 65 10000 2.1 120 03:19 19.08.2019
3435 Clear 8 1006 61 10000 1 160 01:46 19.08.2019
3436 Clear 9 1006 75 10000 7.7 20 00:59 19.08.2019
3437 Clear 9 1005 61 10000 2.1 350 00:37 19.08.2019
3438 Clear 9 1005 61 10000 2.1 350 00:18 19.08.2019
3439 Clear 9 1005 61 10000 3.1 360 23:40 18.08.2019
3440 Clear 9 1005 61 10000 3.1 360 23:20 18.08.2019
3441 Clear 9 1005 61 10000 3.1 360 23:20 18.08.2019
3442 Clear 10 1004 57 10000 4.6 10 22:40 18.08.2019
3443 Clear 11 1004 57 10000 4.6 10 22:22 18.08.2019
3444 Clear 11 1004 71 10000 8.2 20 21:58 18.08.2019
3445 Clear 11 1004 54 10000 5.1 10 21:40 18.08.2019
3446 Clear 11 1004 54 10000 5.1 10 21:20 18.08.2019
3447 Clear 12 1004 66 10000 7.7 20 20:58 18.08.2019
3448 Clouds 11 1003 54 10000 6.2 10 20:40 18.08.2019
3449 Clouds 11 1003 54 10000 6.2 10 20:22 18.08.2019
3450 Clear 11 1003 50 10000 4.6 20 19:42 18.08.2019
3451 Clear 11 1003 50 10000 4.6 20 19:24 18.08.2019
3452 Clear 11 1003 66 10000 10.3 20 18:59 18.08.2019
3453 Clear 11 1003 54 10000 6.7 10 18:40 18.08.2019
3454 Clear 11 1003 54 10000 6.7 10 18:21 18.08.2019
3455 Clouds 12 1003 76 10000 10.8 20 17:55 18.08.2019
3456 Clear 12 1002 54 10000 8.2 10 17:37 18.08.2019
3457 Clear 12 1002 54 10000 8.2 10 17:18 18.08.2019
3458 Clouds 12 1002 66 10000 12.9 20 16:55 18.08.2019
3459 Clear 12 1002 50 10000 5.1 360 16:37 18.08.2019
3460 Clear 12 1002 50 10000 5.1 360 16:18 18.08.2019
3461 Clear 12 1002 50 10000 5.1 10 15:40 18.08.2019
3462 Clear 10 1002 50 10000 5.1 10 15:20 18.08.2019
3463 Clouds 11 1003 70 10000 11.8 20 14:58 18.08.2019
3464 Clouds 10 1002 53 10000 6.7 10 14:40 18.08.2019
3465 Clouds 10 1002 53 10000 6.7 10 14:19 18.08.2019
3466 Clouds 10 1002 70 10000 13.4 20 13:57 18.08.2019
3467 Clear 9 1002 61 10000 10.8 360 13:39 18.08.2019
3468 Clear 9 1002 61 10000 10.8 360 13:20 18.08.2019
3469 Clear 9 1002 61 10000 10.8 360 13:20 18.08.2019
3470 Clouds 8 1002 75 10000 12.9 20 12:54 18.08.2019
3471 Clouds 9 1002 65 10000 10.8 10 12:36 18.08.2019
3472 Clouds 9 1002 65 10000 10.8 10 12:18 18.08.2019
3473 Clouds 8 1002 65 10000 11.8 10 11:41 18.08.2019
3474 Clouds 8 1002 65 10000 11.8 10 11:21 18.08.2019
3475 Clouds 7 1002 65 10000 10.3 10 10:41 18.08.2019
3476 Clouds 7 1002 65 10000 10.3 10 10:22 18.08.2019
3477 Clouds 7 1002 65 10000 10.3 10 10:22 18.08.2019
3478 Clouds 7 1002 75 10000 11.3 20 09:56 18.08.2019
3479 Clouds 7 1001 70 10000 12.3 360 09:37 18.08.2019
3480 Clouds 7 1001 70 10000 12.3 360 09:18 18.08.2019
3481 Clouds 7 1001 61 10000 8.7 20 08:42 18.08.2019
3482 Clouds 7 1001 61 10000 8.7 20 08:24 18.08.2019
3483 Clouds 8 1001 81 10000 11.3 20 07:49 18.08.2019
3484 Clouds 7 1001 65 10000 9.3 10 07:29 18.08.2019
3485 Clear 7 1001 65 10000 6.7 30 06:19 18.08.2019
3486 Clouds 8 1001 81 10000 11.3 20 04:59 18.08.2019
3487 Clouds 8 1002 81 10000 10.8 20 03:46 18.08.2019
3488 Clouds 8 1001 87 10000 9.8 20 02:50 18.08.2019
3489 Clear 7 1001 65 10000 10.3 20 02:26 18.08.2019
3490 Clouds 9 1001 81 10000 9.3 20 01:53 18.08.2019
3491 Clouds 8 1001 61 10000 8.7 20 01:25 18.08.2019
3492 Clear 9 1000 61 10000 10.3 20 00:40 18.08.2019
3493 Clear 9 1000 61 10000 10.3 20 00:19 18.08.2019
3494 Clear 10 1001 76 10000 9.8 20 23:57 17.08.2019
3495 Clear 10 1000 57 10000 8.2 360 23:37 17.08.2019
3496 Clear 10 1000 57 10000 8.2 360 23:19 17.08.2019
3497 Clear 11 1000 76 10000 9.8 10 22:57 17.08.2019
3498 Clear 10 1000 62 10000 8.7 20 22:38 17.08.2019
3499 Clear 10 1000 62 10000 8.7 20 22:20 17.08.2019
3500 Clear 11 1000 58 10000 8.7 20 21:43 17.08.2019
3501 Clear 11 1000 58 10000 8.7 20 21:25 17.08.2019
3502 Clouds 12 1000 71 10000 11.8 10 20:58 17.08.2019
3503 Clouds 12 999 54 10000 8.7 20 20:37 17.08.2019
3504 Clouds 12 999 54 10000 8.7 20 20:18 17.08.2019
3505 Clouds 12 1000 71 10000 11.8 10 19:43 17.08.2019
3506 Clouds 12 999 50 10000 9.3 20 19:24 17.08.2019
3507 Clouds 13 999 66 10000 11.3 20 18:58 17.08.2019
3508 Clouds 13 999 54 10000 10.3 20 18:38 17.08.2019
3509 Clouds 13 999 54 10000 10.3 20 18:18 17.08.2019
3510 Clouds 13 999 62 10000 12.3 20 17:43 17.08.2019
3511 Clouds 13 999 50 10000 10.8 20 17:22 17.08.2019
3512 Clouds 12 999 66 10000 12.9 20 16:57 17.08.2019
3513 Clouds 12 999 58 10000 10.3 20 16:38 17.08.2019
3514 Clouds 13 999 58 10000 10.3 20 16:20 17.08.2019
3515 Clouds 13 999 66 10000 13.9 20 15:54 17.08.2019
3516 Clouds 13 999 66 10000 13.9 20 15:54 17.08.2019
3517 Clouds 13 998 54 10000 10.3 10 15:36 17.08.2019
3518 Clouds 13 998 54 10000 10.3 10 15:18 17.08.2019
3519 Clouds 13 998 47 10000 6.7 20 14:40 17.08.2019
3520 Clouds 13 998 47 10000 6.7 20 14:21 17.08.2019
3521 Clouds 12 998 66 10000 10.8 20 13:45 17.08.2019
3522 Clouds 12 998 54 10000 7.2 20 13:21 17.08.2019
3523 Clear 12 997 54 10000 7.7 20 12:46 17.08.2019
3524 Clear 12 997 54 10000 7.7 20 12:46 17.08.2019
3525 Clear 12 997 54 10000 7.7 20 12:21 17.08.2019
3526 Clouds 11 997 76 10000 11.3 20 11:59 17.08.2019
3527 Clouds 11 997 57 10000 7.7 10 11:39 17.08.2019
3528 Clouds 11 997 57 10000 7.7 10 11:20 17.08.2019
3529 Clouds 10 997 81 10000 11.3 20 10:44 17.08.2019
3530 Clouds 10 997 61 10000 4.6 20 10:25 17.08.2019
3531 Clouds 10 997 61 10000 4.6 20 10:25 17.08.2019
3532 Clouds 9 997 81 10000 11.8 20 09:59 17.08.2019
3533 Clouds 9 996 66 10000 4.1 0 09:41 17.08.2019
3534 Clouds 9 996 66 10000 4.1 0 09:41 17.08.2019
3535 Clouds 9 996 66 10000 4.1 0 09:23 17.08.2019
3536 Clouds 8 996 87 10000 10.8 20 08:52 17.08.2019
3537 Clear 8 996 61 10000 7.2 10 08:23 17.08.2019
3538 Clear 8 996 61 10000 4.1 10 07:44 17.08.2019
3539 Clear 8 996 61 10000 4.1 10 07:20 17.08.2019
3540 Clear 8 996 66 10000 8.7 10 06:34 17.08.2019
3541 Clouds 8 996 81 10000 11.3 30 04:48 17.08.2019
3542 Clear 8 995 66 10000 11.3 20 04:23 17.08.2019
3543 Clear 8 996 81 10000 10.8 20 02:45 17.08.2019
3544 Clouds 9 995 61 10000 12.3 30 01:40 17.08.2019
3545 Clouds 9 995 61 10000 12.3 30 01:21 17.08.2019
3546 Clear 9 996 81 10000 10.3 20 00:48 17.08.2019
3547 Clear 9 996 66 10000 11.3 30 00:26 17.08.2019
3548 Clear 10 996 76 10000 10.3 20 23:47 16.08.2019
3549 -273 0 0 0 0 0 23:25 16.08.2019
3550 Clear 12 995 71 10000 12.9 30 22:44 16.08.2019
3551 Clear 12 995 54 10000 9.8 20 22:20 16.08.2019
3552 Clear 13 995 76 10000 12.9 20 21:59 16.08.2019
3553 Clear 13 994 79 10000 8.7 30 21:39 16.08.2019
3554 Clear 13 994 55 10000 8.7 30 21:19 16.08.2019
3555 Clear 14 995 76 10000 10.8 10 20:43 16.08.2019
3556 Clear 14 995 76 10000 10.8 10 20:43 16.08.2019
3557 Clear 15 994 31 10000 8.2 30 20:22 16.08.2019
3558 Clear 15 994 58 10000 9.3 30 19:59 16.08.2019
3559 Clear 15 994 31 10000 8.7 20 19:40 16.08.2019
3560 Clear 15 994 31 10000 8.7 20 19:22 16.08.2019
3561 Clouds 15 994 31 10000 9.8 30 18:43 16.08.2019
3562 Clouds 16 994 31 10000 9.8 30 18:25 16.08.2019
3563 Clear 15 994 58 10000 9.8 20 17:56 16.08.2019
3564 Clear 15 994 31 10000 8.7 20 17:37 16.08.2019
3565 Clear 15 994 31 10000 8.7 20 17:18 16.08.2019
3566 Clear 15 995 31 10000 7.2 10 16:41 16.08.2019
3567 Clear 15 995 31 10000 7.2 10 16:21 16.08.2019
3568 Clear 15 995 54 10000 9.3 20 15:57 16.08.2019
3569 Clear 15 995 51 10000 6.7 10 15:39 16.08.2019
3570 Clear 15 995 60 10000 6.7 10 15:21 16.08.2019
3571 Clear 14 995 62 10000 9.3 20 14:57 16.08.2019
3572 Clouds 13 995 47 10000 5.7 20 14:38 16.08.2019
3573 Clouds 13 995 47 10000 5.7 20 14:18 16.08.2019
3574 -273 0 0 0 0 0 13:41 16.08.2019
3575 Clouds 12 996 54 10000 6.7 20 13:23 16.08.2019
3576 Clear 12 996 71 10000 9.3 30 12:56 16.08.2019
3577 Clouds 11 996 57 10000 6.2 360 12:37 16.08.2019
3578 Clouds 10 996 57 10000 6.2 360 12:19 16.08.2019
3579 Clouds 10 996 61 10000 7.2 360 11:42 16.08.2019
3580 Clouds 10 996 61 10000 7.2 360 11:41 16.08.2019
3581 Clouds 10 996 61 10000 7.2 360 11:23 16.08.2019
3582 Clouds 9 997 66 10000 8.7 10 10:43 16.08.2019
3583 Clouds 9 997 66 10000 8.7 10 10:25 16.08.2019
3584 Clouds 9 997 81 10000 7.2 40 09:56 16.08.2019
3585 Clear 8 997 75 10000 0.5 0 09:37 16.08.2019
3586 Clear 8 997 75 10000 0.5 0 09:37 16.08.2019
3587 Clear 8 997 75 10000 0.5 0 09:18 16.08.2019
3588 Clear 8 997 75 10000 3.6 40 08:41 16.08.2019
3589 Clear 8 997 75 10000 3.6 40 08:21 16.08.2019
3590 Clear 7 997 87 10000 4.1 30 07:53 16.08.2019
3591 Clear 6 997 86 10000 4.66 38.848 07:32 16.08.2019
3592 Clear 6 997 87 10000 3.6 40 06:57 16.08.2019
3593 Clear 6 998 80 10000 1 0 06:21 16.08.2019
3594 Clear 7 998 75 10000 2.1 30 05:40 16.08.2019
3595 Clear 7 998 75 10000 2.6 100 04:28 16.08.2019
3596 Clear 8 999 76 10000 1 0 02:40 16.08.2019
3597 Rain 7 999 76 10000 1.5 110 01:30 16.08.2019
3598 Rain 7 999 93 10000 2.1 180 00:59 16.08.2019
3599 Rain 8 999 76 10000 1.5 110 00:40 16.08.2019
3600 Rain 8 999 76 10000 1.5 110 00:20 16.08.2019
3601 Rain 10 999 71 10000 2.6 170 23:44 15.08.2019
3602 Rain 10 999 71 10000 2.6 170 23:21 15.08.2019
3603 Rain 11 999 76 10000 3.6 30 22:57 15.08.2019
3604 Rain 11 999 66 10000 1.5 200 22:39 15.08.2019
3605 Rain 11 999 66 10000 1.5 200 22:39 15.08.2019
3606 Rain 11 999 66 10000 1.5 200 22:20 15.08.2019
3607 Clouds 11 999 76 10000 4.6 30 21:54 15.08.2019
3608 Clouds 11 999 62 10000 3.1 330 21:36 15.08.2019
3609 Clouds 12 999 62 10000 3.1 330 21:18 15.08.2019
3610 Clouds 13 999 66 10000 2.6 60 20:42 15.08.2019
3611 Rain 12 999 66 10000 2.6 270 20:21 15.08.2019
3612 Rain 12 999 66 10000 2.6 270 20:21 15.08.2019
3613 Rain 12 999 66 10000 2.6 270 20:21 15.08.2019
3614 Rain 13 1000 71 10000 3.1 310 19:57 15.08.2019
3615 Rain 12 1000 71 10000 3.1 260 19:38 15.08.2019
3616 Rain 12 1000 71 10000 3.1 260 19:20 15.08.2019
3617 Rain 11 1000 66 10000 2.1 0 18:47 15.08.2019
3618 Rain 13 1000 62 10000 2.6 330 18:23 15.08.2019
3619 Rain 13 1000 66 10000 3.6 160 17:57 15.08.2019
3620 Rain 13 1000 66 10000 3.6 160 17:57 15.08.2019
3621 Rain 12 1000 50 10000 3.1 310 17:37 15.08.2019
3622 Rain 13 1000 50 10000 3.1 310 17:19 15.08.2019
3623 Rain 13 1000 58 10000 4.1 40 16:56 15.08.2019
3624 Rain 13 1000 50 10000 3.6 320 16:38 15.08.2019
3625 Rain 12 1000 50 10000 3.6 320 16:20 15.08.2019
3626 Rain 12 1001 50 10000 3.1 340 15:38 15.08.2019
3627 Rain 12 1001 50 10000 3.1 340 15:19 15.08.2019
3628 Rain 12 1001 62 10000 3.1 60 14:55 15.08.2019
3629 Rain 12 1001 50 10000 2.6 350 14:36 15.08.2019
3630 Rain 11 1001 50 10000 2.6 350 14:18 15.08.2019
3631 Rain 11 1001 66 10000 3.6 50 13:55 15.08.2019
3632 Rain 11 1001 57 10000 2.1 350 13:36 15.08.2019
3633 Rain 11 1001 57 10000 2.1 350 13:18 15.08.2019
3634 Clouds 10 1001 57 10000 2.6 100 12:40 15.08.2019
3635 Clouds 10 1001 57 10000 2.6 100 12:20 15.08.2019
3636 Clouds 10 1002 71 10000 3.6 70 11:57 15.08.2019
3637 Clear 9 1002 61 10000 2.6 50 11:37 15.08.2019
3638 Clear 9 1002 61 10000 2.6 50 11:18 15.08.2019
3639 Clouds 9 1002 71 10000 4.6 60 10:58 15.08.2019
3640 Clear 8 1002 66 10000 2.6 40 10:37 15.08.2019
3641 Clear 8 1002 66 10000 2.6 40 10:18 15.08.2019
3642 Clear 7 1002 70 10000 3.1 90 09:43 15.08.2019
3643 Clear 6 1002 70 10000 3.1 90 09:22 15.08.2019
3644 Clear 6 1002 75 10000 1 0 08:39 15.08.2019
3645 Clear 5 1002 75 10000 1 0 08:21 15.08.2019
3646 Clouds 5 1002 93 10000 2.6 70 07:56 15.08.2019
3647 Clear 5 1002 75 10000 1.5 60 07:38 15.08.2019
3648 Clear 5 1002 75 10000 1.5 60 07:20 15.08.2019
3649 Clear 5 1002 81 10000 3.1 70 06:47 15.08.2019
3650 Clear 5 1002 75 10000 0.5 0 06:25 15.08.2019
3651 Clear 6 1002 75 10000 2.1 110 05:30 15.08.2019
3652 Clear 6 1002 87 10000 3.1 40 04:57 15.08.2019
3653 Clear 6 1002 87 10000 3.6 20 03:53 15.08.2019
3654 Clouds 6 1003 75 10000 2.1 120 03:19 15.08.2019
3655 Clouds 7 1003 65 10000 3.46 10.345 02:26 15.08.2019
3656 Clear 8 1003 81 10000 5.1 20 01:41 15.08.2019
3657 Rain 9 1003 87 10000 6.2 20 00:56 15.08.2019
3658 Rain 9 1003 61 10000 2.1 130 00:36 15.08.2019
3659 Rain 9 1003 61 10000 2.1 130 00:18 15.08.2019
3660 -273 0 0 0 0 0 23:55 14.08.2019
3661 Rain 10 1003 57 10000 6.7 360 23:36 14.08.2019
3662 Rain 9 1003 57 10000 6.7 360 23:18 14.08.2019
3663 Rain 10 1003 58 10000 8.2 10 22:41 14.08.2019
3664 Rain 10 1003 58 10000 8.2 10 22:22 14.08.2019
3665 Clear 11 1004 76 10000 7.2 10 21:57 14.08.2019
3666 Clouds 11 1003 58 10000 7.7 10 21:39 14.08.2019
3667 Clouds 11 1003 58 10000 7.7 10 21:39 14.08.2019
3668 Clouds 11 1003 58 10000 7.7 10 21:20 14.08.2019
3669 Clouds 11 1004 71 10000 7.7 10 20:56 14.08.2019
3670 Clouds 11 1003 58 10000 8.2 360 20:38 14.08.2019
3671 Clouds 11 1003 58 10000 8.2 360 20:18 14.08.2019
3672 Rain 13 1003 54 10000 7.2 10 19:41 14.08.2019
3673 Rain 12 1003 54 10000 7.2 10 19:22 14.08.2019
3674 Rain 13 1004 66 10000 7.7 350 18:59 14.08.2019
3675 Rain 12 1003 54 10000 5.7 340 18:41 14.08.2019
3676 Rain 12 1003 54 10000 5.7 340 18:23 14.08.2019
3677 Rain 12 1004 66 10000 8.2 360 17:59 14.08.2019
3678 Rain 12 1004 62 10000 5.7 330 17:40 14.08.2019
3679 Rain 12 1004 62 10000 5.7 330 17:22 14.08.2019
3680 Clouds 12 1005 66 10000 7.7 10 16:57 14.08.2019
3681 Clouds 12 1005 66 10000 7.7 10 16:57 14.08.2019
3682 Clouds 11 1004 58 10000 5.1 340 16:39 14.08.2019
3683 Clouds 11 1004 58 10000 5.1 340 16:19 14.08.2019
3684 Clouds 11 1005 50 10000 4.1 330 15:43 14.08.2019
3685 Clouds 11 1005 50 10000 4.1 330 15:43 14.08.2019
3686 Clouds 11 1005 50 10000 4.1 330 15:19 14.08.2019
3687 Clouds 11 1005 50 10000 4.1 330 15:19 14.08.2019
3688 Clouds 11 1006 71 10000 7.7 10 14:57 14.08.2019
3689 Clouds 10 1005 62 10000 5.7 330 14:39 14.08.2019
3690 Clouds 10 1005 62 10000 5.7 330 14:19 14.08.2019
3691 Clouds 10 1005 53 10000 3.1 20 13:44 14.08.2019
3692 Clouds 10 1005 53 10000 3.1 20 13:25 14.08.2019
3693 Clouds 11 1006 71 10000 7.7 20 12:59 14.08.2019
3694 Clouds 10 1006 57 10000 1.5 0 12:40 14.08.2019
3695 Clouds 10 1006 57 10000 1.5 0 12:22 14.08.2019
3696 Clouds 9 1006 76 10000 7.7 30 11:58 14.08.2019
3697 Clouds 9 1006 66 10000 2.1 230 11:40 14.08.2019
3698 Clouds 9 1006 66 10000 2.1 230 11:21 14.08.2019
3699 Clouds 8 1007 70 10000 8.2 20 10:45 14.08.2019
3700 Clear 8 1006 70 10000 0.5 0 10:25 14.08.2019
3701 Clouds 6 1007 81 10000 8.2 20 09:59 14.08.2019
3702 Clear 7 1006 70 10000 2.6 120 09:41 14.08.2019
3703 Clear 7 1006 70 10000 2.6 120 09:20 14.08.2019
3704 Clear 6 1006 75 10000 2.1 110 08:41 14.08.2019
3705 Clear 6 1006 75 10000 2.1 110 08:23 14.08.2019
3706 Clouds 6 1007 87 10000 6.7 30 07:54 14.08.2019
3707 Clear 6 1007 75 10000 3.1 120 07:34 14.08.2019
3708 Clouds 6 1007 81 10000 6.7 30 06:49 14.08.2019
3709 Clear 6 1007 75 10000 1.5 130 06:18 14.08.2019
3710 Clear 6 1007 75 10000 1.5 170 05:28 14.08.2019
3711 Clear 6 1007 75 10000 1.5 170 05:28 14.08.2019
3712 Clear 7 1007 75 10000 1 0 03:38 14.08.2019
3713 Clear 8 1008 70 10000 2.1 170 02:36 14.08.2019
3714 Clouds 8 1008 81 10000 7.2 40 01:55 14.08.2019
3715 Clear 8 1008 65 10000 1 0 01:21 14.08.2019
3716 Clear 9 1007 61 10000 3.1 20 00:23 14.08.2019
3717 Clear 9 1008 61 10000 2.6 350 23:40 13.08.2019
3718 Clear 9 1008 61 10000 2.6 350 23:19 13.08.2019
3719 Clouds 9 1008 61 10000 8.7 360 22:43 13.08.2019
3720 Clouds 9 1008 61 10000 8.7 360 22:24 13.08.2019
3721 Clouds 10 1009 76 10000 9.3 10 21:59 13.08.2019
3722 Clouds 10 1008 57 10000 8.7 10 21:39 13.08.2019
3723 Clouds 11 1008 57 10000 8.7 10 21:20 13.08.2019
3724 Clouds 11 1009 71 10000 10.3 30 20:58 13.08.2019
3725 Clouds 11 1009 57 10000 10.8 10 20:40 13.08.2019
3726 Clouds 11 1009 57 10000 10.8 10 20:19 13.08.2019
3727 Clouds 11 1009 66 10000 11.3 20 19:56 13.08.2019
3728 Clouds 11 1009 62 10000 10.3 10 19:37 13.08.2019
3729 Clouds 11 1009 62 10000 10.3 10 19:19 13.08.2019
3730 Rain 12 1009 54 10000 8.7 20 18:41 13.08.2019
3731 Rain 11 1009 54 10000 8.7 20 18:22 13.08.2019
3732 Rain 12 1010 71 10000 11.8 10 17:54 13.08.2019
3733 Rain 12 1009 50 10000 10.3 10 17:36 13.08.2019
3734 Rain 12 1009 50 10000 10.3 10 17:18 13.08.2019
3735 Clouds 11 1011 71 10000 11.8 10 16:54 13.08.2019
3736 Clouds 11 1011 71 10000 11.8 10 16:54 13.08.2019
3737 Clouds 11 1010 54 10000 9.3 10 16:36 13.08.2019
3738 Clouds 11 1010 54 10000 9.3 10 16:18 13.08.2019
3739 Rain 11 1010 54 10000 9.8 10 15:38 13.08.2019
3740 Rain 11 1010 54 10000 9.8 10 15:20 13.08.2019
3741 Clouds 11 1011 71 10000 10.8 20 14:47 13.08.2019
3742 Clouds 11 1010 54 10000 7.2 350 14:21 13.08.2019
3743 Clouds 10 1011 71 10000 11.3 10 13:59 13.08.2019
3744 Clouds 10 1010 57 10000 8.2 360 13:41 13.08.2019
3745 Clouds 10 1010 57 10000 8.2 360 13:21 13.08.2019
3746 Clouds 9 1011 76 10000 11.3 10 12:57 13.08.2019
3747 Clouds 9 1011 57 10000 9.3 10 12:39 13.08.2019
3748 Clouds 9 1011 57 10000 9.3 10 12:21 13.08.2019
3749 Clouds 9 1012 76 10000 10.8 20 11:43 13.08.2019
3750 Clouds 9 1011 61 10000 9.8 10 11:23 13.08.2019
3751 Clouds 9 1012 76 10000 10.8 10 10:59 13.08.2019
3752 Clouds 9 1011 66 10000 7.7 360 10:39 13.08.2019
3753 Clouds 9 1011 66 10000 7.7 360 10:20 13.08.2019
3754 Clouds 8 1012 81 10000 9.8 10 09:58 13.08.2019
3755 Clouds 8 1011 70 10000 6.7 350 09:40 13.08.2019
3756 Clouds 8 1011 70 10000 6.7 350 09:22 13.08.2019
3757 Clouds 8 1011 81 10000 7.7 340 08:42 13.08.2019
3758 Clouds 8 1011 81 10000 7.7 340 08:22 13.08.2019
3759 Rain 8 1012 75 10000 10.8 350 07:51 13.08.2019
3760 Rain 8 1011 75 10000 6.2 340 07:31 13.08.2019
3761 Rain 8 1011 75 10000 7.2 340 06:45 13.08.2019
3762 Rain 8 1011 75 10000 7.2 340 06:23 13.08.2019
3763 Rain 8 1011 70 10000 7.2 340 05:33 13.08.2019
3764 Clouds 8 1012 65 10000 9.3 340 02:37 13.08.2019
3765 Clouds 8 1013 70 10000 11.8 350 01:55 13.08.2019
3766 Clouds 8 1013 70 10000 11.3 360 00:54 13.08.2019
3767 Clouds 8 1012 65 10000 8.7 340 00:35 13.08.2019
3768 Rain 8 1013 70 10000 10.8 360 23:48 12.08.2019
3769 Rain 9 1012 61 10000 8.2 330 23:24 12.08.2019
3770 Rain 8 1013 66 10000 12.3 360 22:57 12.08.2019
3771 Rain 8 1012 70 10000 6.7 330 22:38 12.08.2019
3772 Rain 8 1012 70 10000 6.7 330 22:19 12.08.2019
3773 Rain 9 1013 66 10000 12.3 360 21:55 12.08.2019
3774 Rain 9 1011 61 10000 8.2 340 21:36 12.08.2019
3775 Rain 9 1011 61 10000 8.2 340 21:18 12.08.2019
3776 Drizzle 9 1013 66 10000 9.8 360 20:55 12.08.2019
3777 Drizzle 9 1011 66 10000 8.7 350 20:36 12.08.2019
3778 Drizzle 9 1011 66 10000 8.7 350 20:18 12.08.2019
3779 Rain 10 1012 61 10000 12.9 360 19:54 12.08.2019
3780 Rain 10 1011 53 10000 8.2 330 19:36 12.08.2019
3781 Rain 10 1011 53 10000 8.2 330 19:18 12.08.2019
3782 Rain 10 1013 62 10000 11.3 360 18:54 12.08.2019
3783 Rain 9 1012 66 10000 8.7 330 18:36 12.08.2019
3784 Rain 10 1012 66 10000 8.7 330 18:18 12.08.2019
3785 Drizzle 10 1012 57 10000 7.7 340 17:40 12.08.2019
3786 Drizzle 10 1012 57 10000 7.7 340 17:21 12.08.2019
3787 Rain 10 1012 61 10000 10.3 330 16:56 12.08.2019
3788 Rain 10 1012 61 10000 10.3 330 16:56 12.08.2019
3789 Rain 10 1011 57 10000 8.7 330 16:37 12.08.2019
3790 Rain 10 1011 57 10000 8.7 330 16:19 12.08.2019
3791 -273 0 0 0 0 0 15:55 12.08.2019
3792 Clouds 10 1012 57 10000 6.7 330 15:36 12.08.2019
3793 Clouds 10 1012 57 10000 6.7 330 15:36 12.08.2019
3794 Clouds 10 1012 57 10000 6.7 330 15:18 12.08.2019
3795 Clouds 9 1012 57 10000 7.2 330 14:42 12.08.2019
3796 Clouds 9 1012 57 10000 7.2 330 14:23 12.08.2019
3797 Clouds 9 1013 61 10000 11.3 330 13:58 12.08.2019
3798 Clouds 9 1013 61 10000 11.3 330 13:58 12.08.2019
3799 Clouds 9 1012 57 10000 6.7 340 13:40 12.08.2019
3800 Clouds 9 1012 57 10000 6.7 340 13:21 12.08.2019
3801 Clouds 9 1012 62 10000 9.3 340 12:43 12.08.2019
3802 Clouds 9 1013 66 10000 9.8 340 12:43 12.08.2019
3803 Clouds 10 1012 64 10000 9.3 340 12:21 12.08.2019
3804 Clouds 9 1013 71 10000 10.3 340 11:47 12.08.2019
3805 Clouds 9 1013 71 10000 10.3 340 11:47 12.08.2019
3806 Clouds 9 1012 64 10000 8.7 350 11:29 12.08.2019
3807 Clouds 9 1013 66 10000 10.8 340 10:59 12.08.2019
3808 Clouds 9 1012 57 10000 7.2 340 10:40 12.08.2019
3809 Clouds 9 1012 57 10000 7.2 340 10:22 12.08.2019
3810 Clouds 9 1013 76 10000 9.8 320 09:55 12.08.2019
3811 Clouds 9 1013 57 10000 6.2 330 09:37 12.08.2019
3812 Clouds 9 1013 57 10000 6.2 330 09:37 12.08.2019
3813 Clouds 10 1013 57 10000 6.2 330 09:18 12.08.2019
3814 Clouds 9 1013 57 10000 8.2 330 08:41 12.08.2019
3815 Clouds 9 1013 57 10000 8.2 330 08:23 12.08.2019
3816 Clouds 9 1014 76 10000 10.3 340 07:56 12.08.2019
3817 Clouds 9 1013 66 10000 8.2 330 07:36 12.08.2019
3818 Clouds 9 1014 70 10000 7.7 340 06:58 12.08.2019
3819 Clouds 9 1013 66 10000 9.8 340 06:22 12.08.2019
3820 Clouds 9 1014 61 10000 6.7 340 04:31 12.08.2019
3821 Clouds 8 1015 66 10000 9.8 360 02:43 12.08.2019
3822 Clouds 8 1015 66 10000 8.2 350 01:49 12.08.2019
3823 Clouds 8 1014 65 10000 5.7 330 01:19 12.08.2019
3824 Clouds 8 1015 70 10000 6.7 360 00:56 12.08.2019
3825 Clouds 8 1015 57 10000 5.7 350 00:37 12.08.2019
3826 Clouds 8 1015 57 10000 5.7 350 00:18 12.08.2019
3827 Clouds 9 1015 57 10000 7.2 360 23:41 11.08.2019
3828 Clouds 9 1015 57 10000 7.2 360 23:20 11.08.2019
3829 Clouds 9 1015 70 10000 9.3 10 22:58 11.08.2019
3830 Clouds 9 1014 57 10000 7.7 360 22:39 11.08.2019
3831 Clouds 9 1014 57 10000 7.7 360 22:19 11.08.2019
3832 Clouds 9 1015 66 10000 10.3 10 21:58 11.08.2019
3833 Clouds 9 1014 53 10000 10.8 360 21:39 11.08.2019
3834 Clouds 9 1014 53 10000 10.8 360 21:19 11.08.2019
3835 Clouds 9 1015 66 10000 11.8 360 20:45 11.08.2019
3836 Clouds 9 1014 53 10000 9.8 360 20:24 11.08.2019
3837 Clouds 10 1015 61 10000 12.3 350 19:59 11.08.2019
3838 Clouds 10 1015 61 10000 12.3 350 19:59 11.08.2019
3839 Clouds 10 1014 50 10000 7.2 350 19:41 11.08.2019
3840 Clouds 10 1014 50 10000 7.2 350 19:18 11.08.2019
3841 Rain 10 1013 50 10000 12.9 360 18:41 11.08.2019
3842 Rain 10 1013 50 10000 12.9 360 18:21 11.08.2019
3843 Clouds 10 1015 66 10000 11.8 360 17:57 11.08.2019
3844 Clouds 11 1014 46 10000 12.3 360 17:39 11.08.2019
3845 Clouds 11 1014 46 10000 12.3 360 17:20 11.08.2019
3846 Clouds 11 1015 62 10000 12.3 360 16:55 11.08.2019
3847 Clouds 11 1014 50 10000 10.3 360 16:37 11.08.2019
3848 Clouds 11 1014 50 10000 10.3 360 16:18 11.08.2019
3849 Clouds 11 1015 46 10000 10.8 10 15:43 11.08.2019
3850 Clouds 11 1015 46 10000 10.8 10 15:43 11.08.2019
3851 Clouds 11 1015 46 10000 10.8 10 15:24 11.08.2019
3852 Clouds 10 1016 66 10000 10.8 360 14:57 11.08.2019
3853 Clouds 10 1015 57 10000 7.2 350 14:38 11.08.2019
3854 Clouds 10 1015 57 10000 7.2 350 14:19 11.08.2019
3855 Clouds 10 1016 66 10000 10.8 10 13:44 11.08.2019
3856 Clouds 10 1015 53 10000 8.7 360 13:24 11.08.2019
3857 Clouds 10 1016 66 10000 11.8 10 12:48 11.08.2019
3858 Clouds 10 1015 53 10000 10.8 360 12:23 11.08.2019
3859 Clouds 9 1016 70 10000 9.8 10 11:57 11.08.2019
3860 Clouds 9 1015 66 10000 7.2 10 11:38 11.08.2019
3861 Clouds 9 1015 66 10000 7.2 10 11:20 11.08.2019
3862 Clouds 9 1016 76 10000 8.7 10 10:41 11.08.2019
3863 Clouds 9 1015 66 10000 8.7 10 10:22 11.08.2019
3864 Clouds 8 1016 76 10000 9.8 20 09:59 11.08.2019
3865 Clouds 8 1015 70 10000 8.7 10 09:40 11.08.2019
3866 Clouds 8 1015 70 10000 8.7 10 09:22 11.08.2019
3867 Clouds 8 1016 81 10000 9.3 10 08:48 11.08.2019
3868 Clouds 8 1015 70 10000 6.7 360 08:28 11.08.2019
3869 Clouds 8 1015 81 10000 8.7 10 07:56 11.08.2019
3870 Clouds 8 1015 70 10000 6.7 340 07:26 11.08.2019
3871 Clouds 8 1015 70 10000 6.7 340 06:45 11.08.2019
3872 Clouds 8 1015 70 10000 6.7 340 06:21 11.08.2019
3873 Clouds 8 1015 65 10000 9.3 360 04:37 11.08.2019
3874 Clouds 8 1016 75 10000 8.7 10 02:49 11.08.2019
3875 Clouds 8 1016 70 10000 7.7 10 01:51 11.08.2019
3876 Clouds 8 1015 61 10000 9.3 10 01:26 11.08.2019
3877 Clouds 9 1016 66 10000 7.7 10 00:53 11.08.2019
3878 Clouds 8 1015 57 10000 8.7 10 00:33 11.08.2019
3879 Clouds 9 1016 66 10000 8.7 10 23:49 10.08.2019
3880 Clouds 9 1015 70 10000 7.7 10 23:29 10.08.2019
3881 Clouds 10 1016 66 10000 9.3 20 22:45 10.08.2019
3882 Clouds 10 1015 53 10000 7.7 20 22:26 10.08.2019
3883 Clouds 11 1016 61 10000 9.3 10 21:58 10.08.2019
3884 Clouds 11 1015 50 10000 9.8 360 21:39 10.08.2019
3885 Clouds 11 1015 50 10000 9.8 360 21:21 10.08.2019
3886 Clouds 11 1016 66 10000 10.8 360 20:57 10.08.2019
3887 Clouds 11 1015 50 10000 9.8 360 20:39 10.08.2019
3888 Clouds 11 1015 50 10000 9.8 360 20:18 10.08.2019
3889 Clouds 12 1014 43 10000 9.3 10 19:41 10.08.2019
3890 Clouds 12 1014 43 10000 9.3 10 19:22 10.08.2019
3891 Clouds 12 1014 46 10000 11.3 10 18:42 10.08.2019
3892 Clouds 12 1014 46 10000 11.3 10 18:23 10.08.2019
3893 Clouds 12 1015 58 10000 10.8 30 17:56 10.08.2019
3894 Clouds 12 1015 58 10000 10.8 30 17:56 10.08.2019
3895 Clouds 12 1014 50 10000 10.3 20 17:37 10.08.2019
3896 Clouds 12 1014 50 10000 10.3 20 17:18 10.08.2019
3897 Clouds 11 1015 62 10000 11.3 30 16:42 10.08.2019
3898 Clouds 11 1014 53 10000 10.3 10 16:21 10.08.2019
3899 Clouds 11 1015 62 10000 11.8 20 15:44 10.08.2019
3900 Clouds 11 1014 59 10000 8.7 10 15:22 10.08.2019
3901 Clouds 10 1015 70 10000 9.3 20 14:44 10.08.2019
3902 Clouds 10 1014 57 10000 11.3 360 14:44 10.08.2019
3903 Clouds 10 1014 57 10000 11.3 360 14:19 10.08.2019
3904 Clouds 10 1014 57 10000 13.4 360 13:41 10.08.2019
3905 Clouds 10 1014 57 10000 13.4 360 13:20 10.08.2019
3906 Clouds 9 1015 66 10000 11.3 20 12:44 10.08.2019
3907 Clouds 9 1015 61 10000 12.9 10 12:24 10.08.2019
3908 Clouds 9 1015 70 10000 10.8 20 11:59 10.08.2019
3909 Clouds 9 1014 61 10000 12.9 360 11:40 10.08.2019
3910 Clouds 9 1014 61 10000 12.9 360 11:21 10.08.2019
3911 Clouds 9 1015 70 10000 10.3 30 10:55 10.08.2019
3912 Clouds 8 1014 61 10000 9.3 360 10:36 10.08.2019
3913 Clouds 8 1014 61 10000 9.3 360 10:18 10.08.2019
3914 Clouds 7 1014 75 10000 1 0 09:40 10.08.2019
3915 Clouds 7 1014 75 10000 1 0 09:22 10.08.2019
3916 Clouds 7 1014 75 10000 1.5 210 08:41 10.08.2019
3917 Clouds 7 1014 75 10000 1.5 210 08:20 10.08.2019
3918 Clouds 7 1015 81 10000 9.8 20 07:54 10.08.2019
3919 Clouds 7 1015 81 10000 9.8 20 07:54 10.08.2019
3920 Clouds 7 1014 75 10000 2.6 180 07:29 10.08.2019
3921 Clouds 7 1015 81 10000 7.7 20 06:49 10.08.2019
3922 Clouds 7 1014 70 10000 2.6 300 06:26 10.08.2019
3923 Clouds 7 1013 70 10000 2.1 150 05:25 10.08.2019
3924 Clouds 8 1014 70 10000 3.1 190 04:31 10.08.2019
3925 Clouds 9 1014 81 10000 9.3 30 02:56 10.08.2019
3926 Clouds 9 1014 61 10000 5.1 20 02:26 10.08.2019
3927 Clouds 9 1014 61 10000 3.1 40 01:42 10.08.2019
3928 Clouds 9 1014 61 10000 3.1 40 01:21 10.08.2019
3929 Clouds 10 1014 76 10000 10.3 30 00:48 10.08.2019
3930 Clouds 10 1013 62 10000 4.1 360 00:22 10.08.2019
3931 Clouds 10 1014 76 10000 9.3 30 23:44 09.08.2019
3932 Clouds 11 1013 62 10000 6.7 10 23:24 09.08.2019
3933 Clouds 12 1014 71 10000 9.3 20 22:58 09.08.2019
3934 Clear 12 1013 54 10000 7.7 360 22:39 09.08.2019
3935 Clear 12 1013 54 10000 7.7 360 22:39 09.08.2019
3936 Clear 12 1013 54 10000 7.7 360 22:20 09.08.2019
3937 Clear 13 1014 71 10000 9.8 20 21:55 09.08.2019
3938 Clear 12 1013 47 10000 7.2 10 21:36 09.08.2019
3939 Clear 13 1013 47 10000 7.2 10 21:18 09.08.2019
3940 Clear 13 1014 66 10000 10.3 20 20:54 09.08.2019
3941 Clear 13 1012 50 10000 8.7 360 20:36 09.08.2019
3942 Clear 13 1012 50 10000 8.7 360 20:18 09.08.2019
3943 Clear 13 1012 50 10000 8.7 360 20:18 09.08.2019
3944 Clear 12 1013 50 10000 9.3 350 19:41 09.08.2019
3945 Clear 12 1013 50 10000 9.3 350 19:20 09.08.2019
3946 Clouds 12 1013 50 10000 9.3 350 18:42 09.08.2019
3947 Clouds 13 1013 50 10000 9.3 350 18:22 09.08.2019
3948 Clouds 13 1014 62 10000 9.8 10 17:58 09.08.2019
3949 Clouds 13 1013 54 10000 10.3 350 17:40 09.08.2019
3950 Clouds 13 1013 54 10000 10.3 350 17:22 09.08.2019
3951 -273 0 0 0 0 0 16:42 09.08.2019
3952 Clouds 13 1013 50 10000 9.8 360 16:23 09.08.2019
3953 Clouds 13 1014 62 10000 11.8 20 15:58 09.08.2019
3954 Clear 13 1013 47 10000 7.7 360 15:39 09.08.2019
3955 Clear 13 1013 47 10000 7.7 360 15:20 09.08.2019
3956 Clouds 12 1014 66 10000 9.8 30 14:56 09.08.2019
3957 Clouds 13 1014 66 10000 9.8 30 14:56 09.08.2019
3958 Clear 13 1013 47 10000 4.6 20 14:37 09.08.2019
3959 Clear 13 1013 47 10000 4.6 20 14:19 09.08.2019
3960 Clouds 12 1014 71 10000 9.3 20 13:44 09.08.2019
3961 Clear 12 1013 54 10000 3.1 290 13:20 09.08.2019
3962 Clouds 12 1014 66 10000 8.2 20 12:47 09.08.2019
3963 Clear 11 1013 53 10000 1.5 210 12:25 09.08.2019
3964 Clouds 10 1014 71 10000 7.2 30 11:59 09.08.2019
3965 Clear 10 1013 61 10000 2.6 210 11:40 09.08.2019
3966 Clear 9 1013 61 10000 2.6 210 11:20 09.08.2019
3967 Clouds 10 1014 70 10000 8.7 30 10:41 09.08.2019
3968 Clouds 9 1013 61 10000 2.1 180 10:22 09.08.2019
3969 Clouds 8 1014 75 10000 8.2 30 09:59 09.08.2019
3970 Clouds 8 1013 70 10000 3.1 170 09:37 09.08.2019
3971 Clouds 8 1013 70 10000 3.1 170 09:18 09.08.2019
3972 Clear 6 1013 70 10000 1 0 08:44 09.08.2019
3973 Clear 6 1013 70 10000 1 0 08:25 09.08.2019
3974 Clear 6 1013 81 10000 8.2 10 07:55 09.08.2019
3975 Clear 6 1013 81 10000 8.2 10 07:55 09.08.2019
3976 Clouds 5 1014 81 10000 7.7 20 07:24 09.08.2019
3977 Clouds 6 1014 75 10000 7.7 30 06:59 09.08.2019
3978 Clear 6 1013 88 10000 1.5 130 06:38 09.08.2019
3979 Clear 6 1013 87 10000 1.5 130 06:20 09.08.2019
3980 Clear 7 1014 75 10000 7.2 10 04:57 09.08.2019
3981 Clear 8 1013 57 10000 4.6 350 02:26 09.08.2019
3982 Clear 9 1013 85 10000 7.2 340 01:21 09.08.2019
3983 Clouds 9 1014 53 10000 8.7 350 00:41 09.08.2019
3984 Clouds 9 1014 53 10000 8.7 350 00:22 09.08.2019
3985 Clear 10 1014 66 10000 8.2 30 23:56 08.08.2019
3986 Clouds 10 1013 50 10000 7.7 10 23:36 08.08.2019
3987 Clouds 10 1013 50 10000 7.7 10 23:18 08.08.2019
3988 Clouds 12 1013 69 10000 9.3 10 22:38 08.08.2019
3989 Clouds 12 1013 69 10000 9.3 10 22:19 08.08.2019
3990 Clear 13 1014 58 10000 8.2 30 21:59 08.08.2019
3991 Clouds 12 1013 43 10000 9.8 360 21:41 08.08.2019
3992 Clouds 12 1013 43 10000 9.8 360 21:22 08.08.2019
3993 Clear 13 1014 58 10000 9.3 20 20:57 08.08.2019
3994 Clear 13 1013 41 10000 7.2 10 20:39 08.08.2019
3995 Clear 13 1013 41 10000 7.2 10 20:19 08.08.2019
3996 Clear 13 1014 58 10000 9.8 30 19:48 08.08.2019
3997 Clear 13 1013 47 10000 9.3 360 19:28 08.08.2019
3998 Clear 14 1014 62 10000 9.8 20 18:54 08.08.2019
3999 Clear 13 1013 47 10000 9.8 360 18:36 08.08.2019
4000 Clear 14 1013 47 10000 9.8 360 18:18 08.08.2019
4001 Clear 15 1013 38 10000 7.7 20 17:41 08.08.2019
4002 Clear 14 1013 38 10000 7.7 20 17:23 08.08.2019
4003 Clear 14 1013 38 10000 7.7 20 17:23 08.08.2019
4004 Clear 14 1014 62 10000 10.3 20 16:56 08.08.2019
4005 Clear 14 1013 47 10000 8.2 20 16:37 08.08.2019
4006 Clear 14 1013 47 10000 8.2 20 16:37 08.08.2019
4007 Clear 14 1013 47 10000 8.2 20 16:19 08.08.2019
4008 Clear 14 1014 62 10000 9.3 20 15:56 08.08.2019
4009 Clear 14 1013 41 10000 3.6 360 15:37 08.08.2019
4010 Clear 14 1013 41 10000 3.6 360 15:19 08.08.2019
4011 Clear 13 1013 66 10000 2.6 240 14:37 08.08.2019
4012 Clear 13 1013 66 10000 2.6 240 14:18 08.08.2019
4013 Clear 13 1013 46 10000 3.6 270 13:41 08.08.2019
4014 Clear 12 1013 46 10000 3.6 270 13:23 08.08.2019
4015 Clear 12 1013 62 10000 6.7 40 12:57 08.08.2019
4016 Clear 11 1013 50 10000 3.1 290 12:37 08.08.2019
4017 Clear 11 1013 50 10000 3.1 290 12:18 08.08.2019
4018 Clear 10 1013 53 10000 3.6 40 11:42 08.08.2019
4019 Clear 10 1013 53 10000 3.6 40 11:23 08.08.2019
4020 Clear 10 1013 53 10000 3.6 40 11:23 08.08.2019
4021 Clear 9 1013 57 10000 2.1 100 10:41 08.08.2019
4022 Clear 9 1013 57 10000 2.1 100 10:41 08.08.2019
4023 Clear 9 1013 57 10000 2.1 100 10:22 08.08.2019
4024 Clear 8 1013 70 10000 9.8 40 09:57 08.08.2019
4025 Clear 8 1012 65 10000 3.1 100 09:39 08.08.2019
4026 Clear 7 1012 65 10000 3.1 100 09:19 08.08.2019
4027 Clear 6 1012 84 10000 1 0 08:40 08.08.2019
4028 Clear 5 1012 84 10000 1 0 08:21 08.08.2019
4029 Clear 5 1013 84 10000 2.6 90 07:42 08.08.2019
4030 Clear 5 1013 84 10000 2.6 90 07:21 08.08.2019
4031 Clear 5 1013 81 10000 7.2 30 06:59 08.08.2019
4032 Clear 5 1012 65 10000 2.6 110 06:41 08.08.2019
4033 Clear 6 1013 81 10000 7.7 20 05:55 08.08.2019
4034 Clear 6 1012 65 10000 3.6 120 05:28 08.08.2019
4035 Clear 7 1013 81 10000 8.2 20 03:57 08.08.2019
4036 Clear 7 1012 61 10000 4.6 120 03:35 08.08.2019
4037 Clear 9 1012 58 10000 5.32 38.35 01:42 08.08.2019
4038 Clear 10 1013 81 10000 6.2 360 00:57 08.08.2019
4039 Clear 11 1012 62 10000 1 0 00:21 08.08.2019
4040 Clear 12 1012 58 10000 5.1 350 23:38 07.08.2019
4041 Clear 12 1012 58 10000 5.1 350 23:18 07.08.2019
4042 Clear 13 1012 50 10000 5.1 350 22:41 07.08.2019
4043 Clear 13 1012 50 10000 5.1 350 22:21 07.08.2019
4044 Clear 14 1013 58 10000 7.7 360 21:58 07.08.2019
4045 Clear 14 1012 47 10000 5.1 350 21:40 07.08.2019
4046 Clear 14 1012 47 10000 5.1 350 21:40 07.08.2019
4047 Clear 15 1012 47 10000 5.1 350 21:21 07.08.2019
4048 Clear 15 1012 47 10000 5.1 350 21:21 07.08.2019
4049 Clear 15 1013 58 10000 7.2 360 20:59 07.08.2019
4050 Clear 15 1012 47 10000 6.2 350 20:41 07.08.2019
4051 Clear 15 1012 47 10000 6.2 350 20:20 07.08.2019
4052 Clear 14 1013 66 10000 6.7 360 19:56 07.08.2019
4053 Clear 14 1012 44 10000 5.7 350 19:36 07.08.2019
4054 Clear 14 1012 44 10000 5.7 350 19:36 07.08.2019
4055 Clear 14 1012 44 10000 5.7 350 19:18 07.08.2019
4056 Clear 15 1012 44 10000 5.1 360 18:40 07.08.2019
4057 Clear 15 1012 44 10000 5.1 360 18:20 07.08.2019
4058 Clear 15 1014 66 10000 7.7 360 17:56 07.08.2019
4059 Clear 15 1014 66 10000 7.7 360 17:56 07.08.2019
4060 Clear 15 1013 44 10000 4.1 330 17:38 07.08.2019
4061 Clear 15 1013 44 10000 4.1 330 17:19 07.08.2019
4062 Clouds 14 1014 62 10000 6.7 10 16:56 07.08.2019
4063 Clouds 14 1014 62 10000 6.7 10 16:56 07.08.2019
4064 Clear 14 1013 47 10000 4.6 320 16:38 07.08.2019
4065 Clear 14 1013 47 10000 4.6 320 16:19 07.08.2019
4066 Clouds 13 1014 66 10000 5.7 10 15:43 07.08.2019
4067 Clear 13 1013 54 10000 4.1 320 15:22 07.08.2019
4068 Clouds 12 1014 71 10000 4.6 10 14:57 07.08.2019
4069 Clear 12 1014 58 10000 4.1 340 14:39 07.08.2019
4070 Clear 12 1014 58 10000 4.1 340 14:21 07.08.2019
4071 Clouds 12 1014 58 10000 2.6 340 13:41 07.08.2019
4072 Clouds 12 1014 58 10000 2.6 340 13:19 07.08.2019
4073 Clouds 12 1014 76 10000 4.1 10 12:58 07.08.2019
4074 Clouds 12 1014 66 10000 3.1 20 12:39 07.08.2019
4075 Clouds 12 1014 66 10000 3.1 20 12:20 07.08.2019
4076 Clouds 11 1014 87 10000 4.1 30 11:58 07.08.2019
4077 Clouds 12 1014 71 10000 2.1 360 11:40 07.08.2019
4078 Clouds 11 1014 71 10000 2.1 360 11:19 07.08.2019
4079 Clouds 11 1014 71 10000 1.5 60 10:41 07.08.2019
4080 Clouds 11 1014 71 10000 1.5 60 10:20 07.08.2019
4081 Clouds 11 1014 93 10000 2.1 100 09:59 07.08.2019
4082 Clouds 11 1013 71 10000 2.6 60 09:41 07.08.2019
4083 Clouds 10 1013 71 10000 2.6 60 09:21 07.08.2019
4084 Clouds 9 1013 93 10000 2.6 60 08:45 07.08.2019
4085 Clouds 9 1013 71 10000 3.6 70 08:26 07.08.2019
4086 Clouds 8 1013 100 10000 2.6 70 07:52 07.08.2019
4087 Clouds 8 1013 76 10000 3.1 60 07:33 07.08.2019
4088 Clouds 8 1013 93 10000 0.5 50 06:57 07.08.2019
4089 Clouds 9 1013 81 10000 2.1 70 06:29 07.08.2019
4090 Clouds 8 1013 100 10000 3.1 10 05:46 07.08.2019
4091 Clouds 10 1013 87 10000 3.1 330 04:51 07.08.2019
4092 Clouds 11 1013 87 10000 5.1 200 03:21 07.08.2019
4093 Clear 11 1013 100 10000 4.6 270 02:44 07.08.2019
4094 Clear 11 1013 100 10000 4.6 260 01:58 07.08.2019
4095 Clouds 11 1013 81 10000 5.7 230 01:31 07.08.2019
4096 Clouds 12 1013 81 10000 4.6 250 00:39 07.08.2019
4097 Clouds 12 1013 81 10000 4.6 250 00:20 07.08.2019
4098 Clouds 12 1013 81 10000 4.6 260 23:41 06.08.2019
4099 Clouds 12 1013 81 10000 4.6 260 23:21 06.08.2019
4100 Clouds 13 1013 87 10000 4.6 260 22:56 06.08.2019
4101 Clouds 13 1013 76 10000 5.1 260 22:37 06.08.2019
4102 Clouds 13 1013 76 10000 5.1 260 22:18 06.08.2019
4103 Clouds 12 1013 76 10000 4.6 260 21:41 06.08.2019
4104 Clouds 13 1013 76 10000 4.6 260 21:21 06.08.2019
4105 Clouds 14 1013 87 10000 4.1 250 20:54 06.08.2019
4106 Clouds 14 1013 76 10000 5.1 270 20:36 06.08.2019
4107 Clouds 14 1013 76 10000 5.1 270 20:18 06.08.2019
4108 Clouds 14 1013 71 10000 5.1 250 19:42 06.08.2019
4109 Clouds 14 1013 71 10000 5.1 250 19:23 06.08.2019
4110 Rain 14 1013 93 10000 3.6 260 18:46 06.08.2019
4111 Rain 14 1013 71 10000 6.2 250 18:26 06.08.2019
4112 Rain 15 1013 100 10000 3.1 270 17:59 06.08.2019
4113 Rain 15 1013 67 10000 4.6 250 17:39 06.08.2019
4114 Rain 15 1013 67 10000 4.6 250 17:21 06.08.2019
4115 Rain 14 1013 87 10000 2.6 150 16:59 06.08.2019
4116 Rain 14 1013 67 10000 3.1 310 16:38 06.08.2019
4117 Rain 14 1013 67 10000 3.1 310 16:19 06.08.2019
4118 Rain 14 1013 87 10000 3.1 160 15:57 06.08.2019
4119 Rain 14 1013 62 10000 4.1 350 15:38 06.08.2019
4120 Rain 14 1013 62 10000 4.1 350 15:19 06.08.2019
4121 Rain 13 1013 62 10000 5.1 360 14:44 06.08.2019
4122 Rain 14 1013 62 10000 5.1 360 14:25 06.08.2019
4123 Rain 13 1013 87 10000 3.6 150 13:58 06.08.2019
4124 Rain 13 1013 66 10000 3.6 360 13:39 06.08.2019
4125 Rain 13 1013 66 10000 3.6 360 13:20 06.08.2019
4126 Drizzle 13 1013 100 7000 3.1 150 12:56 06.08.2019
4127 Drizzle 13 1013 62 10000 2.6 90 12:38 06.08.2019
4128 Drizzle 12 1013 62 10000 2.6 90 12:20 06.08.2019
4129 Drizzle 12 1012 62 10000 3.6 90 11:41 06.08.2019
4130 Drizzle 12 1012 62 10000 3.6 90 11:19 06.08.2019
4131 Drizzle 12 1012 66 10000 3.1 90 10:42 06.08.2019
4132 Drizzle 12 1012 66 10000 3.1 90 10:23 06.08.2019
4133 Drizzle 12 1012 93 4000 2.1 140 09:58 06.08.2019
4134 Mist 12 1012 76 10000 3.6 90 09:38 06.08.2019
4135 Mist 11 1012 76 10000 3.6 90 09:19 06.08.2019
4136 Clouds 10 1012 81 10000 3.6 100 08:42 06.08.2019
4137 Clouds 10 1012 81 10000 3.6 100 08:24 06.08.2019
4138 Clouds 10 1012 81 10000 3.1 90 07:36 06.08.2019
4139 Clouds 10 1012 93 10000 3.6 150 06:53 06.08.2019
4140 Clouds 10 1012 81 10000 3.6 90 06:35 06.08.2019
4141 Clouds 11 1011 93 10000 2.1 200 05:52 06.08.2019
4142 Clear 11 1012 81 10000 2.6 90 04:31 06.08.2019
4143 Rain 12 1011 87 10000 4.6 360 01:53 06.08.2019
4144 Rain 12 1011 82 10000 2.1 360 01:23 06.08.2019
4145 Clouds 13 1011 72 10000 0.5 0 00:29 06.08.2019
4146 Clear 14 1012 76 10000 5.7 330 23:46 05.08.2019
4147 Clear 14 1011 67 10000 3.92 48.403 23:19 05.08.2019
4148 Clear 15 1011 72 10000 6.2 290 22:41 05.08.2019
4149 Clear 15 1011 72 10000 6.2 290 22:23 05.08.2019
4150 Clear 15 1012 82 10000 6.2 320 21:55 05.08.2019
4151 Clear 15 1011 72 10000 6.7 290 21:36 05.08.2019
4152 Clear 16 1011 72 10000 6.7 290 21:18 05.08.2019
4153 Clear 16 1012 76 10000 7.7 310 20:54 05.08.2019
4154 Clouds 15 1011 67 10000 6.7 290 20:36 05.08.2019
4155 Clouds 16 1011 67 10000 6.7 290 20:18 05.08.2019
4156 Clouds 16 1011 67 10000 8.2 300 19:40 05.08.2019
4157 Clouds 16 1011 67 10000 8.2 300 19:22 05.08.2019
4158 Clouds 16 1012 67 10000 7.2 320 18:57 05.08.2019
4159 Clouds 16 1012 67 10000 7.2 320 18:57 05.08.2019
4160 Clouds 16 1012 67 10000 8.7 300 18:39 05.08.2019
4161 Clouds 16 1012 67 10000 8.7 300 18:18 05.08.2019
4162 Clouds 17 1012 63 10000 7.2 310 17:41 05.08.2019
4163 Clouds 17 1012 63 10000 7.2 310 17:22 05.08.2019
4164 Clouds 16 1013 67 10000 6.2 320 16:46 05.08.2019
4165 Clouds 17 1012 67 10000 7.2 320 16:25 05.08.2019
4166 Clouds 16 1013 72 10000 5.1 320 15:46 05.08.2019
4167 Clouds 17 1012 67 10000 6.2 320 15:28 05.08.2019
4168 Clouds 14 1013 72 10000 5.1 330 14:59 05.08.2019
4169 Clouds 16 1013 71 10000 5.7 320 14:38 05.08.2019
4170 Clouds 15 1013 71 10000 5.7 320 14:19 05.08.2019
4171 Clouds 15 1013 71 10000 4.1 340 13:43 05.08.2019
4172 Clouds 16 1013 71 10000 5.1 320 13:22 05.08.2019
4173 Clouds 16 1014 76 10000 2.6 10 12:46 05.08.2019
4174 Clouds 14 1013 71 10000 4.1 320 12:20 05.08.2019
4175 Clouds 14 1014 82 10000 2.6 350 11:46 05.08.2019
4176 Clouds 13 1013 71 10000 2.6 320 11:27 05.08.2019
4177 Clouds 13 1014 87 10000 2.1 360 10:59 05.08.2019
4178 Clouds 13 1014 82 10000 3.1 310 10:40 05.08.2019
4179 Clouds 13 1014 82 10000 3.1 310 10:21 05.08.2019
4180 Clouds 12 1014 87 10000 2.1 210 09:43 05.08.2019
4181 Clouds 12 1014 87 10000 2.1 210 09:24 05.08.2019
4182 Clouds 12 1014 93 10000 1.5 20 08:49 05.08.2019
4183 Clouds 12 1014 87 10000 2.1 200 08:28 05.08.2019
4184 Clouds 11 1015 100 10000 1 40 07:55 05.08.2019
4185 Clouds 11 1015 87 10000 2.1 210 07:32 05.08.2019
4186 Clouds 11 1015 100 10000 2.1 30 06:59 05.08.2019
4187 Clouds 11 1015 87 10000 1.5 210 06:30 05.08.2019
4188 Clouds 11 1015 100 10000 2.6 10 05:46 05.08.2019
4189 Clouds 11 1015 87 10000 2.1 210 05:18 05.08.2019
4190 Clear 12 1016 81 10000 2.6 200 04:24 05.08.2019
4191 Clear 12 1016 87 10000 2.1 190 03:30 05.08.2019
4192 Clear 12 1016 82 10000 2.1 200 02:34 05.08.2019
4193 Clear 12 1016 81 10000 0.5 0 01:33 05.08.2019
4194 Clear 12 1016 81 10000 2.1 350 00:41 05.08.2019
4195 Clear 12 1016 81 10000 2.1 350 00:21 05.08.2019
4196 Clouds 12 1017 93 10000 2.6 50 23:56 04.08.2019
4197 Clear 13 1017 76 10000 2.6 350 23:36 04.08.2019
4198 Clear 13 1017 76 10000 2.6 350 23:18 04.08.2019
4199 Clouds 13 1017 93 10000 2.6 20 22:54 04.08.2019
4200 Clouds 13 1017 76 10000 3.1 350 22:36 04.08.2019
4201 Clouds 13 1017 76 10000 3.1 350 22:36 04.08.2019
4202 Clouds 13 1017 76 10000 3.1 350 22:18 04.08.2019
4203 Clouds 14 1017 71 10000 3.1 340 21:42 04.08.2019
4204 Clouds 14 1017 71 10000 3.1 340 21:20 04.08.2019
4205 Clouds 15 1017 87 10000 2.6 360 20:44 04.08.2019
4206 Clouds 15 1017 71 10000 3.1 330 20:19 04.08.2019
4207 Rain 15 1017 87 10000 1 360 19:58 04.08.2019
4208 Rain 15 1017 71 10000 3.6 280 19:38 04.08.2019
4209 Rain 15 1017 71 10000 3.6 280 19:19 04.08.2019
4210 Drizzle 13 1017 71 10000 3.1 290 18:42 04.08.2019
4211 Drizzle 16 1017 71 10000 3.1 290 18:20 04.08.2019
4212 Clouds 16 1017 71 10000 2.1 300 17:45 04.08.2019
4213 Clouds 16 1017 71 10000 2.1 300 17:26 04.08.2019
4214 Clouds 15 1018 82 10000 1.5 20 16:59 04.08.2019
4215 Clouds 14 1018 71 10000 3.1 330 16:39 04.08.2019
4216 Clouds 15 1018 71 10000 3.1 330 16:20 04.08.2019
4217 Clouds 14 1018 87 10000 2.1 40 15:43 04.08.2019
4218 Clouds 14 1018 71 10000 3.1 330 15:22 04.08.2019
4219 Clouds 14 1018 87 10000 3.1 20 14:45 04.08.2019
4220 Clouds 13 1018 76 10000 3.6 350 14:26 04.08.2019
4221 Clouds 13 1018 87 10000 3.1 360 13:47 04.08.2019
4222 Clouds 13 1018 76 10000 3.1 320 13:28 04.08.2019
4223 Clouds 13 1018 87 10000 3.1 320 12:59 04.08.2019
4224 Clouds 12 1018 76 10000 2.1 340 12:40 04.08.2019
4225 Clouds 12 1018 76 10000 2.1 340 12:22 04.08.2019
4226 Clouds 12 1019 87 10000 2.6 330 11:55 04.08.2019
4227 Clouds 12 1018 81 10000 2.1 310 11:36 04.08.2019
4228 Clouds 12 1018 81 10000 2.1 310 11:18 04.08.2019
4229 Clouds 12 1019 81 10000 2.6 320 10:40 04.08.2019
4230 Clouds 12 1019 81 10000 2.6 320 10:19 04.08.2019
4231 Clouds 11 1019 87 10000 3.1 310 09:42 04.08.2019
4232 Clouds 11 1019 87 10000 3.1 310 09:21 04.08.2019
4233 Drizzle 11 1019 87 6000 2.1 320 08:42 04.08.2019
4234 Drizzle 11 1019 87 6000 2.1 320 08:42 04.08.2019
4235 Drizzle 11 1019 87 6000 2.1 320 08:20 04.08.2019
4236 Clouds 12 1019 87 10000 2.6 290 07:49 04.08.2019
4237 Clouds 12 1019 87 10000 1 200 06:50 04.08.2019
4238 Clouds 12 1019 76 10000 1.5 280 06:27 04.08.2019
4239 Clouds 12 1020 87 10000 1 230 03:45 04.08.2019
4240 Clouds 12 1020 76 10000 0.72 214.2 02:23 04.08.2019
4241 Clouds 12 1020 81 10000 1.5 300 01:33 04.08.2019
4242 Clouds 12 1020 87 10000 1 210 00:46 04.08.2019
4243 Clouds 12 1020 81 10000 2.6 310 00:26 04.08.2019
4244 Clouds 12 1020 81 10000 2.1 190 23:57 03.08.2019
4245 Clouds 12 1020 81 10000 3.1 310 23:39 03.08.2019
4246 Clouds 13 1020 81 10000 3.1 310 23:18 03.08.2019
4247 Clouds 13 1020 81 10000 3.1 310 23:18 03.08.2019
4248 Clouds 13 1020 76 10000 3.1 300 22:44 03.08.2019
4249 Clouds 13 1020 76 10000 3.1 300 22:20 03.08.2019
4250 Clouds 13 1020 76 10000 2.6 280 21:41 03.08.2019
4251 Clouds 13 1020 76 10000 2.6 280 21:22 03.08.2019
4252 Clouds 13 1020 82 10000 2.6 230 20:58 03.08.2019
4253 Clouds 13 1020 76 10000 3.6 280 20:40 03.08.2019
4254 Clouds 13 1020 76 10000 3.6 280 20:20 03.08.2019
4255 Clouds 13 1020 76 10000 3.6 270 19:41 03.08.2019
4256 Clouds 13 1020 76 10000 3.6 270 19:23 03.08.2019
4257 Clouds 13 1020 87 10000 4.1 170 18:49 03.08.2019
4258 Clouds 14 1021 82 10000 4.6 260 18:27 03.08.2019
4259 Clouds 14 1021 82 10000 3.6 160 17:48 03.08.2019
4260 Clouds 13 1021 82 10000 3.6 280 17:21 03.08.2019
4261 Clouds 13 1021 87 10000 4.1 170 16:55 03.08.2019
4262 Clouds 13 1021 82 10000 3.1 280 16:37 03.08.2019
4263 Clouds 13 1021 82 10000 3.1 280 16:18 03.08.2019
4264 Mist 12 1021 76 9000 3.6 290 15:43 03.08.2019
4265 Mist 12 1021 76 9000 3.6 290 15:21 03.08.2019
4266 Mist 12 1021 76 8500 3.1 270 14:39 03.08.2019
4267 Mist 12 1021 76 8500 3.1 270 14:20 03.08.2019
4268 Mist 13 1021 87 10000 3.1 170 13:50 03.08.2019
4269 Mist 12 1021 76 9000 2.1 240 13:24 03.08.2019
4270 Clouds 13 1021 87 10000 2.1 160 12:57 03.08.2019
4271 Clouds 12 1021 82 10000 1.5 210 12:38 03.08.2019
4272 Clouds 12 1021 82 10000 1.5 210 12:20 03.08.2019
4273 Clouds 12 1021 93 10000 1 120 11:47 03.08.2019
4274 Clouds 12 1021 87 10000 2.1 220 11:25 03.08.2019
4275 Clouds 11 1021 87 10000 2.6 210 10:40 03.08.2019
4276 Clouds 11 1021 87 10000 2.6 210 10:22 03.08.2019
4277 Mist 11 1021 87 10000 1.5 190 09:39 03.08.2019
4278 Mist 11 1021 87 10000 1.5 190 09:21 03.08.2019
4279 Clouds 11 1021 93 10000 1 210 08:46 03.08.2019
4280 Clouds 11 1021 93 10000 0.5 320 07:49 03.08.2019
4281 Clouds 11 1021 87 10000 0.5 0 07:30 03.08.2019
4282 Clouds 11 1021 81 10000 1.5 180 06:23 03.08.2019
4283 Clear 11 1022 100 10000 2.6 20 03:58 03.08.2019
4284 Clear 11 1022 81 10000 1.5 290 02:29 03.08.2019
4285 Clear 12 1022 76 10000 1 0 01:34 03.08.2019
4286 Clear 12 1023 76 10000 2.1 290 00:38 03.08.2019
4287 Clear 13 1023 87 10000 2.1 20 23:57 02.08.2019
4288 Clear 13 1022 76 10000 2.6 290 23:38 02.08.2019
4289 Clear 13 1022 76 10000 2.6 290 23:18 02.08.2019
4290 Clear 14 1023 87 10000 2.1 20 22:56 02.08.2019
4291 Clear 14 1022 71 10000 3.6 290 22:37 02.08.2019
4292 Clear 14 1022 71 10000 3.6 290 22:18 02.08.2019
4293 Clear 15 1023 71 10000 2.6 340 21:42 02.08.2019
4294 Clear 15 1023 71 10000 2.6 340 21:22 02.08.2019
4295 Clear 15 1023 82 10000 2.6 20 20:46 02.08.2019
4296 Clouds 15 1023 71 10000 4.1 290 20:28 02.08.2019
4297 Clouds 15 1023 82 10000 2.6 30 19:56 02.08.2019
4298 Clear 15 1023 67 10000 2.6 320 19:35 02.08.2019
4299 Clouds 16 1023 76 10000 3.1 50 18:57 02.08.2019
4300 Clouds 16 1023 71 10000 2.6 340 18:39 02.08.2019
4301 Clouds 16 1023 71 10000 2.6 340 18:20 02.08.2019
4302 Clouds 16 1023 82 10000 2.6 40 17:42 02.08.2019
4303 Clouds 16 1023 71 10000 4.6 290 17:24 02.08.2019
4304 Clouds 16 1023 76 10000 2.1 40 16:56 02.08.2019
4305 Clouds 16 1023 76 10000 4.1 320 16:37 02.08.2019
4306 Clouds 16 1023 76 10000 4.1 320 16:18 02.08.2019
4307 Clouds 15 1024 76 10000 3.1 260 15:38 02.08.2019
4308 Clouds 16 1024 76 10000 3.1 260 15:19 02.08.2019
4309 Clouds 15 1024 76 10000 2.1 50 14:45 02.08.2019
4310 Clouds 15 1024 76 10000 2.1 50 14:45 02.08.2019
4311 Clouds 14 1023 76 10000 2.6 320 14:18 02.08.2019
4312 Clouds 14 1023 71 10000 1.5 0 13:47 02.08.2019
4313 Clouds 14 1023 76 10000 3.1 320 13:23 02.08.2019
4314 Clouds 13 1023 81 10000 1 40 12:44 02.08.2019
4315 Clouds 13 1023 81 10000 2.1 240 12:21 02.08.2019
4316 Clouds 12 1023 81 10000 1.5 120 11:48 02.08.2019
4317 Clouds 11 1023 81 10000 1.5 230 11:26 02.08.2019
4318 Clouds 11 1023 87 10000 1.5 90 10:55 02.08.2019
4319 Clouds 11 1023 87 10000 1.5 90 10:55 02.08.2019
4320 Clouds 11 1023 87 10000 0.5 0 10:37 02.08.2019
4321 Clouds 11 1023 87 10000 0.5 0 10:19 02.08.2019
4322 Clouds 10 1023 87 10000 2.6 150 09:48 02.08.2019
4323 Clouds 9 1023 87 10000 1 140 09:24 02.08.2019
4324 Fog 9 1023 93 10000 3.1 150 08:46 02.08.2019
4325 Fog 9 1023 87 10000 1 100 08:21 02.08.2019
4326 Clouds 9 1023 93 10000 3.1 140 07:48 02.08.2019
4327 Clouds 8 1023 93 10000 2.1 170 07:29 02.08.2019
4328 Clouds 9 1023 87 10000 3.1 140 06:44 02.08.2019
4329 Clouds 9 1023 93 10000 2.1 140 05:52 02.08.2019
4330 Clouds 10 1023 81 10000 1 260 04:19 02.08.2019
4331 Clouds 9 1023 87 10000 1 270 03:25 02.08.2019
4332 Clouds 10 1023 93 10000 0.52 191.092 01:46 02.08.2019
4333 Clear 11 1023 76 10000 2.6 310 00:38 02.08.2019
4334 Clouds 12 1023 93 10000 3.1 150 23:46 01.08.2019
4335 Clouds 13 1023 76 10000 3.1 350 23:28 01.08.2019
4336 Clouds 14 1022 87 10000 4.1 160 22:58 01.08.2019
4337 Clouds 13 1022 71 10000 4.1 360 22:38 01.08.2019
4338 Clouds 13 1022 71 10000 4.1 360 22:19 01.08.2019
4339 Clouds 15 1022 71 10000 4.6 160 21:43 01.08.2019
4340 Clear 16 1022 67 10000 4.1 350 21:23 01.08.2019
4341 Clear 16 1022 72 10000 3.1 80 20:55 01.08.2019
4342 Clouds 16 1022 71 10000 3.6 320 20:36 01.08.2019
4343 Clouds 16 1022 71 10000 3.6 320 20:18 01.08.2019
4344 Clouds 16 1022 72 10000 3.1 300 19:41 01.08.2019
4345 Clouds 16 1022 72 10000 3.1 300 19:19 01.08.2019
4346 Clear 17 1022 71 10000 3.6 330 18:44 01.08.2019
4347 Clear 17 1022 71 10000 3.6 330 18:24 01.08.2019
4348 Clouds 17 1021 62 10000 6.7 150 17:52 01.08.2019
4349 Clear 18 1022 62 10000 4.6 300 17:33 01.08.2019
4350 Clouds 18 1022 59 10000 3.6 140 16:59 01.08.2019
4351 Clear 17 1022 67 10000 4.1 300 16:40 01.08.2019
4352 Clear 17 1022 67 10000 4.1 300 16:20 01.08.2019
4353 Clouds 16 1022 67 10000 4.6 300 15:41 01.08.2019
4354 Clouds 16 1022 67 10000 4.6 300 15:19 01.08.2019
4355 Clouds 15 1022 76 10000 4.6 140 14:43 01.08.2019
4356 Clouds 15 1022 67 10000 3.6 290 14:20 01.08.2019
4357 Clouds 15 1022 76 10000 4.6 140 13:58 01.08.2019
4358 Clear 15 1021 67 10000 3.6 300 13:40 01.08.2019
4359 Clear 15 1021 67 10000 3.6 300 13:21 01.08.2019
4360 Clouds 15 1021 76 10000 5.7 140 12:48 01.08.2019
4361 Clear 15 1021 62 10000 2.1 0 12:28 01.08.2019
4362 Clouds 14 1021 81 10000 5.1 140 11:44 01.08.2019
4363 Clear 14 1021 62 10000 2.1 50 11:26 01.08.2019
4364 Clear 13 1021 87 10000 5.7 140 10:59 01.08.2019
4365 Clear 12 1021 71 10000 2.6 80 10:40 01.08.2019
4366 Clear 13 1021 71 10000 2.6 80 10:22 01.08.2019
4367 Clear 11 1020 87 10000 6.2 140 09:47 01.08.2019
4368 Clouds 11 1020 76 10000 1.5 90 09:23 01.08.2019
4369 Clear 10 1020 87 10000 5.7 140 08:49 01.08.2019
4370 Clouds 10 1020 76 10000 1 170 08:21 01.08.2019
4371 Clear 10 1020 93 10000 5.1 140 07:53 01.08.2019
4372 Clear 10 1020 81 10000 1 230 07:29 01.08.2019
4373 Rain 10 1020 87 9000 5.1 150 06:58 01.08.2019
4374 Rain 10 1020 76 10000 1 220 06:36 01.08.2019
4375 Mist 11 1020 81 10000 2.6 220 05:32 01.08.2019
4376 Clear 13 1019 67 10000 1.5 190 02:36 01.08.2019
4377 Clear 14 1019 71 10000 2.1 350 01:33 01.08.2019
4378 Clear 14 1018 67 10000 3.1 300 00:27 01.08.2019
4379 Clear 14 1018 81 10000 6.2 140 23:59 31.07.2019
4380 Clear 14 1018 71 10000 1.5 310 23:40 31.07.2019
4381 Clear 14 1018 71 10000 1.5 310 23:19 31.07.2019
4382 Clear 14 1018 76 10000 5.1 140 22:44 31.07.2019
4383 Clear 14 1018 71 10000 2.1 350 22:24 31.07.2019
4384 Clear 14 1018 71 10000 2.1 350 22:24 31.07.2019
4385 Clear 14 1017 67 10000 3.1 350 21:41 31.07.2019
4386 Clear 14 1017 67 10000 3.1 350 21:23 31.07.2019
4387 Clear 15 1017 76 10000 6.7 140 20:49 31.07.2019
4388 Clear 15 1017 55 10000 2.6 20 20:24 31.07.2019
4389 Clear 15 1017 76 10000 7.2 140 19:55 31.07.2019
4390 Clear 15 1017 58 10000 1.5 180 19:37 31.07.2019
4391 Clear 15 1017 58 10000 1.5 180 19:19 31.07.2019
4392 Clear 15 1016 54 10000 2.6 170 18:39 31.07.2019
4393 Clear 15 1016 54 10000 2.6 170 18:18 31.07.2019
4394 Clear 15 1016 67 10000 3.1 210 17:45 31.07.2019
4395 Clear 15 1016 67 10000 3.1 210 17:20 31.07.2019
4396 Rain 16 1017 81 10000 7.2 150 16:54 31.07.2019
4397 Rain 16 1016 62 10000 5.1 230 16:33 31.07.2019
4398 Clear 17 1016 76 10000 6.2 160 15:58 31.07.2019
4399 Clear 17 1016 42 10000 1.5 270 15:39 31.07.2019
4400 Clear 17 1016 42 10000 1.5 270 15:20 31.07.2019
4401 Clear 18 1015 32 10000 2.1 0 14:42 31.07.2019
4402 Clear 18 1015 32 10000 2.1 0 14:20 31.07.2019
4403 Clear 17 1016 63 10000 2.1 120 13:55 31.07.2019
4404 Clear 17 1015 39 10000 3.1 320 13:37 31.07.2019
4405 Clear 18 1015 39 10000 3.1 320 13:19 31.07.2019
4406 Clear 17 1015 36 10000 5.1 100 12:42 31.07.2019
4407 Clear 18 1015 36 10000 5.1 100 12:23 31.07.2019
4408 Clear 17 1015 36 10000 6.7 90 11:40 31.07.2019
4409 Clear 17 1015 36 10000 6.7 90 11:21 31.07.2019
4410 Clear 17 1015 67 10000 4.6 100 10:56 31.07.2019
4411 Clear 17 1014 36 10000 7.2 80 10:38 31.07.2019
4412 Clear 17 1014 36 10000 7.2 80 10:19 31.07.2019
4413 Clear 16 1014 45 10000 5.7 80 09:43 31.07.2019
4414 Clear 16 1014 45 10000 5.7 80 09:23 31.07.2019
4415 Clear 16 1014 82 10000 3.6 50 08:44 31.07.2019
4416 Clouds 16 1014 45 10000 8.2 80 08:24 31.07.2019
4417 Clear 16 1014 93 10000 1.5 100 07:50 31.07.2019
4418 Clouds 16 1014 59 10000 6.2 100 07:31 31.07.2019
4419 Clear 15 1014 59 10000 1 0 05:24 31.07.2019
4420 Clouds 16 1014 59 10000 4.1 80 04:20 31.07.2019
4421 Clouds 17 1014 63 10000 3.1 100 00:41 31.07.2019
4422 Clouds 18 1014 87 10000 3.1 140 23:51 30.07.2019
4423 Clouds 18 1014 60 10000 3.1 90 23:30 30.07.2019
4424 Clouds 18 1014 87 10000 1 340 22:59 30.07.2019
4425 Clouds 17 1013 68 10000 3.6 80 22:40 30.07.2019
4426 Clouds 17 1013 68 10000 3.6 80 22:21 30.07.2019
4427 Clouds 17 1013 68 10000 3.6 10 21:38 30.07.2019
4428 Clouds 17 1013 68 10000 3.6 10 21:19 30.07.2019
4429 Clouds 16 1013 100 10000 3.1 10 20:56 30.07.2019
4430 Rain 17 1012 72 10000 5.1 80 20:38 30.07.2019
4431 Rain 17 1012 72 10000 5.1 80 20:19 30.07.2019
4432 Rain 16 1013 100 9000 2.6 30 19:47 30.07.2019
4433 Rain 16 1013 82 10000 2.6 0 19:28 30.07.2019
4434 Rain 16 1012 87 10000 2.6 30 18:48 30.07.2019
4435 Rain 15 1012 82 9000 3.6 290 18:25 30.07.2019
4436 Mist 15 1012 93 10000 2.1 40 17:58 30.07.2019
4437 Mist 15 1012 87 7000 3.1 290 17:40 30.07.2019
4438 Mist 15 1012 87 7000 3.1 290 17:18 30.07.2019
4439 Mist 15 1011 93 10000 3.6 100 16:44 30.07.2019
4440 Mist 15 1011 87 7000 3.1 280 16:19 30.07.2019
4441 Mist 15 1011 87 6000 2.6 250 15:40 30.07.2019
4442 Mist 15 1011 87 6000 2.6 250 15:22 30.07.2019
4443 Rain 15 1011 87 10000 6.7 130 14:43 30.07.2019
4444 Rain 15 1011 87 10000 6.7 130 14:43 30.07.2019
4445 Rain 15 1011 87 6000 2.6 250 14:23 30.07.2019
4446 Mist 14 1010 100 10000 2.1 110 13:56 30.07.2019
4447 Mist 14 1010 87 6000 2.1 290 13:37 30.07.2019
4448 Mist 14 1010 87 6000 2.1 290 13:19 30.07.2019
4449 Mist 14 1010 87 6000 2.1 280 12:43 30.07.2019
4450 Mist 14 1010 87 6000 2.1 280 12:25 30.07.2019
4451 Mist 14 1010 100 10000 2.1 150 11:47 30.07.2019
4452 Mist 14 1009 93 7000 2.1 290 11:29 30.07.2019
4453 Mist 14 1009 93 9000 1 140 10:57 30.07.2019
4454 Mist 13 1009 87 6000 2.1 290 10:38 30.07.2019
4455 Mist 13 1009 87 6000 2.1 290 10:38 30.07.2019
4456 Mist 13 1009 87 6000 2.1 290 10:20 30.07.2019
4457 Mist 13 1009 87 6000 2.1 290 10:20 30.07.2019
4458 Mist 14 1009 100 8000 2.1 150 09:48 30.07.2019
4459 Mist 14 1009 87 8500 1.5 30 09:28 30.07.2019
4460 Mist 13 1009 87 9000 0.5 0 08:41 30.07.2019
4461 Mist 13 1009 87 9000 0.5 0 08:19 30.07.2019
4462 Mist 13 1009 100 10000 1 150 07:43 30.07.2019
4463 Mist 13 1009 87 8000 1.5 250 07:43 30.07.2019
4464 Mist 13 1009 87 8000 1.5 250 07:23 30.07.2019
4465 Mist 13 1009 100 8000 2.1 150 06:45 30.07.2019
4466 Clouds 13 1008 82 10000 1 0 05:36 30.07.2019
4467 Clouds 13 1009 100 10000 2.1 160 04:59 30.07.2019
4468 Clear 14 1009 72 10000 0.5 0 01:30 30.07.2019
4469 Clear 15 1010 72 10000 1 0 00:36 30.07.2019
4470 Clear 15 1010 72 10000 1 0 00:18 30.07.2019
4471 Clouds 16 1010 72 10000 1.5 330 23:43 29.07.2019
4472 Clouds 16 1010 72 10000 1.5 330 23:24 29.07.2019
4473 Clouds 17 1010 77 10000 2.1 280 22:57 29.07.2019
4474 Clear 17 1010 77 10000 0.5 0 22:38 29.07.2019
4475 Clear 17 1010 77 10000 0.5 0 22:18 29.07.2019
4476 Clouds 17 1010 77 10000 3.1 260 21:43 29.07.2019
4477 Clear 18 1010 72 10000 2.1 230 21:24 29.07.2019
4478 Clouds 18 1010 72 10000 3.6 230 20:58 29.07.2019
4479 Clouds 19 1010 72 10000 3.1 290 20:40 29.07.2019
4480 Clouds 19 1010 72 10000 3.1 290 20:21 29.07.2019
4481 Clouds 18 1010 77 10000 3.1 270 19:50 29.07.2019
4482 Clouds 18 1011 77 10000 4.1 290 19:24 29.07.2019
4483 Clouds 19 1011 88 10000 3.1 360 18:59 29.07.2019
4484 Clouds 19 1011 72 10000 3.6 290 18:40 29.07.2019
4485 Clouds 19 1011 72 10000 3.6 290 18:20 29.07.2019
4486 Clouds 19 1012 82 10000 0.5 0 17:49 29.07.2019
4487 Clear 19 1012 72 10000 4.6 300 17:31 29.07.2019
4488 Clear 19 1012 82 10000 1.5 100 16:57 29.07.2019
4489 Clouds 18 1013 77 10000 2.6 320 16:37 29.07.2019
4490 Clouds 18 1013 77 10000 2.6 320 16:19 29.07.2019
4491 Clear 19 1013 82 10000 5.7 130 15:47 29.07.2019
4492 Clouds 19 1013 77 10000 3.1 350 15:28 29.07.2019
4493 Clouds 17 1013 82 10000 3.1 290 14:43 29.07.2019
4494 Clouds 17 1013 82 10000 3.1 290 14:21 29.07.2019
4495 Clouds 16 1014 100 10000 3.1 70 13:55 29.07.2019
4496 Clouds 15 1014 87 10000 1.5 240 13:36 29.07.2019
4497 Clouds 16 1014 87 10000 1.5 240 13:18 29.07.2019
4498 Rain 14 1014 87 10000 2.04 285.359 12:40 29.07.2019
4499 Rain 15 1014 87 10000 1.61 57.477 12:21 29.07.2019
4500 Rain 14 1014 87 10000 1.5 310 11:42 29.07.2019
4501 Rain 14 1014 87 10000 1.5 310 11:20 29.07.2019
4502 Rain 13 1014 87 10000 2.1 350 10:44 29.07.2019
4503 Rain 13 1014 87 10000 2.1 350 10:23 29.07.2019
4504 Rain 13 1014 100 7000 2.1 20 09:45 29.07.2019
4505 Rain 13 1014 87 10000 2.1 300 09:24 29.07.2019
4506 Drizzle 12 1014 100 9000 2.1 10 08:56 29.07.2019
4507 Drizzle 13 1015 93 8000 1.5 60 08:27 29.07.2019
4508 Drizzle 12 1014 100 10000 0.5 60 07:55 29.07.2019
4509 Drizzle 12 1015 87 10000 0.98 16.106 07:32 29.07.2019
4510 Rain 12 1015 100 10000 2.6 130 06:43 29.07.2019
4511 Rain 13 1015 93 10000 1.2 39.83 05:39 29.07.2019
4512 Drizzle 12 1015 93 10000 1 210 04:35 29.07.2019
4513 Rain 13 1015 87 5000 1 0 01:55 29.07.2019
4514 Rain 13 1015 87 10000 2.1 60 01:37 29.07.2019
4515 Rain 13 1015 100 10000 2.1 70 00:59 29.07.2019
4516 Rain 13 1015 82 10000 2.1 360 00:32 29.07.2019
4517 Rain 14 1015 100 10000 1 80 23:51 28.07.2019
4518 Rain 14 1015 77 10000 3.1 50 23:33 28.07.2019
4519 Drizzle 13 1015 100 10000 3.1 80 22:58 28.07.2019
4520 Drizzle 14 1015 82 10000 2.1 20 22:37 28.07.2019
4521 Drizzle 14 1015 82 10000 2.1 20 22:18 28.07.2019
4522 Rain 14 1015 77 10000 2.6 90 21:42 28.07.2019
4523 Rain 14 1015 77 10000 2.6 90 21:18 28.07.2019
4524 Rain 15 1015 72 10000 2.6 90 20:43 28.07.2019
4525 Rain 15 1015 72 10000 2.6 90 20:25 28.07.2019
4526 Rain 15 1015 72 10000 2.1 70 19:42 28.07.2019
4527 Rain 15 1015 72 10000 2.1 70 19:21 28.07.2019
4528 Rain 15 1015 87 10000 5.7 120 18:50 28.07.2019
4529 Rain 15 1015 77 10000 4.6 90 18:29 28.07.2019
4530 Drizzle 15 1014 82 10000 8.2 130 17:58 28.07.2019
4531 Drizzle 15 1015 72 10000 2.6 100 17:40 28.07.2019
4532 Drizzle 15 1015 72 10000 2.6 100 17:20 28.07.2019
4533 Drizzle 15 1014 93 10000 7.2 120 16:46 28.07.2019
4534 Clouds 15 1014 67 10000 4.6 140 16:27 28.07.2019
4535 Clouds 15 1014 93 10000 7.7 110 15:57 28.07.2019
4536 Clouds 15 1014 67 10000 4.6 110 15:39 28.07.2019
4537 Clouds 15 1014 67 10000 4.6 110 15:20 28.07.2019
4538 Clouds 15 1014 67 10000 6.2 120 14:37 28.07.2019
4539 Clouds 15 1014 67 10000 6.2 120 14:18 28.07.2019
4540 Drizzle 15 1014 72 10000 3.1 130 13:41 28.07.2019
4541 Drizzle 15 1014 72 10000 3.1 130 13:21 28.07.2019
4542 Clouds 15 1013 100 10000 8.2 120 12:58 28.07.2019
4543 Rain 15 1013 63 10000 4.6 120 12:39 28.07.2019
4544 Rain 15 1013 63 10000 4.6 120 12:20 28.07.2019
4545 Rain 15 1013 93 10000 8.2 130 11:44 28.07.2019
4546 Rain 15 1012 67 10000 4.6 110 11:26 28.07.2019
4547 Rain 14 1012 67 10000 3.1 80 10:40 28.07.2019
4548 Rain 14 1012 67 10000 3.1 80 10:20 28.07.2019
4549 Rain 14 1012 71 10000 3.6 90 09:41 28.07.2019
4550 Rain 14 1012 71 10000 3.6 90 09:23 28.07.2019
4551 Rain 13 1011 93 10000 7.7 120 08:51 28.07.2019
4552 Rain 13 1011 76 10000 3.6 110 08:28 28.07.2019
4553 Drizzle 13 1010 93 10000 8.2 120 07:51 28.07.2019
4554 Drizzle 13 1011 82 10000 7.7 100 07:32 28.07.2019
4555 Mist 13 1010 76 8000 6.2 90 06:41 28.07.2019
4556 Drizzle 13 1010 76 10000 8.2 100 05:26 28.07.2019
4557 Rain 14 1009 71 10000 6.7 110 03:27 28.07.2019
4558 Drizzle 14 1009 71 10000 6.2 110 02:19 28.07.2019
4559 Rain 14 1008 71 10000 8.2 110 01:19 28.07.2019
4560 Drizzle 14 1008 93 10000 9.8 120 00:44 28.07.2019
4561 Drizzle 14 1007 67 10000 9.8 110 00:18 28.07.2019
4562 Clouds 14 1007 87 10000 8.7 120 23:44 27.07.2019
4563 Clouds 14 1007 67 10000 12.3 120 23:19 27.07.2019
4564 Clouds 14 1007 67 10000 12.3 120 23:19 27.07.2019
4565 Clouds 14 1007 72 10000 10.8 120 22:40 27.07.2019
4566 Clouds 15 1007 72 10000 10.8 120 22:19 27.07.2019
4567 Rain 15 1006 67 10000 10.8 120 21:39 27.07.2019
4568 Rain 15 1006 67 10000 10.8 120 21:20 27.07.2019
4569 Rain 16 1006 87 10000 13.9 130 20:50 27.07.2019
4570 Rain 16 1006 67 10000 7.2 110 20:25 27.07.2019
4571 Clouds 16 1005 87 10000 9.8 120 19:46 27.07.2019
4572 Rain 17 1006 72 10000 10.3 110 19:26 27.07.2019
4573 Drizzle 17 1005 93 10000 10.3 130 18:54 27.07.2019
4574 Drizzle 17 1006 77 10000 7.2 130 18:36 27.07.2019
4575 Clouds 17 1005 100 10000 7.2 110 17:57 27.07.2019
4576 Drizzle 17 1005 72 10000 5.7 130 17:36 27.07.2019
4577 Drizzle 17 1005 72 10000 5.7 130 17:18 27.07.2019
4578 Rain 16 1005 100 4000 3.1 60 16:46 27.07.2019
4579 Rain 16 1005 82 10000 3.1 80 16:28 27.07.2019
4580 Rain 16 1006 100 4000 3.1 40 15:53 27.07.2019
4581 Rain 15 1006 82 10000 2.6 90 15:22 27.07.2019
4582 Rain 15 1006 100 3000 2.6 50 14:51 27.07.2019
4583 Rain 15 1006 82 10000 2.1 80 14:32 27.07.2019
4584 Rain 15 1006 100 3000 3.6 50 13:58 27.07.2019
4585 Rain 15 1006 87 10000 2.6 60 13:39 27.07.2019
4586 Rain 15 1006 87 10000 2.6 60 13:19 27.07.2019
4587 Rain 14 1006 87 6000 2.6 20 12:42 27.07.2019
4588 Rain 14 1006 87 6000 2.6 20 12:22 27.07.2019
4589 Rain 14 1006 87 4100 2.6 30 11:44 27.07.2019
4590 Rain 13 1005 87 10000 2.1 360 11:25 27.07.2019
4591 Rain 13 1006 100 10000 3.6 30 10:43 27.07.2019
4592 Rain 13 1005 82 10000 2.6 10 10:24 27.07.2019
4593 Rain 13 1005 100 10000 2.6 30 09:59 27.07.2019
4594 Rain 13 1005 82 10000 2.1 10 09:39 27.07.2019
4595 Rain 13 1005 82 10000 2.1 10 09:20 27.07.2019
4596 Rain 13 1005 76 10000 1 40 08:42 27.07.2019
4597 Rain 13 1005 76 10000 1 40 08:24 27.07.2019
4598 Rain 13 1005 93 10000 4.6 20 07:42 27.07.2019
4599 Rain 13 1005 82 10000 2.6 30 07:22 27.07.2019
4600 Rain 13 1005 87 10000 4.1 20 06:52 27.07.2019
4601 Rain 13 1005 71 10000 1.5 20 06:25 27.07.2019
4602 Clouds 13 1005 71 10000 2.6 30 05:37 27.07.2019
4603 Clouds 13 1006 87 10000 6.2 20 04:52 27.07.2019
4604 Clouds 13 1006 87 10000 6.2 30 03:55 27.07.2019
4605 Clouds 13 1006 87 10000 6.7 20 02:43 27.07.2019
4606 Clear 14 1005 71 10000 2.6 30 02:20 27.07.2019
4607 Clear 13 1005 67 10000 2.6 10 01:38 27.07.2019
4608 Clouds 14 1006 87 10000 7.2 10 00:49 27.07.2019
4609 Clear 13 1005 67 10000 3.1 360 00:31 27.07.2019
4610 Clouds 15 1006 82 10000 7.2 10 23:49 26.07.2019
4611 Clouds 15 1005 55 10000 5.1 90 23:26 26.07.2019
4612 Clouds 16 1006 76 10000 8.7 360 22:45 26.07.2019
4613 Clouds 16 1005 48 10000 3.6 30 22:26 26.07.2019
4614 Clouds 15 1006 76 10000 7.7 360 21:56 26.07.2019
4615 Clouds 16 1005 59 10000 5.1 350 21:37 26.07.2019
4616 Clouds 16 1005 59 10000 5.1 350 21:18 26.07.2019
4617 Clouds 16 1005 55 10000 6.2 350 20:40 26.07.2019
4618 Clouds 16 1005 55 10000 6.2 350 20:21 26.07.2019
4619 Clouds 16 1005 59 10000 7.7 350 19:41 26.07.2019
4620 Clouds 16 1005 59 10000 7.7 350 19:22 26.07.2019
4621 Clouds 17 1006 67 10000 9.8 360 18:45 26.07.2019
4622 Clouds 17 1005 55 10000 6.2 350 18:22 26.07.2019
4623 Clouds 16 1006 67 10000 8.7 360 17:58 26.07.2019
4624 Clouds 17 1005 55 10000 6.2 360 17:38 26.07.2019
4625 Clouds 16 1005 55 10000 6.2 360 17:18 26.07.2019
4626 Clouds 16 1006 67 10000 8.2 10 16:55 26.07.2019
4627 Clouds 16 1006 55 10000 5.1 350 16:37 26.07.2019
4628 Clouds 16 1006 55 10000 5.1 350 16:18 26.07.2019
4629 Clouds 16 1007 71 10000 8.7 360 15:45 26.07.2019
4630 Clouds 16 1006 59 10000 3.1 340 15:22 26.07.2019
4631 Clouds 16 1006 59 10000 3.1 340 15:22 26.07.2019
4632 Clouds 15 1007 71 10000 7.7 20 14:46 26.07.2019
4633 Clouds 15 1006 59 10000 3.1 310 14:25 26.07.2019
4634 Clouds 15 1007 71 10000 5.7 20 13:56 26.07.2019
4635 Clouds 14 1006 71 10000 3.1 320 13:37 26.07.2019
4636 Clouds 14 1006 71 10000 3.1 320 13:19 26.07.2019
4637 Clouds 14 1007 71 10000 2.1 320 12:42 26.07.2019
4638 Clouds 14 1007 71 10000 2.1 320 12:19 26.07.2019
4639 Clouds 13 1007 76 10000 2.6 330 11:39 26.07.2019
4640 Clouds 13 1007 76 10000 2.6 330 11:19 26.07.2019
4641 Clouds 13 1007 82 10000 3.6 340 10:49 26.07.2019
4642 Clouds 13 1007 76 10000 4.74 45.068 10:31 26.07.2019
4643 Rain 12 1007 93 10000 3.1 350 09:54 26.07.2019
4644 Rain 12 1007 81 10000 1 200 09:34 26.07.2019
4645 Rain 12 1007 87 10000 2.1 350 08:43 26.07.2019
4646 Rain 12 1007 81 10000 1.5 240 08:22 26.07.2019
4647 Clouds 12 1007 93 10000 1.5 30 07:58 26.07.2019
4648 Clouds 12 1007 76 10000 4.13 44.01 07:28 26.07.2019
4649 Clouds 12 1007 87 10000 1.5 120 06:52 26.07.2019
4650 Clear 11 1007 66 10000 3.6 80 05:22 26.07.2019
4651 Clear 11 1007 66 10000 4.1 80 04:22 26.07.2019
4652 Clear 11 1007 71 10000 3.1 100 02:41 26.07.2019
4653 Clear 11 1007 71 10000 3.1 130 01:43 26.07.2019
4654 Clouds 12 1007 67 10000 4.1 120 00:45 26.07.2019
4655 Clouds 13 1006 82 10000 2.6 30 23:57 25.07.2019
4656 Clouds 14 1006 58 10000 3.1 360 23:24 25.07.2019
4657 Clouds 14 1006 82 10000 3.6 10 22:56 25.07.2019
4658 Clouds 14 1006 58 10000 3.1 330 22:37 25.07.2019
4659 Clouds 15 1006 58 10000 3.1 330 22:19 25.07.2019
4660 Clouds 15 1006 58 10000 3.1 340 21:44 25.07.2019
4661 Clouds 15 1006 58 10000 3.1 340 21:21 25.07.2019
4662 Clouds 15 1006 67 10000 4.1 20 20:47 25.07.2019
4663 Clouds 15 1006 58 10000 2.6 340 20:23 25.07.2019
4664 Clouds 15 1005 62 10000 3.6 30 19:44 25.07.2019
4665 Clouds 15 1005 62 10000 3.6 30 19:44 25.07.2019
4666 Clouds 15 1005 54 10000 2.6 330 19:26 25.07.2019
4667 Clouds 15 1005 71 10000 3.1 40 18:57 25.07.2019
4668 Clouds 15 1005 54 10000 2.6 350 18:38 25.07.2019
4669 Clouds 15 1005 54 10000 2.6 350 18:20 25.07.2019
4670 Clouds 15 1005 67 10000 3.1 30 17:43 25.07.2019
4671 Clouds 15 1005 58 10000 2.1 280 17:24 25.07.2019
4672 Clouds 15 1005 58 10000 2.6 250 16:44 25.07.2019
4673 Clouds 15 1005 58 10000 2.6 250 16:26 25.07.2019
4674 Clouds 14 1005 71 10000 3.1 30 15:54 25.07.2019
4675 Clouds 14 1005 62 10000 2.1 250 15:21 25.07.2019
4676 Clouds 14 1005 71 10000 3.1 20 14:58 25.07.2019
4677 Clouds 14 1005 62 10000 2.1 320 14:40 25.07.2019
4678 Clouds 14 1005 62 10000 2.1 320 14:20 25.07.2019
4679 Clouds 14 1005 62 10000 2.1 280 13:40 25.07.2019
4680 Clouds 14 1005 62 10000 2.1 280 13:22 25.07.2019
4681 Clouds 14 1004 62 10000 2.1 300 12:39 25.07.2019
4682 Clouds 14 1004 62 10000 2.1 300 12:20 25.07.2019
4683 Clouds 13 1004 62 10000 1 0 11:41 25.07.2019
4684 Clouds 13 1004 62 10000 1 0 11:23 25.07.2019
4685 Clouds 13 1004 62 10000 1 0 11:23 25.07.2019
4686 Clouds 13 1004 76 10000 1 150 10:45 25.07.2019
4687 Clouds 13 1004 66 10000 3.45 51.151 10:25 25.07.2019
4688 Clouds 12 1004 81 10000 1.5 20 09:52 25.07.2019
4689 Clear 12 1004 66 10000 3.45 51.151 09:34 25.07.2019
4690 Clouds 11 1004 93 10000 1.5 10 08:53 25.07.2019
4691 Clear 11 1004 71 10000 2.1 110 08:33 25.07.2019
4692 Clear 11 1003 71 10000 2.6 130 07:42 25.07.2019
4693 Clear 11 1003 71 10000 2.6 130 07:24 25.07.2019
4694 Clear 11 1003 76 10000 2.1 170 06:40 25.07.2019
4695 Clouds 11 1003 71 10000 2.6 220 05:37 25.07.2019
4696 Clouds 11 1004 87 10000 4.1 10 04:53 25.07.2019
4697 Clouds 11 1004 71 10000 1 0 03:32 25.07.2019
4698 Clouds 12 1003 66 10000 4.1 360 01:26 25.07.2019
4699 Clear 12 1004 62 10000 4.6 360 00:37 25.07.2019
4700 Clear 14 1004 62 10000 4.6 360 00:18 25.07.2019
4701 Clear 14 1004 54 10000 5.1 360 23:43 24.07.2019
4702 Clear 14 1004 54 10000 5.1 360 23:24 24.07.2019
4703 Clear 15 1005 76 10000 9.8 360 22:45 24.07.2019
4704 Clear 14 1003 51 10000 6.2 360 22:23 24.07.2019
4705 Clear 15 1005 71 10000 9.8 360 21:56 24.07.2019
4706 Clear 14 1004 55 10000 7.2 350 21:38 24.07.2019
4707 Clear 15 1004 55 10000 7.2 350 21:19 24.07.2019
4708 Clear 15 1005 71 10000 10.3 10 20:47 24.07.2019
4709 Clear 15 1004 55 10000 8.2 350 20:29 24.07.2019
4710 Clear 16 1005 71 10000 9.3 10 19:59 24.07.2019
4711 Clouds 16 1004 51 10000 8.2 360 19:40 24.07.2019
4712 Clouds 16 1004 51 10000 8.2 360 19:20 24.07.2019
4713 Clouds 15 1005 67 10000 9.3 10 18:43 24.07.2019
4714 Clouds 15 1004 51 10000 8.7 360 18:24 24.07.2019
4715 Clouds 15 1004 51 10000 8.7 360 18:24 24.07.2019
4716 Clouds 16 1005 67 10000 9.3 10 17:48 24.07.2019
4717 Clouds 16 1004 45 10000 8.2 360 17:23 24.07.2019
4718 Clouds 15 1005 67 10000 10.3 20 16:59 24.07.2019
4719 Clouds 16 1005 44 10000 6.7 360 16:39 24.07.2019
4720 Clouds 16 1005 44 10000 6.7 360 16:20 24.07.2019
4721 Clouds 15 1005 44 10000 5.7 360 15:38 24.07.2019
4722 Clouds 15 1005 44 10000 5.7 360 15:19 24.07.2019
4723 Clouds 15 1006 62 10000 7.7 20 14:46 24.07.2019
4724 Clouds 15 1006 48 10000 4.1 350 14:22 24.07.2019
4725 Clouds 15 1006 51 10000 1.5 0 13:41 24.07.2019
4726 Clouds 15 1006 51 10000 1.5 0 13:23 24.07.2019
4727 Clear 14 1007 71 10000 8.2 20 12:54 24.07.2019
4728 Clouds 14 1006 51 10000 2.6 90 12:35 24.07.2019
4729 Clouds 13 1007 76 10000 7.7 20 11:57 24.07.2019
4730 Clouds 13 1006 62 10000 4.1 120 11:37 24.07.2019
4731 Clouds 13 1006 62 10000 4.1 120 11:18 24.07.2019
4732 Clouds 13 1006 62 10000 3.1 10 10:41 24.07.2019
4733 Clouds 12 1006 62 10000 3.1 10 10:23 24.07.2019
4734 Clouds 12 1007 76 10000 7.2 30 09:44 24.07.2019
4735 Clouds 12 1007 71 10000 1 0 09:22 24.07.2019
4736 Clouds 12 1007 81 10000 5.1 30 08:52 24.07.2019
4737 Clouds 12 1007 62 10000 2.6 80 08:26 24.07.2019
4738 Clouds 12 1007 81 10000 6.2 40 07:47 24.07.2019
4739 Clouds 12 1007 66 10000 2.6 40 07:23 24.07.2019
4740 Clouds 12 1007 71 10000 2.6 30 06:28 24.07.2019
4741 Clouds 12 1007 67 10000 4.1 80 05:26 24.07.2019
4742 Clear 13 1007 87 10000 3.6 30 01:56 24.07.2019
4743 Clear 14 1007 72 10000 2.1 150 01:28 24.07.2019
4744 Clear 14 1007 87 10000 2.6 20 00:52 24.07.2019
4745 Clear 14 1007 77 10000 2.1 180 00:21 24.07.2019
4746 Rain 14 1007 77 10000 2.6 190 23:38 23.07.2019
4747 Rain 14 1007 77 10000 2.6 190 23:19 23.07.2019
4748 Clouds 15 1007 77 10000 2.6 190 22:39 23.07.2019
4749 Clouds 15 1007 77 10000 2.6 190 22:19 23.07.2019
4750 Clear 15 1007 77 10000 4.1 350 21:57 23.07.2019
4751 Clouds 15 1007 67 10000 2.6 240 21:39 23.07.2019
4752 Clouds 15 1007 67 10000 2.6 240 21:21 23.07.2019
4753 Clouds 15 1008 67 10000 4.6 340 20:44 23.07.2019
4754 Clouds 15 1007 72 10000 2.6 230 20:21 23.07.2019
4755 Clouds 15 1007 72 10000 3.6 240 19:41 23.07.2019
4756 Clouds 15 1007 72 10000 3.6 240 19:19 23.07.2019
4757 Clouds 15 1008 76 10000 4.1 260 18:43 23.07.2019
4758 Clouds 15 1008 76 10000 4.1 260 18:23 23.07.2019
4759 Clouds 14 1008 71 10000 4.1 270 17:44 23.07.2019
4760 Clouds 14 1008 71 10000 4.1 270 17:25 23.07.2019
4761 Clouds 15 1008 76 10000 4.1 300 16:51 23.07.2019
4762 Clouds 15 1008 76 10000 4.1 290 16:28 23.07.2019
4763 Clouds 15 1008 82 10000 2.6 290 15:59 23.07.2019
4764 Clouds 15 1008 76 10000 4.1 270 15:40 23.07.2019
4765 Clouds 15 1008 76 10000 4.1 270 15:21 23.07.2019
4766 Clouds 14 1008 82 10000 3.6 280 14:38 23.07.2019
4767 Clouds 14 1008 82 10000 3.6 280 14:19 23.07.2019
4768 Clouds 14 1008 76 10000 1.5 270 13:56 23.07.2019
4769 Clouds 14 1008 76 10000 1.5 270 13:56 23.07.2019
4770 Clouds 14 1008 82 10000 2.6 260 13:38 23.07.2019
4771 Clouds 14 1008 82 10000 2.6 260 13:20 23.07.2019
4772 Clouds 13 1008 87 10000 2.6 280 12:45 23.07.2019
4773 Clouds 13 1008 87 10000 2.6 280 12:25 23.07.2019
4774 Clouds 12 1008 87 10000 2.1 290 11:46 23.07.2019
4775 Clouds 13 1008 87 10000 2.1 290 11:27 23.07.2019
4776 Clouds 12 1007 93 10000 1 300 10:57 23.07.2019
4777 Clouds 12 1007 87 10000 4.1 300 10:38 23.07.2019
4778 Clouds 12 1007 87 10000 4.1 300 10:19 23.07.2019
4779 Fog 12 1007 87 10000 2.6 300 09:40 23.07.2019
4780 Fog 12 1007 87 10000 2.6 300 09:18 23.07.2019
4781 Fog 11 1007 87 10000 2.1 240 08:40 23.07.2019
4782 Fog 11 1007 87 10000 2.1 240 08:19 23.07.2019
4783 Fog 11 1007 100 300 2.6 310 07:53 23.07.2019
4784 Fog 11 1007 87 10000 1 190 07:33 23.07.2019
4785 Fog 11 1006 87 10000 1 0 06:38 23.07.2019
4786 Fog 11 1006 100 10000 2.6 210 05:57 23.07.2019
4787 Clouds 13 1006 82 10000 2.1 200 02:25 23.07.2019
4788 Clouds 13 1006 76 10000 2.1 190 01:29 23.07.2019
4789 Clouds 14 1005 71 10000 3.17 53.155 00:30 23.07.2019
4790 Rain 14 1005 76 10000 2.1 240 23:42 22.07.2019
4791 Rain 14 1005 76 10000 1.5 270 23:21 22.07.2019
4792 Rain 14 1005 72 10000 2.6 230 22:59 22.07.2019
4793 Rain 14 1005 71 10000 2.1 340 22:41 22.07.2019
4794 Rain 14 1005 71 10000 2.1 340 22:20 22.07.2019
4795 Clouds 15 1004 72 10000 3.1 240 21:42 22.07.2019
4796 Clouds 14 1004 71 10000 3.6 290 21:21 22.07.2019
4797 Clouds 15 1004 72 10000 3.1 290 20:48 22.07.2019
4798 Clouds 15 1004 67 10000 4.1 270 20:30 22.07.2019
4799 Clouds 16 1004 67 10000 3.1 230 19:55 22.07.2019
4800 Clouds 16 1004 63 10000 4.6 290 19:37 22.07.2019
4801 Clouds 16 1004 63 10000 4.6 290 19:18 22.07.2019
4802 Clouds 16 1004 59 10000 3.1 290 18:41 22.07.2019
4803 Clouds 16 1004 59 10000 3.1 290 18:23 22.07.2019
4804 Rain 16 1004 59 10000 3.6 350 17:43 22.07.2019
4805 Rain 16 1004 59 10000 3.6 350 17:25 22.07.2019
4806 Clouds 16 1004 67 10000 2.6 290 16:54 22.07.2019
4807 Clouds 16 1004 62 10000 4.6 350 16:36 22.07.2019
4808 Clouds 16 1004 62 10000 4.6 350 16:18 22.07.2019
4809 Clouds 15 1004 62 10000 3.6 320 15:38 22.07.2019
4810 Clouds 16 1004 62 10000 3.6 320 15:19 22.07.2019
4811 Clouds 16 1004 63 10000 3.1 320 14:43 22.07.2019
4812 Clouds 16 1004 63 10000 3.1 320 14:22 22.07.2019
4813 Clouds 16 1004 67 10000 1.5 230 13:50 22.07.2019
4814 Clouds 16 1004 67 10000 3.1 290 13:30 22.07.2019
4815 Clouds 16 1004 77 10000 1 140 12:47 22.07.2019
4816 Clouds 15 1004 67 10000 2.1 270 12:29 22.07.2019
4817 Clouds 15 1004 77 10000 0.5 0 11:46 22.07.2019
4818 Clouds 14 1004 71 10000 2.25 56.465 11:26 22.07.2019
4819 Clear 13 1004 87 10000 2.1 50 10:59 22.07.2019
4820 Clouds 13 1003 71 10000 0.5 0 10:33 22.07.2019
4821 Clouds 13 1003 71 10000 0.5 0 10:33 22.07.2019
4822 Clear 13 1004 82 10000 3.1 50 09:45 22.07.2019
4823 Clouds 13 1003 76 10000 1 0 09:26 22.07.2019
4824 Clear 13 1003 93 10000 1.5 40 08:57 22.07.2019
4825 Clouds 12 1003 82 10000 2.1 200 08:36 22.07.2019
4826 Clouds 12 1003 82 10000 2.1 200 08:18 22.07.2019
4827 Clouds 12 1003 93 10000 1.5 40 07:43 22.07.2019
4828 Clouds 12 1003 76 10000 3.1 150 07:24 22.07.2019
4829 Clouds 12 1004 93 10000 3.1 30 04:53 22.07.2019
4830 Clear 13 1004 93 10000 3.1 20 02:58 22.07.2019
4831 Clear 14 1004 82 10000 2.6 110 00:58 22.07.2019
4832 Clouds 15 1004 63 10000 3.1 100 00:38 22.07.2019
4833 Clouds 14 1004 63 10000 3.1 100 00:18 22.07.2019
4834 Rain 14 1004 72 10000 0.5 0 23:43 21.07.2019
4835 Clouds 15 1003 77 10000 5.1 330 22:57 21.07.2019
4836 Clouds 15 1003 72 10000 2.6 170 22:38 21.07.2019
4837 Clouds 15 1003 72 10000 2.6 170 22:20 21.07.2019
4838 Clouds 16 1003 82 10000 7.2 320 21:48 21.07.2019
4839 Clear 16 1003 67 10000 4.1 290 21:25 21.07.2019
4840 Rain 15 1003 67 10000 6.7 320 20:57 21.07.2019
4841 Rain 16 1003 71 10000 7.2 300 20:38 21.07.2019
4842 Rain 16 1003 71 10000 7.2 300 20:20 21.07.2019
4843 Rain 16 1004 72 10000 7.2 320 19:47 21.07.2019
4844 Rain 16 1003 67 10000 6.2 310 19:28 21.07.2019
4845 Clouds 16 1003 72 10000 6.2 310 18:49 21.07.2019
4846 Clouds 16 1003 59 10000 5.1 320 18:26 21.07.2019
4847 Clouds 16 1004 67 10000 5.7 310 17:55 21.07.2019
4848 Clouds 16 1003 63 10000 5.7 290 17:36 21.07.2019
4849 Clouds 16 1003 63 10000 5.7 290 17:18 21.07.2019
4850 Clouds 16 1004 59 10000 4.6 310 16:40 21.07.2019
4851 Clouds 16 1004 59 10000 4.6 310 16:22 21.07.2019
4852 Clouds 15 1004 67 10000 4.6 290 15:40 21.07.2019
4853 Clouds 15 1004 67 10000 4.6 290 15:20 21.07.2019
4854 Clouds 15 1004 67 10000 4.6 290 15:20 21.07.2019
4855 Clouds 15 1004 67 10000 4.6 280 14:42 21.07.2019
4856 Clouds 15 1004 67 10000 4.6 280 14:24 21.07.2019
4857 Clouds 15 1005 76 10000 5.7 330 13:53 21.07.2019
4858 Clouds 15 1005 67 10000 5.1 290 13:33 21.07.2019
4859 Clouds 14 1005 82 10000 3.1 20 12:55 21.07.2019
4860 Clouds 14 1005 71 10000 4.1 290 12:37 21.07.2019
4861 Clouds 14 1005 71 10000 4.1 290 12:18 21.07.2019
4862 Clouds 14 1005 67 10000 2.6 330 11:44 21.07.2019
4863 Clouds 14 1005 67 10000 2.6 330 11:25 21.07.2019
4864 Clouds 13 1005 76 10000 1.5 250 10:43 21.07.2019
4865 Clouds 14 1005 76 10000 1.5 250 10:23 21.07.2019
4866 Clouds 12 1004 87 10000 2.6 170 09:52 21.07.2019
4867 Clouds 12 1004 76 10000 1.5 320 09:32 21.07.2019
4868 Clouds 12 1004 93 10000 3.6 170 08:47 21.07.2019
4869 Clouds 11 1004 76 10000 1 0 08:27 21.07.2019
4870 Clouds 11 1004 81 10000 2.1 310 07:40 21.07.2019
4871 Clouds 10 1004 93 10000 4.1 160 06:59 21.07.2019
4872 Clouds 12 1004 87 10000 4.1 170 05:54 21.07.2019
4873 Clouds 13 1004 87 10000 1 200 02:59 21.07.2019
4874 Clouds 13 1004 87 10000 1.5 140 01:50 21.07.2019
4875 Clouds 14 1003 63 10000 2.6 350 00:42 21.07.2019
4876 Clouds 15 1003 63 10000 2.6 350 00:20 21.07.2019
4877 Clouds 17 1003 67 10000 2.6 90 23:44 20.07.2019
4878 Clouds 17 1003 45 10000 1.5 90 23:21 20.07.2019
4879 Clouds 18 1003 63 10000 3.1 40 22:49 20.07.2019
4880 Clouds 17 1003 45 10000 3.6 100 22:23 20.07.2019
4881 Clouds 18 1003 59 10000 5.1 10 21:58 20.07.2019
4882 Clouds 17 1003 48 10000 3.6 90 21:39 20.07.2019
4883 Clouds 18 1003 48 10000 3.6 90 21:21 20.07.2019
4884 Rain 18 1002 42 10000 5.1 120 20:42 20.07.2019
4885 Rain 18 1002 42 10000 5.1 120 20:42 20.07.2019
4886 Rain 18 1002 42 10000 5.1 120 20:21 20.07.2019
4887 Rain 17 1003 72 10000 5.7 10 19:48 20.07.2019
4888 Rain 18 1002 45 10000 3.1 360 19:25 20.07.2019
4889 Rain 18 1002 59 10000 6.7 10 18:45 20.07.2019
4890 Rain 18 1002 48 10000 2.6 360 18:24 20.07.2019
4891 Rain 17 1003 59 10000 5.7 10 17:55 20.07.2019
4892 Rain 18 1002 52 10000 5.1 330 17:26 20.07.2019
4893 Clouds 18 1002 51 10000 6.2 320 16:46 20.07.2019
4894 Clouds 18 1002 51 10000 6.2 320 16:28 20.07.2019
4895 Clouds 17 1003 63 10000 5.7 20 15:58 20.07.2019
4896 Clouds 16 1003 55 10000 5.1 330 15:40 20.07.2019
4897 Clouds 16 1003 55 10000 5.1 330 15:20 20.07.2019
4898 Clouds 16 1003 67 10000 5.1 30 14:49 20.07.2019
4899 Clouds 17 1003 55 10000 4.6 350 14:29 20.07.2019
4900 Clouds 17 1003 72 10000 5.7 30 13:56 20.07.2019
4901 Clouds 16 1003 62 10000 4.1 350 13:37 20.07.2019
4902 Clouds 16 1003 62 10000 4.1 350 13:18 20.07.2019
4903 Clouds 16 1003 67 10000 4.1 50 12:44 20.07.2019
4904 Clouds 15 1003 58 10000 2.6 280 12:18 20.07.2019
4905 Clear 13 1003 67 10000 2.1 10 11:41 20.07.2019
4906 Clear 15 1003 67 10000 2.1 10 11:20 20.07.2019
4907 Clear 12 1003 66 10000 2.1 10 10:41 20.07.2019
4908 Clear 13 1003 66 10000 2.1 10 10:22 20.07.2019
4909 Clouds 12 1003 81 10000 3.6 40 09:48 20.07.2019
4910 Clouds 12 1003 76 10000 3.1 360 09:25 20.07.2019
4911 Clouds 11 1003 87 10000 5.1 30 08:49 20.07.2019
4912 Clouds 11 1003 71 10000 0.5 0 08:23 20.07.2019
4913 Clouds 11 1003 71 10000 1 0 07:35 20.07.2019
4914 Clouds 10 1003 71 10000 1.5 140 06:46 20.07.2019
4915 Clouds 11 1003 71 10000 1 0 05:24 20.07.2019
4916 Clouds 11 1004 76 10000 1.5 90 04:31 20.07.2019
4917 Clouds 12 1004 87 10000 6.2 30 01:55 20.07.2019
4918 Clouds 12 1004 93 10000 4.1 50 00:53 20.07.2019
4919 Clouds 12 1003 71 10000 3.1 10 00:33 20.07.2019
4920 Clouds 13 1004 87 10000 6.2 30 23:59 19.07.2019
4921 Clouds 14 1003 62 10000 4.6 350 23:39 19.07.2019
4922 Clouds 14 1003 62 10000 4.6 350 23:20 19.07.2019
4923 Clouds 15 1003 59 10000 5.7 360 22:41 19.07.2019
4924 Clouds 15 1003 59 10000 5.7 360 22:22 19.07.2019
4925 Clouds 15 1004 76 10000 6.2 10 21:44 19.07.2019
4926 Clouds 15 1003 59 10000 5.7 360 21:26 19.07.2019
4927 Clouds 15 1004 76 10000 7.7 20 20:44 19.07.2019
4928 Clouds 15 1003 59 10000 5.1 350 20:26 19.07.2019
4929 Clouds 16 1003 71 10000 7.7 20 19:45 19.07.2019
4930 Clouds 15 1003 59 10000 5.7 350 19:20 19.07.2019
4931 Clouds 15 1003 59 10000 5.7 350 19:20 19.07.2019
4932 Clouds 15 1004 76 10000 8.7 30 18:42 19.07.2019
4933 Clouds 15 1003 58 10000 5.1 360 18:21 19.07.2019
4934 Clouds 15 1003 58 10000 5.1 360 18:21 19.07.2019
4935 Clouds 14 1004 82 10000 7.7 30 17:50 19.07.2019
4936 Clouds 14 1003 62 10000 4.1 350 17:27 19.07.2019
4937 Clouds 14 1004 76 10000 9.3 30 16:48 19.07.2019
4938 Clouds 14 1003 67 10000 4.6 340 16:26 19.07.2019
4939 Clouds 14 1004 82 10000 8.7 40 15:50 19.07.2019
4940 Clouds 13 1003 62 10000 5.7 10 15:31 19.07.2019
4941 Rain 12 1004 81 10000 9.8 40 14:57 19.07.2019
4942 Rain 12 1003 81 10000 8.7 10 14:38 19.07.2019
4943 Rain 13 1003 81 10000 8.7 10 14:20 19.07.2019
4944 Clouds 14 1003 82 10000 10.3 40 13:44 19.07.2019
4945 Clouds 14 1003 82 10000 10.3 40 13:44 19.07.2019
4946 Clouds 14 1003 82 10000 10.3 40 13:44 19.07.2019
4947 Clouds 14 1003 82 10000 10.3 40 13:44 19.07.2019
4948 Clouds 14 1003 82 10000 10.3 40 13:44 19.07.2019
4949 Clouds 13 1003 66 10000 6.7 20 13:25 19.07.2019
4950 Rain 12 1003 81 10000 7.7 30 12:55 19.07.2019
4951 Rain 12 1003 71 10000 6.2 10 12:31 19.07.2019
4952 Rain 12 1003 81 10000 8.2 30 11:58 19.07.2019
4953 Rain 13 1003 71 10000 1.5 260 11:40 19.07.2019
4954 Rain 13 1003 71 10000 1.5 260 11:18 19.07.2019
4955 Clouds 12 1003 71 10000 2.6 190 10:41 19.07.2019
4956 Clouds 12 1003 71 10000 2.6 190 10:21 19.07.2019
4957 Clouds 12 1003 81 10000 9.3 20 09:44 19.07.2019
4958 Clouds 12 1002 71 10000 3.1 230 09:22 19.07.2019
4959 Clouds 11 1003 87 10000 9.3 20 08:59 19.07.2019
4960 Clouds 11 1002 76 10000 4.6 190 08:40 19.07.2019
4961 Clouds 11 1003 81 10000 7.2 30 07:53 19.07.2019
4962 Clear 11 1002 76 10000 1.5 190 07:28 19.07.2019
4963 Clear 11 1003 81 10000 10.3 30 05:55 19.07.2019
4964 Clouds 12 1002 71 10000 2.6 350 02:23 19.07.2019
4965 Clouds 14 1002 82 10000 6.2 20 00:59 19.07.2019
4966 Clouds 15 1002 51 10000 3.1 90 00:35 19.07.2019
4967 Clouds 15 1002 63 10000 3.1 350 23:44 18.07.2019
4968 Clouds 16 1002 63 10000 3.1 350 23:24 18.07.2019
4969 Clouds 17 1002 67 10000 7.2 20 22:59 18.07.2019
4970 Clouds 16 1001 48 10000 5.7 70 22:39 18.07.2019
4971 Clouds 17 1001 48 10000 5.7 70 22:19 18.07.2019
4972 Clouds 17 1001 72 10000 6.7 30 21:44 18.07.2019
4973 Clouds 17 1001 48 10000 5.7 360 21:26 18.07.2019
4974 Clouds 17 1001 72 10000 7.2 20 20:51 18.07.2019
4975 Clouds 17 1001 45 10000 4.6 10 20:29 18.07.2019
4976 Clouds 18 1001 67 10000 7.7 10 19:54 18.07.2019
4977 Clouds 18 1000 48 10000 4.6 20 19:32 18.07.2019
4978 Clouds 18 1001 67 10000 7.2 20 18:58 18.07.2019
4979 Clouds 18 1001 45 10000 4.6 10 18:40 18.07.2019
4980 Clouds 18 1001 45 10000 4.6 10 18:20 18.07.2019
4981 Clouds 18 1001 48 10000 7.2 20 17:42 18.07.2019
4982 Clouds 18 1001 48 10000 7.2 20 17:24 18.07.2019
4983 Clouds 18 1001 67 10000 7.2 30 16:56 18.07.2019
4984 Clouds 18 1001 45 10000 4.1 350 16:31 18.07.2019
4985 Clouds 17 1001 67 10000 7.2 20 15:59 18.07.2019
4986 Clouds 17 1001 59 10000 5.7 360 15:39 18.07.2019
4987 Clouds 17 1001 59 10000 5.7 360 15:21 18.07.2019
4988 Clouds 16 1002 72 10000 7.2 40 14:45 18.07.2019
4989 Clouds 15 1001 59 10000 3.1 350 14:26 18.07.2019
4990 Clouds 15 1002 72 10000 7.2 20 13:48 18.07.2019
4991 Clouds 15 1001 59 10000 3.6 350 13:23 18.07.2019
4992 Clouds 14 1002 76 10000 7.2 20 12:50 18.07.2019
4993 Clear 14 1001 62 10000 2.1 300 12:21 18.07.2019
4994 Clouds 13 1002 76 10000 7.2 10 11:58 18.07.2019
4995 Clear 13 1001 71 10000 2.6 290 11:39 18.07.2019
4996 Clear 13 1001 71 10000 2.6 290 11:20 18.07.2019
4997 Clear 13 1002 67 10000 1 0 10:41 18.07.2019
4998 Clear 12 1002 87 10000 6.7 20 09:50 18.07.2019
4999 Clouds 12 1002 82 10000 1 0 09:26 18.07.2019
5000 Clear 11 1002 87 10000 7.2 30 08:52 18.07.2019
5001 Clear 11 1002 93 10000 1.5 130 08:25 18.07.2019
5002 Clouds 11 1002 93 10000 4.6 10 07:56 18.07.2019
5003 Clear 11 1001 87 10000 5.09 30.688 07:35 18.07.2019
5004 Clear 11 1002 93 10000 5.7 20 06:46 18.07.2019
5005 Clear 11 1001 87 10000 2.1 130 06:19 18.07.2019
5006 Clear 11 1002 81 10000 1.5 260 03:29 18.07.2019
5007 Clouds 12 1002 82 10000 6.7 20 01:52 18.07.2019
5008 Clouds 13 1002 71 10000 1.5 330 01:33 18.07.2019
5009 Clouds 16 1002 82 10000 5.7 360 23:57 17.07.2019
5010 Clouds 16 1001 63 10000 6.7 10 23:21 17.07.2019
5011 Rain 16 1002 82 10000 6.7 360 22:59 17.07.2019
5012 Rain 17 1002 59 10000 7.7 360 22:41 17.07.2019
5013 Rain 17 1002 59 10000 7.7 360 22:21 17.07.2019
5014 Clouds 17 1002 72 10000 7.2 360 21:56 17.07.2019
5015 Clouds 17 1001 59 10000 5.7 360 21:37 17.07.2019
5016 Clouds 16 1001 59 10000 5.7 360 21:19 17.07.2019
5017 Clouds 15 1002 77 10000 2.6 220 20:41 17.07.2019
5018 Clouds 15 1002 77 10000 2.6 220 20:21 17.07.2019
5019 Rain 15 1002 77 10000 6.2 330 19:59 17.07.2019
5020 Rain 15 1002 77 10000 2.1 270 19:40 17.07.2019
5021 Rain 15 1002 77 10000 2.1 270 19:19 17.07.2019
5022 Rain 15 1002 77 10000 6.7 310 18:43 17.07.2019
5023 Rain 15 1002 82 10000 6.7 300 18:21 17.07.2019
5024 Rain 15 1002 82 10000 6.7 300 18:21 17.07.2019
5025 Clouds 14 1002 82 10000 6.2 330 17:56 17.07.2019
5026 Clouds 14 1002 82 10000 6.2 330 17:56 17.07.2019
5027 Clouds 15 1002 77 10000 7.2 300 17:38 17.07.2019
5028 Clouds 15 1002 77 10000 7.2 300 17:19 17.07.2019
5029 Clouds 15 1002 77 10000 5.1 320 16:40 17.07.2019
5030 Clouds 15 1002 77 10000 5.1 320 16:19 17.07.2019
5031 Clouds 16 1003 72 10000 5.7 350 15:51 17.07.2019
5032 Clouds 16 1002 72 10000 4.6 320 15:29 17.07.2019
5033 Clouds 16 1003 67 10000 4.6 10 14:56 17.07.2019
5034 Clouds 15 1002 82 10000 2.6 280 14:37 17.07.2019
5035 Clouds 15 1002 82 10000 2.6 280 14:19 17.07.2019
5036 Clouds 15 1002 77 10000 5.1 360 13:45 17.07.2019
5037 Clouds 15 1002 82 10000 3.1 260 13:25 17.07.2019
5038 Clouds 14 1002 82 10000 1.5 0 12:44 17.07.2019
5039 Clouds 14 1002 82 10000 1.5 0 12:23 17.07.2019
5040 Rain 14 1003 100 5000 3.1 40 11:57 17.07.2019
5041 Rain 13 1002 87 9000 2.1 340 11:38 17.07.2019
5042 Rain 13 1002 87 9000 2.1 340 11:19 17.07.2019
5043 Mist 13 1002 93 7000 2.1 320 10:43 17.07.2019
5044 Mist 13 1002 93 7000 2.1 320 10:20 17.07.2019
5045 Fog 12 1002 100 200 2.1 350 09:44 17.07.2019
5046 Fog 12 1002 87 9000 2.6 350 09:26 17.07.2019
5047 Mist 12 1002 100 300 1.5 50 08:44 17.07.2019
5048 Mist 12 1002 93 7000 2.1 360 08:22 17.07.2019
5049 Mist 12 1002 100 500 1 60 07:51 17.07.2019
5050 Mist 12 1002 93 7000 1.5 360 07:28 17.07.2019
5051 Mist 12 1002 100 2000 1 300 06:59 17.07.2019
5052 Drizzle 12 1002 93 8000 1 0 06:37 17.07.2019
5053 Drizzle 12 1002 93 8000 1 0 06:18 17.07.2019
5054 Rain 11 1002 93 10000 1 360 05:32 17.07.2019
5055 Drizzle 12 1002 100 7000 3.1 240 04:49 17.07.2019
5056 Drizzle 12 1002 100 5000 2.6 210 03:46 17.07.2019
5057 Rain 12 1002 93 10000 0.99 50.18 02:32 17.07.2019
5058 Rain 12 1002 93 9000 0.99 50.18 01:41 17.07.2019
5059 Mist 12 1002 93 2000 0.5 0 01:20 17.07.2019
5060 Fog 12 1002 93 500 1.5 260 00:38 17.07.2019
5061 Fog 13 1002 93 500 1.5 260 00:20 17.07.2019
5062 Drizzle 13 1002 93 500 2.1 250 23:42 16.07.2019
5063 Drizzle 13 1002 93 500 2.1 250 23:22 16.07.2019
5064 Drizzle 13 1003 100 10000 2.6 360 22:43 16.07.2019
5065 Drizzle 13 1003 93 2000 2.1 280 22:25 16.07.2019
5066 Rain 13 1003 100 10000 3.6 360 21:57 16.07.2019
5067 Rain 13 1003 87 4500 2.6 280 21:39 16.07.2019
5068 Rain 14 1003 87 4500 2.6 280 21:19 16.07.2019
5069 Rain 14 1003 87 2500 2.1 310 20:41 16.07.2019
5070 Rain 14 1003 87 2500 2.1 310 20:23 16.07.2019
5071 Rain 14 1003 87 2500 2.1 310 20:23 16.07.2019
5072 Rain 14 1003 100 10000 3.1 50 19:54 16.07.2019
5073 Rain 14 1003 87 2900 3.1 330 19:30 16.07.2019
5074 Rain 14 1003 87 2900 3.1 330 19:30 16.07.2019
5075 Rain 14 1003 87 10000 2.1 40 18:59 16.07.2019
5076 Rain 15 1004 87 2500 2.6 350 18:41 16.07.2019
5077 Rain 15 1004 87 2500 2.6 350 18:21 16.07.2019
5078 Drizzle 16 1003 72 10000 3.6 110 17:49 16.07.2019
5079 Drizzle 16 1004 82 10000 3.1 20 17:28 16.07.2019
5080 Rain 16 1004 77 10000 5.7 110 16:51 16.07.2019
5081 Rain 16 1004 72 10000 1.5 0 16:27 16.07.2019
5082 Clouds 16 1004 87 10000 4.6 140 15:57 16.07.2019
5083 Clouds 16 1005 72 10000 3.6 150 15:39 16.07.2019
5084 Clouds 16 1005 72 10000 3.6 150 15:19 16.07.2019
5085 Rain 16 1005 87 10000 4.6 130 14:55 16.07.2019
5086 Clouds 15 1005 72 10000 4.6 110 14:36 16.07.2019
5087 Clouds 15 1005 72 10000 4.6 110 14:18 16.07.2019
5088 Clouds 15 1005 77 10000 3.6 100 13:38 16.07.2019
5089 Clouds 15 1005 77 10000 3.6 100 13:18 16.07.2019
5090 Rain 15 1005 93 10000 4.6 120 12:43 16.07.2019
5091 Rain 15 1005 77 10000 2.6 110 12:20 16.07.2019
5092 Rain 14 1005 100 10000 2.1 60 11:54 16.07.2019
5093 Rain 14 1006 82 10000 3.6 80 11:36 16.07.2019
5094 Rain 14 1006 82 10000 3.6 80 11:18 16.07.2019
5095 Rain 14 1006 82 10000 3.6 80 11:18 16.07.2019
5096 Rain 14 1006 87 10000 3.1 80 10:44 16.07.2019
5097 Rain 14 1006 87 10000 3.1 80 10:20 16.07.2019
5098 Drizzle 14 1006 93 10000 4.1 50 09:44 16.07.2019
5099 Drizzle 13 1007 82 10000 4.1 100 09:21 16.07.2019
5100 Drizzle 13 1007 100 10000 3.6 40 08:49 16.07.2019
5101 Drizzle 13 1007 87 10000 2.6 70 08:28 16.07.2019
5102 Drizzle 13 1007 100 10000 4.1 40 07:58 16.07.2019
5103 Drizzle 13 1008 87 10000 2.1 10 07:39 16.07.2019
5104 Drizzle 13 1008 100 10000 5.1 40 06:59 16.07.2019
5105 Drizzle 13 1008 82 10000 3.1 30 06:38 16.07.2019
5106 Drizzle 13 1008 93 10000 3.1 60 05:57 16.07.2019
5107 Drizzle 13 1009 82 10000 2.6 50 05:31 16.07.2019
5108 Clouds 13 1009 93 10000 3.1 90 04:52 16.07.2019
5109 Clouds 13 1010 82 10000 3.6 130 03:44 16.07.2019
5110 Drizzle 12 1011 82 10000 3.6 90 02:53 16.07.2019
5111 Drizzle 12 1011 82 10000 3.6 90 02:28 16.07.2019
5112 Clouds 13 1011 76 10000 4.1 110 01:40 16.07.2019
5113 Clouds 14 1011 71 10000 6.7 120 00:39 16.07.2019
5114 Clouds 14 1011 71 10000 6.7 120 00:19 16.07.2019
5115 Clouds 14 1011 71 10000 4.6 110 23:42 15.07.2019
5116 Clouds 13 1011 71 10000 4.6 110 23:23 15.07.2019
5117 Clouds 14 1011 87 10000 6.2 100 22:47 15.07.2019
5118 Clouds 13 1012 71 10000 4.1 120 22:21 15.07.2019
5119 Rain 14 1011 87 10000 6.7 130 21:57 15.07.2019
5120 Clouds 14 1012 72 10000 5.1 120 21:39 15.07.2019
5121 Clouds 15 1012 72 10000 5.1 120 21:19 15.07.2019
5122 Rain 15 1012 93 10000 6.7 120 20:45 15.07.2019
5123 Rain 15 1012 72 10000 5.1 120 20:24 15.07.2019
5124 Rain 15 1012 93 10000 5.1 130 19:58 15.07.2019
5125 Rain 15 1012 67 10000 7.2 130 19:39 15.07.2019
5126 Rain 15 1012 67 10000 7.2 130 19:19 15.07.2019
5127 Rain 14 1012 93 10000 4.1 110 18:46 15.07.2019
5128 Rain 15 1013 72 10000 4.1 120 18:22 15.07.2019
5129 Clouds 15 1013 93 10000 5.7 130 17:58 15.07.2019
5130 Clouds 15 1014 77 10000 3.1 140 17:39 15.07.2019
5131 Clouds 15 1014 77 10000 3.1 140 17:21 15.07.2019
5132 Clouds 15 1013 93 10000 7.7 130 16:58 15.07.2019
5133 Mist 15 1014 77 10000 3.1 170 16:37 15.07.2019
5134 Mist 14 1014 77 10000 3.1 170 16:18 15.07.2019
5135 Drizzle 15 1014 77 10000 5.7 160 15:41 15.07.2019
5136 Drizzle 15 1014 77 10000 5.7 160 15:23 15.07.2019
5137 Drizzle 15 1013 100 5000 7.7 140 14:59 15.07.2019
5138 Drizzle 15 1013 77 10000 7.2 150 14:38 15.07.2019
5139 Drizzle 15 1013 77 10000 7.2 150 14:19 15.07.2019
5140 Drizzle 14 1013 100 7000 6.7 130 13:47 15.07.2019
5141 Drizzle 14 1014 77 10000 6.2 140 13:19 15.07.2019
5142 Rain 15 1013 100 5000 7.7 140 12:47 15.07.2019
5143 Rain 14 1014 77 10000 5.1 100 12:27 15.07.2019
5144 Rain 13 1013 100 4000 8.2 140 11:57 15.07.2019
5145 Rain 14 1014 82 10000 4.6 110 11:38 15.07.2019
5146 Rain 14 1014 82 10000 4.6 110 11:18 15.07.2019
5147 Rain 14 1013 82 10000 4.1 100 10:40 15.07.2019
5148 Rain 14 1013 82 10000 4.1 100 10:22 15.07.2019
5149 Rain 14 1014 82 10000 3.6 60 09:42 15.07.2019
5150 Rain 13 1014 82 10000 3.6 60 09:20 15.07.2019
5151 Rain 13 1013 93 10000 7.7 130 08:46 15.07.2019
5152 Rain 13 1013 82 10000 6.2 90 08:25 15.07.2019
5153 Drizzle 13 1013 93 3000 7.2 130 07:52 15.07.2019
5154 Drizzle 13 1014 82 10000 4.6 100 07:30 15.07.2019
5155 Drizzle 13 1014 76 10000 5.1 100 06:41 15.07.2019
5156 Drizzle 13 1014 76 10000 5.1 100 06:20 15.07.2019
5157 Rain 13 1014 82 10000 4.6 110 05:42 15.07.2019
5158 Rain 13 1014 100 3500 7.2 130 04:46 15.07.2019
5159 Rain 13 1014 82 10000 4.6 90 04:26 15.07.2019
5160 Drizzle 13 1014 82 10000 4.1 80 03:23 15.07.2019
5161 Drizzle 13 1015 82 10000 3.6 100 02:23 15.07.2019
5162 Rain 14 1015 82 10000 3.6 90 01:34 15.07.2019
5163 Rain 14 1014 93 10000 7.2 130 00:53 15.07.2019
5164 Rain 13 1015 82 10000 5.7 90 00:28 15.07.2019
5165 Drizzle 14 1014 93 9000 7.2 140 23:59 14.07.2019
5166 Drizzle 13 1015 87 10000 5.1 80 23:40 14.07.2019
5167 Drizzle 14 1015 87 10000 5.1 80 23:20 14.07.2019
5168 Drizzle 14 1015 87 10000 5.1 80 23:20 14.07.2019
5169 Rain 13 1014 100 10000 7.2 130 22:57 14.07.2019
5170 Rain 13 1015 82 10000 6.2 90 22:38 14.07.2019
5171 Rain 13 1015 82 10000 6.2 90 22:20 14.07.2019
5172 Drizzle 13 1015 87 10000 4.6 90 21:43 14.07.2019
5173 Drizzle 13 1015 87 10000 4.6 90 21:19 14.07.2019
5174 Drizzle 13 1015 87 10000 4.6 90 21:19 14.07.2019
5175 Drizzle 13 1015 100 7000 6.2 130 20:58 14.07.2019
5176 Drizzle 14 1015 82 10000 6.2 90 20:38 14.07.2019
5177 Drizzle 14 1015 82 10000 6.2 90 20:20 14.07.2019
5178 Drizzle 13 1015 100 3500 6.2 120 19:47 14.07.2019
5179 Drizzle 13 1015 87 10000 5.7 100 19:28 14.07.2019
5180 Drizzle 13 1015 93 4500 7.2 120 18:58 14.07.2019
5181 Drizzle 14 1016 82 10000 5.1 90 18:40 14.07.2019
5182 Drizzle 14 1016 82 10000 5.1 90 18:21 14.07.2019
5183 Drizzle 14 1015 87 10000 6.7 130 17:54 14.07.2019
5184 Drizzle 14 1016 82 9000 5.1 100 17:23 14.07.2019
5185 Rain 14 1015 100 2500 6.2 130 16:52 14.07.2019
5186 Rain 14 1015 82 10000 7.2 100 16:25 14.07.2019
5187 Rain 14 1015 93 10000 7.2 110 15:57 14.07.2019
5188 Rain 14 1016 82 10000 6.2 100 15:37 14.07.2019
5189 Rain 14 1016 87 10000 4.6 110 14:58 14.07.2019
5190 Rain 13 1016 76 10000 6.2 90 14:37 14.07.2019
5191 Rain 13 1016 76 10000 6.2 90 14:19 14.07.2019
5192 Rain 14 1016 87 10000 3.6 70 13:45 14.07.2019
5193 Rain 14 1016 76 10000 5.1 90 13:22 14.07.2019
5194 Rain 13 1016 93 10000 3.6 70 12:56 14.07.2019
5195 Clouds 13 1016 76 10000 4.6 70 12:37 14.07.2019
5196 Clouds 13 1016 76 10000 4.6 70 12:18 14.07.2019
5197 Drizzle 12 1017 87 10000 4.1 80 11:45 14.07.2019
5198 Drizzle 11 1017 87 10000 4.1 80 11:20 14.07.2019
5199 Rain 11 1017 100 10000 4.1 70 10:42 14.07.2019
5200 Rain 11 1017 87 10000 3.1 70 10:20 14.07.2019
5201 Drizzle 11 1017 100 8000 4.1 60 09:45 14.07.2019
5202 Drizzle 11 1017 87 10000 3.1 70 09:27 14.07.2019
5203 Drizzle 11 1017 87 10000 3.6 50 08:46 14.07.2019
5204 Drizzle 11 1017 87 10000 3.6 50 08:24 14.07.2019
5205 Drizzle 11 1017 87 10000 2.6 70 07:41 14.07.2019
5206 Drizzle 11 1017 87 10000 2.6 70 07:19 14.07.2019
5207 Drizzle 11 1017 93 10000 1 80 05:45 14.07.2019
5208 Drizzle 11 1017 93 10000 1 80 05:45 14.07.2019
5209 Rain 11 1018 93 10000 2.1 150 03:51 14.07.2019
5210 Rain 11 1018 87 10000 1.34 253.366 03:33 14.07.2019
5211 Rain 11 1018 93 10000 3.1 170 02:52 14.07.2019
5212 Rain 11 1019 87 10000 1 220 02:22 14.07.2019
5213 Rain 11 1019 87 10000 3.1 220 01:34 14.07.2019
5214 Rain 11 1018 93 10000 5.1 180 00:59 14.07.2019
5215 Rain 11 1019 87 10000 4.6 210 00:40 14.07.2019
5216 Rain 11 1019 87 10000 4.6 210 00:20 14.07.2019
5217 Rain 12 1018 93 10000 4.6 200 23:56 13.07.2019
5218 Rain 12 1018 81 10000 6.2 190 23:37 13.07.2019
5219 Rain 12 1018 81 10000 6.2 190 23:19 13.07.2019
5220 Drizzle 12 1018 81 10000 6.2 190 22:40 13.07.2019
5221 Drizzle 13 1018 81 10000 6.2 190 22:21 13.07.2019
5222 Clouds 13 1018 87 10000 6.2 170 21:45 13.07.2019
5223 Clouds 13 1018 82 10000 4.6 210 21:20 13.07.2019
5224 Clouds 13 1018 87 10000 4.6 200 20:47 13.07.2019
5225 Clouds 13 1018 87 10000 3.6 210 20:28 13.07.2019
5226 Drizzle 13 1018 93 10000 5.7 210 19:48 13.07.2019
5227 Clouds 13 1018 76 10000 3.6 200 19:29 13.07.2019
5228 Drizzle 14 1018 93 9000 5.1 210 18:46 13.07.2019
5229 Clouds 14 1018 76 10000 5.1 210 18:23 13.07.2019
5230 Clouds 14 1018 82 10000 6.2 210 17:42 13.07.2019
5231 Clouds 14 1018 82 10000 6.2 210 17:22 13.07.2019
5232 Clouds 15 1018 82 10000 4.6 180 16:58 13.07.2019
5233 Clouds 15 1018 82 10000 4.1 210 16:39 13.07.2019
5234 Clouds 15 1018 82 10000 4.1 210 16:21 13.07.2019
5235 Clouds 14 1018 87 10000 4.6 170 15:46 13.07.2019
5236 Clouds 14 1018 87 10000 2.1 300 15:23 13.07.2019
5237 Clouds 14 1018 87 10000 4.6 150 14:46 13.07.2019
5238 Clouds 14 1018 87 10000 2.1 300 14:26 13.07.2019
5239 Clouds 14 1018 82 10000 4.6 150 13:56 13.07.2019
5240 Clouds 13 1018 87 10000 1 0 13:37 13.07.2019
5241 Clouds 13 1018 87 10000 1 0 13:18 13.07.2019
5242 Clouds 13 1018 87 10000 1.45 207.611 12:40 13.07.2019
5243 Clouds 13 1018 87 10000 1.45 207.611 12:40 13.07.2019
5244 Clouds 13 1018 87 10000 0.75 136.904 12:22 13.07.2019
5245 Clouds 13 1018 87 10000 0.75 136.904 12:22 13.07.2019
5246 Rain 12 1018 100 10000 3.6 170 11:52 13.07.2019
5247 Rain 12 1018 87 10000 2.1 280 11:20 13.07.2019
5248 Rain 12 1018 93 4000 3.6 170 10:45 13.07.2019
5249 Rain 12 1017 87 10000 2.1 280 10:25 13.07.2019
5250 Clouds 12 1017 93 10000 4.1 170 09:59 13.07.2019
5251 Mist 12 1017 87 10000 2.6 300 09:40 13.07.2019
5252 Mist 12 1017 87 10000 2.6 300 09:18 13.07.2019
5253 Clouds 12 1017 87 10000 1.5 300 08:41 13.07.2019
5254 Clouds 12 1017 87 10000 1.5 300 08:22 13.07.2019
5255 Fog 12 1017 93 10000 0.52 152.114 07:30 13.07.2019
5256 Mist 12 1017 100 8000 4.1 170 06:49 13.07.2019
5257 Mist 11 1017 100 10000 3.1 180 05:59 13.07.2019
5258 Mist 12 1017 87 9000 1 210 05:33 13.07.2019
5259 Fog 12 1017 87 10000 1 240 04:24 13.07.2019
5260 Clouds 12 1017 93 10000 2.6 160 03:57 13.07.2019
5261 Clouds 12 1016 87 10000 1.5 280 03:39 13.07.2019
5262 Clouds 13 1016 87 10000 1.5 280 02:20 13.07.2019
5263 Clouds 13 1016 82 10000 2.1 280 01:43 13.07.2019
5264 Clouds 13 1016 82 10000 2.1 280 01:19 13.07.2019
5265 Clouds 13 1016 93 10000 1.5 240 00:57 13.07.2019
5266 Clouds 13 1016 82 10000 2.1 290 00:20 13.07.2019
5267 Clouds 13 1016 93 10000 0.5 260 23:49 12.07.2019
5268 Clouds 13 1016 82 10000 1.5 360 23:29 12.07.2019
5269 Clouds 14 1016 87 10000 2.1 280 22:46 12.07.2019
5270 Clouds 14 1016 76 10000 2.1 310 22:24 12.07.2019
5271 Clouds 14 1016 87 10000 1.5 300 21:57 12.07.2019
5272 Clouds 13 1016 76 10000 2.1 330 21:39 12.07.2019
5273 Clouds 15 1016 76 10000 2.1 330 21:19 12.07.2019
5274 Clouds 15 1016 76 10000 2.1 330 21:19 12.07.2019
5275 Clouds 15 1015 76 10000 1.5 20 20:42 12.07.2019
5276 Clouds 15 1015 76 10000 1.5 20 20:21 12.07.2019
5277 Clouds 15 1015 82 10000 1.5 240 19:42 12.07.2019
5278 Clouds 14 1015 76 10000 2.1 360 19:24 12.07.2019
5279 Clouds 14 1015 87 10000 2.1 270 18:46 12.07.2019
5280 Clouds 14 1015 76 10000 2.1 300 18:22 12.07.2019
5281 Clouds 14 1016 87 10000 2.1 240 17:55 12.07.2019
5282 Clouds 14 1015 82 10000 2.6 310 17:37 12.07.2019
5283 Clouds 14 1015 82 10000 2.6 310 17:19 12.07.2019
5284 Clouds 14 1015 82 10000 2.1 300 16:36 12.07.2019
5285 Clouds 15 1015 82 10000 2.1 300 16:18 12.07.2019
5286 Clouds 15 1015 82 10000 2.6 280 15:38 12.07.2019
5287 Clouds 13 1015 82 10000 2.6 280 15:19 12.07.2019
5288 Clouds 14 1015 87 10000 2.1 100 14:44 12.07.2019
5289 Clouds 14 1015 82 10000 2.6 290 14:21 12.07.2019
5290 Clouds 15 1015 82 10000 0.5 0 13:47 12.07.2019
5291 Clouds 15 1014 87 10000 2.1 280 13:23 12.07.2019
5292 Rain 14 1014 87 10000 2.1 60 12:43 12.07.2019
5293 Rain 13 1014 87 10000 2.6 290 12:23 12.07.2019
5294 Rain 13 1014 87 10000 3.1 50 11:47 12.07.2019
5295 Rain 13 1014 87 10000 2.1 300 11:24 12.07.2019
5296 Drizzle 13 1014 93 10000 3.1 40 10:59 12.07.2019
5297 Drizzle 12 1014 87 10000 1.5 290 10:41 12.07.2019
5298 Drizzle 12 1014 87 10000 1.5 290 10:23 12.07.2019
5299 Clouds 12 1014 93 10000 2.1 40 09:53 12.07.2019
5300 Clouds 12 1014 93 10000 1.5 320 09:27 12.07.2019
5301 Rain 11 1014 100 10000 1.5 80 08:51 12.07.2019
5302 Rain 11 1014 93 10000 1.5 350 08:24 12.07.2019
5303 Clouds 12 1014 100 10000 2.1 50 07:51 12.07.2019
5304 Clouds 12 1014 93 10000 1.5 280 07:31 12.07.2019
5305 Clouds 11 1014 93 5000 2.1 310 06:32 12.07.2019
5306 Rain 11 1014 100 10000 1 50 05:52 12.07.2019
5307 Rain 12 1013 93 10000 2.6 60 04:53 12.07.2019
5308 Rain 12 1013 93 10000 2.6 60 04:53 12.07.2019
5309 Drizzle 12 1014 93 6000 2.6 70 02:55 12.07.2019
5310 Clouds 12 1013 76 10000 1 10 01:37 12.07.2019
5311 Clouds 12 1013 87 10000 2.6 70 00:44 12.07.2019
5312 Clouds 12 1013 81 10000 1.5 360 00:19 12.07.2019
5313 Clouds 12 1013 81 10000 4.6 130 23:43 11.07.2019
5314 Clouds 13 1013 81 10000 2.6 350 23:23 11.07.2019
5315 Clouds 13 1013 76 10000 3.6 140 22:48 11.07.2019
5316 Clouds 13 1013 76 10000 3.1 300 22:26 11.07.2019
5317 Clouds 14 1013 76 10000 4.6 140 21:56 11.07.2019
5318 Clouds 14 1013 76 10000 2.1 290 21:37 11.07.2019
5319 Clouds 14 1013 76 10000 2.1 290 21:18 11.07.2019
5320 Clouds 14 1013 76 10000 4.6 140 20:42 11.07.2019
5321 Clouds 14 1013 76 10000 2.1 320 20:23 11.07.2019
5322 Clouds 14 1013 76 10000 3.6 150 19:57 11.07.2019
5323 Clouds 14 1012 82 10000 2.6 330 19:39 11.07.2019
5324 Clouds 14 1012 82 10000 2.6 330 19:20 11.07.2019
5325 Clouds 15 1012 82 10000 3.1 350 18:42 11.07.2019
5326 Clouds 15 1012 82 10000 3.1 350 18:24 11.07.2019
5327 Clouds 14 1012 82 10000 2.6 180 17:49 11.07.2019
5328 Clouds 14 1012 87 10000 3.1 350 17:31 11.07.2019
5329 Rain 15 1012 87 10000 1.5 20 16:55 11.07.2019
5330 Rain 15 1012 82 10000 3.1 310 16:37 11.07.2019
5331 Rain 14 1012 82 10000 3.1 310 16:18 11.07.2019
5332 Rain 14 1012 82 10000 2.1 310 15:40 11.07.2019
5333 Rain 14 1012 82 10000 2.1 310 15:20 11.07.2019
5334 Rain 14 1012 82 10000 1.5 40 14:45 11.07.2019
5335 Rain 14 1012 76 10000 3.1 320 14:25 11.07.2019
5336 Clouds 14 1012 82 10000 1 50 13:56 11.07.2019
5337 Clouds 14 1012 82 10000 2.6 290 13:37 11.07.2019
5338 Clouds 14 1012 82 10000 2.6 290 13:18 11.07.2019
5339 Clouds 13 1012 82 10000 1.5 340 12:38 11.07.2019
5340 Clouds 13 1012 82 10000 1.5 340 12:19 11.07.2019
5341 Clouds 12 1012 87 10000 2.6 30 11:45 11.07.2019
5342 Clouds 12 1012 87 10000 2.6 350 11:24 11.07.2019
5343 Clouds 12 1012 93 10000 2.6 30 10:51 11.07.2019
5344 Clouds 12 1012 81 10000 1.5 350 10:20 11.07.2019
5345 Clouds 11 1011 93 10000 2.1 30 09:52 11.07.2019
5346 Clouds 11 1011 87 10000 1.5 330 09:31 11.07.2019
5347 Clouds 11 1011 93 10000 2.1 20 08:59 11.07.2019
5348 Clouds 11 1011 87 10000 1 0 08:39 11.07.2019
5349 Clouds 11 1011 87 10000 1 0 08:19 11.07.2019
5350 Clouds 11 1011 100 10000 0.5 10 07:43 11.07.2019
5351 Clouds 11 1011 100 10000 1 10 06:55 11.07.2019
5352 Drizzle 11 1011 87 10000 1.5 290 06:18 11.07.2019
5353 Drizzle 11 1012 87 10000 1.5 300 05:31 11.07.2019
5354 Drizzle 11 1011 100 9000 0.5 100 04:56 11.07.2019
5355 Drizzle 11 1011 93 10000 1.62 28.452 03:43 11.07.2019
5356 Drizzle 11 1012 81 10000 1 250 02:20 11.07.2019
5357 Drizzle 11 1012 81 10000 1.5 260 00:33 11.07.2019
5358 Rain 11 1011 87 10000 1.5 250 23:51 10.07.2019
5359 Rain 11 1011 81 10000 2.6 260 23:27 10.07.2019
5360 Rain 12 1011 81 10000 1.5 260 22:57 10.07.2019
5361 Rain 12 1011 76 10000 3.1 250 22:26 10.07.2019
5362 Clouds 12 1012 81 10000 2.1 270 21:57 10.07.2019
5363 Clouds 13 1011 66 10000 2.6 260 21:38 10.07.2019
5364 Clouds 13 1011 66 10000 2.6 260 21:20 10.07.2019
5365 Clouds 13 1011 76 10000 1.5 270 20:46 10.07.2019
5366 Clouds 13 1011 71 10000 3.1 290 20:26 10.07.2019
5367 Clouds 13 1011 76 10000 1.5 270 19:57 10.07.2019
5368 Rain 13 1011 76 10000 2.6 290 19:38 10.07.2019
5369 Rain 14 1011 76 10000 2.6 290 19:20 10.07.2019
5370 Rain 13 1011 76 10000 3.1 290 18:46 10.07.2019
5371 Rain 14 1011 66 10000 2.6 270 18:23 10.07.2019
5372 Rain 14 1011 81 10000 3.6 280 17:47 10.07.2019
5373 Rain 14 1011 66 10000 3.1 290 17:29 10.07.2019
5374 Rain 14 1012 81 10000 3.6 280 16:47 10.07.2019
5375 Rain 14 1011 66 10000 4.6 280 16:21 10.07.2019
5376 Rain 14 1011 66 10000 4.6 280 16:21 10.07.2019
5377 Clouds 14 1012 76 10000 2.6 290 15:47 10.07.2019
5378 Clouds 14 1012 76 10000 2.6 290 15:47 10.07.2019
5379 Clouds 13 1011 71 10000 4.1 280 15:26 10.07.2019
5380 Clouds 13 1012 76 10000 1.5 230 14:55 10.07.2019
5381 Rain 12 1011 66 10000 4.1 250 14:37 10.07.2019
5382 Rain 13 1011 66 10000 4.1 250 14:18 10.07.2019
5383 Clouds 13 1011 54 10000 4.1 80 13:38 10.07.2019
5384 Clouds 14 1011 54 10000 4.1 80 13:18 10.07.2019
5385 Clouds 14 1012 76 10000 1 110 12:41 10.07.2019
5386 Clouds 14 1012 58 10000 4.1 90 12:21 10.07.2019
5387 Clouds 13 1012 71 10000 1.5 100 11:50 10.07.2019
5388 Clouds 13 1012 58 10000 4.6 90 11:22 10.07.2019
5389 Clear 13 1012 76 10000 2.1 10 10:58 10.07.2019
5390 Clear 12 1012 58 10000 2.6 30 10:24 10.07.2019
5391 Clear 12 1012 81 10000 2.6 10 09:59 10.07.2019
5392 Clouds 12 1012 62 10000 1.5 10 09:41 10.07.2019
5393 Clouds 12 1012 62 10000 1.5 10 09:20 10.07.2019
5394 Clear 12 1012 87 10000 2.6 10 08:49 10.07.2019
5395 Clear 12 1012 62 10000 2.6 20 08:26 10.07.2019
5396 Clear 12 1012 81 10000 1.5 340 07:51 10.07.2019
5397 Clear 11 1012 58 10000 2.6 50 07:24 10.07.2019
5398 Clear 11 1013 62 10000 2.1 50 06:41 10.07.2019
5399 Clear 11 1013 62 10000 3.1 120 05:42 10.07.2019
5400 Clear 11 1014 58 10000 2.1 100 04:33 10.07.2019
5401 Clear 12 1014 66 10000 2.1 150 02:38 10.07.2019
5402 Clouds 12 1014 71 10000 3.6 330 00:44 10.07.2019
5403 Clouds 14 1014 62 10000 3.6 10 23:57 09.07.2019
5404 Clouds 14 1014 71 10000 1.5 310 23:37 09.07.2019
5405 Clouds 14 1014 71 10000 1.5 310 23:19 09.07.2019
5406 Clouds 14 1014 71 10000 3.1 280 22:40 09.07.2019
5407 Clouds 15 1014 71 10000 3.1 280 22:21 09.07.2019
5408 Clouds 15 1015 62 10000 4.1 360 21:47 09.07.2019
5409 Clouds 15 1015 66 10000 3.6 280 21:26 09.07.2019
5410 Clouds 15 1015 62 10000 4.6 10 20:57 09.07.2019
5411 Clouds 16 1014 58 10000 4.6 330 20:39 09.07.2019
5412 Clouds 15 1014 58 10000 4.6 330 20:21 09.07.2019
5413 Clouds 15 1015 62 10000 4.6 330 19:39 09.07.2019
5414 Clouds 15 1015 62 10000 4.6 330 19:19 09.07.2019
5415 Clouds 15 1015 58 10000 5.7 330 18:41 09.07.2019
5416 Clouds 15 1015 58 10000 5.7 330 18:41 09.07.2019
5417 Clouds 15 1015 58 10000 5.7 330 18:22 09.07.2019
5418 Clouds 14 1015 67 10000 6.2 10 17:54 09.07.2019
5419 Clouds 14 1015 66 10000 6.2 330 17:36 09.07.2019
5420 Clouds 14 1015 66 10000 6.2 330 17:18 09.07.2019
5421 Clouds 14 1016 66 10000 5.1 330 16:41 09.07.2019
5422 Clouds 14 1016 66 10000 5.1 330 16:23 09.07.2019
5423 Clouds 15 1016 62 10000 4.1 30 15:44 09.07.2019
5424 Clouds 14 1016 58 10000 4.6 340 15:26 09.07.2019
5425 Clouds 15 1016 58 10000 4.6 40 14:47 09.07.2019
5426 Clouds 15 1016 54 10000 3.1 30 14:24 09.07.2019
5427 Clouds 15 1016 58 10000 4.6 50 13:59 09.07.2019
5428 Clouds 15 1016 50 10000 4.1 90 13:39 09.07.2019
5429 Clouds 15 1016 50 10000 4.1 90 13:20 09.07.2019
5430 Clouds 14 1016 58 10000 4.6 80 12:40 09.07.2019
5431 Clouds 13 1016 58 10000 4.6 80 12:19 09.07.2019
5432 Clouds 13 1016 71 10000 2.6 50 11:57 09.07.2019
5433 Clouds 13 1016 54 10000 5.7 90 11:38 09.07.2019
5434 Clouds 12 1016 54 10000 5.7 90 11:20 09.07.2019
5435 Clouds 12 1016 66 10000 4.6 80 10:48 09.07.2019
5436 Clouds 12 1016 66 10000 5.7 80 10:26 09.07.2019
5437 Clouds 10 1017 71 10000 2.6 100 09:39 09.07.2019
5438 Clouds 10 1017 71 10000 2.6 100 09:20 09.07.2019
5439 Clouds 10 1017 71 10000 2.6 100 09:20 09.07.2019
5440 Clouds 10 1017 71 10000 5.1 80 08:45 09.07.2019
5441 Clouds 10 1016 81 10000 8.2 140 08:45 09.07.2019
5442 Clouds 10 1016 81 10000 8.2 140 08:45 09.07.2019
5443 Clouds 10 1017 71 10000 5.1 80 08:21 09.07.2019
5444 Clouds 9 1013 81 10000 4.1 10 03:52 05.07.2019
5445 Clouds 8 1013 76 10000 3.6 360 03:24 05.07.2019
5446 Clouds 9 1013 87 10000 5.1 350 02:54 05.07.2019
5447 Clouds 9 1012 76 10000 2.6 350 02:36 05.07.2019
5448 Clouds 10 1012 71 10000 4.1 360 01:37 05.07.2019
5449 Clouds 11 1012 81 10000 6.2 330 00:57 05.07.2019
5450 Clouds 12 1011 66 10000 5.1 360 00:39 05.07.2019
5451 Clouds 11 1011 87 10000 7.2 320 23:48 04.07.2019
5452 Clouds 12 1010 81 10000 3.6 320 23:20 04.07.2019
5453 Clouds 12 1011 81 10000 6.2 320 22:44 04.07.2019
5454 Clouds 12 1011 81 10000 6.2 320 22:44 04.07.2019
5455 Clouds 12 1010 76 10000 5.1 320 22:24 04.07.2019
5456 Clouds 11 1010 76 10000 8.2 320 21:57 04.07.2019
5457 Clouds 11 1009 81 10000 5.1 320 21:39 04.07.2019
5458 Clouds 11 1009 81 10000 5.1 320 21:20 04.07.2019
5459 Clouds 11 1009 81 10000 6.2 320 20:40 04.07.2019
5460 Clouds 12 1009 81 10000 6.2 320 20:21 04.07.2019
5461 Rain 11 1009 76 10000 7.7 340 19:56 04.07.2019
5462 Rain 11 1008 87 10000 4.1 350 19:38 04.07.2019
5463 Rain 11 1008 87 10000 4.1 350 19:19 04.07.2019
5464 Rain 11 1009 71 10000 6.7 10 18:42 04.07.2019
5465 Rain 11 1008 87 9000 5.1 350 18:24 04.07.2019
5466 Rain 11 1008 81 10000 5.1 20 17:46 04.07.2019
5467 Rain 11 1008 87 8000 4.1 20 17:19 04.07.2019
5468 Rain 11 1007 93 10000 5.1 30 15:58 04.07.2019
5469 Rain 11 1008 76 10000 2.1 190 15:40 04.07.2019
5470 Rain 11 1008 76 10000 2.1 190 15:22 04.07.2019
5471 Rain 11 1007 87 10000 4.6 130 14:55 04.07.2019
5472 Rain 11 1008 76 10000 3.1 190 14:37 04.07.2019
5473 Rain 11 1008 76 10000 3.1 190 14:18 04.07.2019
5474 Rain 11 1008 81 10000 6.2 180 13:42 04.07.2019
5475 Rain 11 1008 81 10000 6.2 180 13:23 04.07.2019
5476 Rain 11 1007 87 10000 6.2 180 12:57 04.07.2019
5477 Rain 11 1008 76 10000 3.6 120 12:37 04.07.2019
5478 Rain 11 1008 76 10000 3.6 120 12:37 04.07.2019
5479 Rain 11 1008 76 10000 3.6 120 12:19 04.07.2019
5480 Rain 10 1009 81 10000 2.1 120 11:39 04.07.2019
5481 Rain 10 1009 81 10000 2.1 120 11:19 04.07.2019
5482 Rain 10 1009 81 10000 2.1 120 11:19 04.07.2019
5483 Rain 9 1009 87 10000 4.1 160 10:40 04.07.2019
5484 Rain 9 1009 87 10000 4.1 160 10:22 04.07.2019
5485 Drizzle 9 1008 87 10000 5.1 160 09:45 04.07.2019
5486 Drizzle 9 1009 81 10000 3.1 140 09:26 04.07.2019
5487 Drizzle 9 1009 93 10000 4.1 180 08:57 04.07.2019
5488 Drizzle 9 1009 81 7000 3.6 160 08:28 04.07.2019
5489 Drizzle 9 1009 100 10000 3.1 160 07:46 04.07.2019
5490 Drizzle 9 1010 81 10000 3.1 150 07:23 04.07.2019
5491 Clouds 9 1009 100 10000 4.6 150 06:55 04.07.2019
5492 Drizzle 9 1010 93 10000 4.1 170 05:55 04.07.2019
5493 Drizzle 9 1011 81 9000 4.6 150 05:36 04.07.2019
5494 Rain 10 1011 93 10000 4.1 190 02:51 04.07.2019
5495 Drizzle 10 1012 87 10000 4.1 200 01:45 04.07.2019
5496 Clouds 10 1012 66 10000 3.1 170 01:23 04.07.2019
5497 Clouds 10 1013 66 10000 4.1 210 00:28 04.07.2019
5498 Clouds 11 1012 76 10000 4.6 210 23:47 03.07.2019
5499 Clouds 11 1013 66 10000 5.7 220 23:20 03.07.2019
5500 Clouds 11 1013 66 10000 5.7 200 22:55 03.07.2019
5501 Clouds 11 1013 76 10000 5.7 250 22:36 03.07.2019
5502 Clouds 11 1013 76 10000 5.7 250 22:18 03.07.2019
5503 Clouds 11 1013 71 10000 5.7 210 21:46 03.07.2019
5504 Clouds 11 1013 81 10000 3.1 270 21:28 03.07.2019
5505 Clouds 11 1013 71 10000 6.7 220 20:46 03.07.2019
5506 Clouds 11 1013 93 10000 2.6 270 20:27 03.07.2019
5507 Drizzle 12 1013 81 10000 5.1 220 19:53 03.07.2019
5508 Drizzle 12 1013 87 6000 3.6 250 19:33 03.07.2019
5509 Drizzle 12 1013 76 10000 5.1 230 18:54 03.07.2019
5510 Drizzle 11 1013 87 4000 5.7 260 18:36 03.07.2019
5511 Drizzle 12 1013 87 4000 5.7 260 18:18 03.07.2019
5512 Drizzle 13 1013 87 4000 4.1 230 17:41 03.07.2019
5513 Drizzle 12 1013 87 4000 4.1 230 17:18 03.07.2019
5514 Drizzle 12 1013 100 6000 6.2 260 16:44 03.07.2019
5515 Drizzle 12 1013 87 10000 4.6 190 16:23 03.07.2019
5516 Drizzle 13 1013 100 3000 7.2 210 15:50 03.07.2019
5517 Drizzle 13 1013 76 10000 3.6 150 15:31 03.07.2019
5518 Drizzle 12 1013 100 2500 6.2 190 14:58 03.07.2019
5519 Drizzle 13 1013 82 10000 5.1 100 14:39 03.07.2019
5520 Drizzle 13 1013 82 10000 5.1 100 14:19 03.07.2019
5521 Drizzle 12 1013 81 10000 6.7 100 13:43 03.07.2019
5522 Drizzle 12 1013 81 10000 6.7 100 13:24 03.07.2019
5523 Rain 12 1013 93 9000 7.2 170 12:45 03.07.2019
5524 Rain 12 1014 81 10000 7.2 100 12:18 03.07.2019
5525 Rain 11 1014 81 10000 7.2 100 11:43 03.07.2019
5526 Rain 11 1014 81 10000 7.2 100 11:22 03.07.2019
5527 Rain 11 1013 100 10000 8.7 130 10:57 03.07.2019
5528 Rain 11 1014 81 10000 7.7 100 10:36 03.07.2019
5529 Rain 11 1014 81 10000 7.7 100 10:18 03.07.2019
5530 Rain 11 1015 76 10000 7.2 90 09:39 03.07.2019
5531 Rain 10 1015 76 10000 7.2 90 09:20 03.07.2019
5532 Rain 10 1014 100 10000 7.7 130 08:50 03.07.2019
5533 Rain 9 1015 81 10000 7.7 90 08:26 03.07.2019
5534 Rain 10 1016 81 10000 5.7 90 07:40 03.07.2019
5535 Rain 10 1016 81 10000 5.7 90 07:20 03.07.2019
5536 Rain 10 1016 81 10000 6.2 90 06:25 03.07.2019
5537 Rain 10 1017 81 10000 6.2 90 05:34 03.07.2019
5538 Rain 11 1018 76 9000 5.7 90 04:38 03.07.2019
5539 Rain 11 1018 62 10000 4.6 80 03:24 03.07.2019
5540 Rain 11 1019 93 10000 6.2 130 01:49 03.07.2019
5541 Rain 11 1019 58 10000 0.5 0 01:21 03.07.2019
5542 Clear 12 1020 62 10000 1.5 260 00:45 03.07.2019
5543 Clouds 12 1019 81 10000 6.2 130 00:45 03.07.2019
5544 Clear 12 1020 62 10000 1.5 260 00:18 03.07.2019
5545 Clear 12 1020 58 10000 1.94 184.619 23:38 02.07.2019
5546 Clear 13 1020 58 10000 1.94 184.619 23:20 02.07.2019
5547 Clear 12 1020 71 10000 5.1 150 22:56 02.07.2019
5548 Clear 12 1020 54 10000 1 230 22:38 02.07.2019
5549 Clear 12 1020 54 10000 1 230 22:19 02.07.2019
5550 Clear 12 1021 54 10000 2.1 250 21:43 02.07.2019
5551 Clear 14 1021 54 10000 2.1 250 21:23 02.07.2019
5552 Rain 15 1021 54 10000 3.1 160 20:58 02.07.2019
5553 Rain 14 1021 50 10000 2.1 250 20:39 02.07.2019
5554 Rain 14 1021 50 10000 2.1 250 20:20 02.07.2019
5555 Clouds 15 1021 50 10000 2.1 290 19:42 02.07.2019
5556 Clouds 15 1021 50 10000 2.1 290 19:23 02.07.2019
5557 Clear 15 1021 54 10000 1.5 0 18:50 02.07.2019
5558 Clouds 15 1022 43 10000 3.1 290 18:19 02.07.2019
5559 Clear 15 1021 50 10000 1 0 17:45 02.07.2019
5560 Clouds 15 1022 50 10000 3.1 290 17:24 02.07.2019
5561 Clouds 14 1022 58 10000 2.1 220 16:57 02.07.2019
5562 Clouds 14 1022 47 10000 2.6 270 16:39 02.07.2019
5563 Clouds 14 1022 47 10000 2.6 270 16:21 02.07.2019
5564 Clear 14 1022 43 10000 2.6 330 15:40 02.07.2019
5565 Clear 14 1022 43 10000 2.6 330 15:21 02.07.2019
5566 Clouds 13 1022 58 10000 2.6 70 14:45 02.07.2019
5567 Clear 14 1022 50 10000 3.6 340 14:25 02.07.2019
5568 Clouds 13 1022 46 10000 3.1 40 13:43 02.07.2019
5569 Clear 14 1022 50 10000 4.1 290 13:19 02.07.2019
5570 Clear 13 1022 43 10000 2.1 70 12:45 02.07.2019
5571 Clear 12 1022 46 10000 2.6 290 12:24 02.07.2019
5572 Clear 11 1022 50 10000 2.1 70 11:55 02.07.2019
5573 Clear 11 1022 50 10000 1.5 200 11:37 02.07.2019
5574 Clear 11 1022 50 10000 1.5 200 11:18 02.07.2019
5575 Clear 11 1022 57 10000 1.5 0 10:39 02.07.2019
5576 Clear 11 1022 57 10000 1.5 0 10:21 02.07.2019
5577 Clear 9 1022 66 10000 0.5 0 09:43 02.07.2019
5578 Clear 9 1022 66 10000 0.5 0 09:20 02.07.2019
5579 Clear 8 1021 70 10000 1.5 170 08:41 02.07.2019
5580 Clear 8 1021 70 10000 1.5 170 08:20 02.07.2019
5581 Clear 7 1022 75 10000 2.1 360 07:52 02.07.2019
5582 Clear 6 1021 65 10000 1 60 07:20 02.07.2019
5583 Clear 6 1021 81 10000 3.1 360 06:42 02.07.2019
5584 Clear 7 1021 81 10000 2.6 350 05:58 02.07.2019
5585 Clear 7 1021 70 10000 3.6 330 03:53 02.07.2019
5586 Clear 9 1019 66 10000 6.2 310 01:27 02.07.2019
5587 Clear 10 1019 66 10000 5.7 310 23:47 01.07.2019
5588 Clear 10 1019 57 10000 8.7 300 23:20 01.07.2019
5589 Clear 11 1019 66 10000 5.7 310 22:45 01.07.2019
5590 Clouds 11 1018 57 10000 9.8 300 22:27 01.07.2019
5591 Clear 11 1019 61 10000 6.2 310 21:47 01.07.2019
5592 Clouds 11 1018 57 10000 10.8 300 21:26 01.07.2019
5593 Clear 12 1019 61 10000 7.2 310 20:51 01.07.2019
5594 Clouds 12 1017 47 10000 9.8 300 20:22 01.07.2019
5595 Clouds 12 1018 57 10000 7.7 320 19:58 01.07.2019
5596 Clouds 12 1017 50 10000 8.7 320 19:40 01.07.2019
5597 Clouds 12 1017 50 10000 8.7 320 19:22 01.07.2019
5598 Clouds 12 1018 57 10000 7.7 340 18:52 01.07.2019
5599 Clouds 12 1017 53 10000 8.7 320 18:31 01.07.2019
5600 Clouds 12 1018 53 10000 6.7 340 17:58 01.07.2019
5601 Clouds 12 1016 40 10000 7.2 320 17:40 01.07.2019
5602 Clouds 12 1016 40 10000 7.2 320 17:21 01.07.2019
5603 Clouds 12 1017 57 10000 6.2 340 16:46 01.07.2019
5604 Clouds 12 1016 43 10000 5.7 330 16:25 01.07.2019
5605 Clouds 12 1017 57 10000 5.7 340 15:47 01.07.2019
5606 Clouds 11 1015 47 10000 5.7 330 15:28 01.07.2019
5607 Clouds 11 1016 54 10000 7.7 360 14:59 01.07.2019
5608 Clouds 11 1015 54 10000 4.6 360 14:39 01.07.2019
5609 Clouds 10 1015 54 10000 4.6 360 14:19 01.07.2019
5610 Clouds 11 1015 53 10000 3.1 300 13:40 01.07.2019
5611 Clouds 11 1015 53 10000 3.1 300 13:21 01.07.2019
5612 Clouds 9 1014 57 10000 3.1 320 12:42 01.07.2019
5613 Clouds 9 1014 57 10000 3.1 320 12:23 01.07.2019
5614 Clouds 9 1015 65 10000 6.2 10 11:58 01.07.2019
5615 Clouds 8 1014 61 10000 2.1 270 11:38 01.07.2019
5616 Clouds 9 1014 61 10000 2.1 270 11:18 01.07.2019
5617 Clouds 8 1013 57 10000 1.5 130 10:42 01.07.2019
5618 Clouds 8 1013 57 10000 1.5 130 10:21 01.07.2019
5619 Clouds 8 1014 70 10000 5.7 10 09:45 01.07.2019
5620 Clouds 8 1013 61 10000 2.1 90 09:26 01.07.2019
5621 Clouds 7 1013 75 10000 5.7 20 08:58 01.07.2019
5622 Clouds 7 1013 65 10000 1.5 110 08:35 01.07.2019
5623 Clouds 8 1012 61 10000 1 0 07:35 01.07.2019
5624 Clouds 8 1012 75 10000 4.6 20 06:51 01.07.2019
5625 Clear 8 1011 61 10000 1 0 04:45 01.07.2019
5626 Clear 10 1009 57 10000 1.5 120 01:22 01.07.2019
5627 Clear 10 1009 54 10000 3.1 350 00:43 01.07.2019
5628 Clear 10 1009 54 10000 3.1 350 00:21 01.07.2019
5629 Clear 11 1008 54 10000 5.1 360 23:26 30.06.2019
5630 Clouds 12 1009 71 10000 8.7 10 22:58 30.06.2019
5631 Clouds 12 1007 50 10000 4.6 350 22:38 30.06.2019
5632 Clouds 12 1007 50 10000 4.6 350 22:18 30.06.2019
5633 Clear 13 1007 47 10000 6.2 10 21:41 30.06.2019
5634 Clear 13 1007 47 10000 6.2 10 21:19 30.06.2019
5635 Clear 14 1006 47 10000 8.2 10 20:43 30.06.2019
5636 Clear 14 1006 47 10000 8.2 10 20:24 30.06.2019
5637 Clouds 15 1008 62 10000 8.2 360 19:55 30.06.2019
5638 Clear 14 1006 41 10000 10.3 10 19:37 30.06.2019
5639 Clear 14 1006 41 10000 10.3 10 19:18 30.06.2019
5640 Clouds 15 1006 53 10000 5.1 20 18:26 30.06.2019
5641 Clouds 14 1007 54 10000 5.1 20 17:56 30.06.2019
5642 Clear 14 1006 41 10000 4.1 360 17:37 30.06.2019
5643 Clear 14 1006 41 10000 4.1 360 17:18 30.06.2019
5644 Clouds 15 1007 54 10000 5.1 30 16:44 30.06.2019
5645 Clouds 13 1006 53 10000 3.6 360 16:25 30.06.2019
5646 Clouds 12 1006 47 10000 2.6 20 15:37 30.06.2019
5647 Clouds 12 1006 47 10000 2.6 20 15:18 30.06.2019
5648 Clouds 12 1006 62 10000 6.7 30 14:50 30.06.2019
5649 Clouds 12 1006 50 10000 2.1 330 14:29 30.06.2019
5650 Clouds 12 1006 66 10000 7.7 20 13:47 30.06.2019
5651 Clouds 11 1005 57 10000 3.6 340 13:28 30.06.2019
5652 Clouds 10 1006 66 10000 6.7 30 12:52 30.06.2019
5653 Clouds 10 1005 66 10000 1 0 12:28 30.06.2019
5654 Clouds 10 1005 76 10000 8.2 20 11:57 30.06.2019
5655 Clouds 10 1005 66 10000 1 0 11:38 30.06.2019
5656 Clouds 10 1005 66 10000 1 0 11:19 30.06.2019
5657 Clouds 9 1005 76 10000 5.1 20 10:44 30.06.2019
5658 Clouds 10 1005 70 10000 0.5 0 10:19 30.06.2019
5659 Clouds 9 1006 75 10000 6.7 20 09:57 30.06.2019
5660 Clouds 8 1005 76 10000 1 0 09:37 30.06.2019
5661 Clouds 8 1005 76 10000 1 0 09:18 30.06.2019
5662 Clouds 8 1004 81 10000 2.6 90 08:39 30.06.2019
5663 Clouds 8 1004 81 10000 2.6 90 08:19 30.06.2019
5664 Clouds 9 1004 81 10000 2.1 190 07:40 30.06.2019
5665 Clouds 9 1004 81 10000 2.1 190 07:21 30.06.2019
5666 Clouds 9 1005 81 10000 3.1 220 06:23 30.06.2019
5667 Drizzle 10 1005 87 10000 2.6 210 03:27 30.06.2019
5668 Clouds 10 1006 100 10000 2.1 170 01:50 30.06.2019
5669 Rain 10 1006 93 10000 4.1 240 00:45 30.06.2019
5670 Rain 11 1007 87 10000 2.6 250 00:23 30.06.2019
5671 Drizzle 11 1006 93 3000 5.7 240 23:43 29.06.2019
5672 Drizzle 11 1007 87 10000 3.6 220 23:21 29.06.2019
5673 Drizzle 11 1007 100 10000 5.7 230 22:46 29.06.2019
5674 Drizzle 11 1007 93 9000 4.6 220 22:22 29.06.2019
5675 Drizzle 12 1007 100 8000 5.1 210 21:55 29.06.2019
5676 Drizzle 12 1007 87 6000 7.2 220 21:25 29.06.2019
5677 Rain 12 1007 93 6000 6.7 220 20:47 29.06.2019
5678 Rain 13 1007 81 10000 5.7 200 20:29 29.06.2019
5679 Rain 14 1007 76 10000 2.6 40 19:58 29.06.2019
5680 Rain 14 1007 62 10000 4.6 10 19:39 29.06.2019
5681 Rain 14 1007 62 10000 4.6 10 19:19 29.06.2019
5682 Rain 14 1008 82 10000 2.6 30 18:47 29.06.2019
5683 Rain 14 1008 67 10000 2.6 10 18:24 29.06.2019
5684 Clouds 14 1008 62 10000 3.6 340 17:37 29.06.2019
5685 Clouds 14 1008 62 10000 3.6 340 17:19 29.06.2019
5686 Rain 14 1009 67 10000 4.1 320 16:42 29.06.2019
5687 Clouds 15 1010 71 10000 4.6 340 15:59 29.06.2019
5688 Clouds 14 1009 67 10000 4.6 330 15:32 29.06.2019
5689 Clouds 14 1010 76 10000 4.6 340 14:46 29.06.2019
5690 Clouds 14 1010 71 10000 4.1 340 14:27 29.06.2019
5691 Clouds 15 1010 81 10000 3.6 160 13:55 29.06.2019
5692 Clouds 15 1010 67 10000 3.6 300 13:36 29.06.2019
5693 Clouds 15 1010 67 10000 3.6 300 13:18 29.06.2019
5694 Clouds 15 1011 67 10000 2.6 110 12:40 29.06.2019
5695 Clouds 13 1011 67 10000 2.6 110 12:21 29.06.2019
5696 Clouds 13 1011 66 10000 4.1 110 11:43 29.06.2019
5697 Clouds 14 1011 66 10000 4.1 110 11:25 29.06.2019
5698 Clouds 13 1011 81 10000 5.7 120 10:49 29.06.2019
5699 Clouds 13 1011 66 10000 4.1 110 10:21 29.06.2019
5700 Clouds 12 1011 93 10000 4.1 60 09:57 29.06.2019
5701 Clouds 12 1011 93 10000 4.1 60 09:57 29.06.2019
5702 Clouds 10 1011 100 10000 4.1 50 08:55 29.06.2019
5703 Clear 11 1011 87 10000 2.1 30 08:31 29.06.2019
5704 Clear 9 1011 87 10000 0.5 0 07:45 29.06.2019
5705 Clouds 9 1011 100 10000 2.6 60 06:55 29.06.2019
5706 Clear 9 1012 87 10000 1 0 06:36 29.06.2019
5707 Clear 9 1012 87 10000 1 0 06:18 29.06.2019
5708 Clouds 10 1015 93 10000 3.6 10 01:43 29.06.2019
5709 Clouds 11 1015 93 10000 2.6 360 00:51 29.06.2019
5710 Clouds 12 1015 81 10000 2.1 30 23:53 28.06.2019
5711 Clouds 12 1015 71 10000 2.6 310 23:21 28.06.2019
5712 Clouds 12 1015 87 10000 2.1 20 22:47 28.06.2019
5713 Clouds 12 1015 71 10000 2.6 330 22:21 28.06.2019
5714 Rain 12 1015 76 10000 3.1 280 21:45 28.06.2019
5715 Rain 11 1015 76 10000 3.1 280 21:19 28.06.2019
5716 Rain 12 1016 76 10000 3.6 290 20:42 28.06.2019
5717 Rain 12 1016 76 10000 3.6 290 20:20 28.06.2019
5718 Clouds 12 1016 76 8000 4.1 290 19:42 28.06.2019
5719 Clouds 12 1016 76 8000 4.1 290 19:23 28.06.2019
5720 Clouds 12 1016 66 10000 3.1 340 18:42 28.06.2019
5721 Clouds 12 1016 66 10000 3.1 340 18:22 28.06.2019
5722 Clouds 13 1016 87 10000 5.1 230 17:54 28.06.2019
5723 Clouds 13 1016 62 10000 2.6 290 17:28 28.06.2019
5724 Clouds 13 1016 76 10000 3.1 220 16:47 28.06.2019
5725 Clouds 13 1016 71 10000 3.1 270 16:20 28.06.2019
5726 Clouds 13 1016 71 10000 3.6 220 15:47 28.06.2019
5727 Clouds 12 1016 76 10000 4.6 250 15:18 28.06.2019
5728 Clouds 11 1016 76 10000 4.1 200 14:42 28.06.2019
5729 Clouds 12 1016 76 10000 3.1 260 14:21 28.06.2019
5730 Clouds 12 1016 81 10000 4.1 220 13:49 28.06.2019
5731 Clouds 12 1016 81 10000 3.6 230 13:29 28.06.2019
5732 Rain 11 1016 81 10000 5.1 230 12:54 28.06.2019
5733 Rain 11 1016 81 10000 3.6 240 12:36 28.06.2019
5734 Drizzle 10 1016 87 10000 5.1 230 11:47 28.06.2019
5735 Drizzle 10 1016 87 6000 4.6 230 11:19 28.06.2019
5736 Clouds 10 1016 81 10000 5.7 240 10:43 28.06.2019
5737 Clouds 10 1016 81 10000 5.7 240 10:21 28.06.2019
5738 Clouds 10 1015 93 10000 5.1 250 09:47 28.06.2019
5739 Clouds 10 1016 93 10000 7.2 250 09:29 28.06.2019
5740 Clouds 11 1015 87 10000 6.2 260 08:44 28.06.2019
5741 Drizzle 10 1015 87 10000 5.7 220 08:24 28.06.2019
5742 Drizzle 10 1015 93 2500 5.7 220 07:45 28.06.2019
5743 Drizzle 10 1015 93 1500 5.7 220 06:57 28.06.2019
5744 Drizzle 11 1015 93 5000 5.7 190 05:18 28.06.2019
5745 Drizzle 12 1016 87 10000 5.7 160 01:22 28.06.2019
5746 Drizzle 11 1017 87 10000 4.6 160 00:26 28.06.2019
5747 Drizzle 12 1016 93 3000 7.7 170 23:48 27.06.2019
5748 Drizzle 11 1017 87 4000 3.1 180 23:25 27.06.2019
5749 Rain 11 1017 100 3500 7.7 160 22:54 27.06.2019
5750 Rain 11 1018 87 10000 3.6 140 22:36 27.06.2019
5751 Rain 12 1018 87 10000 3.6 140 22:18 27.06.2019
5752 Rain 12 1019 82 10000 4.1 160 21:42 27.06.2019
5753 Rain 12 1019 82 10000 4.1 160 21:24 27.06.2019
5754 Rain 13 1019 100 3000 6.2 150 20:50 27.06.2019
5755 Rain 13 1019 76 10000 4.1 150 20:31 27.06.2019
5756 Drizzle 14 1020 93 1200 6.2 160 19:59 27.06.2019
5757 Drizzle 13 1020 72 10000 5.7 150 19:40 27.06.2019
5758 Drizzle 13 1020 72 10000 5.7 150 19:22 27.06.2019
5759 Mist 13 1021 72 10000 6.7 160 18:42 27.06.2019
5760 Mist 13 1021 72 10000 6.7 160 18:19 27.06.2019
5761 Fog 14 1021 72 10000 6.2 210 17:41 27.06.2019
5762 Fog 14 1021 72 10000 6.2 210 17:22 27.06.2019
5763 Rain 15 1022 77 10000 2.6 220 16:39 27.06.2019
5764 Rain 14 1022 77 10000 2.6 220 16:19 27.06.2019
5765 Rain 14 1022 100 10000 7.7 180 15:51 27.06.2019
5766 Mist 14 1023 77 10000 4.6 180 15:31 27.06.2019
5767 Drizzle 13 1022 100 1500 7.2 180 14:58 27.06.2019
5768 Drizzle 13 1023 87 10000 5.7 170 14:38 27.06.2019
5769 Drizzle 13 1023 87 10000 5.7 170 14:18 27.06.2019
5770 Drizzle 12 1024 87 10000 5.1 210 13:42 27.06.2019
5771 Drizzle 12 1024 87 10000 5.1 210 13:24 27.06.2019
5772 Fog 12 1023 100 900 8.7 190 12:48 27.06.2019
5773 Clouds 13 1024 87 10000 2.6 150 12:24 27.06.2019
5774 Clouds 12 1023 100 10000 5.1 210 11:47 27.06.2019
5775 Clouds 12 1024 87 10000 5.1 190 11:23 27.06.2019
5776 Clouds 12 1024 87 10000 5.1 190 11:23 27.06.2019
5777 Drizzle 11 1024 93 10000 5.1 200 10:57 27.06.2019
5778 Drizzle 11 1024 93 3000 5.1 190 10:37 27.06.2019
5779 Drizzle 11 1024 93 3000 5.1 190 10:19 27.06.2019
5780 Drizzle 11 1024 87 5000 5.1 190 09:38 27.06.2019
5781 Drizzle 11 1024 87 5000 5.1 190 09:38 27.06.2019
5782 Drizzle 11 1024 87 5000 5.1 190 09:20 27.06.2019
5783 Drizzle 10 1024 100 1400 7.2 210 08:48 27.06.2019
5784 Drizzle 10 1025 93 4000 4.6 190 08:26 27.06.2019
5785 Drizzle 10 1024 100 700 6.7 210 07:45 27.06.2019
5786 Drizzle 10 1024 100 300 7.2 210 06:57 27.06.2019
5787 Drizzle 10 1025 93 9000 5.1 210 06:30 27.06.2019
5788 Drizzle 11 1025 100 500 7.7 200 03:51 27.06.2019
5789 Drizzle 11 1026 87 9000 4.1 170 02:42 27.06.2019
5790 Drizzle 11 1026 87 3000 5.1 180 01:29 27.06.2019
5791 Drizzle 11 1026 100 2000 7.2 190 00:50 27.06.2019
5792 Drizzle 11 1027 87 2500 5.7 200 00:26 27.06.2019
5793 Drizzle 11 1027 100 2000 6.7 200 23:50 26.06.2019
5794 Drizzle 11 1027 87 2500 5.1 200 23:23 26.06.2019
5795 Drizzle 11 1027 100 2500 7.7 210 22:58 26.06.2019
5796 Drizzle 11 1028 93 9000 5.7 220 22:39 26.06.2019
5797 Drizzle 11 1028 93 9000 5.7 220 22:19 26.06.2019
5798 Drizzle 11 1028 87 7000 5.7 240 21:42 26.06.2019
5799 Drizzle 11 1028 87 7000 5.7 240 21:21 26.06.2019
5800 Drizzle 11 1027 100 600 7.2 220 20:57 26.06.2019
5801 Drizzle 11 1028 93 6000 5.1 240 20:37 26.06.2019
5802 Drizzle 11 1028 93 6000 5.1 240 20:18 26.06.2019
5803 Drizzle 11 1028 93 2000 6.7 230 19:42 26.06.2019
5804 Drizzle 11 1028 93 2000 6.7 230 19:23 26.06.2019
5805 Drizzle 11 1028 100 500 6.7 230 18:45 26.06.2019
5806 Drizzle 11 1028 93 1600 6.2 230 18:22 26.06.2019
5807 Drizzle 11 1028 93 2000 6.2 230 17:57 26.06.2019
5808 Drizzle 11 1028 87 9000 7.7 240 17:37 26.06.2019
5809 Drizzle 11 1028 87 9000 7.7 240 17:18 26.06.2019
5810 Drizzle 11 1028 100 5000 7.7 230 16:46 26.06.2019
5811 Drizzle 11 1028 87 9000 7.2 230 16:22 26.06.2019
5812 Rain 11 1029 87 10000 6.7 230 15:37 26.06.2019
5813 Rain 11 1029 87 10000 6.7 230 15:19 26.06.2019
5814 Drizzle 12 1028 93 2500 7.2 240 14:38 26.06.2019
5815 Drizzle 12 1028 93 2500 7.2 240 14:19 26.06.2019
5816 Drizzle 12 1029 87 1800 6.7 230 13:42 26.06.2019
5817 Drizzle 12 1029 87 1800 6.7 230 13:20 26.06.2019
5818 Drizzle 11 1029 93 2500 4.6 240 12:41 26.06.2019
5819 Drizzle 11 1029 93 2500 4.6 240 12:22 26.06.2019
5820 Rain 11 1029 93 2500 4.1 240 11:47 26.06.2019
5821 Rain 11 1029 93 5000 2.1 210 11:20 26.06.2019
5822 Drizzle 11 1029 93 4000 4.1 240 10:45 26.06.2019
5823 Drizzle 11 1029 93 4000 4.1 240 10:25 26.06.2019
5824 Drizzle 11 1028 93 3000 3.6 240 09:44 26.06.2019
5825 Drizzle 11 1028 93 3000 3.6 240 09:19 26.06.2019
5826 Drizzle 11 1028 100 4000 8.2 250 08:44 26.06.2019
5827 Drizzle 11 1028 87 8000 4.6 230 08:20 26.06.2019
5828 Mist 11 1027 100 2500 9.3 240 07:46 26.06.2019
5829 -273 0 0 0 0 0 06:57 26.06.2019
5830 Mist 11 1028 87 8000 6.2 240 06:31 26.06.2019
5831 Drizzle 11 1028 87 10000 7.2 240 01:25 26.06.2019
5832 Clouds 11 1028 87 10000 7.7 240 00:25 26.06.2019
5833 Clouds 11 1027 87 10000 7.7 230 23:46 25.06.2019
5834 Clouds 11 1027 87 10000 7.7 230 23:27 25.06.2019
5835 Drizzle 11 1027 87 10000 9.3 240 22:57 25.06.2019
5836 Drizzle 12 1028 87 10000 6.2 250 22:39 25.06.2019
5837 Drizzle 12 1028 87 10000 6.2 250 22:20 25.06.2019
5838 Clouds 12 1027 93 10000 9.8 230 21:43 25.06.2019
5839 Clouds 11 1028 81 10000 5.7 250 21:22 25.06.2019
5840 Clouds 13 1027 87 10000 8.7 230 20:46 25.06.2019
5841 Clouds 13 1027 87 10000 5.1 230 20:46 25.06.2019
5842 Clouds 13 1027 87 10000 5.1 230 20:22 25.06.2019
5843 Mist 13 1027 87 8000 7.2 230 19:54 25.06.2019
5844 Mist 12 1028 87 9000 6.2 230 19:36 25.06.2019
5845 Mist 12 1028 87 9000 6.2 230 19:18 25.06.2019
5846 Drizzle 12 1028 87 9000 7.2 230 18:40 25.06.2019
5847 Drizzle 12 1028 87 9000 7.2 230 18:21 25.06.2019
5848 Drizzle 12 1028 87 9000 7.2 230 18:21 25.06.2019
5849 -273 0 0 0 0 0 17:31 25.06.2019
5850 Mist 12 1027 93 6000 8.7 230 16:58 25.06.2019
5851 Clouds 12 1028 87 10000 7.7 240 16:40 25.06.2019
5852 Clouds 13 1028 87 10000 7.7 240 16:22 25.06.2019
5853 Mist 12 1028 87 10000 7.2 230 15:42 25.06.2019
5854 Mist 12 1028 87 10000 7.2 230 15:24 25.06.2019
5855 Clouds 12 1027 93 9000 8.2 220 14:55 25.06.2019
5856 Mist 12 1028 87 10000 7.2 230 14:35 25.06.2019
5857 Drizzle 13 1028 93 7000 7.7 220 13:47 25.06.2019
5858 Drizzle 13 1028 93 7000 7.7 220 13:47 25.06.2019
5859 Drizzle 13 1028 93 7000 7.7 220 13:47 25.06.2019
5860 Drizzle 13 1028 87 10000 7.7 230 13:29 25.06.2019
5861 Drizzle 12 1028 87 10000 7.2 230 12:58 25.06.2019
5862 Drizzle 12 1028 87 10000 7.7 230 12:38 25.06.2019
5863 Drizzle 12 1028 87 10000 7.7 230 12:20 25.06.2019
5864 Clouds 12 1028 87 10000 6.7 230 11:44 25.06.2019
5865 Clouds 12 1028 87 10000 6.7 230 11:21 25.06.2019
5866 Clouds 12 1028 93 10000 7.7 220 10:45 25.06.2019
5867 Clouds 12 1028 87 10000 6.2 220 10:23 25.06.2019
5868 Clouds 11 1028 93 10000 7.2 220 09:56 25.06.2019
5869 Clouds 11 1028 93 10000 5.7 230 09:38 25.06.2019
5870 Clouds 11 1028 93 10000 5.7 230 09:19 25.06.2019
5871 Drizzle 11 1028 93 10000 6.2 230 08:48 25.06.2019
5872 Drizzle 10 1028 87 2000 4.1 210 08:28 25.06.2019
5873 Clouds 10 1029 81 10000 4.1 200 07:42 25.06.2019
5874 Clouds 11 1028 93 10000 5.1 220 06:59 25.06.2019
5875 Clear 10 1029 76 10000 4.1 200 06:40 25.06.2019
5876 Clouds 10 1029 81 10000 4.1 220 04:24 25.06.2019
5877 Clouds 11 1030 76 10000 3.1 240 02:25 25.06.2019
5878 Clouds 11 1029 71 10000 2.6 270 00:38 25.06.2019
5879 Clouds 12 1029 71 10000 2.6 270 00:18 25.06.2019
5880 Clouds 12 1029 71 10000 4.1 290 23:43 24.06.2019
5881 Clouds 12 1029 71 10000 4.1 290 23:25 24.06.2019
5882 Clouds 12 1029 81 10000 5.1 250 22:45 24.06.2019
5883 Clouds 12 1029 81 10000 5.1 250 22:45 24.06.2019
5884 Clear 12 1029 66 10000 4.6 290 22:19 24.06.2019
5885 Clouds 12 1029 76 10000 5.1 250 21:42 24.06.2019
5886 Clouds 12 1029 66 10000 5.1 290 21:20 24.06.2019
5887 Clouds 12 1028 76 10000 5.7 240 20:59 24.06.2019
5888 Clouds 12 1028 71 10000 5.1 290 20:40 24.06.2019
5889 Clouds 13 1028 71 10000 5.1 290 20:22 24.06.2019
5890 Clouds 13 1028 66 10000 6.2 250 19:47 24.06.2019
5891 Clouds 13 1028 71 10000 6.2 310 19:25 24.06.2019
5892 Clouds 13 1028 71 10000 6.2 250 18:54 24.06.2019
5893 Clouds 13 1028 62 10000 4.6 290 18:31 24.06.2019
5894 Clouds 14 1028 62 10000 6.2 230 17:59 24.06.2019
5895 Clouds 13 1028 58 10000 4.6 300 17:37 24.06.2019
5896 Clouds 14 1028 71 10000 5.7 240 16:57 24.06.2019
5897 Clouds 13 1027 58 10000 4.6 300 16:39 24.06.2019
5898 Clouds 13 1027 58 10000 4.6 300 16:19 24.06.2019
5899 Clouds 13 1027 62 10000 3.6 290 15:40 24.06.2019
5900 Clouds 13 1027 62 10000 3.6 290 15:22 24.06.2019
5901 Clouds 12 1027 76 10000 4.1 280 14:35 24.06.2019
5902 Clouds 12 1027 66 10000 4.6 260 13:58 24.06.2019
5903 Clouds 12 1027 81 10000 3.6 270 13:32 24.06.2019
5904 Clouds 12 1027 66 10000 4.6 250 12:54 24.06.2019
5905 Clouds 13 1026 81 10000 3.6 270 12:36 24.06.2019
5906 Clouds 12 1026 81 10000 3.6 270 12:18 24.06.2019
5907 Clouds 11 1026 81 10000 4.1 260 11:43 24.06.2019
5908 Clouds 12 1026 87 10000 2.6 250 11:23 24.06.2019
5909 Drizzle 12 1026 76 10000 4.1 260 10:51 24.06.2019
5910 Drizzle 12 1025 87 10000 2.6 260 10:28 24.06.2019
5911 Clouds 12 1025 87 10000 3.6 270 09:49 24.06.2019
5912 Clouds 11 1025 87 10000 3.6 240 09:23 24.06.2019
5913 Clouds 11 1024 93 10000 4.1 240 08:53 24.06.2019
5914 Clouds 11 1024 81 10000 3.6 220 08:32 24.06.2019
5915 Clouds 11 1024 93 10000 4.6 220 07:47 24.06.2019
5916 Clouds 10 1024 81 10000 3.1 210 07:27 24.06.2019
5917 Clouds 10 1024 93 10000 4.1 220 06:52 24.06.2019
5918 Clouds 11 1024 81 10000 4.1 200 06:22 24.06.2019
5919 Clouds 11 1024 81 10000 4.6 210 05:28 24.06.2019
5920 Clouds 11 1024 81 10000 3.1 220 04:31 24.06.2019
5921 Clouds 11 1024 87 10000 1 190 03:32 24.06.2019
5922 Rain 11 1024 87 10000 2.1 290 02:33 24.06.2019
5923 Clouds 11 1023 87 10000 2.6 210 01:54 24.06.2019
5924 Clouds 11 1023 76 10000 3.04 197.838 01:27 24.06.2019
5925 Clouds 11 1023 81 10000 3.04 197.838 00:42 24.06.2019
5926 Clouds 11 1023 81 10000 1.81 188.148 00:19 24.06.2019
5927 Clouds 11 1022 81 10000 2.6 230 23:46 23.06.2019
5928 Clouds 11 1023 87 10000 1 0 23:27 23.06.2019
5929 Clouds 12 1022 81 10000 3.6 230 22:44 23.06.2019
5930 Clouds 11 1022 87 10000 2.1 30 22:21 23.06.2019
5931 Rain 12 1022 81 10000 4.1 230 21:58 23.06.2019
5932 Rain 12 1022 81 10000 2.1 30 21:40 23.06.2019
5933 Rain 12 1022 81 10000 2.1 30 21:21 23.06.2019
5934 Rain 12 1021 81 10000 4.6 240 20:43 23.06.2019
5935 Rain 12 1022 76 10000 3.1 230 20:25 23.06.2019
5936 Clouds 11 1021 81 10000 3.6 200 19:45 23.06.2019
5937 Clouds 11 1022 76 10000 5.1 210 19:21 23.06.2019
5938 Clouds 12 1021 81 10000 5.1 220 18:54 23.06.2019
5939 Clouds 12 1022 62 10000 1.5 230 18:24 23.06.2019
5940 Clouds 13 1021 76 10000 5.1 220 17:53 23.06.2019
5941 Clouds 13 1022 66 10000 1.5 260 17:27 23.06.2019
5942 Drizzle 13 1021 71 10000 5.7 230 16:59 23.06.2019
5943 Drizzle 13 1022 54 10000 3.1 290 16:41 23.06.2019
5944 Drizzle 13 1022 54 10000 3.1 290 16:22 23.06.2019
5945 Clouds 14 1021 58 10000 3.6 290 15:41 23.06.2019
5946 Clouds 11 1021 58 10000 3.6 290 15:22 23.06.2019
5947 Clouds 12 1021 76 10000 4.6 220 14:42 23.06.2019
5948 Clouds 13 1021 66 10000 3.6 300 14:24 23.06.2019
5949 Clouds 13 1021 62 10000 4.1 230 13:59 23.06.2019
5950 Clouds 13 1021 58 10000 3.1 290 13:40 23.06.2019
5951 Clouds 13 1021 58 10000 3.1 290 13:19 23.06.2019
5952 Clouds 13 1021 58 10000 3.1 290 13:19 23.06.2019
5953 Clouds 13 1021 58 10000 3.1 290 13:19 23.06.2019
5954 Clouds 12 1021 62 10000 3.6 240 12:46 23.06.2019
5955 Clouds 12 1021 62 10000 2.6 290 12:23 23.06.2019
5956 Clouds 12 1021 66 10000 3.1 240 11:57 23.06.2019
5957 Clouds 11 1021 62 10000 2.1 230 11:38 23.06.2019
5958 Clouds 11 1021 62 10000 2.1 230 11:19 23.06.2019
5959 Clouds 12 1020 71 10000 2.1 210 10:44 23.06.2019
5960 Clouds 11 1020 76 10000 2.1 230 10:19 23.06.2019
5961 Fog 10 1020 81 10000 2.1 210 09:44 23.06.2019
5962 Fog 10 1020 81 10000 2.1 210 09:21 23.06.2019
5963 Clouds 9 1020 100 10000 1.5 200 08:45 23.06.2019
5964 Clouds 9 1020 87 10000 1.5 190 08:27 23.06.2019
5965 Fog 8 1020 100 10000 1 190 07:54 23.06.2019
5966 Fog 8 1020 87 10000 1 0 07:24 23.06.2019
5967 Fog 8 1020 100 10000 1 250 06:54 23.06.2019
5968 Fog 8 1020 100 10000 1 300 05:55 23.06.2019
5969 Fog 8 1020 100 10000 1 300 05:55 23.06.2019
5970 Clouds 8 1019 81 10000 1.5 300 04:38 23.06.2019
5971 Clouds 9 1018 81 10000 3.1 300 02:19 23.06.2019
5972 Clear 10 1018 76 10000 4.1 290 01:37 23.06.2019
5973 Clear 10 1018 76 10000 5.7 290 00:37 23.06.2019
5974 Clear 11 1018 81 10000 5.1 310 23:57 22.06.2019
5975 Clear 11 1017 71 10000 5.1 290 23:38 22.06.2019
5976 Clear 11 1017 71 10000 5.1 290 23:19 22.06.2019
5977 Clear 11 1017 76 10000 6.2 310 22:44 22.06.2019
5978 Clear 12 1017 71 10000 7.2 300 22:19 22.06.2019
5979 Clear 12 1017 66 10000 6.7 290 21:39 22.06.2019
5980 Clear 12 1017 66 10000 6.7 290 21:20 22.06.2019
5981 Clear 13 1017 71 10000 7.2 320 20:50 22.06.2019
5982 Clear 13 1016 62 10000 6.7 300 20:25 22.06.2019
5983 Clear 13 1016 62 10000 6.7 300 20:25 22.06.2019
5984 Clear 13 1016 66 10000 8.7 320 19:50 22.06.2019
5985 Clear 13 1016 62 10000 5.1 280 19:28 22.06.2019
5986 Clear 13 1016 62 10000 8.2 320 18:55 22.06.2019
5987 Clear 13 1016 66 10000 6.7 290 18:36 22.06.2019
5988 Clear 13 1016 66 10000 6.7 290 18:18 22.06.2019
5989 Clear 13 1015 58 10000 6.2 290 17:38 22.06.2019
5990 Clear 13 1015 58 10000 6.2 290 17:18 22.06.2019
5991 Clear 13 1015 62 10000 5.7 280 16:39 22.06.2019
5992 Clear 13 1015 62 10000 5.7 280 16:39 22.06.2019
5993 Clear 13 1015 62 10000 5.7 280 16:20 22.06.2019
5994 Clear 13 1015 62 10000 5.7 280 16:20 22.06.2019
5995 Clear 12 1015 66 10000 7.7 290 15:40 22.06.2019
5996 Clear 12 1015 66 10000 7.7 290 15:40 22.06.2019
5997 Clear 12 1015 66 10000 7.7 290 15:22 22.06.2019
5998 Clouds 12 1015 71 10000 5.1 300 14:46 22.06.2019
5999 Clouds 12 1014 66 10000 7.2 310 14:28 22.06.2019
6000 Clouds 11 1015 71 10000 4.6 360 13:44 22.06.2019
6001 Clouds 12 1014 62 10000 7.2 320 13:25 22.06.2019
6002 Clouds 12 1014 62 10000 7.2 320 13:25 22.06.2019
6003 Clouds 12 1014 71 10000 5.1 10 12:54 22.06.2019
6004 Clear 13 1014 62 10000 4.6 320 12:36 22.06.2019
6005 Clear 12 1014 62 10000 4.6 10 11:59 22.06.2019
6006 Clear 12 1013 62 10000 3.1 320 11:36 22.06.2019
6007 Clouds 11 1013 66 10000 3.6 360 10:54 22.06.2019
6008 Clear 11 1013 66 10000 3.6 360 10:22 22.06.2019
6009 Clouds 10 1013 71 10000 2.1 40 09:56 22.06.2019
6010 Clear 10 1012 71 10000 0.5 0 09:27 22.06.2019
6011 Clear 9 1012 81 10000 2.6 330 08:45 22.06.2019
6012 Clear 9 1012 70 10000 1 0 08:26 22.06.2019
6013 Clouds 8 1012 75 10000 1 130 07:43 22.06.2019
6014 Clouds 7 1012 93 10000 4.6 320 06:58 22.06.2019
6015 Clouds 7 1011 75 10000 1.5 130 06:33 22.06.2019
6016 Clouds 8 1010 66 10000 3.1 350 03:21 22.06.2019
6017 Clouds 9 1010 61 10000 2.6 350 02:18 22.06.2019
6018 Clear 10 1010 87 10000 7.2 310 00:48 22.06.2019
6019 Clouds 10 1010 76 10000 5.7 300 00:24 22.06.2019
6020 Clear 10 1010 81 10000 8.2 310 23:49 21.06.2019
6021 Clouds 10 1009 71 10000 4.1 320 23:23 21.06.2019
6022 Clear 10 1010 81 10000 8.2 310 22:54 21.06.2019
6023 Clouds 10 1009 66 10000 6.7 300 22:27 21.06.2019
6024 Clear 11 1009 76 10000 7.7 310 21:57 21.06.2019
6025 Clouds 11 1009 71 10000 7.7 300 21:38 21.06.2019
6026 Clouds 11 1009 71 10000 7.7 300 21:38 21.06.2019
6027 Clouds 11 1009 71 10000 7.7 300 21:38 21.06.2019
6028 Clouds 11 1009 71 10000 7.7 300 21:38 21.06.2019
6029 Clouds 11 1009 71 10000 7.7 300 21:19 21.06.2019
6030 Clouds 12 1009 76 10000 7.7 300 20:47 21.06.2019
6031 Clouds 12 1009 71 10000 9.3 300 20:24 21.06.2019
6032 Clouds 12 1008 71 10000 7.2 290 19:38 21.06.2019
6033 Clouds 12 1009 71 10000 6.2 300 18:59 21.06.2019
6034 Clouds 12 1008 66 10000 8.2 300 18:35 21.06.2019
6035 Clouds 11 1009 71 10000 5.7 300 17:58 21.06.2019
6036 Clouds 11 1008 66 10000 7.2 290 17:30 21.06.2019
6037 Clouds 12 1008 62 10000 7.2 290 16:43 21.06.2019
6038 Clouds 11 1008 62 10000 7.2 290 16:23 21.06.2019
6039 Clouds 11 1009 71 10000 4.1 320 15:58 21.06.2019
6040 Clear 11 1008 62 10000 6.7 320 15:36 21.06.2019
6041 Clouds 11 1009 76 10000 4.1 310 14:56 21.06.2019
6042 Clear 11 1008 57 10000 5.7 320 14:37 21.06.2019
6043 Clear 11 1008 57 10000 5.7 320 14:19 21.06.2019
6044 Clear 10 1008 66 10000 4.1 320 13:39 21.06.2019
6045 Clear 10 1008 66 10000 4.1 320 13:21 21.06.2019
6046 Clear 10 1008 71 10000 4.1 320 12:44 21.06.2019
6047 Clear 11 1008 61 10000 4.1 350 12:22 21.06.2019
6048 Clear 10 1008 62 10000 4.6 350 11:49 21.06.2019
6049 Clear 10 1008 61 10000 4.1 290 11:28 21.06.2019
6050 Clear 10 1008 66 10000 4.6 360 10:59 21.06.2019
6051 Clear 9 1007 61 10000 2.6 330 10:40 21.06.2019
6052 Clear 9 1007 61 10000 2.6 330 10:20 21.06.2019
6053 Clear 9 1007 76 10000 4.1 360 09:42 21.06.2019
6054 Clear 9 1007 81 10000 1.5 200 09:22 21.06.2019
6055 Clear 8 1007 87 10000 2.1 330 08:55 21.06.2019
6056 Clear 8 1007 81 10000 1.5 190 08:37 21.06.2019
6057 Clear 8 1007 81 10000 1.5 190 08:18 21.06.2019
6058 Clear 6 1007 87 10000 2.6 180 07:40 21.06.2019
6059 Clear 7 1007 93 10000 2.6 300 06:59 21.06.2019
6060 Clear 7 1007 81 10000 2.6 180 06:25 21.06.2019
6061 Clear 6 1007 81 10000 2.1 150 05:33 21.06.2019
6062 Clear 6 1007 75 10000 2.1 300 04:36 21.06.2019
6063 Clouds 8 1007 70 10000 3.1 320 03:35 21.06.2019
6064 Clear 8 1007 87 10000 4.6 330 02:59 21.06.2019
6065 Clear 10 1007 81 10000 5.7 320 01:59 21.06.2019
6066 Clouds 9 1007 71 10000 4.6 310 01:27 21.06.2019
6067 Clouds 10 1006 71 10000 4.1 320 00:29 21.06.2019
6068 Clear 10 1007 81 10000 8.7 330 23:55 20.06.2019
6069 Clouds 10 1006 66 10000 4.6 320 23:37 20.06.2019
6070 Clouds 10 1006 66 10000 4.6 320 23:37 20.06.2019
6071 Clouds 10 1006 66 10000 4.6 320 23:18 20.06.2019
6072 Clouds 10 1006 66 10000 6.2 320 22:41 20.06.2019
6073 Clouds 11 1006 66 10000 6.2 320 22:22 20.06.2019
6074 Clouds 11 1007 71 10000 8.7 330 21:54 20.06.2019
6075 Clouds 12 1006 46 10000 6.2 350 21:36 20.06.2019
6076 Clouds 12 1006 46 10000 6.2 350 21:18 20.06.2019
6077 Clouds 12 1006 46 10000 7.2 360 20:41 20.06.2019
6078 Clouds 12 1006 46 10000 7.2 360 20:22 20.06.2019
6079 Clouds 11 1007 57 10000 8.2 360 19:45 20.06.2019
6080 Clouds 11 1006 50 10000 6.7 360 19:19 20.06.2019
6081 Clouds 11 1007 53 10000 8.2 360 18:57 20.06.2019
6082 Clouds 11 1006 46 10000 8.2 10 18:38 20.06.2019
6083 Clouds 11 1006 46 10000 8.2 10 18:20 20.06.2019
6084 Clouds 11 1007 61 10000 8.2 10 17:46 20.06.2019
6085 Clouds 11 1006 50 10000 6.7 360 17:25 20.06.2019
6086 Clouds 11 1007 62 10000 8.2 360 16:42 20.06.2019
6087 Clouds 11 1006 50 10000 7.2 350 16:19 20.06.2019
6088 Clouds 11 1007 57 10000 7.7 360 15:56 20.06.2019
6089 Clouds 11 1006 53 10000 6.2 330 15:37 20.06.2019
6090 Clouds 11 1006 53 10000 6.2 330 15:18 20.06.2019
6091 Clouds 10 1006 57 10000 4.6 340 14:42 20.06.2019
6092 Clouds 10 1006 57 10000 4.6 340 14:21 20.06.2019
6093 Clouds 10 1007 61 10000 6.7 350 13:40 20.06.2019
6094 Clouds 10 1007 61 10000 6.7 350 13:19 20.06.2019
6095 Clouds 9 1007 65 10000 5.7 320 12:44 20.06.2019
6096 Clouds 9 1007 65 10000 5.7 320 12:22 20.06.2019
6097 Clouds 8 1007 65 10000 5.7 350 11:44 20.06.2019
6098 Clouds 8 1007 65 10000 5.7 350 11:23 20.06.2019
6099 Clouds 8 1008 75 10000 5.1 10 10:47 20.06.2019
6100 Clouds 8 1008 75 10000 5.1 10 10:47 20.06.2019
6101 Clouds 8 1007 65 10000 5.1 360 10:25 20.06.2019
6102 Clouds 8 1008 70 10000 3.6 20 09:59 20.06.2019
6103 Clouds 7 1007 65 10000 2.1 40 09:40 20.06.2019
6104 Clouds 7 1007 65 10000 2.1 40 09:21 20.06.2019
6105 Clouds 7 1007 70 10000 3.1 20 08:45 20.06.2019
6106 Clouds 7 1007 70 10000 3.01 20.416 08:27 20.06.2019
6107 Clouds 7 1007 81 10000 2.1 10 07:53 20.06.2019
6108 Clouds 7 1008 70 10000 2.6 360 07:28 20.06.2019
6109 Clouds 7 1008 70 10000 3.6 350 06:27 20.06.2019
6110 Clouds 7 1008 81 10000 2.1 50 04:53 20.06.2019
6111 Clouds 7 1009 70 10000 1.5 50 02:29 20.06.2019
6112 Rain 9 1009 70 10000 3.1 290 00:34 20.06.2019
6113 Clear 9 1009 76 10000 8.2 320 23:56 19.06.2019
6114 Clouds 9 1009 66 10000 1.5 360 23:37 19.06.2019
6115 Clouds 9 1009 66 10000 1.5 360 23:19 19.06.2019
6116 Rain 10 1009 66 10000 2.1 340 22:40 19.06.2019
6117 Rain 9 1009 66 10000 2.1 340 22:18 19.06.2019
6118 Rain 9 1009 66 10000 2.1 340 22:18 19.06.2019
6119 Rain 10 1009 71 10000 8.7 310 21:42 19.06.2019
6120 Rain 10 1009 66 10000 3.1 330 21:23 19.06.2019
6121 Rain 10 1009 70 10000 4.1 310 20:42 19.06.2019
6122 Rain 10 1009 70 10000 4.1 310 20:22 19.06.2019
6123 Rain 10 1009 62 10000 8.7 320 19:55 19.06.2019
6124 Rain 10 1009 66 10000 5.1 330 19:36 19.06.2019
6125 Rain 10 1009 66 10000 5.1 330 19:18 19.06.2019
6126 Rain 10 1010 62 10000 8.2 330 18:43 19.06.2019
6127 Rain 10 1009 57 10000 5.7 330 18:20 19.06.2019
6128 Rain 10 1009 50 10000 6.2 10 17:35 19.06.2019
6129 Rain 11 1010 58 10000 8.7 330 16:59 19.06.2019
6130 Rain 10 1009 50 10000 7.7 340 16:39 19.06.2019
6131 Rain 10 1009 50 10000 7.7 340 16:21 19.06.2019
6132 Clouds 10 1010 57 10000 8.2 350 15:48 19.06.2019
6133 Clouds 10 1010 53 10000 7.2 330 15:26 19.06.2019
6134 Rain 9 1010 57 10000 8.7 10 14:50 19.06.2019
6135 Rain 9 1009 61 10000 5.7 340 14:31 19.06.2019
6136 Clouds 9 1010 57 10000 9.3 360 13:59 19.06.2019
6137 Clouds 9 1009 53 10000 6.7 10 13:40 19.06.2019
6138 Clouds 9 1009 53 10000 6.7 10 13:21 19.06.2019
6139 Clouds 9 1010 66 10000 7.2 10 12:44 19.06.2019
6140 Clouds 8 1009 61 10000 7.2 360 12:21 19.06.2019
6141 Clouds 8 1010 61 10000 8.2 10 11:55 19.06.2019
6142 Clouds 8 1009 61 10000 5.7 10 11:37 19.06.2019
6143 Clouds 8 1009 61 10000 5.7 10 11:18 19.06.2019
6144 Clouds 8 1009 61 10000 8.2 10 10:41 19.06.2019
6145 Clouds 8 1009 61 10000 8.2 10 10:23 19.06.2019
6146 Clouds 7 1009 59 10000 9.8 360 09:41 19.06.2019
6147 Clouds 7 1009 73 10000 9.8 360 09:20 19.06.2019
6148 Clouds 7 1010 65 10000 9.3 10 08:50 19.06.2019
6149 Clouds 6 1009 70 10000 6.7 360 08:28 19.06.2019
6150 Clouds 7 1010 65 10000 8.7 10 07:48 19.06.2019
6151 Clouds 6 1009 72 10000 7.2 10 07:29 19.06.2019
6152 Clouds 6 1010 70 10000 9.8 10 06:53 19.06.2019
6153 Clouds 6 1009 82 10000 6.7 20 06:29 19.06.2019
6154 Clouds 6 1010 70 10000 8.2 10 05:49 19.06.2019
6155 Clouds 6 1009 82 10000 8.7 360 04:41 19.06.2019
6156 Clouds 6 1008 82 10000 11.8 360 03:36 19.06.2019
6157 Clouds 7 1009 73 10000 8.7 360 02:28 19.06.2019
6158 Clouds 7 1008 73 10000 10.3 360 01:27 19.06.2019
6159 Clouds 8 1009 65 10000 8.7 10 00:46 19.06.2019
6160 Clouds 8 1008 62 10000 7.7 20 00:27 19.06.2019
6161 Clouds 8 1009 61 10000 9.3 10 23:55 18.06.2019
6162 Clouds 9 1008 62 10000 9.8 360 23:28 18.06.2019
6163 Clouds 9 1009 61 10000 9.3 20 22:55 18.06.2019
6164 Clouds 9 1008 62 10000 10.3 10 22:37 18.06.2019
6165 Clouds 8 1008 62 10000 10.3 10 22:18 18.06.2019
6166 Clouds 9 1008 62 10000 8.2 20 21:42 18.06.2019
6167 Clouds 9 1008 57 10000 8.2 20 21:21 18.06.2019
6168 Clouds 9 1007 59 10000 9.8 10 20:44 18.06.2019
6169 Clouds 9 1007 59 10000 9.8 10 20:25 18.06.2019
6170 Clouds 9 1008 57 10000 9.3 30 19:55 18.06.2019
6171 Clouds 9 1007 46 10000 12.3 360 19:37 18.06.2019
6172 Clouds 9 1007 46 10000 12.3 360 19:19 18.06.2019
6173 Clouds 9 1007 43 10000 14.4 360 18:43 18.06.2019
6174 Clouds 9 1007 43 10000 14.4 360 18:24 18.06.2019
6175 Clouds 10 1007 40 10000 12.9 10 17:42 18.06.2019
6176 Clouds 10 1007 40 10000 12.9 10 17:20 18.06.2019
6177 Clouds 9 1008 61 10000 10.3 20 16:47 18.06.2019
6178 Clouds 9 1007 49 10000 9.8 360 16:27 18.06.2019
6179 Clouds 9 1007 61 10000 11.3 10 15:56 18.06.2019
6180 Clouds 10 1007 49 10000 9.3 20 15:37 18.06.2019
6181 -273 0 0 0 0 0 15:19 18.06.2019
6182 Clouds 9 1008 57 10000 10.8 20 14:45 18.06.2019
6183 Clouds 9 1008 57 10000 10.8 20 14:45 18.06.2019
6184 Clouds 9 1007 62 10000 9.3 360 14:22 18.06.2019
6185 Clouds 9 1007 61 10000 9.3 20 13:58 18.06.2019
6186 Clouds 9 1007 62 10000 6.7 10 13:38 18.06.2019
6187 Clouds 9 1007 57 10000 6.7 10 13:20 18.06.2019
6188 Clouds 9 1008 66 10000 9.8 30 12:43 18.06.2019
6189 Clouds 8 1007 60 10000 6.7 20 12:25 18.06.2019
6190 Clouds 8 1008 66 10000 11.3 10 11:45 18.06.2019
6191 Clouds 8 1006 61 10000 8.7 360 11:23 18.06.2019
6192 Clouds 8 1008 70 10000 9.8 20 10:57 18.06.2019
6193 Clouds 8 1006 61 10000 9.8 10 10:37 18.06.2019
6194 Clouds 8 1006 61 10000 9.8 10 10:18 18.06.2019
6195 Clouds 8 1008 70 10000 10.8 20 09:48 18.06.2019
6196 Clouds 8 1007 61 10000 7.7 20 09:24 18.06.2019
6197 Clouds 7 1007 70 10000 8.7 30 08:46 18.06.2019
6198 Clouds 7 1006 65 10000 10.3 30 08:21 18.06.2019
6199 Clouds 7 1006 65 10000 10.3 30 08:21 18.06.2019
6200 Clouds 7 1005 61 10000 10.8 10 07:41 18.06.2019
6201 Clouds 7 1005 61 10000 10.8 10 07:23 18.06.2019
6202 Clouds 8 1005 65 10000 8.7 10 06:44 18.06.2019
6203 Clouds 8 1005 61 10000 10.8 10 05:21 18.06.2019
6204 Clear 9 1005 75 10000 11.3 30 03:59 18.06.2019
6205 Clouds 10 1004 81 10000 9.8 20 01:59 18.06.2019
6206 Clouds 10 1004 62 10000 1.5 110 01:25 18.06.2019
6207 Clouds 10 1005 81 10000 9.3 20 00:56 18.06.2019
6208 Clouds 11 1004 62 10000 3.6 10 00:30 18.06.2019
6209 Clouds 12 1003 54 10000 4.1 80 23:42 17.06.2019
6210 Clouds 12 1003 54 10000 4.1 80 23:22 17.06.2019
6211 Clear 12 1004 76 10000 10.3 10 22:58 17.06.2019
6212 Clouds 13 1003 48 10000 4.6 60 22:38 17.06.2019
6213 Clouds 13 1003 48 10000 4.6 60 22:20 17.06.2019
6214 Clear 13 1004 76 10000 9.3 10 21:42 17.06.2019
6215 Clouds 13 1002 55 10000 3.6 20 21:23 17.06.2019
6216 Clear 14 1003 51 10000 6.7 350 20:40 17.06.2019
6217 Clear 14 1003 51 10000 6.7 350 20:21 17.06.2019
6218 Clear 15 1004 66 10000 10.8 10 19:56 17.06.2019
6219 Clouds 15 1003 55 10000 6.7 350 19:38 17.06.2019
6220 Clouds 15 1003 55 10000 6.7 350 19:19 17.06.2019
6221 Clouds 16 1003 45 10000 5.1 350 18:39 17.06.2019
6222 Clouds 17 1003 45 10000 5.1 350 18:18 17.06.2019
6223 Clear 16 1004 62 10000 8.2 20 17:48 17.06.2019
6224 Clear 16 1004 59 10000 3.1 340 17:29 17.06.2019
6225 Clear 17 1005 59 10000 6.7 340 16:59 17.06.2019
6226 Clouds 17 1005 63 10000 1 0 16:39 17.06.2019
6227 Clouds 17 1005 63 10000 1 0 16:21 17.06.2019
6228 Clear 15 1006 71 10000 7.2 350 15:44 17.06.2019
6229 Clouds 16 1005 76 10000 4.6 200 15:20 17.06.2019
6230 Clouds 16 1005 76 10000 4.6 200 15:20 17.06.2019
6231 Mist 15 1006 71 10000 7.2 360 14:56 17.06.2019
6232 Mist 15 1006 81 9000 2.6 210 14:38 17.06.2019
6233 Mist 14 1006 81 9000 2.6 210 14:19 17.06.2019
6234 Mist 13 1006 81 7000 3.6 290 13:41 17.06.2019
6235 Mist 14 1006 81 7000 3.6 290 13:21 17.06.2019
6236 Clouds 13 1007 87 10000 3.1 360 12:46 17.06.2019
6237 Clouds 13 1007 87 10000 2.6 280 12:22 17.06.2019
6238 Mist 11 1007 93 10000 3.1 290 11:45 17.06.2019
6239 Mist 11 1007 87 5000 2.1 130 11:26 17.06.2019
6240 Mist 11 1007 93 10000 1 0 10:56 17.06.2019
6241 Mist 10 1008 93 3500 1.5 300 10:38 17.06.2019
6242 Mist 11 1008 93 3500 1.5 300 10:20 17.06.2019
6243 Mist 10 1009 93 2500 5.12 48.532 09:39 17.06.2019
6244 Mist 10 1009 93 2500 4.14 43.288 09:20 17.06.2019
6245 Fog 9 1009 93 500 4.34 43.823 08:40 17.06.2019
6246 Fog 9 1009 93 500 4.34 43.823 08:22 17.06.2019
6247 Fog 9 1009 93 500 1 0 07:40 17.06.2019
6248 Fog 8 1009 93 500 1 0 07:20 17.06.2019
6249 Fog 9 1010 93 3000 1 0 06:30 17.06.2019
6250 Fog 9 1010 100 8000 4.1 320 05:42 17.06.2019
6251 Mist 9 1011 87 7000 3.1 300 04:34 17.06.2019
6252 Mist 10 1012 87 6000 3.6 300 03:35 17.06.2019
6253 Fog 10 1012 100 7000 5.1 300 02:58 17.06.2019
6254 Mist 10 1012 87 10000 2.1 290 02:39 17.06.2019
6255 Mist 10 1012 93 5000 4.6 320 01:43 17.06.2019
6256 Clouds 10 1012 81 10000 2.1 280 01:18 17.06.2019
6257 Clouds 11 1013 81 10000 2.1 280 00:41 17.06.2019
6258 Clouds 11 1013 81 10000 2.1 280 00:21 17.06.2019
6259 Clouds 11 1013 81 10000 3.6 300 23:41 16.06.2019
6260 Clouds 11 1013 81 10000 3.6 300 23:22 16.06.2019
6261 Clouds 12 1013 87 10000 4.6 290 22:56 16.06.2019
6262 Clouds 12 1013 76 10000 3.6 290 22:38 16.06.2019
6263 Clouds 12 1013 76 10000 3.6 290 22:18 16.06.2019
6264 Clouds 12 1014 76 10000 5.1 290 21:41 16.06.2019
6265 Clouds 13 1014 76 10000 5.1 290 21:23 16.06.2019
6266 Clouds 13 1014 81 10000 4.6 270 20:59 16.06.2019
6267 Clouds 13 1014 76 10000 5.1 300 20:37 16.06.2019
6268 Clouds 13 1014 76 10000 5.1 300 20:18 16.06.2019
6269 Clouds 13 1014 76 10000 5.1 300 20:18 16.06.2019
6270 Clouds 14 1014 76 10000 6.7 300 19:43 16.06.2019
6271 Clouds 14 1014 76 10000 6.7 300 19:22 16.06.2019
6272 Clouds 14 1014 76 10000 5.1 220 18:59 16.06.2019
6273 Clouds 15 1014 71 10000 5.7 300 18:40 16.06.2019
6274 Clouds 15 1014 71 10000 5.7 300 18:20 16.06.2019
6275 Clouds 14 1014 81 10000 6.2 230 17:48 16.06.2019
6276 Clouds 14 1015 76 10000 3.6 301 17:23 16.06.2019
6277 Clouds 15 1015 67 10000 6.7 220 16:57 16.06.2019
6278 Clouds 15 1015 71 10000 4.1 290 16:39 16.06.2019
6279 Clouds 15 1015 71 10000 4.1 290 16:21 16.06.2019
6280 Clouds 15 1015 76 10000 5.7 220 15:44 16.06.2019
6281 Clouds 15 1015 67 10000 3.6 280 15:24 16.06.2019
6282 Clouds 14 1015 76 10000 6.2 230 14:45 16.06.2019
6283 Clouds 13 1015 76 10000 3.6 280 14:24 16.06.2019
6284 Clouds 13 1015 76 10000 5.1 220 13:56 16.06.2019
6285 Clouds 13 1015 71 10000 3.1 290 13:38 16.06.2019
6286 Clouds 13 1015 71 10000 3.1 290 13:20 16.06.2019
6287 Clouds 12 1015 81 10000 4.1 210 12:42 16.06.2019
6288 Clouds 12 1016 76 10000 2.1 270 12:20 16.06.2019
6289 Clouds 12 1016 87 10000 4.6 230 11:48 16.06.2019
6290 Clouds 12 1016 76 10000 2.1 250 11:21 16.06.2019
6291 Clouds 11 1016 87 10000 4.6 210 10:59 16.06.2019
6292 Clouds 11 1016 81 10000 3.1 250 10:41 16.06.2019
6293 Clouds 11 1016 81 10000 3.1 250 10:18 16.06.2019
6294 Fog 10 1016 81 10000 2.1 210 09:41 16.06.2019
6295 Fog 10 1016 81 10000 2.1 210 09:23 16.06.2019
6296 Fog 10 1016 93 10000 3.1 190 08:45 16.06.2019
6297 Fog 9 1016 81 10000 1 210 08:19 16.06.2019
6298 Clouds 9 1016 100 10000 3.1 190 07:44 16.06.2019
6299 Clear 9 1016 87 10000 1.5 160 07:26 16.06.2019
6300 Clear 9 1016 100 10000 3.1 180 06:50 16.06.2019
6301 Clear 9 1016 93 10000 3.1 210 05:53 16.06.2019
6302 Clear 10 1016 81 10000 1 0 05:19 16.06.2019
6303 Clouds 10 1017 87 10000 2.1 140 04:21 16.06.2019
6304 Clear 10 1017 81 10000 2.1 200 03:38 16.06.2019
6305 Clear 10 1017 81 10000 2.1 200 03:18 16.06.2019
6306 Clear 11 1017 81 10000 3.1 250 01:48 16.06.2019
6307 Clouds 11 1017 81 10000 2.6 270 01:28 16.06.2019
6308 Clear 11 1017 81 10000 4.6 230 00:43 16.06.2019
6309 Clouds 12 1018 81 10000 3.1 260 00:23 16.06.2019
6310 Clear 12 1017 87 10000 4.1 230 23:55 15.06.2019
6311 Clouds 12 1017 76 10000 3.6 260 23:37 15.06.2019
6312 Clouds 12 1017 76 10000 3.6 260 23:18 15.06.2019
6313 Clear 12 1017 87 10000 4.6 230 22:43 15.06.2019
6314 Clouds 12 1017 76 10000 3.6 260 22:24 15.06.2019
6315 Clouds 12 1017 81 10000 4.6 210 21:43 15.06.2019
6316 Clouds 12 1017 76 10000 3.6 250 21:20 15.06.2019
6317 Clouds 13 1017 81 10000 6.2 210 20:45 15.06.2019
6318 Rain 12 1017 76 10000 4.6 220 20:22 15.06.2019
6319 Rain 13 1017 87 10000 5.7 210 19:47 15.06.2019
6320 Rain 13 1017 76 10000 5.1 260 19:26 15.06.2019
6321 Rain 13 1017 71 10000 4.6 260 18:44 15.06.2019
6322 Rain 13 1017 71 10000 4.6 260 18:25 15.06.2019
6323 Rain 14 1017 76 10000 7.2 230 17:45 15.06.2019
6324 Rain 14 1017 67 10000 5.7 260 17:27 15.06.2019
6325 Rain 14 1017 71 10000 7.2 230 16:49 15.06.2019
6326 Rain 16 1017 71 10000 5.7 250 16:22 15.06.2019
6327 Clear 17 1017 67 10000 8.2 230 15:58 15.06.2019
6328 Clouds 16 1017 54 10000 5.7 250 15:40 15.06.2019
6329 Clouds 14 1017 54 10000 5.7 250 15:19 15.06.2019
6330 Clouds 18 1016 54 10000 4.1 240 14:38 15.06.2019
6331 Clouds 17 1016 54 10000 4.1 240 14:18 15.06.2019
6332 Clouds 18 1017 42 10000 4.1 290 13:43 15.06.2019
6333 Clouds 18 1017 42 10000 4.1 290 13:20 15.06.2019
6334 Clear 18 1017 48 10000 2.1 30 12:57 15.06.2019
6335 Clear 17 1017 48 10000 1.5 0 12:37 15.06.2019
6336 Clear 15 1017 48 10000 1.5 0 12:19 15.06.2019
6337 Clear 16 1017 58 10000 1.5 280 11:41 15.06.2019
6338 Clear 16 1017 58 10000 1.5 280 11:41 15.06.2019
6339 Clear 15 1017 58 10000 1.5 280 11:23 15.06.2019
6340 Clear 14 1017 58 10000 2.1 280 10:42 15.06.2019
6341 Clear 14 1017 58 10000 2.1 280 10:24 15.06.2019
6342 Clear 13 1017 66 10000 4.1 50 09:47 15.06.2019
6343 Clear 13 1017 54 10000 1.5 160 09:25 15.06.2019
6344 Clear 12 1017 66 10000 3.1 70 08:54 15.06.2019
6345 Clear 11 1017 58 10000 3.55 44.577 08:32 15.06.2019
6346 Clear 10 1017 87 10000 3.6 90 07:52 15.06.2019
6347 Clear 9 1017 61 10000 0.5 120 07:25 15.06.2019
6348 Clear 9 1017 93 10000 2.6 320 06:44 15.06.2019
6349 Clear 8 1017 66 10000 1.5 110 06:19 15.06.2019
6350 Clear 9 1018 53 10000 2.1 110 05:28 15.06.2019
6351 Clear 10 1018 81 10000 3.6 260 04:46 15.06.2019
6352 Clear 10 1018 76 10000 4.1 260 03:47 15.06.2019
6353 Clear 10 1018 87 10000 3.6 230 02:58 15.06.2019
6354 Clear 11 1018 54 10000 2.1 170 02:23 15.06.2019
6355 Clear 11 1017 76 10000 5.1 230 01:49 15.06.2019
6356 Clear 12 1017 71 10000 5.7 210 00:59 15.06.2019
6357 Clear 13 1017 54 10000 3.6 230 00:39 15.06.2019
6358 Clear 15 1017 54 10000 6.2 210 23:55 14.06.2019
6359 Clouds 16 1017 44 10000 5.1 210 23:27 14.06.2019
6360 Clear 16 1017 51 10000 5.7 180 22:56 14.06.2019
6361 Clouds 16 1016 58 10000 2.6 240 22:37 14.06.2019
6362 Clouds 16 1016 58 10000 2.6 240 22:19 14.06.2019
6363 Clouds 18 1016 42 10000 4.6 230 21:41 14.06.2019
6364 Clouds 18 1016 42 10000 4.6 230 21:22 14.06.2019
6365 Clouds 18 1016 45 10000 3.6 190 20:43 14.06.2019
6366 Clouds 19 1015 48 10000 5.1 220 20:19 14.06.2019
6367 Clouds 20 1015 39 10000 1 0 19:57 14.06.2019
6368 Clouds 20 1014 34 10000 4.6 170 19:36 14.06.2019
6369 Clouds 20 1014 34 10000 4.6 170 19:18 14.06.2019
6370 Clouds 20 1015 42 10000 3.6 30 18:43 14.06.2019
6371 Clouds 19 1014 30 10000 5.1 90 18:24 14.06.2019
6372 Clear 19 1015 42 10000 5.1 360 17:55 14.06.2019
6373 Clouds 18 1015 34 10000 5.1 10 17:37 14.06.2019
6374 Clear 17 1016 42 10000 5.1 10 17:19 14.06.2019
6375 Clear 18 1016 42 10000 5.1 10 16:45 14.06.2019
6376 Clear 17 1016 39 10000 4.6 310 16:21 14.06.2019
6377 Clear 17 1016 39 10000 4.6 310 16:21 14.06.2019
6378 Clear 17 1017 62 10000 5.1 360 15:57 14.06.2019
6379 Clear 17 1016 36 10000 2.1 350 15:38 14.06.2019
6380 Clear 16 1016 36 10000 2.1 350 15:18 14.06.2019
6381 Clear 14 1017 44 10000 3.6 320 14:40 14.06.2019
6382 Clear 14 1017 44 10000 3.6 320 14:21 14.06.2019
6383 Clear 13 1017 50 10000 3.6 330 13:44 14.06.2019
6384 Clear 13 1017 50 10000 3.6 330 13:24 14.06.2019
6385 Clear 11 1019 66 10000 8.2 10 12:48 14.06.2019
6386 Clear 12 1018 62 10000 4.1 360 12:27 14.06.2019
6387 Clear 12 1019 62 10000 6.7 360 11:59 14.06.2019
6388 Clouds 12 1019 71 10000 2.6 330 11:41 14.06.2019
6389 Clouds 12 1019 71 10000 2.6 330 11:22 14.06.2019
6390 Clouds 10 1019 71 10000 6.2 350 10:45 14.06.2019
6391 Clouds 10 1019 76 10000 3.6 290 10:20 14.06.2019
6392 Clouds 10 1019 87 10000 4.1 310 09:49 14.06.2019
6393 Clouds 9 1020 81 10000 4.1 320 09:31 14.06.2019
6394 Clouds 9 1020 93 10000 2.6 270 08:47 14.06.2019
6395 Clouds 9 1020 81 10000 3.6 290 08:20 14.06.2019
6396 Clouds 9 1020 81 10000 3.6 290 08:20 14.06.2019
6397 Clouds 9 1020 93 10000 1 240 07:53 14.06.2019
6398 Clouds 9 1020 76 10000 0.5 0 07:23 14.06.2019
6399 Clouds 9 1020 100 10000 3.1 180 06:52 14.06.2019
6400 Clouds 9 1020 100 10000 3.1 180 06:52 14.06.2019
6401 Clouds 9 1020 76 10000 1.5 240 06:18 14.06.2019
6402 Clouds 9 1021 76 10000 3.6 140 05:34 14.06.2019
6403 Clouds 9 1021 87 10000 5.1 160 04:51 14.06.2019
6404 Clouds 10 1021 76 10000 3.6 140 04:19 14.06.2019
6405 Clouds 10 1021 76 10000 2.6 140 03:26 14.06.2019
6406 -273 0 0 0 0 0 02:58 14.06.2019
6407 Clouds 10 1020 76 10000 3.6 120 02:35 14.06.2019
6408 Clouds 11 1020 71 10000 3.6 150 01:39 14.06.2019
6409 Clouds 11 1020 71 10000 3.6 150 01:39 14.06.2019
6410 Clouds 12 1020 71 10000 3.1 160 00:37 14.06.2019
6411 Clouds 12 1020 71 10000 3.1 160 00:18 14.06.2019
6412 Clear 13 1020 76 10000 4.6 150 23:49 13.06.2019
6413 Clouds 13 1019 67 10000 3.6 190 23:25 13.06.2019
6414 Clouds 13 1019 62 10000 4.6 330 22:40 13.06.2019
6415 Clouds 13 1019 62 10000 4.6 330 22:22 13.06.2019
6416 Clear 13 1020 76 10000 7.2 330 21:58 13.06.2019
6417 Clouds 14 1019 58 10000 5.1 320 21:37 13.06.2019
6418 Clouds 14 1019 58 10000 5.1 320 21:18 13.06.2019
6419 Clouds 14 1020 66 10000 4.1 300 20:44 13.06.2019
6420 Clouds 14 1020 66 10000 4.1 300 20:20 13.06.2019
6421 Clouds 15 1021 58 10000 6.2 310 19:43 13.06.2019
6422 Clouds 15 1021 58 10000 6.2 310 19:25 13.06.2019
6423 Clear 15 1022 71 10000 10.3 330 18:59 13.06.2019
6424 Clouds 15 1022 62 10000 7.2 300 18:41 13.06.2019
6425 Clouds 15 1022 62 10000 7.2 300 18:22 13.06.2019
6426 Clear 14 1023 76 10000 9.8 330 17:45 13.06.2019
6427 Clouds 14 1023 76 10000 8.2 310 17:22 13.06.2019
6428 Clear 12 1024 76 10000 9.3 330 16:59 13.06.2019
6429 Clouds 12 1023 81 10000 8.2 300 16:40 13.06.2019
6430 Clouds 12 1023 81 10000 8.2 300 16:20 13.06.2019
6431 Clouds 12 1024 76 10000 7.2 300 15:41 13.06.2019
6432 Clouds 13 1024 76 10000 7.2 300 15:22 13.06.2019
6433 Fog 13 1026 81 10000 9.3 320 14:50 13.06.2019
6434 Fog 12 1025 76 10000 6.7 320 14:31 13.06.2019
6435 Clouds 13 1026 81 10000 8.7 330 13:57 13.06.2019
6436 -273 0 0 0 0 0 13:57 13.06.2019
6437 Clouds 13 1026 81 10000 8.7 330 13:57 13.06.2019
6438 Clouds 12 1026 82 10000 7.2 310 13:39 13.06.2019
6439 Clouds 12 1026 82 10000 7.2 310 13:20 13.06.2019
6440 Mist 12 1026 81 10000 7.7 300 12:41 13.06.2019
6441 Mist 12 1026 81 10000 7.7 300 12:21 13.06.2019
6442 Fog 12 1027 100 10000 7.7 330 11:46 13.06.2019
6443 Fog 11 1027 81 10000 8.7 300 11:28 13.06.2019
6444 Fog 11 1028 100 900 10.3 320 10:51 13.06.2019
6445 Fog 10 1027 93 10000 7.2 300 10:31 13.06.2019
6446 -273 0 0 0 0 0 09:58 13.06.2019
6447 -273 0 0 0 0 0 09:58 13.06.2019
6448 Mist 10 1028 93 3000 6.7 310 09:40 13.06.2019
6449 Mist 10 1028 93 3000 6.7 310 09:22 13.06.2019
6450 Fog 9 1028 93 500 8.2 300 08:43 13.06.2019
6451 Fog 9 1028 93 500 8.2 300 08:23 13.06.2019
6452 Fog 10 1030 100 600 6.7 310 07:50 13.06.2019
6453 Fog 10 1030 93 500 9.3 300 07:25 13.06.2019
6454 Fog 10 1030 100 800 6.2 310 06:45 13.06.2019
6455 Fog 10 1030 93 500 7.2 300 06:22 13.06.2019
6456 Fog 10 1031 100 500 6.7 300 05:55 13.06.2019
6457 Fog 10 1031 93 500 6.7 300 05:36 13.06.2019
6458 Mist 11 1031 100 400 6.7 300 04:57 13.06.2019
6459 Mist 10 1033 93 9000 3.1 310 02:26 13.06.2019
6460 Fog 11 1034 100 900 7.2 300 00:47 13.06.2019
6461 Fog 11 1034 93 500 6.7 310 00:22 13.06.2019
6462 Mist 11 1035 87 9000 5.1 300 23:24 12.06.2019
6463 Mist 12 1035 93 3500 6.7 310 22:45 12.06.2019
6464 Clouds 12 1035 81 10000 6.7 300 22:26 12.06.2019
6465 Clouds 12 1035 87 10000 7.7 300 21:57 12.06.2019
6466 Clouds 12 1035 81 10000 6.7 290 21:38 12.06.2019
6467 Clouds 12 1035 81 10000 6.7 290 21:18 12.06.2019
6468 Clouds 13 1035 71 10000 6.2 300 20:38 12.06.2019
6469 Clouds 13 1035 71 10000 6.2 300 20:20 12.06.2019
6470 Clouds 13 1036 71 10000 4.6 280 19:42 12.06.2019
6471 Clouds 13 1036 71 10000 4.6 280 19:23 12.06.2019
6472 Clouds 13 1036 71 10000 6.2 290 18:58 12.06.2019
6473 Clouds 13 1037 71 10000 4.1 290 18:39 12.06.2019
6474 Clouds 13 1037 71 10000 4.1 290 18:20 12.06.2019
6475 Clouds 13 1036 76 10000 5.7 290 17:44 12.06.2019
6476 Clouds 12 1037 66 10000 4.6 300 17:21 12.06.2019
6477 Clouds 12 1038 71 10000 4.1 290 16:42 12.06.2019
6478 Clouds 12 1038 71 10000 4.1 290 16:24 12.06.2019
6479 Clouds 12 1037 76 10000 4.1 300 15:56 12.06.2019
6480 Clouds 13 1038 66 10000 5.1 290 15:32 12.06.2019
6481 Clouds 12 1038 66 10000 4.1 290 14:50 12.06.2019
6482 Clouds 12 1039 66 10000 5.1 290 14:30 12.06.2019
6483 Clouds 12 1038 71 10000 3.6 290 13:55 12.06.2019
6484 Clouds 12 1039 71 10000 3.6 280 13:37 12.06.2019
6485 Clouds 12 1039 71 10000 3.6 280 13:18 12.06.2019
6486 Clouds 11 1039 71 10000 4.1 300 12:40 12.06.2019
6487 Clouds 12 1039 71 10000 4.1 300 12:19 12.06.2019
6488 Clouds 12 1039 71 10000 2.1 250 11:47 12.06.2019
6489 Clouds 12 1039 81 10000 4.1 270 11:29 12.06.2019
6490 Clouds 12 1039 76 10000 2.6 250 10:55 12.06.2019
6491 Clouds 12 1039 81 10000 2.6 290 10:36 12.06.2019
6492 Fog 11 1039 81 10000 3.1 240 09:59 12.06.2019
6493 -273 0 0 0 0 0 09:41 12.06.2019
6494 Fog 11 1039 81 0 1 200 09:19 12.06.2019
6495 Fog 9 1039 81 10000 1.5 180 08:28 12.06.2019
6496 Clouds 9 1039 87 10000 1 200 07:56 12.06.2019
6497 Clear 8 1038 81 10000 0.5 200 07:18 12.06.2019
6498 Clear 8 1039 81 10000 1 0 06:38 12.06.2019
6499 Clear 8 1038 81 10000 0.5 160 05:25 12.06.2019
6500 Clear 10 1041 71 10000 1 10 02:22 12.06.2019
6501 Clouds 11 1039 76 10000 3.1 170 00:46 12.06.2019
6502 Clear 12 1039 71 10000 3.1 170 23:57 11.06.2019
6503 Clear 12 1039 71 10000 3.1 348 23:39 11.06.2019
6504 Clear 13 1039 71 10000 3.1 348 23:20 11.06.2019
6505 Clear 13 1039 71 10000 4.6 302 22:41 11.06.2019
6506 Clear 14 1039 71 10000 4.6 302 22:18 11.06.2019
6507 Clear 14 1038 58 10000 6.2 230 21:55 11.06.2019
6508 Clouds 14 1038 58 10000 5.7 230 21:36 11.06.2019
6509 Clouds 14 1038 58 10000 5.7 230 21:18 11.06.2019
6510 Clouds 15 1038 54 10000 5.7 230 20:42 11.06.2019
6511 Clear 16 1038 54 10000 5.1 240 20:22 11.06.2019
6512 Clear 15 1038 62 10000 3.1 200 19:51 11.06.2019
6513 Clouds 15 1039 66 10000 3.75 265.781 19:29 11.06.2019
6514 Clouds 15 1039 66 10000 3.75 265.781 19:29 11.06.2019
6515 Clouds 15 1038 62 10000 5.1 240 18:50 11.06.2019
6516 Clouds 14 1039 62 10000 5.7 300 18:20 11.06.2019
6517 Clouds 13 1037 62 10000 6.7 230 17:42 11.06.2019
6518 Clouds 13 1037 62 10000 6.7 230 17:22 11.06.2019
6519 Clouds 18 1037 62 10000 7.2 230 16:46 11.06.2019
6520 Clouds 16 1037 58 10000 4.1 230 16:24 11.06.2019
6521 Clouds 16 1037 58 10000 4.1 230 15:59 11.06.2019
6522 Clear 15 1037 54 10000 5.1 290 15:41 11.06.2019
6523 Clear 13 1037 54 10000 5.1 290 15:20 11.06.2019
6524 Clouds 13 1037 58 10000 5.1 230 14:44 11.06.2019
6525 Clouds 15 1037 50 10000 3.6 300 14:20 11.06.2019
6526 Clouds 14 1037 62 10000 3.6 300 13:50 11.06.2019
6527 Clouds 14 1037 62 10000 3.6 300 13:23 11.06.2019
6528 Clear 14 1036 76 10000 3.1 290 12:43 11.06.2019
6529 Clear 12 1036 76 10000 3.1 290 12:22 11.06.2019
6530 Clouds 13 1036 66 10000 0.5 0 11:58 11.06.2019
6531 Clouds 12 1036 71 10000 2.1 270 11:36 11.06.2019
6532 Clouds 12 1036 71 10000 2.1 270 11:18 11.06.2019
6533 Clouds 11 1036 71 10000 1 0 10:43 11.06.2019
6534 Clouds 11 1036 81 10000 1.01 295.699 10:24 11.06.2019
6535 Fog 10 1035 76 10000 0.5 0 09:46 11.06.2019
6536 Fog 10 1036 81 10000 1 0 09:23 11.06.2019
6537 Fog 8 1035 81 3000 0.62 351.593 08:42 11.06.2019
6538 Fog 8 1035 81 3000 0.62 351.593 08:23 11.06.2019
6539 Fog 7 1035 81 10000 1.5 110 07:37 11.06.2019
6540 Fog 7 1035 100 10000 0.5 140 06:54 11.06.2019
6541 Fog 6 1035 87 10000 1.5 190 06:24 11.06.2019
6542 Clouds 7 1034 93 10000 0.3 256.289 04:49 11.06.2019
6543 Clear 8 1034 93 10000 0.5 20 02:49 11.06.2019
6544 Clear 9 1034 81 10000 2.1 290 01:23 11.06.2019
6545 Clear 10 1033 76 10000 2.6 280 00:45 11.06.2019
6546 Clouds 11 1033 76 10000 3.1 280 23:47 10.06.2019
6547 Clouds 11 1033 71 10000 3.1 290 23:21 10.06.2019
6548 Clear 11 1032 71 10000 3.1 270 22:49 10.06.2019
6549 Clouds 11 1032 66 10000 4.1 290 22:31 10.06.2019
6550 Clouds 12 1032 71 10000 3.6 270 21:59 10.06.2019
6551 Clouds 12 1032 71 10000 4.6 300 21:39 10.06.2019
6552 Clouds 12 1032 71 10000 4.6 300 21:21 10.06.2019
6553 Clouds 12 1031 71 10000 5.7 300 20:44 10.06.2019
6554 Clouds 12 1031 71 10000 5.7 300 20:23 10.06.2019
6555 Clouds 13 1031 71 10000 5.7 240 19:53 10.06.2019
6556 Clouds 13 1031 66 10000 5.7 300 19:27 10.06.2019
6557 Clouds 13 1031 71 10000 6.2 230 18:59 10.06.2019
6558 Clouds 13 1031 62 10000 6.2 300 18:40 10.06.2019
6559 Clouds 13 1031 62 10000 6.2 300 18:20 10.06.2019
6560 Clouds 12 1030 62 10000 6.2 250 17:54 10.06.2019
6561 Clouds 12 1030 62 10000 6.2 300 17:36 10.06.2019
6562 Clouds 13 1030 62 10000 6.2 300 17:18 10.06.2019
6563 Clouds 13 1030 62 10000 5.7 300 16:42 10.06.2019
6564 Clouds 14 1030 62 10000 5.7 300 16:22 10.06.2019
6565 Clouds 14 1030 62 10000 5.7 240 15:42 10.06.2019
6566 Clouds 12 1030 66 10000 6.2 300 15:23 10.06.2019
6567 Clouds 13 1029 58 10000 5.7 230 14:49 10.06.2019
6568 Clouds 13 1029 54 10000 4.1 300 14:31 10.06.2019
6569 Clouds 14 1029 62 10000 5.1 230 13:59 10.06.2019
6570 Clouds 13 1029 58 10000 4.1 290 13:40 10.06.2019
6571 Clouds 13 1029 58 10000 4.1 290 13:40 10.06.2019
6572 Clouds 13 1029 58 10000 4.1 290 13:20 10.06.2019
6573 Clouds 13 1028 54 10000 3.1 300 12:42 10.06.2019
6574 Clouds 12 1028 54 10000 3.1 300 12:23 10.06.2019
6575 Clouds 11 1028 66 10000 3.1 210 11:43 10.06.2019
6576 Clouds 11 1028 57 10000 3.1 240 11:23 10.06.2019
6577 Clear 11 1028 57 10000 3.1 160 10:42 10.06.2019
6578 Clear 11 1028 57 10000 3.1 160 10:21 10.06.2019
6579 Clear 10 1027 71 10000 5.1 210 09:57 10.06.2019
6580 Clear 10 1027 61 10000 1 0 09:38 10.06.2019
6581 Clear 10 1027 61 10000 1 0 09:19 10.06.2019
6582 Clear 9 1027 87 10000 4.1 190 08:44 10.06.2019
6583 Clear 8 1027 66 10000 1 0 08:23 10.06.2019
6584 Clouds 7 1026 87 10000 3.1 110 06:56 10.06.2019
6585 Clouds 7 1025 57 10000 4.1 100 04:28 10.06.2019
6586 Clear 9 1024 70 10000 1 210 01:58 10.06.2019
6587 Clear 9 1024 76 10000 1 130 01:26 10.06.2019
6588 Clear 10 1024 61 10000 1.5 190 00:56 10.06.2019
6589 Clear 11 1023 66 10000 1 270 00:19 10.06.2019
6590 Clear 12 1023 57 10000 3.1 150 23:42 09.06.2019
6591 Clear 13 1023 58 10000 2.6 300 23:19 09.06.2019
6592 Clear 14 1023 54 10000 2.1 90 22:44 09.06.2019
6593 Clouds 13 1022 50 10000 2.1 270 22:25 09.06.2019
6594 Clouds 13 1022 50 10000 1.5 100 21:45 09.06.2019
6595 Clouds 14 1022 47 10000 3.1 290 21:23 09.06.2019
6596 Clouds 14 1021 54 10000 3.6 290 20:44 09.06.2019
6597 Clouds 14 1021 54 10000 3.6 290 20:23 09.06.2019
6598 Clouds 14 1022 54 10000 3.6 20 19:56 09.06.2019
6599 Clouds 14 1021 50 10000 6.2 300 19:36 09.06.2019
6600 Clouds 14 1021 50 10000 6.2 300 19:18 09.06.2019
6601 Clouds 14 1021 58 10000 3.6 10 18:41 09.06.2019
6602 Clouds 12 1021 54 10000 6.2 300 18:23 09.06.2019
6603 Clouds 13 1021 62 10000 6.2 10 17:48 09.06.2019
6604 Clouds 13 1020 47 10000 5.7 350 17:27 09.06.2019
6605 Clouds 13 1021 58 10000 5.1 20 16:55 09.06.2019
6606 Clouds 13 1020 47 10000 5.1 350 16:37 09.06.2019
6607 Clouds 13 1020 47 10000 5.1 350 16:19 09.06.2019
6608 Clouds 12 1021 54 10000 6.7 20 15:47 09.06.2019
6609 Clouds 13 1020 47 10000 6.7 350 15:27 09.06.2019
6610 Clouds 12 1021 58 10000 7.2 20 14:46 09.06.2019
6611 Clouds 12 1021 58 10000 7.2 20 14:46 09.06.2019
6612 Clouds 13 1020 46 10000 5.1 360 14:25 09.06.2019
6613 Clouds 13 1021 62 10000 8.2 20 13:56 09.06.2019
6614 Clouds 13 1020 65 10000 3.6 360 13:35 09.06.2019
6615 Clear 12 1021 66 10000 8.2 30 12:43 09.06.2019
6616 Clear 12 1020 46 10000 1.5 0 12:25 09.06.2019
6617 Clear 10 1021 70 10000 8.7 30 11:47 09.06.2019
6618 Clear 9 1020 46 10000 3.6 300 11:28 09.06.2019
6619 Clear 9 1021 66 10000 9.8 30 10:46 09.06.2019
6620 Clear 9 1021 66 10000 9.8 30 10:46 09.06.2019
6621 Clear 9 1020 46 10000 1 0 10:24 09.06.2019
6622 Clear 9 1020 46 10000 1 0 10:24 09.06.2019
6623 Clear 8 1020 49 10000 2.6 190 09:42 09.06.2019
6624 Clear 8 1020 49 10000 2.6 190 09:24 09.06.2019
6625 Clear 7 1019 65 10000 6.7 30 08:58 09.06.2019
6626 Clear 7 1019 52 10000 1.5 150 08:40 09.06.2019
6627 Clear 7 1020 68 10000 5.1 30 07:50 09.06.2019
6628 Clear 6 1019 56 10000 1 0 06:30 09.06.2019
6629 Clear 6 1019 45 10000 3.1 150 05:35 09.06.2019
6630 Clear 8 1020 56 10000 8.2 40 02:52 09.06.2019
6631 Clear 9 1019 39 10000 3.6 20 01:36 09.06.2019
6632 Clear 10 1019 39 10000 3.6 20 01:18 09.06.2019
6633 Clear 11 1019 37 10000 5.7 30 00:22 09.06.2019
6634 Clear 12 1019 32 10000 8.2 20 23:40 08.06.2019
6635 Clear 12 1019 32 10000 8.2 20 23:22 08.06.2019
6636 Clear 12 1019 53 10000 7.7 20 22:44 08.06.2019
6637 Clear 12 1018 30 10000 9.3 20 22:25 08.06.2019
6638 Clear 13 1019 52 10000 9.3 10 21:54 08.06.2019
6639 Clear 13 1018 32 10000 8.2 20 21:35 08.06.2019
6640 Clear 13 1018 32 10000 8.2 20 21:35 08.06.2019
6641 Clear 13 1018 32 10000 8.2 20 21:35 08.06.2019
6642 Clear 14 1019 40 10000 10.3 10 20:59 08.06.2019
6643 Clear 14 1018 28 10000 9.3 10 20:40 08.06.2019
6644 Clear 14 1018 28 10000 9.3 10 20:21 08.06.2019
6645 Clear 14 1019 44 10000 9.8 10 19:43 08.06.2019
6646 Clear 14 1018 28 10000 8.7 10 19:23 08.06.2019
6647 Clear 15 1019 41 10000 10.8 20 18:58 08.06.2019
6648 Clear 15 1018 26 10000 10.3 360 18:39 08.06.2019
6649 Clear 15 1018 26 10000 10.3 360 18:20 08.06.2019
6650 Clear 14 1018 26 10000 9.3 360 17:42 08.06.2019
6651 Clear 14 1018 26 10000 9.3 360 17:19 08.06.2019
6652 Clear 14 1019 37 10000 9.8 20 16:45 08.06.2019
6653 Clear 14 1019 16 10000 6.7 10 16:26 08.06.2019
6654 Clear 14 1019 32 10000 7.7 10 15:42 08.06.2019
6655 Clear 14 1019 19 10000 4.1 20 15:22 08.06.2019
6656 Clear 13 1019 26 10000 7.2 30 14:47 08.06.2019
6657 Clear 13 1019 24 10000 3.6 340 14:27 08.06.2019
6658 Clear 12 1019 18 10000 4.1 350 13:40 08.06.2019
6659 Clear 12 1019 39 10000 7.2 20 12:52 08.06.2019
6660 Clear 12 1019 22 10000 1.5 0 12:32 08.06.2019
6661 Clear 11 1019 43 10000 6.2 30 11:44 08.06.2019
6662 Clear 11 1019 43 10000 6.2 30 11:44 08.06.2019
6663 Clear 11 1019 21 10000 2.1 340 11:25 08.06.2019
6664 Clear 9 1019 43 10000 5.7 30 10:46 08.06.2019
6665 Clear 9 1019 34 10000 1.5 340 10:24 08.06.2019
6666 Clear 9 1019 70 10000 2.6 10 09:52 08.06.2019
6667 Clear 8 1019 31 10000 1 0 09:28 08.06.2019
6668 Clear 8 1019 33 10000 3.1 80 08:39 08.06.2019
6669 Clear 7 1019 33 10000 3.1 80 08:18 08.06.2019
6670 Clear 7 1019 70 10000 3.1 60 06:51 08.06.2019
6671 Clear 6 1018 75 10000 2.1 50 05:53 08.06.2019
6672 Clear 7 1018 36 10000 3.6 90 03:34 08.06.2019
6673 Clear 8 1018 70 10000 4.6 10 01:59 08.06.2019
6674 Clear 12 1017 34 10000 5.1 10 00:29 08.06.2019
6675 Clear 13 1018 53 10000 7.7 350 23:52 07.06.2019
6676 Clear 11 1017 30 10000 5.7 10 23:21 07.06.2019
6677 Clear 12 1018 53 10000 8.2 340 22:49 07.06.2019
6678 Clear 12 1017 32 10000 5.7 340 22:30 07.06.2019
6679 Clear 12 1018 50 10000 8.7 340 21:54 07.06.2019
6680 Clear 13 1016 48 10000 6.7 320 21:31 07.06.2019
6681 Clear 13 1017 50 10000 10.8 340 20:57 07.06.2019
6682 Clear 12 1016 35 10000 6.2 330 20:38 07.06.2019
6683 Clear 12 1016 35 10000 6.2 330 20:38 07.06.2019
6684 Clear 12 1017 50 10000 10.3 330 19:52 07.06.2019
6685 Clear 11 1016 40 10000 7.7 310 19:27 07.06.2019
6686 Clear 12 1018 50 10000 10.3 330 18:59 07.06.2019
6687 Clear 12 1016 40 10000 8.7 310 18:37 07.06.2019
6688 Clear 12 1016 40 10000 8.7 310 18:19 07.06.2019
6689 Clear 12 1017 37 10000 9.3 300 17:41 07.06.2019
6690 Clear 13 1017 37 10000 9.3 300 17:19 07.06.2019
6691 Clear 13 1017 40 10000 7.7 290 16:41 07.06.2019
6692 Clear 13 1019 37 10000 7.7 360 15:55 07.06.2019
6693 Clear 12 1018 26 10000 5.7 10 15:28 07.06.2019
6694 Clear 12 1019 37 10000 8.2 360 14:49 07.06.2019
6695 Clear 12 1018 24 10000 8.2 360 14:27 07.06.2019
6696 Clear 11 1019 45 10000 9.8 360 13:53 07.06.2019
6697 Clear 11 1018 27 10000 9.3 10 13:27 07.06.2019
6698 Clear 12 1019 45 10000 8.7 360 12:51 07.06.2019
6699 Clear 10 1018 21 10000 8.2 350 12:29 07.06.2019
6700 Clear 10 1019 49 10000 8.2 10 11:57 07.06.2019
6701 Clear 9 1018 27 10000 7.2 350 11:34 07.06.2019
6702 Clear 9 1019 48 10000 7.7 10 10:59 07.06.2019
6703 Clea